# Wetter Temperatur Luftdruck Luftfeuchtigkeit Sichtweite Windgeschwindigkeit Windrichtung Zeit
1 Clouds 33 1009 52 10000 4.1 110 10:20 08.04.2020
2 Clouds 34 1009 50 10000 3.6 0 09:56 08.04.2020
3 Clouds 34 1009 50 10000 3.6 0 09:38 08.04.2020
4 Clouds 35 1009 50 10000 3.6 0 09:18 08.04.2020
5 Clouds 35 1009 56 10000 4.1 280 08:42 08.04.2020
6 Clouds 34 1009 56 10000 4.1 280 08:23 08.04.2020
7 Clouds 34 1009 56 10000 4.1 280 08:23 08.04.2020
8 Clouds 34 1010 59 10000 4.6 280 07:47 08.04.2020
9 Clouds 34 1010 59 10000 4.6 280 07:28 08.04.2020
10 Clouds 33 1011 59 10000 4.1 280 06:59 08.04.2020
11 Clouds 33 1011 59 10000 4.1 280 06:19 08.04.2020
12 Clouds 31 1012 62 10000 4.1 280 04:19 08.04.2020
13 Clouds 30 1012 66 10000 3.6 10 02:49 08.04.2020
14 Clouds 29 1012 66 10000 3.6 10 02:20 08.04.2020
15 Clouds 28 1011 74 10000 3.6 10 01:45 08.04.2020
16 Clouds 28 1011 74 10000 3.6 10 01:23 08.04.2020
17 Clouds 27 1010 74 10000 3.6 10 00:41 08.04.2020
18 Clouds 27 1010 74 10000 3.6 10 00:21 08.04.2020
19 Clouds 27 1010 69 10000 3.1 10 23:39 07.04.2020
20 Clouds 27 1010 69 10000 3.1 10 23:21 07.04.2020
21 Clouds 27 1010 74 10000 2.1 260 22:57 07.04.2020
22 Clouds 27 1010 74 10000 2.1 260 22:39 07.04.2020
23 Clouds 27 1010 74 10000 2.1 260 22:19 07.04.2020
24 Clouds 28 1010 78 10000 1 0 21:56 07.04.2020
25 Clouds 28 1010 78 10000 1 0 21:56 07.04.2020
26 Clouds 28 1010 78 10000 1 0 21:38 07.04.2020
27 Clouds 28 1010 78 10000 1 0 21:19 07.04.2020
28 Rain 28 1010 78 10000 1 0 20:56 07.04.2020
29 Rain 28 1010 78 10000 1 0 20:37 07.04.2020
30 Rain 28 1010 78 10000 1 0 20:19 07.04.2020
31 Clouds 28 1010 70 10000 1.83 54 19:56 07.04.2020
32 Clouds 28 1010 70 10000 1.83 54 19:56 07.04.2020
33 Clouds 28 1010 70 10000 1.83 54 19:36 07.04.2020
34 Clouds 28 1012 74 10000 1 0 19:18 07.04.2020
35 Clouds 29 1012 74 10000 1 0 18:54 07.04.2020
36 Clouds 29 1012 74 10000 1 0 18:36 07.04.2020
37 Clouds 29 1012 74 10000 1 0 18:18 07.04.2020
38 Clouds 29 1011 74 10000 1 0 17:41 07.04.2020
39 Clouds 29 1011 74 10000 1 0 17:20 07.04.2020
40 Clouds 29 1011 74 10000 1 0 16:45 07.04.2020
41 Clouds 29 1011 74 10000 1 0 16:26 07.04.2020
42 Clouds 29 1010 74 10000 2.1 220 15:47 07.04.2020
43 Clouds 29 1010 74 10000 2.6 240 15:27 07.04.2020
44 Clouds 29 1010 74 10000 2.6 240 14:58 07.04.2020
45 Clouds 29 1010 74 10000 2.6 240 14:39 07.04.2020
46 Clouds 29 1010 74 10000 2.6 240 14:20 07.04.2020
47 Clouds 30 1009 66 10000 3.1 240 13:43 07.04.2020
48 Clouds 30 1009 66 10000 3.1 240 13:21 07.04.2020
49 Clouds 30 1009 66 10000 4.6 240 12:59 07.04.2020
50 Clouds 30 1009 66 10000 4.6 240 12:39 07.04.2020
51 Clouds 30 1009 66 10000 4.6 240 12:21 07.04.2020
52 Clouds 31 1008 66 10000 7.2 260 11:58 07.04.2020
53 Clouds 31 1008 66 10000 7.2 260 11:40 07.04.2020
54 Clouds 32 1008 66 10000 7.2 260 11:21 07.04.2020
55 Clouds 33 1008 62 10000 7.2 260 10:54 07.04.2020
56 Clouds 33 1008 62 10000 7.2 260 10:36 07.04.2020
57 Clouds 33 1008 62 10000 7.2 260 10:18 07.04.2020
58 Clouds 35 1008 46 10000 5.1 280 09:40 07.04.2020
59 Clouds 34 1008 46 10000 5.1 280 09:18 07.04.2020
60 Clouds 35 1009 44 10000 4.1 300 08:40 07.04.2020
61 Clouds 35 1009 44 10000 4.1 300 08:21 07.04.2020
62 Clouds 35 1010 50 10000 4.1 290 07:47 07.04.2020
63 Clouds 35 1010 50 10000 4.1 290 07:26 07.04.2020
64 Clouds 34 1011 46 10000 2.1 0 06:53 07.04.2020
65 Clouds 33 1011 46 10000 2.1 0 06:27 07.04.2020
66 Clouds 33 1012 52 10000 2.1 0 05:59 07.04.2020
67 Clouds 33 1012 52 10000 2.1 0 05:26 07.04.2020
68 Clouds 32 1012 55 10000 2.6 130 04:22 07.04.2020
69 Clouds 30 1012 62 10000 1.5 0 03:23 07.04.2020
70 Clouds 31 1012 66 10000 2.1 0 02:46 07.04.2020
71 Clouds 28 1011 74 10000 1 0 01:40 07.04.2020
72 Clouds 28 1011 74 10000 1 0 01:21 07.04.2020
73 Clouds 27 1011 74 10000 1 0 00:26 07.04.2020
74 Clouds 27 1010 74 10000 1 0 23:43 06.04.2020
75 Clouds 27 1010 74 10000 1 0 23:22 06.04.2020
76 Clouds 27 1010 74 10000 1 0 23:22 06.04.2020
77 Clouds 26 1010 78 10000 1 70 22:55 06.04.2020
78 Clouds 27 1010 78 10000 1 70 22:37 06.04.2020
79 Clouds 27 1010 78 10000 1 70 22:18 06.04.2020
80 Clouds 27 1010 74 10000 1.5 80 21:43 06.04.2020
81 Clouds 27 1010 74 10000 1.5 80 21:20 06.04.2020
82 Clouds 27 1010 65 10000 2.6 0 20:58 06.04.2020
83 Clouds 27 1010 65 10000 2.6 0 20:58 06.04.2020
84 Clouds 27 1010 65 10000 2.6 0 20:40 06.04.2020
85 Clouds 27 1010 65 10000 2.6 0 20:21 06.04.2020
86 Clouds 27 1010 65 10000 2.6 120 19:58 06.04.2020
87 Clouds 28 1010 65 10000 2.6 120 19:39 06.04.2020
88 Clouds 28 1011 69 10000 2.1 0 19:20 06.04.2020
89 Clouds 28 1011 69 10000 2.1 0 18:43 06.04.2020
90 Clouds 28 1011 69 10000 2.1 0 18:24 06.04.2020
91 Clouds 29 1011 62 10000 2.6 0 17:59 06.04.2020
92 Clouds 29 1011 62 10000 2.6 0 17:41 06.04.2020
93 Clouds 29 1011 62 10000 2.6 0 17:18 06.04.2020
94 Clouds 29 1011 66 10000 3.1 120 16:49 06.04.2020
95 Clouds 29 1011 66 10000 3.1 120 16:30 06.04.2020
96 Clouds 29 1010 66 10000 3.6 120 14:57 06.04.2020
97 Clouds 29 1010 66 10000 3.6 120 14:57 06.04.2020
98 Clouds 29 1010 66 10000 3.6 120 14:57 06.04.2020
99 Clouds 30 1009 62 10000 3.6 120 13:45 06.04.2020
100 Clouds 30 1009 62 10000 3.6 120 13:22 06.04.2020
101 Clouds 31 1009 58 10000 4.1 120 12:46 06.04.2020
102 Clouds 31 1009 58 10000 4.1 120 12:20 06.04.2020
103 Clouds 31 1009 58 10000 4.1 120 12:20 06.04.2020
104 Clouds 32 1008 55 10000 5.1 110 11:42 06.04.2020
105 Clouds 32 1008 55 10000 5.1 110 11:23 06.04.2020
106 Clouds 32 1008 55 10000 5.1 110 11:23 06.04.2020
107 Clouds 32 1008 55 10000 5.1 110 11:23 06.04.2020
108 Clouds 32 1008 55 10000 5.1 110 11:22 06.04.2020
109 Clouds 32 1008 55 10000 5.1 110 11:22 06.04.2020
110 Clouds 33 1008 52 10000 3.6 0 10:42 06.04.2020
111 Clouds 33 1008 52 10000 3.6 0 10:42 06.04.2020
112 Clouds 33 1008 52 10000 3.6 0 10:42 06.04.2020
113 Clouds 33 1008 52 10000 3.6 0 10:42 06.04.2020
114 Clouds 33 1008 52 10000 3.6 0 10:42 06.04.2020
115 Clouds 33 1008 52 10000 3.6 0 10:21 06.04.2020
116 Clouds 33 1009 49 10000 5.7 120 09:40 06.04.2020
117 Clouds 33 1009 49 10000 5.7 120 09:40 06.04.2020
118 Clouds 33 1009 49 10000 5.7 120 09:20 06.04.2020
119 Clouds 33 1009 49 10000 5.7 120 09:20 06.04.2020
120 Clouds 34 1010 49 10000 4.1 140 08:47 06.04.2020
121 Clouds 34 1010 49 10000 4.1 140 08:29 06.04.2020
122 Clouds 34 1010 49 10000 4.1 140 08:29 06.04.2020
123 Clouds 34 1010 49 10000 4.1 140 08:29 06.04.2020
124 Clouds 34 1010 49 10000 4.1 140 08:29 06.04.2020
125 Clouds 34 1010 49 10000 4.1 140 08:28 06.04.2020
126 Clouds 34 1011 47 10000 4.1 0 07:23 06.04.2020
127 Clouds 33 1012 52 10000 4.6 120 06:27 06.04.2020
128 Clouds 32 1013 55 10000 3.6 130 05:54 06.04.2020
129 Clouds 31 1014 58 10000 3.6 110 03:57 06.04.2020
130 Clouds 29 1014 62 10000 3.1 90 02:52 06.04.2020
131 Clouds 29 1013 69 10000 2.1 90 01:56 06.04.2020
132 Clouds 29 1013 69 10000 2.1 90 01:56 06.04.2020
133 Clouds 27 1013 78 10000 1 90 00:55 06.04.2020
134 Clouds 26 1013 78 10000 1 90 00:28 06.04.2020
135 Clouds 26 1013 78 10000 1 90 00:28 06.04.2020
136 Clouds 26 1012 78 10000 2.1 80 23:52 05.04.2020
137 Clouds 26 1012 78 10000 2.1 80 23:33 05.04.2020
138 Clouds 26 1011 78 10000 2.1 90 22:58 05.04.2020
139 Clouds 26 1011 78 10000 2.1 90 22:40 05.04.2020
140 Clouds 26 1011 78 10000 2.1 90 22:22 05.04.2020
141 Clouds 26 1011 74 10000 1.5 90 21:59 05.04.2020
142 Clouds 26 1011 74 10000 1.5 90 21:41 05.04.2020
143 Clouds 26 1011 74 10000 1.5 90 21:41 05.04.2020
144 Clouds 26 1011 74 10000 1.5 90 21:22 05.04.2020
145 Clouds 26 1011 74 10000 1.5 90 21:22 05.04.2020
146 Clouds 27 1012 69 10000 3.1 120 20:22 05.04.2020
147 Clouds 27 1012 69 10000 4.1 120 19:43 05.04.2020
148 Clouds 27 1012 69 10000 4.1 120 19:22 05.04.2020
149 Clouds 27 1013 69 10000 4.1 120 18:47 05.04.2020
150 Clouds 27 1013 69 10000 4.1 120 18:18 05.04.2020
151 Clouds 27 1013 69 10000 3.6 110 17:42 05.04.2020
152 Clouds 27 1013 69 10000 3.6 110 17:42 05.04.2020
153 Clouds 27 1013 69 10000 3.6 110 17:42 05.04.2020
154 Clouds 27 1013 69 10000 3.6 110 17:42 05.04.2020
155 Clouds 28 1013 69 10000 3.6 110 17:21 05.04.2020
156 Clouds 28 1013 69 10000 3.6 110 17:21 05.04.2020
157 Clouds 28 1013 69 10000 3.6 110 17:21 05.04.2020
158 Clouds 28 1013 65 10000 4.1 120 16:47 05.04.2020
159 Clouds 28 1013 65 10000 4.1 120 16:47 05.04.2020
160 Clouds 28 1013 65 10000 4.1 120 16:47 05.04.2020
161 Clouds 28 1013 65 10000 4.1 120 16:18 05.04.2020
162 Clouds 28 1013 69 10000 4.1 120 15:45 05.04.2020
163 Clouds 28 1013 69 10000 4.1 120 15:25 05.04.2020
164 Clouds 29 1012 55 10000 3.6 110 14:48 05.04.2020
165 Clouds 29 1012 55 10000 3.6 110 14:48 05.04.2020
166 Clouds 29 1012 55 10000 3.6 110 14:48 05.04.2020
167 Clouds 29 1012 55 10000 3.6 110 14:48 05.04.2020
168 Clouds 30 1012 62 10000 3.6 350 13:47 05.04.2020
169 Clouds 30 1012 62 10000 3.6 350 13:47 05.04.2020
170 Clouds 31 1010 46 10000 4.6 110 13:01 05.04.2020
171 Clouds 32 1010 41 10000 4.6 130 11:58 05.04.2020
172 Clouds 32 1010 41 10000 4.6 130 11:38 05.04.2020
173 Clouds 33 1010 41 10000 4.6 130 11:19 05.04.2020
174 Clouds 33 1010 40 10000 5.1 130 10:45 05.04.2020
175 Clouds 33 1010 40 10000 5.1 130 10:21 05.04.2020
176 Clouds 34 1010 44 10000 8.2 150 09:52 05.04.2020
177 Clouds 34 1010 44 10000 8.2 150 09:52 05.04.2020
178 Clouds 34 1010 44 10000 8.2 150 09:52 05.04.2020
179 Clouds 34 1010 44 10000 8.2 150 09:25 05.04.2020
180 Clouds 34 1010 44 10000 8.2 150 09:25 05.04.2020
181 Clouds 34 1010 44 10000 8.2 150 09:25 05.04.2020
182 Clouds 34 1010 44 10000 8.2 150 09:25 05.04.2020
183 Clouds 34 1012 41 10000 5.1 130 07:58 05.04.2020
184 Clouds 32 1014 55 10000 3.6 130 05:11 05.04.2020
185 Clouds 31 1015 66 10000 3.6 110 03:35 05.04.2020
186 Clouds 30 1014 66 10000 3.6 130 02:56 05.04.2020
187 Clouds 29 1014 69 10000 2.6 120 01:52 05.04.2020
188 Clouds 29 1014 69 10000 2.6 120 01:52 05.04.2020
189 Clouds 29 1014 69 10000 2.6 120 01:33 05.04.2020
190 Clouds 25 1013 78 10000 1.5 70 00:48 05.04.2020
191 Clouds 25 1013 78 10000 1.5 70 00:22 05.04.2020
192 Clouds 26 1012 74 10000 2.1 100 23:57 04.04.2020
193 Clouds 26 1012 74 10000 2.1 100 23:38 04.04.2020
194 Clouds 26 1012 74 10000 2.1 100 23:20 04.04.2020
195 Clouds 25 1012 78 10000 2.1 80 22:56 04.04.2020
196 Clouds 26 1012 78 10000 2.1 80 22:37 04.04.2020
197 Clouds 26 1012 78 10000 2.1 80 22:19 04.04.2020
198 Clouds 26 1012 78 10000 2.6 110 21:55 04.04.2020
199 Clouds 26 1012 78 10000 2.6 110 21:36 04.04.2020
200 Clouds 26 1012 78 10000 2.6 110 21:18 04.04.2020
201 Clouds 26 1012 74 10000 2.6 100 20:42 04.04.2020
202 Clouds 26 1012 74 10000 2.6 100 20:23 04.04.2020
203 Clouds 27 1012 69 10000 3.6 110 19:59 04.04.2020
204 Clouds 27 1012 69 10000 3.6 110 19:38 04.04.2020
205 Clouds 27 1012 69 10000 3.6 110 19:19 04.04.2020
206 Clouds 27 1013 74 10000 3.1 120 18:57 04.04.2020
207 Clouds 27 1013 74 10000 3.1 120 18:38 04.04.2020
208 Clouds 27 1013 74 10000 3.1 120 18:19 04.04.2020
209 Clouds 27 1013 69 10000 3.6 120 17:56 04.04.2020
210 Clouds 28 1013 69 10000 3.6 120 17:38 04.04.2020
211 Clouds 28 1013 69 10000 3.6 120 17:18 04.04.2020
212 Clouds 28 1013 65 10000 3.1 120 16:42 04.04.2020
213 Clouds 28 1013 65 10000 3.1 120 16:23 04.04.2020
214 Clouds 28 1013 62 10000 4.1 120 15:57 04.04.2020
215 Clouds 29 1013 62 10000 4.1 120 15:38 04.04.2020
216 Clouds 29 1013 62 10000 4.1 120 15:19 04.04.2020
217 Clouds 29 1012 62 10000 4.6 120 14:44 04.04.2020
218 Clouds 29 1012 62 10000 4.6 120 14:23 04.04.2020
219 Clouds 29 1011 62 10000 4.1 130 13:56 04.04.2020
220 Clouds 30 1011 62 10000 4.1 130 13:38 04.04.2020
221 Clouds 30 1011 62 10000 4.1 130 13:20 04.04.2020
222 Clouds 30 1011 62 10000 5.1 130 12:46 04.04.2020
223 Clouds 30 1011 62 10000 5.1 130 12:27 04.04.2020
224 Clouds 31 1011 55 10000 4.6 130 11:59 04.04.2020
225 Clouds 31 1011 55 10000 4.6 130 11:40 04.04.2020
226 Clouds 32 1011 55 10000 4.6 130 11:21 04.04.2020
227 Clouds 32 1011 50 10000 5.1 130 10:57 04.04.2020
228 Clouds 32 1011 50 10000 5.1 130 10:39 04.04.2020
229 Clouds 33 1011 50 10000 5.1 130 10:21 04.04.2020
230 Clouds 34 1011 46 10000 4.6 130 09:55 04.04.2020
231 Clouds 34 1011 46 10000 4.6 130 09:37 04.04.2020
232 Clouds 34 1011 46 10000 4.6 130 09:19 04.04.2020
233 Clouds 34 1011 46 10000 5.1 0 08:42 04.04.2020
234 Clouds 34 1011 46 10000 5.1 0 08:21 04.04.2020
235 Clouds 34 1012 46 10000 4.6 140 07:47 04.04.2020
236 Clouds 34 1012 46 10000 4.6 140 07:27 04.04.2020
237 Clouds 33 1013 52 10000 4.6 140 06:57 04.04.2020
238 Clouds 33 1013 52 10000 4.6 140 06:20 04.04.2020
239 Clouds 33 1014 52 10000 4.1 140 05:43 04.04.2020
240 Clouds 33 1014 52 10000 4.1 140 05:24 04.04.2020
241 Clouds 32 1015 58 10000 2.6 0 04:33 04.04.2020
242 Clouds 31 1015 55 10000 3.1 120 03:55 04.04.2020
243 Clouds 31 1015 55 10000 3.1 120 03:22 04.04.2020
244 Clouds 30 1014 58 10000 1 0 02:38 04.04.2020
245 -273 0 0 0 0 0 02:20 04.04.2020
246 Clouds 28 1014 69 10000 1.5 0 01:26 04.04.2020
247 Clouds 26 1013 73 10000 1.5 60 00:52 04.04.2020
248 Clouds 25 1013 73 10000 1.5 60 00:30 04.04.2020
249 Clouds 25 1013 73 10000 1.5 60 00:30 04.04.2020
250 Clouds 25 1012 69 10000 1 80 23:41 03.04.2020
251 Clouds 25 1012 69 10000 1 80 23:21 03.04.2020
252 Clouds 26 1012 65 10000 1.5 80 22:59 03.04.2020
253 Clouds 26 1012 65 10000 1.5 80 22:39 03.04.2020
254 Clouds 26 1012 65 10000 1.5 80 22:39 03.04.2020
255 Clouds 26 1012 65 10000 1.5 80 22:19 03.04.2020
256 Clouds 26 1012 74 10000 1.5 90 21:45 03.04.2020
257 Clouds 26 1012 74 10000 1.5 90 21:26 03.04.2020
258 Clouds 26 1013 69 10000 2.1 80 20:57 03.04.2020
259 Clouds 27 1013 69 10000 2.1 80 20:39 03.04.2020
260 Clouds 27 1013 69 10000 2.1 80 20:21 03.04.2020
261 Clouds 27 1013 65 10000 3.1 120 19:58 03.04.2020
262 Clouds 27 1013 65 10000 3.1 120 19:39 03.04.2020
263 Clouds 27 1013 65 10000 3.1 120 19:21 03.04.2020
264 Clouds 27 1013 61 10000 3.1 130 18:59 03.04.2020
265 Clouds 28 1013 61 10000 3.1 130 18:41 03.04.2020
266 Clouds 28 1013 61 10000 3.1 130 18:41 03.04.2020
267 Clouds 28 1013 61 10000 3.1 130 18:23 03.04.2020
268 Clouds 28 1014 61 10000 3.6 130 17:57 03.04.2020
269 Clouds 28 1014 61 10000 3.6 130 17:39 03.04.2020
270 Clouds 28 1014 61 10000 3.6 130 17:18 03.04.2020
271 Clouds 29 1013 58 10000 4.1 120 16:45 03.04.2020
272 Clouds 29 1013 58 10000 4.1 120 16:22 03.04.2020
273 Clouds 29 1013 62 10000 4.1 120 15:58 03.04.2020
274 Clouds 29 1013 62 10000 4.1 120 15:40 03.04.2020
275 Clouds 29 1013 62 10000 4.1 120 15:21 03.04.2020
276 Clouds 29 1013 62 10000 3.6 120 14:56 03.04.2020
277 Clear 29 1012 55 0 0.89 115 14:38 03.04.2020
278 Clouds 29 1012 55 10000 4.6 120 14:20 03.04.2020
279 Clouds 30 1012 55 10000 4.6 120 13:43 03.04.2020
280 Clouds 30 1012 55 10000 4.6 120 13:25 03.04.2020
281 Clouds 31 1012 49 10000 4.1 120 12:56 03.04.2020
282 Clouds 31 1012 49 10000 4.1 120 12:37 03.04.2020
283 Clouds 31 1012 49 10000 4.1 120 12:18 03.04.2020
284 Clouds 31 1012 49 10000 4.1 120 12:18 03.04.2020
285 Clouds 32 1011 46 10000 4.1 130 11:54 03.04.2020
286 Clouds 32 1011 46 10000 4.1 130 11:36 03.04.2020
287 Clouds 33 1011 46 10000 4.1 130 11:18 03.04.2020
288 Clouds 34 1011 46 10000 4.1 130 10:54 03.04.2020
289 Clouds 34 1011 46 10000 4.1 130 10:36 03.04.2020
290 Clouds 34 1011 46 10000 4.1 130 10:18 03.04.2020
291 Clouds 34 1011 49 10000 5.7 0 09:40 03.04.2020
292 Clouds 34 1011 49 10000 5.7 0 09:40 03.04.2020
293 Clouds 34 1011 49 10000 5.7 0 09:22 03.04.2020
294 Clouds 34 1011 49 10000 4.6 130 08:57 03.04.2020
295 Clouds 34 1011 49 10000 4.6 130 08:39 03.04.2020
296 Clouds 34 1011 49 10000 4.6 130 08:20 03.04.2020
297 Clouds 34 1012 49 10000 4.1 0 07:50 03.04.2020
298 Clouds 34 1012 49 10000 4.1 0 07:31 03.04.2020
299 Clouds 34 1014 44 10000 4.1 130 06:49 03.04.2020
300 Clouds 33 1014 44 10000 4.1 130 06:24 03.04.2020
301 Clouds 33 1015 49 10000 1.5 0 05:40 03.04.2020
302 Clouds 31 1015 48 10000 2.1 100 03:45 03.04.2020
303 Clouds 31 1015 48 10000 2.1 100 03:23 03.04.2020
304 Clouds 30 1015 62 10000 3.1 80 02:28 03.04.2020
305 Clouds 28 1014 69 10000 2.1 40 01:23 03.04.2020
306 Clouds 26 1013 83 10000 1.5 90 00:40 03.04.2020
307 Clouds 25 1013 83 10000 1.5 90 00:20 03.04.2020
308 Clouds 25 1013 78 10000 3.6 60 23:42 02.04.2020
309 Clouds 25 1013 78 10000 3.6 60 23:23 02.04.2020
310 Clouds 26 1012 78 10000 1 0 22:58 02.04.2020
311 Clouds 26 1012 78 10000 1 0 22:39 02.04.2020
312 Clouds 26 1012 78 10000 1 0 22:20 02.04.2020
313 Clouds 26 1012 69 10000 1.5 80 21:54 02.04.2020
314 Clouds 26 1012 69 10000 1.5 80 21:36 02.04.2020
315 Clouds 26 1012 69 10000 1.5 80 21:18 02.04.2020
316 Clouds 27 1012 65 10000 1.5 90 20:42 02.04.2020
317 Clouds 27 1012 65 10000 1.5 90 20:21 02.04.2020
318 Clouds 26 1013 78 10000 3.1 0 19:45 02.04.2020
319 Clouds 26 1013 78 10000 3.1 0 19:21 02.04.2020
320 Clouds 27 1013 69 10000 3.1 110 19:00 02.04.2020
321 Clouds 27 1013 69 10000 3.1 110 18:41 02.04.2020
322 Clouds 27 1013 69 10000 3.1 110 18:20 02.04.2020
323 Clouds 27 1013 78 10000 3.1 110 17:57 02.04.2020
324 Clouds 27 1013 78 10000 3.1 110 17:39 02.04.2020
325 Clouds 27 1013 78 10000 3.1 110 17:20 02.04.2020
326 Clouds 27 1013 69 10000 3.1 100 16:56 02.04.2020
327 Clouds 28 1013 69 10000 3.1 100 16:37 02.04.2020
328 Clouds 28 1013 69 10000 3.1 100 16:19 02.04.2020
329 Clouds 28 1013 65 10000 3.1 110 15:45 02.04.2020
330 Clouds 28 1013 65 10000 3.1 110 15:22 02.04.2020
331 Clouds 29 1012 62 10000 3.1 100 14:59 02.04.2020
332 Clouds 29 1012 62 10000 3.1 100 14:40 02.04.2020
333 Clouds 29 1012 62 10000 3.1 100 14:20 02.04.2020
334 Clouds 29 1012 58 10000 4.1 100 13:57 02.04.2020
335 Clouds 30 1012 58 10000 4.1 100 13:38 02.04.2020
336 Clouds 30 1012 58 10000 4.1 100 13:38 02.04.2020
337 Clouds 30 1012 58 10000 4.1 100 13:20 02.04.2020
338 Clouds 31 1011 58 10000 3.6 100 12:56 02.04.2020
339 Clouds 31 1011 58 10000 3.6 100 12:37 02.04.2020
340 Clouds 31 1011 58 10000 3.6 100 12:19 02.04.2020
341 Clouds 32 1011 55 10000 4.1 120 11:56 02.04.2020
342 Clouds 32 1011 55 10000 4.1 120 11:37 02.04.2020
343 Clouds 32 1011 55 10000 4.1 120 11:37 02.04.2020
344 Clouds 32 1011 55 10000 4.1 120 11:18 02.04.2020
345 Clouds 33 1010 52 10000 4.6 120 10:54 02.04.2020
346 Clouds 33 1010 52 10000 4.6 120 10:36 02.04.2020
347 Clouds 33 1010 52 10000 4.6 120 10:18 02.04.2020
348 Clouds 33 1011 52 10000 5.7 110 09:43 02.04.2020
349 Clouds 34 1011 52 10000 5.7 110 09:24 02.04.2020
350 Clouds 34 1012 49 10000 7.2 120 08:58 02.04.2020
351 Clouds 34 1012 49 10000 7.2 120 08:40 02.04.2020
352 Clouds 34 1012 49 10000 7.2 120 08:20 02.04.2020
353 Clouds 33 1012 52 10000 7.2 110 07:43 02.04.2020
354 Clouds 34 1012 52 10000 7.2 110 07:20 02.04.2020
355 Clouds 33 1013 55 10000 6.2 120 06:57 02.04.2020
356 Clouds 33 1013 55 10000 6.2 120 06:21 02.04.2020
357 Clouds 33 1014 55 10000 5.7 110 05:42 02.04.2020
358 Clouds 32 1015 62 10000 4.1 110 03:24 02.04.2020
359 Clouds 29 1014 74 10000 2.1 80 01:31 02.04.2020
360 Clouds 27 1013 78 10000 3.47 85 00:42 02.04.2020
361 Clouds 26 1013 78 10000 3.47 85 00:24 02.04.2020
362 Clouds 27 1012 74 10000 2.1 120 23:41 01.04.2020
363 Clouds 27 1012 74 10000 2.1 120 23:20 01.04.2020
364 Clouds 27 1011 74 10000 2.6 120 22:58 01.04.2020
365 Clouds 27 1011 74 10000 2.6 120 22:39 01.04.2020
366 Clouds 27 1011 74 10000 2.6 120 22:39 01.04.2020
367 Clouds 27 1011 74 10000 2.6 120 22:21 01.04.2020
368 Clouds 28 1011 74 10000 3.6 120 21:42 01.04.2020
369 Clouds 28 1011 74 10000 3.6 120 21:42 01.04.2020
370 Clouds 28 1011 74 10000 3.6 120 21:22 01.04.2020
371 Clouds 28 1011 74 10000 3.6 120 21:22 01.04.2020
372 Clouds 28 1011 74 10000 3.6 120 21:22 01.04.2020
373 Clouds 28 1011 74 10000 3.1 120 20:58 01.04.2020
374 Clouds 28 1011 74 10000 3.1 120 20:58 01.04.2020
375 Clouds 28 1011 74 10000 3.1 120 20:40 01.04.2020
376 Clouds 28 1011 74 10000 3.1 120 20:21 01.04.2020
377 Clouds 28 1012 74 10000 3.6 130 20:00 01.04.2020
378 Clouds 28 1012 74 10000 3.6 130 19:41 01.04.2020
379 Clouds 28 1012 74 10000 3.6 130 19:21 01.04.2020
380 Clouds 28 1012 70 10000 3.1 110 18:46 01.04.2020
381 Clouds 29 1012 70 10000 3.1 110 18:26 01.04.2020
382 Clouds 29 1012 66 10000 4.6 110 17:58 01.04.2020
383 Clouds 29 1012 66 10000 4.6 110 17:38 01.04.2020
384 Clouds 29 1012 66 10000 4.6 110 17:20 01.04.2020
385 Clouds 29 1012 70 10000 5.1 110 16:59 01.04.2020
386 Clouds 29 1012 70 10000 5.1 110 16:39 01.04.2020
387 Clouds 29 1012 70 10000 5.1 110 16:21 01.04.2020
388 Clouds 29 1011 66 10000 4.1 120 15:58 01.04.2020
389 Clouds 30 1011 66 10000 4.1 120 15:38 01.04.2020
390 Clouds 30 1011 66 10000 4.1 120 15:19 01.04.2020
391 Clouds 30 1011 66 10000 4.1 120 14:55 01.04.2020
392 Clouds 30 1011 66 10000 4.1 120 14:55 01.04.2020
393 Clouds 30 1011 66 10000 4.1 120 14:37 01.04.2020
394 Clouds 30 1011 66 10000 4.1 120 14:19 01.04.2020
395 Clouds 31 1010 66 10000 4.1 120 13:56 01.04.2020
396 Clouds 31 1010 66 10000 4.1 120 13:37 01.04.2020
397 Clouds 31 1010 66 10000 4.1 120 13:18 01.04.2020
398 Clouds 31 1009 59 10000 1.5 110 12:42 01.04.2020
399 Clouds 32 1009 59 10000 1.5 110 12:24 01.04.2020
400 Clouds 32 1009 49 10000 4.6 130 11:59 01.04.2020
401 Clouds 32 1009 49 10000 4.6 130 11:39 01.04.2020
402 Clouds 33 1009 49 10000 4.6 130 11:20 01.04.2020
403 Clouds 33 1009 49 10000 4.6 140 10:56 01.04.2020
404 Clouds 34 1009 49 10000 4.6 140 10:37 01.04.2020
405 Clouds 34 1009 49 10000 4.6 140 10:37 01.04.2020
406 Clouds 34 1009 49 10000 4.6 140 10:18 01.04.2020
407 Clouds 35 1009 47 10000 5.1 140 09:40 01.04.2020
408 Clouds 35 1009 47 10000 5.1 140 09:21 01.04.2020
409 Clouds 35 1010 50 10000 4.1 0 08:59 01.04.2020
410 Clouds 35 1010 50 10000 4.1 0 08:40 01.04.2020
411 Clouds 34 1010 50 10000 4.1 0 08:18 01.04.2020
412 Clouds 34 1011 56 10000 5.1 130 07:42 01.04.2020
413 Clouds 34 1011 56 10000 5.1 130 07:19 01.04.2020
414 Clouds 34 1012 52 10000 4.1 140 06:47 01.04.2020
415 Clouds 34 1012 52 10000 4.1 140 06:21 01.04.2020
416 Clouds 33 1013 55 10000 3.1 0 05:53 01.04.2020
417 Clouds 33 1013 52 10000 2.6 0 04:29 01.04.2020
418 Clouds 32 1014 62 10000 1.5 0 03:27 01.04.2020
419 Clouds 31 1013 58 10000 1.5 110 02:46 01.04.2020
420 Clouds 29 1013 69 10000 1.5 70 01:53 01.04.2020
421 Clouds 28 1013 69 10000 1.5 70 01:27 01.04.2020
422 Clouds 26 1012 78 10000 1 110 00:47 01.04.2020
423 Clouds 26 1012 78 10000 1 110 00:24 01.04.2020
424 Clouds 26 1011 78 10000 2.17 78 23:59 31.03.2020
425 Clouds 26 1011 78 10000 2.17 78 23:41 31.03.2020
426 Clouds 26 1011 78 10000 2.17 78 23:22 31.03.2020
427 Clouds 26 1011 74 10000 0.5 0 22:41 31.03.2020
428 Clouds 26 1011 74 10000 0.5 0 22:22 31.03.2020
429 Clouds 27 1011 74 10000 1 0 21:58 31.03.2020
430 Clouds 27 1011 74 10000 1 0 21:40 31.03.2020
431 Clouds 27 1011 74 10000 1 0 21:21 31.03.2020
432 Clouds 27 1011 74 10000 1.5 120 20:58 31.03.2020
433 Clouds 27 1011 74 10000 1.5 120 20:57 31.03.2020
434 Clouds 27 1011 74 10000 1.5 120 20:37 31.03.2020
435 Clouds 27 1011 74 10000 1.5 120 20:19 31.03.2020
436 Clouds 28 1011 74 10000 2.6 110 19:57 31.03.2020
437 Clouds 28 1011 74 10000 2.6 110 19:38 31.03.2020
438 Clouds 28 1011 74 10000 2.6 110 19:19 31.03.2020
439 Clouds 28 1012 74 10000 3.1 120 18:44 31.03.2020
440 Clouds 28 1012 74 10000 3.1 120 18:20 31.03.2020
441 Clouds 29 1012 70 10000 3.1 0 17:57 31.03.2020
442 Clouds 29 1012 70 10000 3.1 0 17:57 31.03.2020
443 Clouds 29 1012 70 10000 3.1 0 17:39 31.03.2020
444 Clouds 29 1012 70 10000 3.1 0 17:39 31.03.2020
445 Clouds 29 1012 70 10000 3.1 0 17:21 31.03.2020
446 Clouds 29 1012 66 10000 3.1 130 16:56 31.03.2020
447 Clouds 29 1012 66 10000 3.1 130 16:36 31.03.2020
448 Clouds 29 1012 66 10000 3.1 130 16:18 31.03.2020
449 Clouds 29 1011 70 10000 2.6 140 15:55 31.03.2020
450 Clouds 29 1011 70 10000 2.6 140 15:36 31.03.2020
451 Clouds 29 1011 70 10000 2.6 140 15:18 31.03.2020
452 Clouds 30 1011 66 10000 3.1 140 14:42 31.03.2020
453 Clouds 30 1011 66 10000 3.1 140 14:22 31.03.2020
454 Clouds 31 1010 55 10000 3.1 120 13:58 31.03.2020
455 Clouds 31 1010 55 10000 3.1 120 13:40 31.03.2020
456 Clouds 31 1010 55 10000 3.1 120 13:19 31.03.2020
457 Clouds 31 1010 55 10000 3.1 120 13:19 31.03.2020
458 Clouds 32 1009 49 10000 4.1 110 12:45 31.03.2020
459 Clouds 32 1009 49 10000 4.1 110 12:20 31.03.2020
460 Clouds 32 1009 46 10000 4.6 120 11:56 31.03.2020
461 Clouds 33 1009 46 10000 4.6 120 11:37 31.03.2020
462 Clouds 33 1009 46 10000 4.6 120 11:19 31.03.2020
463 Clouds 34 1009 39 10000 3.6 130 10:55 31.03.2020
464 Clouds 34 1009 39 10000 3.6 130 10:37 31.03.2020
465 Clouds 35 1009 39 10000 3.6 130 10:18 31.03.2020
466 Clouds 35 1009 39 10000 3.6 130 10:18 31.03.2020
467 Clouds 35 1009 39 10000 4.1 0 09:43 31.03.2020
468 Clouds 35 1009 39 10000 4.1 0 09:25 31.03.2020
469 Clouds 35 1010 41 10000 4.6 120 08:58 31.03.2020
470 Clouds 35 1010 41 10000 4.6 120 08:40 31.03.2020
471 Clouds 35 1010 41 10000 4.6 120 08:20 31.03.2020
472 Clouds 34 1011 49 10000 3.6 140 07:57 31.03.2020
473 Clouds 34 1011 49 10000 3.6 140 07:38 31.03.2020
474 Clouds 34 1011 49 10000 3.6 140 07:20 31.03.2020
475 Clouds 33 1012 52 10000 4.1 130 06:51 31.03.2020
476 Clouds 33 1012 52 10000 4.1 130 06:30 31.03.2020
477 Clouds 33 1013 52 10000 3.1 0 05:40 31.03.2020
478 Clouds 32 1014 55 10000 2.1 0 03:43 31.03.2020
479 Clouds 29 1013 58 10000 2.1 10 02:25 31.03.2020
480 Clouds 28 1012 69 10000 1 0 01:46 31.03.2020
481 Clouds 26 1012 78 10000 1.5 70 00:51 31.03.2020
482 Clouds 26 1012 78 10000 1.5 70 00:25 31.03.2020
483 Clouds 26 1011 69 10000 1.5 100 23:58 30.03.2020
484 Clouds 26 1011 69 10000 1.5 100 23:38 30.03.2020
485 Clouds 27 1011 69 10000 1.5 100 23:18 30.03.2020
486 Clouds 27 1011 69 10000 2.1 100 22:55 30.03.2020
487 Clouds 27 1011 69 10000 2.1 100 22:36 30.03.2020
488 Clouds 27 1011 69 10000 2.1 100 22:18 30.03.2020
489 Clouds 27 1011 65 10000 3.1 110 21:55 30.03.2020
490 Clouds 27 1011 65 10000 3.1 110 21:36 30.03.2020
491 Clouds 27 1011 65 10000 3.1 110 21:18 30.03.2020
492 Clouds 27 1011 65 10000 3.1 120 20:42 30.03.2020
493 Clouds 27 1011 65 10000 3.1 120 20:24 30.03.2020
494 Clouds 27 1011 65 10000 3.1 120 20:24 30.03.2020
495 Clouds 27 1011 69 10000 2.6 130 19:59 30.03.2020
496 Clouds 27 1011 69 10000 2.6 130 19:59 30.03.2020
497 Clouds 27 1011 69 10000 2.6 130 19:40 30.03.2020
498 Clouds 27 1011 69 10000 2.6 130 19:21 30.03.2020
499 Clouds 28 1012 69 10000 2.6 120 18:56 30.03.2020
500 Clouds 28 1012 69 10000 2.6 120 18:38 30.03.2020
501 Clouds 28 1012 69 10000 2.6 120 18:38 30.03.2020
502 Clouds 28 1012 69 10000 2.6 120 18:19 30.03.2020
503 Clouds 28 1012 65 10000 3.1 130 17:56 30.03.2020
504 Clouds 28 1012 65 10000 3.1 130 17:56 30.03.2020
505 Clouds 28 1012 65 10000 3.1 130 17:37 30.03.2020
506 Clouds 28 1012 65 10000 3.1 130 17:37 30.03.2020
507 Clouds 28 1012 65 10000 3.1 130 17:18 30.03.2020
508 Clouds 28 1012 65 10000 2.1 130 16:54 30.03.2020
509 Clouds 28 1012 65 10000 2.1 130 16:36 30.03.2020
510 Clouds 28 1012 65 10000 2.1 130 16:18 30.03.2020
511 Clouds 29 1011 58 10000 3.1 100 15:41 30.03.2020
512 Clouds 29 1011 58 10000 3.1 100 15:22 30.03.2020
513 Clouds 29 1011 55 10000 3.1 100 14:59 30.03.2020
514 Clouds 29 1011 55 10000 3.1 100 14:38 30.03.2020
515 Clouds 29 1011 55 10000 3.1 100 14:19 30.03.2020
516 Clouds 29 1011 55 10000 3.1 100 14:19 30.03.2020
517 Clouds 29 1010 62 10000 4.1 110 13:58 30.03.2020
518 Clouds 30 1010 62 10000 4.1 110 13:39 30.03.2020
519 Clouds 30 1010 62 10000 4.1 110 13:20 30.03.2020
520 Clouds 31 1010 55 10000 4.1 100 12:45 30.03.2020
521 Clouds 31 1010 55 10000 4.1 100 12:45 30.03.2020
522 Clouds 31 1010 55 10000 4.1 100 12:22 30.03.2020
523 Clouds 31 1009 52 10000 5.1 120 11:59 30.03.2020
524 Clouds 31 1009 52 10000 5.1 120 11:59 30.03.2020
525 Clouds 31 1009 52 10000 5.1 120 11:41 30.03.2020
526 Clouds 31 1009 52 10000 5.1 120 11:22 30.03.2020
527 Clouds 32 1008 49 10000 6.2 120 10:55 30.03.2020
528 Clouds 32 1008 49 10000 6.2 120 10:37 30.03.2020
529 Clouds 32 1008 49 10000 6.2 120 10:18 30.03.2020
530 Clouds 33 1008 46 10000 5.1 130 09:40 30.03.2020
531 Clouds 33 1008 46 10000 5.1 130 09:40 30.03.2020
532 Clouds 34 1008 46 10000 5.1 130 09:20 30.03.2020
533 Clouds 34 1008 46 10000 5.1 130 09:20 30.03.2020
534 Clouds 34 1009 46 10000 4.6 130 08:57 30.03.2020
535 Clouds 33 1009 46 10000 4.6 130 08:38 30.03.2020
536 Clouds 34 1009 46 10000 4.6 130 08:19 30.03.2020
537 Clouds 33 1010 52 10000 5.7 120 07:43 30.03.2020
538 Clouds 33 1010 52 10000 5.7 120 07:21 30.03.2020
539 Clouds 33 1011 52 10000 4.1 130 06:43 30.03.2020
540 Clouds 33 1011 52 10000 4.1 130 06:25 30.03.2020
541 Clouds 33 1012 55 10000 3.6 140 05:43 30.03.2020
542 Clouds 32 1012 59 10000 3.1 130 04:29 30.03.2020
543 Clouds 32 1012 62 10000 3.1 110 03:54 30.03.2020
544 Clouds 30 1012 66 10000 3.1 100 02:45 30.03.2020
545 Clouds 29 1012 70 10000 2.6 100 01:57 30.03.2020
546 Clouds 27 1011 74 10000 3.1 110 00:59 30.03.2020
547 Clouds 27 1011 74 10000 3.1 110 00:28 30.03.2020
548 Clouds 27 1010 74 10000 2.6 110 23:56 29.03.2020
549 Clouds 27 1010 74 10000 2.6 110 23:37 29.03.2020
550 Clouds 27 1010 74 10000 2.6 110 23:18 29.03.2020
551 Clouds 27 1009 74 10000 4.6 100 22:40 29.03.2020
552 Clouds 27 1009 74 10000 4.6 100 22:20 29.03.2020
553 Clouds 27 1009 69 10000 3.6 110 21:59 29.03.2020
554 Clouds 27 1009 69 10000 3.6 110 21:38 29.03.2020
555 Clouds 28 1009 69 10000 3.6 110 21:20 29.03.2020
556 Clouds 28 1010 69 10000 3.1 110 20:55 29.03.2020
557 Clouds 28 1010 69 10000 3.1 110 20:55 29.03.2020
558 Clouds 28 1010 69 10000 3.1 110 20:37 29.03.2020
559 Clouds 28 1010 69 10000 3.1 110 20:18 29.03.2020
560 Clouds 28 1010 69 10000 3.1 110 20:18 29.03.2020
561 Clouds 28 1010 65 10000 3.6 110 19:55 29.03.2020
562 Clouds 28 1010 65 10000 3.6 110 19:37 29.03.2020
563 Clouds 28 1010 65 10000 3.6 110 19:19 29.03.2020
564 Clouds 28 1011 65 10000 4.1 110 18:55 29.03.2020
565 Clouds 28 1011 65 10000 4.1 110 18:55 29.03.2020
566 Clouds 28 1011 65 10000 4.1 110 18:37 29.03.2020
567 Clouds 28 1011 65 10000 4.1 110 18:18 29.03.2020
568 Clouds 28 1011 69 10000 4.6 110 17:54 29.03.2020
569 Clouds 28 1011 69 10000 4.6 110 17:36 29.03.2020
570 Clouds 28 1011 69 10000 4.6 110 17:18 29.03.2020
571 Clouds 28 1011 69 10000 4.6 110 17:18 29.03.2020
572 Clouds 28 1011 66 10000 4.6 120 16:55 29.03.2020
573 Clouds 29 1011 66 10000 4.6 120 16:36 29.03.2020
574 Clouds 29 1011 66 10000 4.6 120 16:36 29.03.2020
575 Clouds 29 1011 66 10000 4.6 120 16:18 29.03.2020
576 Clouds 29 1010 66 0 3.1 120 15:40 29.03.2020
577 Clouds 29 1010 66 0 3.1 120 15:21 29.03.2020
578 Clouds 29 1010 66 0 3.1 120 15:21 29.03.2020
579 Clouds 29 1010 66 0 3.1 110 14:57 29.03.2020
580 Clouds 29 1010 66 0 3.1 110 14:57 29.03.2020
581 Clouds 29 1010 66 0 3.1 110 14:37 29.03.2020
582 Clouds 30 1010 66 0 3.1 110 14:19 29.03.2020
583 Clouds 30 1009 66 10000 4.6 110 13:55 29.03.2020
584 Clouds 30 1009 66 10000 4.6 110 13:37 29.03.2020
585 Clouds 30 1009 66 10000 4.6 110 13:19 29.03.2020
586 Clouds 31 1009 58 10000 5.1 120 12:54 29.03.2020
587 Clouds 31 1009 58 10000 5.1 120 12:36 29.03.2020
588 Clouds 31 1009 58 10000 5.1 120 12:18 29.03.2020
589 Clouds 32 1008 55 10000 5.7 110 11:38 29.03.2020
590 Clouds 33 1008 55 10000 5.7 110 11:20 29.03.2020
591 Clouds 34 1008 46 10000 5.7 120 10:40 29.03.2020
592 Clouds 34 1008 46 10000 5.7 120 10:21 29.03.2020
593 Clouds 34 1008 49 10000 5.1 120 09:59 29.03.2020
594 Clouds 34 1008 49 10000 5.1 120 09:38 29.03.2020
595 Clouds 34 1008 49 10000 5.1 120 09:19 29.03.2020
596 Clouds 34 1009 49 10000 5.1 120 08:45 29.03.2020
597 Clouds 34 1009 49 10000 5.1 120 08:27 29.03.2020
598 Clouds 34 1011 49 10000 4.6 140 07:48 29.03.2020
599 Clouds 34 1011 49 10000 4.6 140 07:24 29.03.2020
600 Clouds 33 1011 52 10000 4.6 130 06:55 29.03.2020
601 Clouds 33 1012 59 10000 3.1 0 04:57 29.03.2020
602 Clouds 32 1015 58 10000 2.1 110 03:41 29.03.2020
603 Clouds 32 1015 58 10000 2.1 110 03:22 29.03.2020
604 Clouds 30 1012 62 10000 1.5 0 01:44 29.03.2020
605 Clouds 31 1012 62 10000 1.5 0 01:23 29.03.2020
606 Clouds 28 1010 94 10000 1 0 00:48 29.03.2020
607 Clouds 28 1010 94 10000 1 0 00:28 29.03.2020
608 Clouds 27 1011 78 10000 1 0 23:41 28.03.2020
609 Clouds 27 1011 78 10000 1 0 23:23 28.03.2020
610 Clouds 27 1011 78 10000 1 0 23:23 28.03.2020
611 Clouds 27 1011 78 10000 0.5 50 22:54 28.03.2020
612 Clouds 27 1011 78 10000 0.5 50 22:36 28.03.2020
613 Clouds 27 1011 78 10000 0.5 50 22:18 28.03.2020
614 Clouds 26 1011 83 10000 0.5 0 21:40 28.03.2020
615 Clouds 26 1011 83 10000 0.5 0 21:40 28.03.2020
616 Clouds 27 1011 83 10000 0.5 0 21:21 28.03.2020
617 Clouds 27 1011 74 10000 1.5 0 20:58 28.03.2020
618 Clouds 27 1011 74 10000 1.5 0 20:38 28.03.2020
619 Clouds 27 1011 74 10000 1.5 0 20:20 28.03.2020
620 Clouds 28 1011 74 10000 1.5 100 19:56 28.03.2020
621 Clouds 28 1011 74 10000 1.5 100 19:36 28.03.2020
622 Clouds 28 1011 74 10000 1.5 100 19:36 28.03.2020
623 Clouds 28 1011 74 10000 1.5 100 19:18 28.03.2020
624 Clouds 28 1011 69 10000 3.6 110 18:42 28.03.2020
625 Clouds 28 1011 69 10000 3.6 110 18:21 28.03.2020
626 Clouds 28 1012 69 10000 2.1 120 17:56 28.03.2020
627 Clouds 28 1010 68 0 3.68 76 17:36 28.03.2020
628 Clouds 29 1012 66 10000 5.1 120 17:18 28.03.2020
629 Clouds 29 1012 66 10000 5.1 120 16:40 28.03.2020
630 Clouds 29 1012 66 10000 5.1 120 16:20 28.03.2020
631 Clouds 29 1011 70 10000 4.1 100 15:55 28.03.2020
632 Clouds 29 1011 70 10000 4.1 100 15:37 28.03.2020
633 Clouds 29 1011 70 10000 4.1 100 15:18 28.03.2020
634 Clouds 29 1011 70 10000 4.1 120 14:41 28.03.2020
635 Clouds 29 1011 70 10000 4.1 120 14:21 28.03.2020
636 Clouds 29 1011 70 10000 5.7 50 13:44 28.03.2020
637 Clouds 29 1011 70 10000 5.7 50 13:25 28.03.2020
638 Clouds 30 1009 66 10000 4.1 110 12:57 28.03.2020
639 Clouds 30 1009 66 10000 4.1 110 12:37 28.03.2020
640 Clouds 30 1009 66 10000 4.1 110 12:18 28.03.2020
641 Clouds 31 1009 52 10000 4.6 120 11:41 28.03.2020
642 Clouds 31 1009 52 10000 4.6 120 11:20 28.03.2020
643 Clouds 32 1008 43 10000 4.1 120 10:40 28.03.2020
644 Clouds 32 1008 43 10000 4.1 120 10:22 28.03.2020
645 Clouds 34 1008 38 10000 5.7 120 09:43 28.03.2020
646 Clouds 34 1008 38 10000 5.7 120 09:24 28.03.2020
647 Clouds 34 1008 38 10000 5.1 130 08:59 28.03.2020
648 Clouds 34 1008 38 10000 5.1 130 08:41 28.03.2020
649 Clouds 34 1008 38 10000 5.1 130 08:22 28.03.2020
650 Clouds 34 1009 41 10000 4.1 0 07:46 28.03.2020
651 Clouds 34 1009 41 10000 4.1 0 07:28 28.03.2020
652 Clouds 34 1010 46 10000 4.6 120 06:36 28.03.2020
653 Clouds 34 1011 55 10000 2.1 0 05:54 28.03.2020
654 Clouds 33 1011 55 10000 2.1 0 05:21 28.03.2020
655 Clouds 33 1012 55 10000 2.1 0 04:42 28.03.2020
656 Clouds 33 1013 52 10000 2.6 0 03:54 28.03.2020
657 Clouds 31 1013 58 10000 3.6 90 02:25 28.03.2020
658 Clouds 30 1013 62 9000 2.6 110 01:41 28.03.2020
659 Clouds 30 1013 62 9000 2.6 110 01:18 28.03.2020
660 Clouds 29 1012 69 8000 1.5 100 00:37 28.03.2020
661 Clouds 27 1011 74 10000 1.5 80 23:57 27.03.2020
662 Clouds 27 1011 74 10000 1.5 80 23:39 27.03.2020
663 Clouds 26 1011 74 10000 1.5 80 23:21 27.03.2020
664 Clouds 26 1011 83 10000 3.1 70 22:56 27.03.2020
665 Clouds 26 1011 83 10000 3.1 70 22:37 27.03.2020
666 Clouds 26 1011 83 10000 3.1 70 22:19 27.03.2020
667 Clouds 27 1011 74 10000 2.1 110 21:43 27.03.2020
668 Clouds 27 1011 74 10000 2.1 110 21:24 27.03.2020
669 Clouds 27 1011 74 10000 2.1 130 20:58 27.03.2020
670 Clouds 27 1011 74 10000 2.1 130 20:40 27.03.2020
671 Clouds 27 1011 74 10000 2.1 130 20:20 27.03.2020
672 Clouds 27 1011 74 10000 3.1 110 19:57 27.03.2020
673 Clouds 27 1011 74 10000 3.1 110 19:39 27.03.2020
674 Clouds 28 1011 74 10000 3.1 110 19:20 27.03.2020
675 Clouds 28 1011 74 10000 2.6 110 18:44 27.03.2020
676 Clouds 28 1011 74 10000 2.6 110 18:24 27.03.2020
677 Clouds 28 1012 74 10000 3.1 100 17:57 27.03.2020
678 Clouds 28 1012 74 10000 3.1 100 17:38 27.03.2020
679 Clouds 28 1012 74 10000 3.1 100 17:19 27.03.2020
680 Clouds 28 1012 74 10000 3.6 110 16:44 27.03.2020
681 Clouds 28 1012 74 10000 3.6 110 16:25 27.03.2020
682 Clouds 28 1012 66 10000 4.1 110 15:46 27.03.2020
683 Clouds 29 1012 66 10000 4.1 110 15:27 27.03.2020
684 Clouds 29 1012 70 10000 4.1 110 14:59 27.03.2020
685 Clouds 29 1012 70 10000 4.1 110 14:40 27.03.2020
686 Clouds 29 1012 70 10000 4.1 110 14:22 27.03.2020
687 Clouds 29 1011 70 10000 3.6 110 13:54 27.03.2020
688 Clouds 29 1011 70 10000 3.6 110 13:36 27.03.2020
689 Clouds 29 1011 70 10000 3.6 110 13:18 27.03.2020
690 Clouds 29 1011 70 10000 3.6 110 13:18 27.03.2020
691 Clouds 30 1010 66 10000 4.6 110 12:42 27.03.2020
692 Clouds 30 1010 66 10000 4.6 110 12:19 27.03.2020
693 Clouds 31 1010 62 10000 4.1 120 11:44 27.03.2020
694 Clouds 31 1010 62 10000 4.1 120 11:25 27.03.2020
695 Clouds 32 1010 55 10000 4.6 120 10:59 27.03.2020
696 Clouds 32 1010 55 10000 4.6 120 10:41 27.03.2020
697 Clouds 32 1010 55 10000 4.6 120 10:22 27.03.2020
698 Clouds 34 1010 49 10000 4.1 110 09:58 27.03.2020
699 Clouds 34 1010 49 10000 4.1 110 09:39 27.03.2020
700 Clouds 34 1010 49 10000 4.1 110 09:21 27.03.2020
701 Clouds 34 1010 46 10000 5.1 110 08:58 27.03.2020
702 Clouds 34 1010 46 10000 5.1 110 08:39 27.03.2020
703 Clouds 33 1010 46 10000 5.1 110 08:21 27.03.2020
704 Clouds 34 1011 49 10000 5.1 100 07:53 27.03.2020
705 Clouds 33 1011 49 10000 5.1 100 07:28 27.03.2020
706 Clouds 33 1012 49 10000 6.2 110 06:59 27.03.2020
707 Clouds 33 1012 49 10000 6.2 110 06:37 27.03.2020
708 Clouds 33 1013 49 10000 5.1 110 05:38 27.03.2020
709 Clouds 31 1014 66 9000 4.6 110 02:51 27.03.2020
710 Clouds 28 1013 70 10000 3.6 110 01:50 27.03.2020
711 Clouds 28 1013 78 10000 1.5 60 00:56 27.03.2020
712 Clouds 27 1013 78 10000 1.5 60 00:32 27.03.2020
713 Clouds 26 1012 83 10000 1 0 23:45 26.03.2020
714 Clouds 26 1012 83 10000 1 0 23:25 26.03.2020
715 Clouds 26 1012 74 10000 2.1 110 22:59 26.03.2020
716 Clouds 26 1012 74 10000 2.1 110 22:39 26.03.2020
717 Clouds 26 1012 74 10000 2.1 110 22:21 26.03.2020
718 Clouds 26 1012 74 10000 1 100 21:59 26.03.2020
719 Clouds 26 1012 74 10000 1 100 21:39 26.03.2020
720 Clouds 26 1012 74 10000 1 100 21:21 26.03.2020
721 Clouds 26 1012 74 10000 2.6 0 20:58 26.03.2020
722 Clouds 26 1012 74 10000 2.6 0 20:38 26.03.2020
723 Clouds 26 1012 74 10000 2.6 0 20:20 26.03.2020
724 Clouds 27 1012 74 10000 2.6 110 19:56 26.03.2020
725 Clouds 27 1012 74 10000 2.6 110 19:38 26.03.2020
726 Clouds 27 1012 74 10000 2.6 110 19:20 26.03.2020
727 Clouds 27 1013 69 10000 2.6 110 18:55 26.03.2020
728 Clouds 27 1013 69 10000 2.6 110 18:37 26.03.2020
729 Clouds 27 1013 69 10000 2.6 110 18:19 26.03.2020
730 Clouds 28 1013 69 10000 3.1 110 17:42 26.03.2020
731 Clouds 28 1013 69 10000 3.1 110 17:19 26.03.2020
732 Clouds 28 1013 69 10000 3.1 110 17:19 26.03.2020
733 Clouds 28 1013 65 10000 2.6 100 16:45 26.03.2020
734 Clouds 28 1013 65 10000 2.6 100 16:27 26.03.2020
735 Clouds 28 1013 65 10000 2.6 110 15:59 26.03.2020
736 Clouds 28 1013 65 10000 2.6 110 15:40 26.03.2020
737 Clouds 28 1013 65 10000 2.6 110 15:21 26.03.2020
738 Clouds 28 1013 65 10000 2.6 110 14:58 26.03.2020
739 Clouds 28 1013 65 10000 2.6 110 14:38 26.03.2020
740 Clouds 28 1013 65 10000 2.6 110 14:38 26.03.2020
741 Clouds 28 1013 65 10000 2.6 110 14:19 26.03.2020
742 Clouds 29 1012 62 10000 3.1 110 13:43 26.03.2020
743 Clouds 29 1012 62 10000 3.1 110 13:23 26.03.2020
744 Clouds 29 1011 58 10000 3.6 110 12:56 26.03.2020
745 Clouds 29 1011 58 10000 3.6 110 12:37 26.03.2020
746 Clouds 30 1011 58 10000 3.6 110 12:19 26.03.2020
747 Clouds 30 1011 55 10000 4.1 100 11:44 26.03.2020
748 Clouds 31 1011 55 10000 4.1 100 11:20 26.03.2020
749 Clouds 32 1010 52 10000 4.1 100 10:56 26.03.2020
750 Clouds 32 1010 52 10000 4.1 100 10:37 26.03.2020
751 Clouds 32 1010 52 10000 4.1 100 10:18 26.03.2020
752 Clouds 32 1010 52 10000 4.1 100 10:18 26.03.2020
753 Clouds 33 1010 46 10000 6.2 100 09:42 26.03.2020
754 Clouds 33 1010 46 10000 6.2 100 09:19 26.03.2020
755 Clouds 34 1010 46 10000 5.1 110 08:46 26.03.2020
756 Clouds 34 1010 46 10000 5.1 110 08:27 26.03.2020
757 Clouds 34 1011 44 10000 5.1 110 07:58 26.03.2020
758 Clouds 34 1011 44 10000 5.1 110 07:40 26.03.2020
759 Clouds 34 1011 44 10000 5.1 110 07:20 26.03.2020
760 Clouds 34 1012 41 10000 4.6 120 06:46 26.03.2020
761 Clouds 34 1013 43 10000 4.6 120 05:52 26.03.2020
762 Clouds 33 1014 52 10000 3.6 110 03:52 26.03.2020
763 Clouds 33 1014 52 10000 3.6 110 03:33 26.03.2020
764 Clouds 32 1014 52 10000 3.1 110 02:53 26.03.2020
765 Clouds 29 1014 58 10000 5.1 70 01:20 26.03.2020
766 Clouds 28 1013 65 9000 2.1 80 00:33 26.03.2020
767 Clouds 26 1013 69 10000 2.6 80 23:44 25.03.2020
768 Clouds 26 1013 69 10000 2.6 80 23:26 25.03.2020
769 Clouds 25 1012 73 10000 1 70 22:56 25.03.2020
770 Clouds 25 1012 73 10000 1 70 22:38 25.03.2020
771 Clouds 25 1012 73 10000 1 70 22:19 25.03.2020
772 Clouds 25 1012 73 10000 1 70 22:19 25.03.2020
773 Clouds 25 1012 69 10000 2.1 80 21:54 25.03.2020
774 Clouds 25 1012 69 10000 2.1 80 21:36 25.03.2020
775 Clouds 25 1012 69 10000 2.1 80 21:18 25.03.2020
776 Clouds 25 1012 69 10000 1.5 70 20:39 25.03.2020
777 Clouds 26 1012 69 10000 1.5 70 20:19 25.03.2020
778 Clouds 26 1012 65 10000 1.5 80 19:56 25.03.2020
779 Clouds 26 1012 65 10000 1.5 80 19:38 25.03.2020
780 Clouds 26 1012 65 10000 1.5 80 19:19 25.03.2020
781 Clouds 26 1012 65 10000 2.1 80 18:43 25.03.2020
782 Clouds 26 1012 65 10000 2.1 80 18:25 25.03.2020
783 Clouds 27 1013 61 10000 2.6 80 17:59 25.03.2020
784 Clouds 27 1013 61 10000 2.6 80 17:40 25.03.2020
785 Clouds 27 1013 61 10000 2.6 80 17:22 25.03.2020
786 Clouds 27 1013 65 10000 2.6 80 16:58 25.03.2020
787 Clouds 27 1013 65 10000 2.6 80 16:39 25.03.2020
788 Clouds 27 1013 65 10000 2.6 80 16:20 25.03.2020
789 Clouds 27 1012 65 10000 1.5 100 15:42 25.03.2020
790 Clouds 27 1012 65 10000 1.5 100 15:21 25.03.2020
791 Clouds 28 1012 65 10000 4.1 100 14:57 25.03.2020
792 Clouds 28 1012 65 10000 4.1 100 14:57 25.03.2020
793 Clouds 28 1012 65 10000 4.1 100 14:39 25.03.2020
794 Clouds 28 1012 65 10000 4.1 100 14:39 25.03.2020
795 Clouds 28 1012 65 10000 4.1 100 14:19 25.03.2020
796 Clouds 28 1011 65 10000 3.6 100 13:44 25.03.2020
797 Clouds 28 1011 65 10000 3.6 100 13:24 25.03.2020
798 Clouds 28 1011 65 10000 3.6 100 13:24 25.03.2020
799 Clouds 29 1010 62 10000 4.6 100 12:39 25.03.2020
800 Clouds 29 1010 62 10000 4.6 100 12:39 25.03.2020
801 Clouds 29 1010 62 10000 4.6 100 12:21 25.03.2020
802 Clouds 29 1010 55 10000 4.6 110 11:57 25.03.2020
803 Clouds 30 1010 55 10000 4.6 110 11:39 25.03.2020
804 Clouds 30 1010 55 10000 4.6 110 11:21 25.03.2020
805 Clouds 30 1010 55 10000 4.6 110 11:21 25.03.2020
806 Clouds 31 1009 49 10000 5.1 100 10:58 25.03.2020
807 Clouds 31 1009 49 10000 5.1 100 10:39 25.03.2020
808 Clouds 31 1009 49 10000 5.1 100 10:39 25.03.2020
809 Clouds 31 1009 49 10000 5.1 100 10:39 25.03.2020
810 Clouds 32 1009 49 10000 5.1 100 10:18 25.03.2020
811 Clouds 32 1009 46 10000 5.7 110 09:43 25.03.2020
812 Clouds 33 1009 46 10000 5.7 110 09:25 25.03.2020
813 Clouds 33 1009 49 10000 5.1 120 08:58 25.03.2020
814 Clouds 33 1009 49 10000 5.1 120 08:40 25.03.2020
815 Clouds 33 1009 49 10000 5.1 120 08:20 25.03.2020
816 Clouds 33 1010 49 10000 6.2 120 07:55 25.03.2020
817 Clouds 33 1010 49 10000 6.2 120 07:36 25.03.2020
818 Clouds 34 1010 49 10000 6.2 120 07:18 25.03.2020
819 Clouds 33 1010 52 10000 6.7 120 06:41 25.03.2020
820 Clouds 33 1010 52 10000 6.7 120 06:22 25.03.2020
821 Clouds 33 1011 49 10000 5.7 110 05:47 25.03.2020
822 Clouds 33 1012 49 10000 5.7 100 04:42 25.03.2020
823 Clouds 32 1013 52 10000 6.2 100 03:57 25.03.2020
824 Clouds 32 1013 52 10000 6.2 100 03:30 25.03.2020
825 Clouds 29 1012 65 10000 4.6 100 01:40 25.03.2020
826 Clouds 28 1011 69 10000 3.1 100 00:50 25.03.2020
827 Clouds 28 1011 69 10000 3.1 100 00:27 25.03.2020
828 Clouds 27 1011 74 10000 3.1 90 23:54 24.03.2020
829 Clouds 26 1011 74 10000 3.1 90 23:28 24.03.2020
830 Clouds 27 1011 69 10000 3.1 100 22:58 24.03.2020
831 Clouds 27 1011 69 10000 3.1 100 22:38 24.03.2020
832 Clouds 27 1011 69 10000 3.1 100 22:20 24.03.2020
833 Clouds 27 1011 69 10000 3.1 100 22:20 24.03.2020
834 Clouds 27 1011 69 10000 3.1 100 21:58 24.03.2020
835 Clouds 27 1011 69 10000 3.1 100 21:40 24.03.2020
836 Clouds 27 1011 69 10000 3.1 100 21:18 24.03.2020
837 Clouds 27 1011 69 10000 3.1 100 21:18 24.03.2020
838 Clouds 27 1011 74 10000 3.1 120 20:57 24.03.2020
839 Clouds 27 1011 74 10000 3.1 120 20:39 24.03.2020
840 Clouds 27 1011 74 10000 3.1 120 20:21 24.03.2020
841 Clouds 27 1011 74 10000 4.1 110 19:46 24.03.2020
842 Clouds 27 1011 74 10000 4.1 110 19:20 24.03.2020
843 Clouds 27 1012 74 10000 4.1 110 18:56 24.03.2020
844 Clouds 27 1012 74 10000 4.1 110 18:38 24.03.2020
845 Clouds 27 1012 69 10000 3.6 110 18:19 24.03.2020
846 Clouds 27 1012 69 10000 3.6 110 17:56 24.03.2020
847 Clouds 28 1012 69 10000 3.6 110 17:37 24.03.2020
848 Clouds 28 1012 69 10000 3.6 110 17:19 24.03.2020
849 Clouds 28 1012 69 10000 3.6 120 16:54 24.03.2020
850 Clouds 28 1012 69 10000 3.6 120 16:36 24.03.2020
851 Clouds 28 1012 69 10000 3.6 120 16:36 24.03.2020
852 Clouds 28 1012 69 10000 3.6 120 16:18 24.03.2020
853 Clouds 28 1012 69 10000 3.6 120 15:42 24.03.2020
854 Clouds 28 1012 69 10000 3.6 120 15:23 24.03.2020
855 Clouds 28 1012 69 10000 4.1 100 14:43 24.03.2020
856 Clear 91 1013 75 0 5.67 100 14:22 24.03.2020
857 Clear 91 1013 75 0 5.67 100 14:22 24.03.2020
858 Clear 93 1012 70 0 6.99 109 13:56 24.03.2020
859 Clear 93 1012 70 0 6.99 109 13:38 24.03.2020
860 Clear 93 1012 70 0 6.99 109 13:20 24.03.2020
861 Clear 93 1012 70 0 6.99 110 12:42 24.03.2020
862 Clear 93 1012 70 0 6.99 110 12:23 24.03.2020
863 Clear 93 1012 70 0 6.99 110 11:41 24.03.2020
864 Clouds 30 1010 62 10000 5.1 120 11:21 24.03.2020
865 Clouds 30 1009 62 10000 4.1 110 10:59 24.03.2020
866 Clouds 31 1009 62 10000 4.1 110 10:40 24.03.2020
867 Clouds 31 1009 62 10000 4.1 110 10:40 24.03.2020
868 Clouds 31 1009 62 10000 4.1 110 10:18 24.03.2020
869 Clouds 32 1009 59 10000 5.7 120 09:44 24.03.2020
870 Clouds 32 1009 59 10000 5.7 120 09:25 24.03.2020
871 Clouds 32 1009 52 10000 4.1 0 08:40 24.03.2020
872 Clouds 32 1009 52 10000 4.1 0 08:21 24.03.2020
873 Clouds 34 1010 49 10000 4.1 130 07:59 24.03.2020
874 Clouds 33 1010 49 10000 4.1 130 07:41 24.03.2020
875 Clouds 33 1010 49 10000 4.1 130 07:21 24.03.2020
876 Clouds 33 1011 55 10000 5.1 120 06:35 24.03.2020
877 Clouds 33 1011 49 10000 5.1 110 05:36 24.03.2020
878 Clouds 33 1012 52 10000 4.1 0 04:50 24.03.2020
879 Clouds 31 1013 58 10000 4.1 110 03:19 24.03.2020
880 Clouds 31 1013 55 10000 3.1 110 02:25 24.03.2020
881 Clouds 28 1012 69 10000 2.6 90 00:53 24.03.2020
882 Clouds 28 1012 69 10000 2.6 90 00:26 24.03.2020
883 Clouds 26 1012 78 10000 1.5 80 23:55 23.03.2020
884 Clouds 26 1012 78 10000 1.5 80 23:36 23.03.2020
885 Clouds 25 1012 78 10000 1.5 80 23:18 23.03.2020
886 Clouds 26 1011 74 10000 1.5 70 22:42 23.03.2020
887 Clouds 26 1011 74 10000 1.5 70 22:22 23.03.2020
888 Clouds 26 1011 74 10000 1.5 70 22:22 23.03.2020
889 Clouds 26 1011 69 10000 1.5 100 21:54 23.03.2020
890 Clouds 26 1011 69 10000 1.5 100 21:36 23.03.2020
891 Clouds 26 1011 69 10000 1.5 100 21:18 23.03.2020
892 Clouds 26 1011 69 10000 2.1 90 20:42 23.03.2020
893 Clouds 26 1011 69 10000 2.1 90 20:23 23.03.2020
894 Clouds 27 1012 69 10000 2.6 110 19:55 23.03.2020
895 Clouds 27 1012 69 10000 2.6 110 19:55 23.03.2020
896 Clouds 27 1012 69 10000 2.6 110 19:55 23.03.2020
897 Clouds 27 1012 69 10000 2.6 110 19:37 23.03.2020
898 Clouds 27 1012 69 10000 2.6 110 19:18 23.03.2020
899 Clouds 27 1012 69 10000 3.6 130 18:43 23.03.2020
900 Clouds 27 1012 69 10000 3.6 130 18:24 23.03.2020
901 Clouds 27 1013 69 10000 2.6 130 17:58 23.03.2020
902 Clouds 27 1013 69 10000 2.6 130 17:39 23.03.2020
903 Clouds 27 1013 69 10000 5.1 130 17:19 23.03.2020
904 Clouds 27 1013 69 10000 5.1 130 16:43 23.03.2020
905 Clouds 27 1013 69 10000 5.1 130 16:25 23.03.2020
906 Clouds 28 1013 69 10000 4.1 110 15:44 23.03.2020
907 Clouds 28 1013 69 10000 4.1 110 15:21 23.03.2020
908 Clouds 28 1012 62 10000 5.1 100 14:57 23.03.2020
909 Clouds 28 1012 62 10000 5.1 100 14:37 23.03.2020
910 Clouds 28 1012 62 10000 5.1 100 14:18 23.03.2020
911 Clouds 28 1012 62 10000 5.1 100 14:18 23.03.2020
912 Clouds 29 1011 66 10000 4.6 120 13:41 23.03.2020
913 Clouds 29 1011 66 10000 4.6 120 13:41 23.03.2020
914 Clouds 29 1011 66 10000 4.6 120 13:22 23.03.2020
915 Clouds 29 1011 70 10000 4.6 120 12:58 23.03.2020
916 Clouds 29 1011 70 10000 4.6 120 12:40 23.03.2020
917 Clouds 29 1011 70 10000 4.6 120 12:22 23.03.2020
918 Clouds 30 1010 66 10000 1.5 130 11:42 23.03.2020
919 Clouds 30 1010 66 10000 1.5 130 11:42 23.03.2020
920 Clouds 30 1010 66 10000 1.5 130 11:22 23.03.2020
921 Clouds 31 1009 62 10000 5.1 140 10:58 23.03.2020
922 Clouds 31 1009 62 10000 5.1 140 10:40 23.03.2020
923 Clouds 31 1009 62 10000 5.1 140 10:21 23.03.2020
924 Clouds 33 1009 52 10000 5.1 140 09:57 23.03.2020
925 Clouds 33 1009 52 10000 5.1 140 09:39 23.03.2020
926 Clouds 33 1009 52 10000 5.1 140 09:18 23.03.2020
927 Clouds 34 1009 49 10000 5.1 130 08:38 23.03.2020
928 Clouds 34 1009 49 10000 5.1 130 08:19 23.03.2020
929 Clouds 35 1009 47 10000 5.1 140 07:50 23.03.2020
930 Clouds 35 1009 47 10000 5.1 140 07:50 23.03.2020
931 Clouds 34 1009 47 10000 5.1 140 07:31 23.03.2020
932 Clouds 34 1011 49 10000 3.6 110 06:53 23.03.2020
933 Clouds 34 1011 49 10000 3.6 110 06:25 23.03.2020
934 Clouds 34 1012 49 10000 4.1 140 05:42 23.03.2020
935 Clouds 32 1013 58 10000 4.6 120 03:45 23.03.2020
936 Clouds 31 1013 62 10000 4.6 90 02:40 23.03.2020
937 Clouds 30 1013 66 10000 4.1 110 01:34 23.03.2020
938 Clouds 28 1012 74 10000 3.6 130 00:43 23.03.2020
939 Clouds 27 1012 74 10000 2.1 130 23:54 22.03.2020
940 Clouds 27 1012 74 10000 2.1 130 23:27 22.03.2020
941 Clouds 26 1012 78 10000 1 0 22:59 22.03.2020
942 Clouds 26 1012 78 10000 1 0 22:39 22.03.2020
943 Clouds 26 1012 78 10000 1 0 22:18 22.03.2020
944 Clouds 27 1012 74 10000 1 0 21:40 22.03.2020
945 Clouds 27 1012 74 10000 1 0 21:20 22.03.2020
946 Clouds 27 1012 69 10000 1 0 20:58 22.03.2020
947 Clouds 27 1012 69 10000 1 0 20:39 22.03.2020
948 Clouds 27 1012 69 10000 1 0 20:21 22.03.2020
949 Clouds 27 1012 74 10000 2.1 120 19:55 22.03.2020
950 Clouds 27 1012 74 10000 2.1 120 19:37 22.03.2020
951 Clouds 27 1012 74 10000 2.1 120 19:18 22.03.2020
952 Clouds 27 1013 69 10000 2.6 120 18:55 22.03.2020
953 Clouds 27 1013 69 10000 2.6 120 18:37 22.03.2020
954 Clouds 28 1013 69 10000 2.6 120 18:18 22.03.2020
955 Clouds 28 1013 69 10000 3.6 110 17:55 22.03.2020
956 Clouds 28 1013 69 10000 3.6 110 17:36 22.03.2020
957 Clouds 28 1013 69 10000 3.6 110 17:18 22.03.2020
958 Clouds 28 1013 69 10000 3.1 130 16:41 22.03.2020
959 Clouds 28 1013 69 10000 3.1 130 16:22 22.03.2020
960 Clouds 29 1013 70 10000 3.6 130 15:58 22.03.2020
961 Clouds 29 1013 70 10000 3.6 130 15:39 22.03.2020
962 Clouds 29 1013 70 10000 3.6 130 14:47 22.03.2020
963 Clouds 29 1013 70 10000 3.6 130 14:20 22.03.2020
964 Clouds 29 1012 70 10000 3.6 0 13:58 22.03.2020
965 Clouds 29 1012 70 10000 3.6 0 13:40 22.03.2020
966 Clouds 29 1012 70 10000 3.6 0 13:19 22.03.2020
967 Clouds 30 1011 66 10000 4.1 130 12:44 22.03.2020
968 Clouds 30 1011 66 10000 4.1 130 12:21 22.03.2020
969 Clouds 31 1010 62 10000 4.6 130 11:57 22.03.2020
970 Clouds 31 1010 62 10000 4.6 130 11:39 22.03.2020
971 Clouds 31 1010 62 10000 4.6 130 11:20 22.03.2020
972 Clouds 32 1010 52 10000 4.1 130 10:43 22.03.2020
973 Clouds 33 1010 52 10000 4.1 130 10:24 22.03.2020
974 Clouds 33 1010 46 10000 4.1 140 09:49 22.03.2020
975 Clouds 34 1010 46 10000 4.1 140 09:30 22.03.2020
976 Clouds 34 1010 46 10000 5.1 130 08:55 22.03.2020
977 Clouds 34 1010 46 10000 5.1 130 08:37 22.03.2020
978 Clouds 34 1010 46 10000 5.1 130 08:18 22.03.2020
979 Clouds 34 1011 44 10000 5.7 120 07:49 22.03.2020
980 Clouds 34 1011 44 10000 5.7 120 07:18 22.03.2020
981 Clouds 34 1013 49 10000 3.6 140 05:55 22.03.2020
982 Clouds 33 1014 55 10000 3.1 120 04:58 22.03.2020
983 Clouds 32 1015 55 10000 3.1 100 02:50 22.03.2020
984 Clouds 30 1014 58 10000 2.6 100 01:21 22.03.2020
985 Clouds 28 1014 69 10000 1 0 00:36 22.03.2020
986 Clouds 27 1013 74 10000 1.5 80 23:58 21.03.2020
987 Clouds 27 1013 74 10000 1.5 80 23:40 21.03.2020
988 Clouds 27 1013 74 10000 1.5 80 23:18 21.03.2020
989 Clouds 27 1012 74 10000 1 0 22:38 21.03.2020
990 Clouds 27 1012 74 10000 1 0 22:38 21.03.2020
991 Clouds 27 1012 74 10000 1 0 22:20 21.03.2020
992 Clouds 27 1012 69 10000 2.1 90 21:59 21.03.2020
993 Clouds 27 1012 69 10000 2.1 90 21:39 21.03.2020
994 Clouds 27 1012 69 10000 2.1 90 21:21 21.03.2020
995 Clouds 27 1012 69 10000 2.6 110 20:46 21.03.2020
996 Clouds 28 1012 69 10000 2.6 110 20:23 21.03.2020
997 Clouds 28 1013 69 10000 3.6 120 19:57 21.03.2020
998 Clouds 28 1013 69 10000 3.6 120 19:39 21.03.2020
999 Clouds 28 1013 69 10000 3.6 120 19:20 21.03.2020
1000 Clouds 28 1013 69 10000 3.1 110 18:54 21.03.2020
1001 Clouds 28 1013 69 10000 3.1 110 18:36 21.03.2020
1002 Clouds 28 1013 69 10000 3.1 110 18:18 21.03.2020
1003 Clouds 28 1013 69 10000 3.1 110 18:18 21.03.2020
1004 Clouds 28 1014 69 10000 4.1 120 17:42 21.03.2020
1005 Clouds 28 1014 69 10000 4.1 120 17:23 21.03.2020
1006 Clouds 28 1014 69 10000 3.6 120 16:43 21.03.2020
1007 Clouds 28 1014 69 10000 3.6 120 16:43 21.03.2020
1008 Clouds 28 1014 69 10000 3.6 120 16:24 21.03.2020
1009 Clouds 29 1014 66 10000 4.1 120 15:59 21.03.2020
1010 Clouds 29 1014 66 10000 4.1 120 15:41 21.03.2020
1011 Clouds 29 1014 66 10000 4.1 120 15:23 21.03.2020
1012 Clouds 29 1013 66 10000 4.1 110 14:58 21.03.2020
1013 Clouds 29 1013 66 10000 4.1 110 14:58 21.03.2020
1014 Clouds 29 1013 66 10000 4.1 110 14:40 21.03.2020
1015 Clouds 29 1013 66 10000 4.1 110 14:20 21.03.2020
1016 Clouds 29 1013 66 10000 4.1 110 13:58 21.03.2020
1017 Clouds 29 1013 66 10000 4.1 110 13:39 21.03.2020
1018 Clouds 29 1013 66 10000 4.1 110 13:21 21.03.2020
1019 Clouds 30 1012 66 10000 4.1 120 12:57 21.03.2020
1020 Clouds 30 1012 66 10000 4.1 120 12:37 21.03.2020
1021 Clouds 30 1012 66 10000 4.1 120 12:19 21.03.2020
1022 Clouds 31 1011 62 10000 4.1 130 11:55 21.03.2020
1023 Clouds 31 1011 62 10000 4.1 130 11:37 21.03.2020
1024 Clouds 31 1011 62 10000 4.1 130 11:18 21.03.2020
1025 Clouds 32 1011 52 10000 4.1 120 10:56 21.03.2020
1026 Clouds 32 1011 52 10000 4.1 120 10:38 21.03.2020
1027 Clouds 33 1011 52 10000 4.1 120 10:19 21.03.2020
1028 Clouds 33 1011 52 10000 4.1 120 10:19 21.03.2020
1029 Clouds 34 1011 49 10000 4.1 120 09:41 21.03.2020
1030 Clouds 34 1011 49 10000 4.1 120 09:23 21.03.2020
1031 Clouds 34 1011 44 10000 4.1 0 08:59 21.03.2020
1032 Clouds 34 1011 44 10000 4.1 0 08:41 21.03.2020
1033 Clouds 34 1011 44 10000 4.1 0 08:22 21.03.2020
1034 Clouds 34 1012 46 10000 5.1 120 07:42 21.03.2020
1035 Clouds 34 1012 46 10000 5.1 120 07:23 21.03.2020
1036 Clouds 33 1013 49 10000 4.1 130 06:46 21.03.2020
1037 Clouds 34 1013 49 10000 4.1 130 06:27 21.03.2020
1038 Clouds 33 1014 49 10000 4.1 120 05:46 21.03.2020
1039 Clouds 32 1015 55 10000 3.6 0 04:42 21.03.2020
1040 Clouds 31 1016 55 10000 3.1 80 02:40 21.03.2020
1041 Clouds 31 1016 55 10000 3.1 80 02:18 21.03.2020
1042 Clouds 29 1015 62 10000 2.1 0 01:31 21.03.2020
1043 Clouds 28 1015 69 10000 0.5 0 00:47 21.03.2020
1044 Clouds 28 1015 69 10000 0.5 0 00:24 21.03.2020
1045 Clouds 26 1014 74 10000 2.1 90 23:48 20.03.2020
1046 Clouds 26 1014 74 10000 2.1 90 23:24 20.03.2020
1047 Clouds 26 1013 78 10000 1 0 22:55 20.03.2020
1048 Clouds 26 1013 78 10000 1 0 22:36 20.03.2020
1049 Clouds 26 1013 78 10000 1 0 22:18 20.03.2020
1050 Clouds 26 1013 74 10000 1.5 130 21:54 20.03.2020
1051 Clouds 26 1013 74 10000 1.5 130 21:36 20.03.2020
1052 Clouds 26 1013 74 10000 1.5 130 21:18 20.03.2020
1053 Clouds 26 1012 78 10000 2.1 70 20:41 20.03.2020
1054 Clouds 26 1012 78 10000 2.1 70 20:41 20.03.2020
1055 Clouds 26 1012 78 10000 2.1 70 20:21 20.03.2020
1056 Clouds 27 1013 69 10000 2.1 110 19:58 20.03.2020
1057 Clouds 27 1013 69 10000 2.1 110 19:40 20.03.2020
1058 Clouds 27 1013 69 10000 2.1 110 19:18 20.03.2020
1059 Clouds 27 1013 69 10000 3.1 110 18:39 20.03.2020
1060 Clouds 27 1013 69 10000 3.1 110 18:39 20.03.2020
1061 Clouds 27 1013 69 10000 3.1 110 18:39 20.03.2020
1062 Clouds 28 1013 69 10000 3.1 110 18:20 20.03.2020
1063 Clouds 27 1014 69 10000 3.6 120 17:57 20.03.2020
1064 Clouds 27 1014 69 10000 3.6 120 17:39 20.03.2020
1065 Clouds 28 1014 69 10000 3.6 120 17:21 20.03.2020
1066 Clouds 28 1014 69 10000 4.1 140 16:43 20.03.2020
1067 Clouds 28 1014 69 10000 4.1 140 16:22 20.03.2020
1068 Clouds 28 1014 74 10000 3.1 130 15:59 20.03.2020
1069 Clouds 28 1014 74 10000 3.1 130 15:41 20.03.2020
1070 Clouds 28 1014 74 10000 3.1 130 15:21 20.03.2020
1071 Clouds 28 1013 74 10000 4.1 130 14:43 20.03.2020
1072 Clouds 28 1013 74 10000 4.1 130 14:23 20.03.2020
1073 Clouds 28 1012 70 10000 4.1 130 13:55 20.03.2020
1074 Clouds 28 1012 70 10000 4.1 130 13:55 20.03.2020
1075 Clouds 29 1012 70 10000 4.1 130 13:37 20.03.2020
1076 Clouds 29 1012 70 10000 4.1 130 13:19 20.03.2020
1077 Clouds 30 1011 66 10000 4.1 120 12:39 20.03.2020
1078 Clouds 30 1011 66 10000 4.1 120 12:20 20.03.2020
1079 Clouds 30 1011 66 10000 4.1 120 12:20 20.03.2020
1080 Clouds 30 1011 66 10000 4.1 120 12:20 20.03.2020
1081 Clouds 30 1011 62 10000 3.6 140 11:54 20.03.2020
1082 Clouds 31 1011 62 10000 3.6 140 11:36 20.03.2020
1083 Clouds 31 1011 62 10000 3.6 140 11:18 20.03.2020
1084 Clouds 31 1010 59 10000 3.1 0 10:41 20.03.2020
1085 Clouds 31 1010 59 10000 3.1 0 10:20 20.03.2020
1086 Clouds 31 1010 59 10000 3.1 0 10:20 20.03.2020
1087 Clouds 32 1010 52 10000 4.6 140 09:55 20.03.2020
1088 Clouds 33 1010 52 10000 4.6 140 09:37 20.03.2020
1089 Clouds 33 1010 52 10000 4.6 140 09:18 20.03.2020
1090 Clouds 34 1010 52 10000 4.1 0 08:41 20.03.2020
1091 Clouds 34 1010 52 10000 4.1 0 08:22 20.03.2020
1092 Clouds 34 1011 52 10000 2.1 100 07:48 20.03.2020
1093 Clouds 34 1011 52 10000 2.1 100 07:26 20.03.2020
1094 Clouds 33 1012 55 10000 2.6 140 06:51 20.03.2020
1095 Clouds 33 1012 55 10000 2.6 140 06:32 20.03.2020
1096 Clouds 32 1014 55 10000 3.1 110 04:51 20.03.2020
1097 Clouds 31 1015 55 10000 2.6 0 03:20 20.03.2020
1098 Clouds 30 1014 66 10000 1.5 120 01:51 20.03.2020
1099 Clouds 28 1014 74 9000 1.5 0 00:46 20.03.2020
1100 Clouds 28 1014 74 9000 1.5 0 00:26 20.03.2020
1101 Clouds 26 1013 78 10000 1 0 23:45 19.03.2020
1102 Clouds 26 1013 78 10000 1 0 23:26 19.03.2020
1103 Clouds 26 1013 78 10000 1 0 23:26 19.03.2020
1104 Clouds 26 1013 74 10000 1.5 0 22:56 19.03.2020
1105 Clouds 26 1013 74 10000 1.5 0 22:38 19.03.2020
1106 Clouds 26 1013 74 10000 1.5 0 22:38 19.03.2020
1107 Clouds 27 1013 74 10000 1.5 0 22:18 19.03.2020
1108 Clouds 27 1012 74 10000 1.5 130 21:41 19.03.2020
1109 Clouds 27 1012 74 10000 1.5 130 21:20 19.03.2020
1110 Clouds 27 1012 69 9000 1.5 90 20:58 19.03.2020
1111 Clouds 27 1012 69 9000 1.5 90 20:39 19.03.2020
1112 Clouds 27 1012 69 9000 1.5 90 20:20 19.03.2020
1113 Clouds 27 1013 69 8000 4.1 20 19:55 19.03.2020
1114 Clouds 27 1013 69 8000 4.1 20 19:37 19.03.2020
1115 Clouds 27 1013 69 8000 4.1 20 19:18 19.03.2020
1116 Clouds 27 1013 74 10000 0.5 0 18:42 19.03.2020
1117 Clouds 27 1013 74 10000 0.5 0 18:22 19.03.2020
1118 Clouds 27 1014 74 0 2.1 110 17:56 19.03.2020
1119 Clouds 27 1014 74 0 2.1 110 17:38 19.03.2020
1120 Clouds 27 1014 88 10000 2.6 130 17:18 19.03.2020
1121 Clouds 27 1014 88 10000 2.6 130 16:43 19.03.2020
1122 Clouds 27 1014 88 10000 2.6 130 16:22 19.03.2020
1123 Clouds 28 1014 74 10000 2.6 0 15:44 19.03.2020
1124 Clouds 28 1014 74 10000 2.6 0 15:25 19.03.2020
1125 Clouds 28 1013 74 10000 2.6 0 14:55 19.03.2020
1126 Clouds 28 1013 74 10000 2.6 0 14:37 19.03.2020
1127 Clouds 28 1013 74 10000 2.6 0 14:18 19.03.2020
1128 Clouds 29 1012 70 10000 3.6 120 13:39 19.03.2020
1129 Clouds 29 1012 70 10000 3.6 120 13:19 19.03.2020
1130 Clouds 29 1011 70 10000 2.6 0 12:44 19.03.2020
1131 Clouds 29 1011 70 10000 2.6 0 12:24 19.03.2020
1132 Clouds 30 1011 66 10000 3.1 130 11:59 19.03.2020
1133 Clouds 30 1011 66 10000 3.1 130 11:41 19.03.2020
1134 Clouds 30 1011 66 10000 3.1 130 11:22 19.03.2020
1135 Clouds 31 1010 55 10000 4.1 140 10:44 19.03.2020
1136 Clouds 32 1010 55 10000 4.1 140 10:22 19.03.2020
1137 Clouds 32 1010 52 10000 3.6 0 09:59 19.03.2020
1138 Clouds 33 1010 52 10000 3.6 0 09:40 19.03.2020
1139 Clouds 33 1010 52 10000 3.6 0 09:21 19.03.2020
1140 Clouds 33 1010 52 10000 4.6 120 08:47 19.03.2020
1141 Clouds 33 1010 52 10000 4.6 120 08:23 19.03.2020
1142 Clouds 33 1011 52 10000 4.6 120 07:49 19.03.2020
1143 Clouds 33 1011 52 10000 4.6 120 07:31 19.03.2020
1144 Clouds 32 1012 55 10000 3.6 0 06:55 19.03.2020
1145 Clouds 32 1012 55 10000 3.6 0 06:18 19.03.2020
1146 Clouds 31 1013 55 10000 3.6 150 05:23 19.03.2020
1147 Clouds 31 1014 58 10000 3.1 110 04:41 19.03.2020
1148 Clouds 30 1015 62 10000 2.1 360 03:39 19.03.2020
1149 Clouds 27 1014 61 10000 0.5 0 01:45 19.03.2020
1150 Clouds 26 1014 69 10000 1.67 91 00:38 19.03.2020
1151 Clouds 24 1013 78 10000 1 0 23:58 18.03.2020
1152 Clouds 24 1013 78 10000 1 0 23:39 18.03.2020
1153 Clouds 24 1013 78 10000 1 0 23:18 18.03.2020
1154 Clouds 24 1012 78 10000 1 0 22:42 18.03.2020
1155 Clouds 24 1012 78 10000 1 0 22:22 18.03.2020
1156 Clouds 25 1012 73 10000 1.5 110 21:54 18.03.2020
1157 Clouds 25 1012 73 10000 1.5 110 21:36 18.03.2020
1158 Clouds 25 1012 73 10000 1.5 110 21:18 18.03.2020
1159 Clouds 25 1012 73 10000 2.1 120 20:41 18.03.2020
1160 Clouds 25 1012 73 10000 2.1 120 20:21 18.03.2020
1161 Clouds 25 1013 78 10000 4.1 70 19:59 18.03.2020
1162 Clouds 24 1013 78 10000 4.1 70 19:40 18.03.2020
1163 Clouds 25 1013 78 10000 4.1 70 19:21 18.03.2020
1164 Clouds 26 1013 69 10000 3.1 130 18:55 18.03.2020
1165 Clouds 26 1013 69 10000 3.1 130 18:36 18.03.2020
1166 Clouds 26 1014 75 10000 3.6 120 18:18 18.03.2020
1167 Clouds 26 1014 75 10000 3.6 120 17:41 18.03.2020
1168 Clouds 26 1014 75 10000 3.6 120 17:22 18.03.2020
1169 Clouds 26 1014 65 10000 3.6 120 16:59 18.03.2020
1170 Clouds 26 1014 65 10000 3.6 120 16:40 18.03.2020
1171 Clouds 27 1014 65 10000 3.6 120 16:20 18.03.2020
1172 Clouds 27 1014 65 10000 3.1 130 15:46 18.03.2020
1173 Clouds 27 1014 65 10000 3.1 130 15:27 18.03.2020
1174 Clouds 27 1013 69 10000 2.6 130 14:58 18.03.2020
1175 Clouds 27 1013 69 10000 2.6 130 14:40 18.03.2020
1176 Clouds 27 1013 69 10000 2.6 130 14:21 18.03.2020
1177 Clouds 27 1012 65 10000 3.6 0 13:40 18.03.2020
1178 Clouds 28 1012 65 10000 3.6 0 13:19 18.03.2020
1179 Clouds 28 1011 65 10000 3.6 120 12:42 18.03.2020
1180 Clouds 28 1011 65 10000 3.6 120 12:21 18.03.2020
1181 Clouds 29 1011 62 10000 4.1 120 11:57 18.03.2020
1182 Clouds 29 1011 62 10000 4.1 120 11:37 18.03.2020
1183 Clouds 30 1010 55 10000 3.6 130 11:18 18.03.2020
1184 Clouds 30 1010 55 10000 3.6 130 10:54 18.03.2020
1185 Clouds 31 1010 55 10000 3.6 130 10:36 18.03.2020
1186 Clouds 31 1010 55 10000 3.6 130 10:36 18.03.2020
1187 Clouds 31 1010 55 10000 3.6 130 10:18 18.03.2020
1188 Clouds 31 1010 55 10000 5.7 120 09:41 18.03.2020
1189 Clouds 31 1010 55 10000 5.7 120 09:22 18.03.2020
1190 Clouds 32 1011 46 10000 4.1 140 08:40 18.03.2020
1191 Clouds 33 1011 46 10000 4.1 140 08:21 18.03.2020
1192 Clouds 33 1011 49 10000 5.1 140 07:49 18.03.2020
1193 Clouds 33 1011 49 10000 5.1 140 07:31 18.03.2020
1194 Clouds 32 1013 52 10000 5.7 120 06:55 18.03.2020
1195 Clouds 32 1013 52 10000 5.7 120 06:37 18.03.2020
1196 Clouds 32 1014 52 10000 4.1 120 05:37 18.03.2020
1197 Clouds 31 1015 55 10000 4.1 120 04:32 18.03.2020
1198 Clouds 30 1016 55 10000 2.6 0 03:21 18.03.2020
1199 Clouds 30 1016 55 10000 2.1 0 02:35 18.03.2020
1200 Clouds 28 1015 65 10000 2.6 80 01:32 18.03.2020
1201 Clouds 26 1015 69 10000 3.1 110 00:42 18.03.2020
1202 Clouds 26 1015 69 10000 3.1 110 00:21 18.03.2020
1203 Clouds 26 1014 69 10000 2.6 120 23:41 17.03.2020
1204 Clouds 25 1013 74 10000 2.6 110 23:20 17.03.2020
1205 Clouds 26 1013 74 10000 2.6 110 22:42 17.03.2020
1206 Clouds 26 1013 74 10000 2.6 110 22:24 17.03.2020
1207 Clouds 26 1013 74 10000 2.1 120 21:43 17.03.2020
1208 Clouds 26 1013 74 10000 2.1 120 21:23 17.03.2020
1209 Clouds 26 1013 74 10000 2.6 130 20:57 17.03.2020
1210 Clouds 26 1013 74 10000 2.6 130 20:37 17.03.2020
1211 Clouds 26 1013 74 10000 2.6 130 20:19 17.03.2020
1212 Clouds 26 1013 74 10000 1.5 120 19:41 17.03.2020
1213 Clouds 26 1013 74 10000 1.5 120 19:19 17.03.2020
1214 Clouds 26 1014 74 10000 2.1 110 18:57 17.03.2020
1215 Clouds 26 1014 74 10000 2.1 110 18:39 17.03.2020
1216 Clouds 26 1014 74 10000 2.1 110 18:21 17.03.2020
1217 Clouds 26 1014 74 10000 2.1 110 18:21 17.03.2020
1218 Clouds 26 1015 69 10000 3.6 100 17:55 17.03.2020
1219 Clouds 26 1015 69 10000 3.6 100 17:36 17.03.2020
1220 Clouds 27 1015 69 10000 3.6 100 17:18 17.03.2020
1221 Clouds 27 1015 69 10000 3.6 110 16:41 17.03.2020
1222 Clouds 27 1015 69 10000 3.6 110 16:19 17.03.2020
1223 Clouds 27 1015 69 10000 3.6 120 15:44 17.03.2020
1224 Clouds 27 1015 69 10000 3.6 120 15:22 17.03.2020
1225 Clouds 27 1015 74 10000 3.1 120 14:44 17.03.2020
1226 Clouds 27 1015 74 10000 3.1 120 14:25 17.03.2020
1227 Clouds 27 1014 69 10000 3.6 120 13:57 17.03.2020
1228 Clouds 27 1014 69 10000 3.6 120 13:39 17.03.2020
1229 Clouds 27 1014 69 10000 3.6 120 13:21 17.03.2020
1230 Clouds 27 1014 69 10000 3.6 120 13:21 17.03.2020
1231 Clouds 27 1014 69 10000 4.1 120 12:43 17.03.2020
1232 Clouds 27 1014 69 10000 4.1 120 12:24 17.03.2020
1233 Clouds 27 1013 65 10000 4.1 130 11:48 17.03.2020
1234 Clouds 27 1013 65 10000 4.1 130 11:29 17.03.2020
1235 Clouds 28 1013 66 10000 4.6 120 10:58 17.03.2020
1236 Clouds 28 1013 66 10000 4.6 120 10:39 17.03.2020
1237 Clouds 28 1013 66 10000 4.6 120 10:21 17.03.2020
1238 Clouds 29 1013 66 10000 5.1 120 09:59 17.03.2020
1239 Clouds 29 1013 66 10000 5.1 120 09:40 17.03.2020
1240 Clouds 29 1013 66 10000 5.1 120 09:19 17.03.2020
1241 Clouds 29 1013 62 10000 4.6 110 08:48 17.03.2020
1242 Clouds 30 1013 62 10000 4.6 110 08:23 17.03.2020
1243 Clouds 30 1013 62 10000 6.2 120 07:50 17.03.2020
1244 Clouds 30 1013 62 10000 6.2 120 07:28 17.03.2020
1245 Clouds 30 1014 55 10000 5.1 120 06:59 17.03.2020
1246 Clouds 31 1014 55 10000 5.1 120 06:34 17.03.2020
1247 Clouds 30 1015 66 10000 2.6 280 05:56 17.03.2020
1248 Clouds 30 1016 58 10000 2.6 120 03:56 17.03.2020
1249 Clouds 29 1017 65 10000 2.1 110 02:46 17.03.2020
1250 Clouds 28 1016 65 10000 2.6 130 01:44 17.03.2020
1251 Clouds 28 1016 65 10000 2.6 130 01:25 17.03.2020
1252 Clouds 27 1016 74 10000 2.6 110 00:38 17.03.2020
1253 Clouds 26 1015 74 10000 1.5 110 23:45 16.03.2020
1254 Clouds 26 1015 74 10000 1.5 110 23:27 16.03.2020
1255 Clouds 26 1014 74 10000 2.1 100 22:41 16.03.2020
1256 Clouds 26 1014 74 10000 2.1 100 22:41 16.03.2020
1257 Clouds 26 1014 74 10000 2.1 100 22:23 16.03.2020
1258 Clouds 26 1014 74 10000 2.1 90 21:57 16.03.2020
1259 Clouds 26 1014 74 10000 2.1 90 21:39 16.03.2020
1260 Clouds 26 1014 74 10000 2.1 90 21:21 16.03.2020
1261 Clouds 26 1014 74 10000 4.6 100 20:55 16.03.2020
1262 Clouds 26 1014 74 10000 4.6 100 20:37 16.03.2020
1263 Clouds 26 1014 74 10000 4.6 100 20:18 16.03.2020
1264 Clouds 26 1014 69 10000 3.6 100 19:40 16.03.2020
1265 Clouds 26 1014 69 10000 3.6 100 19:20 16.03.2020
1266 Clouds 27 1014 65 10000 2.6 120 18:43 16.03.2020
1267 Clouds 27 1014 65 10000 2.6 120 18:21 16.03.2020
1268 Clouds 27 1015 65 10000 3.6 120 17:55 16.03.2020
1269 Clouds 27 1015 65 10000 3.6 120 17:37 16.03.2020
1270 Clouds 27 1015 65 10000 3.6 120 17:18 16.03.2020
1271 Clouds 27 1015 69 10000 4.1 120 16:42 16.03.2020
1272 Clouds 27 1015 69 10000 4.1 120 16:24 16.03.2020
1273 Clouds 27 1015 69 10000 4.6 110 15:44 16.03.2020
1274 Clouds 27 1015 69 10000 4.6 110 15:26 16.03.2020
1275 Clouds 27 1015 69 10000 4.1 110 14:49 16.03.2020
1276 Clouds 27 1015 69 10000 4.1 110 14:27 16.03.2020
1277 Clouds 27 1014 70 10000 3.1 120 13:57 16.03.2020
1278 Clouds 27 1014 70 10000 3.1 120 13:38 16.03.2020
1279 Clouds 27 1014 70 10000 3.1 120 13:20 16.03.2020
1280 Clouds 28 1014 69 10000 4.1 110 12:44 16.03.2020
1281 Clouds 28 1014 69 10000 4.1 110 12:23 16.03.2020
1282 Clouds 28 1013 69 10000 3.6 120 11:46 16.03.2020
1283 Clouds 28 1013 69 10000 3.6 120 11:27 16.03.2020
1284 Clouds 28 1013 69 10000 3.6 120 10:55 16.03.2020
1285 Clouds 28 1013 69 10000 3.6 120 10:37 16.03.2020
1286 Clouds 28 1013 69 10000 3.6 120 10:18 16.03.2020
1287 Clouds 29 1013 70 10000 2.6 130 09:40 16.03.2020
1288 Clouds 29 1013 70 10000 2.6 130 09:20 16.03.2020
1289 Clouds 28 1013 74 10000 3.6 130 08:47 16.03.2020
1290 Clouds 28 1013 74 10000 3.6 130 08:24 16.03.2020
1291 Rain 28 1013 83 9000 4.1 0 07:45 16.03.2020
1292 Rain 28 1013 83 9000 4.1 0 07:21 16.03.2020
1293 Clouds 28 1014 83 0 6.27 90 06:46 16.03.2020
1294 Clouds 28 1014 83 0 6.27 90 06:23 16.03.2020
1295 Rain 29 1015 70 10000 3.1 110 04:53 16.03.2020
1296 Clouds 28 1015 65 10000 3.6 100 01:49 16.03.2020
1297 Clouds 27 1015 74 10000 2.6 90 00:48 16.03.2020
1298 Clouds 27 1015 74 10000 2.6 90 00:28 16.03.2020
1299 Clouds 27 1014 74 10000 2.6 100 23:41 15.03.2020
1300 Clouds 26 1014 74 10000 2.6 100 23:19 15.03.2020
1301 Clouds 26 1013 74 10000 2.6 100 22:42 15.03.2020
1302 Clouds 26 1013 74 10000 2.6 100 22:42 15.03.2020
1303 Clouds 26 1013 74 10000 2.6 100 22:22 15.03.2020
1304 Clouds 27 1012 74 10000 2.1 120 21:40 15.03.2020
1305 Clouds 27 1012 74 10000 2.1 120 21:22 15.03.2020
1306 Clouds 27 1012 74 10000 1.5 100 20:58 15.03.2020
1307 Clouds 27 1012 74 10000 1.5 100 20:58 15.03.2020
1308 Clouds 27 1012 74 10000 1.5 100 20:40 15.03.2020
1309 Clouds 27 1012 74 10000 1.5 100 20:20 15.03.2020
1310 Clouds 27 1012 74 10000 1 0 19:55 15.03.2020
1311 Clouds 27 1012 74 10000 1 0 19:55 15.03.2020
1312 Clouds 27 1012 74 10000 1 0 19:37 15.03.2020
1313 Clouds 27 1012 74 10000 1 0 19:18 15.03.2020
1314 Clouds 27 1013 74 10000 1.5 120 18:42 15.03.2020
1315 Clouds 27 1013 74 10000 1.5 120 18:24 15.03.2020
1316 Clouds 27 1013 74 10000 2.6 120 17:59 15.03.2020
1317 Clouds 27 1013 74 10000 2.6 120 17:39 15.03.2020
1318 Clouds 27 1013 74 10000 2.6 120 17:20 15.03.2020
1319 Clouds 27 1013 69 10000 3.1 120 16:55 15.03.2020
1320 Clouds 27 1013 69 10000 3.1 120 16:37 15.03.2020
1321 Clouds 28 1013 69 10000 3.1 120 16:18 15.03.2020
1322 Clouds 28 1013 65 10000 2.6 120 15:42 15.03.2020
1323 Clouds 28 1013 65 10000 2.6 120 15:22 15.03.2020
1324 Clouds 28 1013 65 10000 3.1 120 14:47 15.03.2020
1325 Clouds 28 1013 65 10000 3.1 120 14:28 15.03.2020
1326 Clouds 28 1012 69 10000 3.1 110 13:59 15.03.2020
1327 Clouds 28 1012 69 10000 3.1 110 13:39 15.03.2020
1328 Clouds 28 1012 69 10000 3.1 110 13:21 15.03.2020
1329 Clouds 28 1012 66 10000 2.6 120 12:57 15.03.2020
1330 Clouds 28 1012 66 10000 2.6 120 12:38 15.03.2020
1331 Clouds 29 1012 66 10000 2.6 120 12:20 15.03.2020
1332 Clouds 29 1011 62 10000 4.1 110 11:40 15.03.2020
1333 Clouds 29 1011 62 10000 4.1 110 11:22 15.03.2020
1334 Clouds 30 1011 58 10000 5.1 100 10:56 15.03.2020
1335 Clouds 30 1011 58 10000 5.1 100 10:37 15.03.2020
1336 Clouds 31 1011 58 10000 5.1 100 10:19 15.03.2020
1337 Clouds 31 1011 58 10000 5.1 110 09:40 15.03.2020
1338 Clouds 31 1011 58 10000 5.1 110 09:22 15.03.2020
1339 Clouds 31 1011 55 10000 4.1 120 08:44 15.03.2020
1340 Clouds 32 1011 55 10000 4.1 120 08:21 15.03.2020
1341 Clouds 33 1011 49 10000 3.6 120 07:51 15.03.2020
1342 Clouds 33 1011 49 10000 3.6 120 07:31 15.03.2020
1343 Clouds 32 1013 46 10000 1.5 0 06:53 15.03.2020
1344 Clouds 33 1013 46 10000 1.5 0 06:18 15.03.2020
1345 Clouds 31 1014 62 10000 2.1 0 05:19 15.03.2020
1346 Clouds 31 1015 66 10000 3.1 0 04:43 15.03.2020
1347 Clouds 31 1015 66 10000 3.1 0 04:24 15.03.2020
1348 Clouds 31 1015 70 10000 3.1 310 03:48 15.03.2020
1349 Clouds 30 1015 62 10000 1.5 0 02:38 15.03.2020
1350 Clouds 28 1015 69 10000 2.1 70 01:34 15.03.2020
1351 Clouds 28 1014 74 10000 1.5 90 00:46 15.03.2020
1352 Clouds 27 1014 74 10000 1.5 90 00:24 15.03.2020
1353 Clouds 26 1013 78 10000 1.5 120 23:55 14.03.2020
1354 Clouds 26 1013 78 10000 1.5 120 23:36 14.03.2020
1355 Clouds 26 1013 78 10000 1.5 120 23:18 14.03.2020
1356 Clouds 26 1012 78 10000 0.5 0 22:42 14.03.2020
1357 Clouds 26 1012 78 10000 0.5 0 22:23 14.03.2020
1358 Clouds 26 1012 78 10000 1 0 21:56 14.03.2020
1359 Clouds 26 1012 78 10000 1 0 21:36 14.03.2020
1360 Clouds 26 1012 78 10000 1 0 21:36 14.03.2020
1361 Clouds 26 1012 78 10000 1 0 21:18 14.03.2020
1362 Clouds 26 1012 78 10000 1 0 20:58 14.03.2020
1363 Clouds 26 1012 78 10000 1 0 20:40 14.03.2020
1364 Clouds 27 1012 78 10000 1 0 20:19 14.03.2020
1365 Clouds 27 1013 78 10000 1.5 0 19:43 14.03.2020
1366 Clouds 26 1013 78 10000 1.5 0 19:25 14.03.2020
1367 Rain 27 1013 69 10000 2.1 120 18:42 14.03.2020
1368 Rain 27 1013 69 10000 2.1 120 18:23 14.03.2020
1369 Clouds 27 1013 78 10000 1.5 170 17:56 14.03.2020
1370 Clouds 27 1013 78 10000 1.5 170 17:38 14.03.2020
1371 Clouds 27 1013 78 10000 1.5 170 17:20 14.03.2020
1372 Clouds 27 1014 78 10000 2.1 170 16:40 14.03.2020
1373 Clouds 27 1014 78 10000 2.1 170 16:22 14.03.2020
1374 Clouds 28 1013 74 10000 2.1 180 15:56 14.03.2020
1375 Clouds 28 1013 74 10000 2.1 180 15:26 14.03.2020
1376 Clouds 28 1013 70 10000 2.1 180 14:55 14.03.2020
1377 Clouds 28 1013 70 10000 2.1 180 14:36 14.03.2020
1378 Clouds 29 1013 70 10000 2.1 180 14:18 14.03.2020
1379 Clouds 29 1012 70 10000 3.1 190 13:42 14.03.2020
1380 Clouds 29 1012 70 10000 3.1 190 13:23 14.03.2020
1381 Clouds 29 1011 58 10000 3.6 120 12:47 14.03.2020
1382 Clouds 29 1011 58 10000 3.6 120 12:27 14.03.2020
1383 Clouds 29 1011 58 10000 3.6 120 12:27 14.03.2020
1384 Clouds 30 1011 58 10000 3.1 0 11:57 14.03.2020
1385 Clouds 30 1011 58 10000 3.1 0 11:38 14.03.2020
1386 Clouds 31 1010 49 10000 3.6 140 11:20 14.03.2020
1387 Clouds 31 1010 49 10000 3.6 140 10:45 14.03.2020
1388 Clouds 32 1010 49 10000 3.6 140 10:27 14.03.2020
1389 Clouds 32 1010 52 10000 3.6 160 09:57 14.03.2020
1390 Clouds 32 1010 52 10000 3.6 160 09:39 14.03.2020
1391 Clouds 32 1010 52 10000 3.6 160 09:39 14.03.2020
1392 Clouds 33 1010 52 10000 3.6 160 09:19 14.03.2020
1393 Clouds 34 1010 46 10000 3.6 160 08:42 14.03.2020
1394 Clouds 34 1010 46 10000 3.6 160 08:21 14.03.2020
1395 Clouds 33 1011 46 10000 3.6 150 07:39 14.03.2020
1396 Clouds 34 1011 46 10000 3.6 150 07:20 14.03.2020
1397 Clouds 33 1012 46 10000 3.1 130 06:41 14.03.2020
1398 Clouds 33 1012 46 10000 3.1 140 05:47 14.03.2020
1399 Clouds 33 1012 46 10000 3.1 140 05:47 14.03.2020
1400 Clouds 32 1014 49 10000 3.1 130 04:42 14.03.2020
1401 Clouds 32 1014 52 10000 2.1 0 03:24 14.03.2020
1402 Clouds 31 1014 58 10000 2.1 0 02:25 14.03.2020
1403 Clouds 27 1014 74 10000 1.5 70 00:57 14.03.2020
1404 Clouds 26 1013 74 10000 0.5 0 23:51 13.03.2020
1405 Clouds 26 1013 74 10000 0.5 0 23:30 13.03.2020
1406 Clouds 26 1012 74 10000 0.5 0 22:52 13.03.2020
1407 Clouds 26 1012 74 10000 0.5 0 22:52 13.03.2020
1408 Clouds 26 1012 74 10000 0.5 0 22:26 13.03.2020
1409 Clouds 26 1012 74 10000 2.58 90 21:44 13.03.2020
1410 Clouds 26 1012 74 10000 2.58 90 21:22 13.03.2020
1411 Clouds 26 1012 78 10000 1 0 20:59 13.03.2020
1412 Clouds 26 1012 78 10000 1 0 20:41 13.03.2020
1413 Clouds 26 1012 78 10000 1 0 20:21 13.03.2020
1414 Clouds 26 1012 78 10000 1.5 80 19:49 13.03.2020
1415 Clouds 26 1012 78 10000 1.5 80 19:30 13.03.2020
1416 Clouds 27 1013 74 10000 2.6 110 18:51 13.03.2020
1417 Clouds 27 1013 74 10000 2.6 110 18:32 13.03.2020
1418 Clouds 27 1013 69 10000 4.1 130 17:59 13.03.2020
1419 Clouds 27 1013 69 10000 4.1 130 17:41 13.03.2020
1420 Clouds 28 1013 69 10000 4.1 130 17:20 13.03.2020
1421 Clouds 28 1014 69 10000 2.6 130 16:42 13.03.2020
1422 Clouds 28 1014 69 10000 2.6 130 16:24 13.03.2020
1423 Clouds 28 1014 69 10000 2.6 120 15:59 13.03.2020
1424 Clouds 28 1014 69 10000 2.6 120 15:39 13.03.2020
1425 Clouds 28 1014 69 10000 2.6 120 15:20 13.03.2020
1426 Clouds 29 1014 66 10000 2.6 130 14:43 13.03.2020
1427 Clouds 29 1014 66 10000 2.6 130 14:23 13.03.2020
1428 Clouds 29 1013 51 10000 2.6 100 13:58 13.03.2020
1429 Clouds 29 1013 51 10000 2.6 100 13:39 13.03.2020
1430 Clouds 30 1013 51 10000 2.6 100 13:20 13.03.2020
1431 Clouds 30 1013 51 10000 3.6 120 12:55 13.03.2020
1432 Clouds 30 1013 51 10000 3.6 120 12:36 13.03.2020
1433 Clouds 31 1013 46 10000 3.6 120 12:18 13.03.2020
1434 Clouds 31 1013 46 10000 3.6 120 11:42 13.03.2020
1435 Clouds 31 1013 46 10000 3.6 120 11:24 13.03.2020
1436 Clouds 32 1012 46 10000 4.1 120 10:57 13.03.2020
1437 Clouds 32 1012 46 10000 4.1 120 10:38 13.03.2020
1438 Clouds 33 1012 46 10000 4.1 120 10:20 13.03.2020
1439 Clouds 33 1013 44 10000 4.1 130 09:43 13.03.2020
1440 Clouds 33 1013 44 10000 4.1 130 09:24 13.03.2020
1441 Clouds 34 1013 44 10000 4.6 120 08:46 13.03.2020
1442 Clouds 34 1013 44 10000 4.6 120 08:23 13.03.2020
1443 Clouds 34 1014 46 10000 2.1 130 07:52 13.03.2020
1444 Clouds 34 1014 46 10000 2.1 130 07:28 13.03.2020
1445 Clouds 33 1015 49 10000 4.6 110 06:53 13.03.2020
1446 Clouds 33 1015 49 10000 4.6 110 06:32 13.03.2020
1447 Clouds 33 1016 52 10000 3.6 120 05:55 13.03.2020
1448 Clouds 33 1016 52 10000 3.6 120 05:24 13.03.2020
1449 Clouds 32 1017 55 10000 4.1 130 04:38 13.03.2020
1450 Clouds 31 1017 62 10000 3.6 100 03:42 13.03.2020
1451 Clouds 29 1016 62 10000 0.5 0 01:47 13.03.2020
1452 Clouds 29 1016 62 10000 0.5 0 01:19 13.03.2020
1453 Clouds 27 1016 74 9000 0.5 0 00:53 13.03.2020
1454 Clouds 26 1016 74 9000 0.5 0 00:27 13.03.2020
1455 Clouds 26 1015 74 9000 1 90 23:55 12.03.2020
1456 Clouds 25 1015 74 9000 1 90 23:28 12.03.2020
1457 Clouds 26 1014 78 10000 1.5 100 22:57 12.03.2020
1458 Clouds 26 1014 78 10000 1.5 100 22:39 12.03.2020
1459 Clouds 26 1014 78 10000 1.5 100 22:21 12.03.2020
1460 Clouds 26 1014 78 10000 1 70 21:44 12.03.2020
1461 Clouds 26 1014 78 10000 1 70 21:26 12.03.2020
1462 Clouds 26 1014 74 10000 1.5 130 20:57 12.03.2020
1463 Clouds 26 1014 74 10000 1.5 130 20:38 12.03.2020
1464 Clouds 27 1014 74 10000 1.5 130 20:19 12.03.2020
1465 Clouds 27 1014 78 10000 1.5 110 19:40 12.03.2020
1466 Clouds 27 1014 78 10000 1.5 110 19:20 12.03.2020
1467 Clouds 27 1015 74 10000 2.1 100 18:44 12.03.2020
1468 Clouds 27 1015 74 10000 2.1 100 18:24 12.03.2020
1469 Clouds 27 1015 74 10000 2.1 100 17:57 12.03.2020
1470 Clouds 27 1015 74 10000 1.5 120 17:38 12.03.2020
1471 Clouds 27 1015 74 10000 1.5 120 17:19 12.03.2020
1472 Clouds 27 1015 69 10000 1.5 110 16:55 12.03.2020
1473 Clouds 28 1015 69 10000 1.5 110 16:37 12.03.2020
1474 Clouds 28 1015 69 10000 1.5 110 16:18 12.03.2020
1475 Clouds 28 1015 65 10000 2.1 110 15:44 12.03.2020
1476 Clouds 28 1015 65 10000 2.1 110 15:26 12.03.2020
1477 Clouds 28 1015 66 10000 2.6 100 14:40 12.03.2020
1478 Clouds 29 1015 66 10000 2.6 100 14:21 12.03.2020
1479 Clouds 29 1014 66 10000 3.6 110 13:42 12.03.2020
1480 Clouds 29 1014 66 10000 3.6 110 13:23 12.03.2020
1481 Clouds 29 1013 58 10000 3.1 100 12:56 12.03.2020
1482 Clouds 29 1013 58 10000 3.1 100 12:38 12.03.2020
1483 Clouds 30 1013 58 10000 3.1 100 12:20 12.03.2020
1484 Clouds 30 1013 55 10000 4.1 100 11:56 12.03.2020
1485 Clouds 30 1013 55 10000 4.1 100 11:37 12.03.2020
1486 Clouds 30 1013 55 10000 4.1 100 11:19 12.03.2020
1487 Clouds 31 1013 49 10000 4.6 100 10:58 12.03.2020
1488 Clouds 31 1013 49 10000 4.6 100 10:40 12.03.2020
1489 Clouds 32 1013 49 10000 4.6 100 10:22 12.03.2020
1490 Clouds 33 1012 49 10000 5.1 100 09:45 12.03.2020
1491 Clouds 33 1012 49 10000 5.1 100 09:25 12.03.2020
1492 Clouds 33 1013 49 10000 6.7 110 08:43 12.03.2020
1493 Clouds 33 1013 49 10000 6.7 110 08:20 12.03.2020
1494 Clouds 33 1013 46 10000 5.7 120 07:53 12.03.2020
1495 Clouds 33 1013 46 10000 5.7 120 07:23 12.03.2020
1496 Clouds 33 1014 49 10000 6.2 120 06:59 12.03.2020
1497 Clouds 33 1015 49 10000 5.1 110 05:43 12.03.2020
1498 Clouds 33 1015 49 10000 5.1 110 05:21 12.03.2020
1499 Clouds 31 1016 58 10000 6.2 100 02:38 12.03.2020
1500 Clouds 29 1015 62 10000 5.7 100 01:31 12.03.2020
1501 Clouds 28 1015 69 10000 4.1 100 00:44 12.03.2020
1502 Clouds 28 1015 69 10000 4.1 100 00:26 12.03.2020
1503 Clouds 27 1014 69 10000 4.1 90 23:45 11.03.2020
1504 Clouds 27 1014 69 10000 4.1 90 23:24 11.03.2020
1505 Clouds 27 1013 69 10000 3.1 100 22:48 11.03.2020
1506 Clouds 27 1013 69 10000 3.1 100 22:29 11.03.2020
1507 Clouds 27 1013 69 10000 3.6 90 21:59 11.03.2020
1508 Clouds 27 1013 69 10000 3.6 90 21:41 11.03.2020
1509 Clouds 27 1013 69 10000 3.6 90 21:22 11.03.2020
1510 Clouds 27 1013 69 10000 3.6 90 21:22 11.03.2020
1511 Clouds 27 1013 69 10000 4.6 100 20:58 11.03.2020
1512 Clouds 27 1013 69 10000 4.6 100 20:39 11.03.2020
1513 Clouds 27 1013 69 10000 4.6 100 20:19 11.03.2020
1514 Clouds 27 1013 69 10000 4.6 110 19:44 11.03.2020
1515 Clouds 27 1013 69 10000 4.6 110 19:25 11.03.2020
1516 Clouds 27 1014 65 10000 5.1 110 18:58 11.03.2020
1517 Clouds 27 1014 65 10000 5.1 110 18:39 11.03.2020
1518 Clouds 28 1014 65 10000 5.1 110 18:21 11.03.2020
1519 Clouds 28 1014 65 10000 5.1 110 17:56 11.03.2020
1520 Clouds 28 1014 65 10000 5.1 110 17:37 11.03.2020
1521 Clouds 28 1014 65 10000 5.1 110 17:19 11.03.2020
1522 Clouds 28 1014 69 10000 6.2 110 16:45 11.03.2020
1523 Clouds 28 1014 69 10000 6.2 110 16:22 11.03.2020
1524 Clouds 28 1014 74 10000 5.1 110 15:45 11.03.2020
1525 Clouds 28 1014 74 10000 5.1 110 15:24 11.03.2020
1526 Clouds 28 1014 70 10000 3.6 120 14:57 11.03.2020
1527 Clouds 29 1014 70 10000 3.6 120 14:39 11.03.2020
1528 Clouds 29 1014 70 10000 3.6 120 14:21 11.03.2020
1529 Clouds 29 1013 70 10000 3.1 120 13:44 11.03.2020
1530 Clouds 29 1013 70 10000 3.1 120 13:26 11.03.2020
1531 Clouds 29 1013 70 10000 3.6 120 12:58 11.03.2020
1532 Clouds 29 1013 70 10000 3.6 120 12:39 11.03.2020
1533 Clouds 29 1013 70 10000 3.6 120 12:19 11.03.2020
1534 Clouds 29 1012 66 10000 3.6 110 11:42 11.03.2020
1535 Clouds 29 1012 66 10000 3.6 110 11:23 11.03.2020
1536 Clouds 30 1012 62 0 3.6 110 10:56 11.03.2020
1537 Clouds 31 1012 62 0 3.6 110 10:37 11.03.2020
1538 Clouds 31 1012 62 0 3.6 110 10:18 11.03.2020
1539 Clouds 32 1012 59 10000 4.6 90 09:41 11.03.2020
1540 Clouds 32 1012 59 10000 4.6 90 09:23 11.03.2020
1541 Clouds 32 1009 70 10000 5.7 270 08:44 11.03.2020
1542 Clouds 32 1009 70 10000 5.7 270 08:44 11.03.2020
1543 Clouds 32 1009 70 10000 5.7 270 08:44 11.03.2020
1544 Clouds 32 1009 70 10000 5.7 270 08:26 11.03.2020
1545 Clouds 31 1012 66 10000 3.6 120 07:48 11.03.2020
1546 Clouds 31 1012 66 10000 3.6 120 07:22 11.03.2020
1547 Rain 31 1013 66 9000 3.1 0 06:53 11.03.2020
1548 Clouds 32 1013 59 10000 3.1 0 06:33 11.03.2020
1549 Clouds 33 1014 55 10000 3.6 0 05:33 11.03.2020
1550 Clouds 32 1015 62 10000 2.6 0 03:26 11.03.2020
1551 Clouds 30 1014 74 10000 1.5 0 01:54 11.03.2020
1552 Clouds 29 1014 74 10000 1.5 0 01:24 11.03.2020
1553 Clouds 28 1013 78 10000 2.6 360 00:40 11.03.2020
1554 Clouds 27 1012 78 10000 2.6 20 23:50 10.03.2020
1555 Clouds 27 1012 78 10000 2.6 20 23:28 10.03.2020
1556 Clouds 27 1012 78 10000 2.1 340 22:58 10.03.2020
1557 Clouds 27 1012 78 10000 2.1 340 22:37 10.03.2020
1558 Clouds 27 1012 78 10000 2.1 340 22:19 10.03.2020
1559 Rain 27 1012 83 10000 2.6 360 21:56 10.03.2020
1560 Rain 27 1012 83 10000 2.6 360 21:38 10.03.2020
1561 Rain 27 1012 83 10000 2.6 360 21:19 10.03.2020
1562 Clouds 27 1012 83 10000 2.1 310 20:43 10.03.2020
1563 Clouds 26 1012 83 10000 2.1 310 20:21 10.03.2020
1564 Clouds 26 1012 83 10000 1 250 19:59 10.03.2020
1565 Clouds 26 1012 83 10000 1 250 19:40 10.03.2020
1566 Clouds 26 1012 83 10000 1 250 19:22 10.03.2020
1567 Clouds 26 1012 88 10000 2.1 260 18:56 10.03.2020
1568 Clouds 26 1012 88 10000 2.1 260 18:37 10.03.2020
1569 Clouds 26 1012 88 10000 2.1 260 18:19 10.03.2020
1570 Rain 26 1013 94 5000 3.6 290 17:41 10.03.2020
1571 Rain 25 1013 94 5000 3.6 290 17:23 10.03.2020
1572 Clouds 27 1013 79 10000 2.1 250 16:57 10.03.2020
1573 Clouds 28 1013 79 10000 2.1 250 16:37 10.03.2020
1574 Clouds 28 1013 79 10000 2.1 250 16:18 10.03.2020
1575 Clouds 29 1013 74 10000 2.1 210 15:41 10.03.2020
1576 Clouds 29 1013 74 10000 2.1 210 15:20 10.03.2020
1577 Clouds 29 1012 83 10000 1.5 230 14:58 10.03.2020
1578 Clouds 29 1012 83 10000 1.5 230 14:40 10.03.2020
1579 Clouds 29 1012 83 10000 1.5 230 14:19 10.03.2020
1580 Clouds 29 1011 83 10000 3.6 260 13:43 10.03.2020
1581 Clouds 29 1011 83 10000 3.6 260 13:25 10.03.2020
1582 Clouds 30 1010 74 10000 3.6 260 12:42 10.03.2020
1583 Clouds 30 1010 74 10000 3.6 260 12:21 10.03.2020
1584 Clouds 30 1010 74 10000 5.1 260 11:59 10.03.2020
1585 Clouds 30 1010 74 10000 5.1 260 11:41 10.03.2020
1586 Clouds 30 1010 74 10000 5.1 260 11:23 10.03.2020
1587 Clouds 30 1009 66 10000 5.7 270 10:54 10.03.2020
1588 Clouds 31 1009 66 10000 5.7 270 10:36 10.03.2020
1589 Clouds 31 1009 66 10000 5.7 270 10:18 10.03.2020
1590 Clouds 32 1009 66 10000 6.2 260 09:44 10.03.2020
1591 Clouds 32 1009 66 10000 6.2 260 09:20 10.03.2020
1592 Clouds 33 1009 70 10000 5.7 270 08:53 10.03.2020
1593 Clouds 32 1009 70 10000 5.7 270 08:35 10.03.2020
1594 Clouds 33 1010 59 10000 5.7 280 07:53 10.03.2020
1595 Clouds 33 1010 59 10000 5.7 280 07:35 10.03.2020
1596 Clouds 34 1011 59 10000 3.6 280 06:57 10.03.2020
1597 Clouds 33 1011 59 10000 3.6 280 06:37 10.03.2020
1598 Clouds 33 1012 62 10000 4.1 270 05:42 10.03.2020
1599 Clouds 32 1013 70 9000 3.6 260 04:59 10.03.2020
1600 Clouds 32 1013 70 9000 3.6 260 04:25 10.03.2020
1601 Clouds 32 1013 70 9000 3.6 260 04:25 10.03.2020
1602 Clouds 31 1013 70 10000 2.1 260 02:46 10.03.2020
1603 Clouds 29 1012 79 10000 1 0 01:31 10.03.2020
1604 Clouds 28 1012 83 10000 0.5 0 00:50 10.03.2020
1605 Clouds 28 1012 83 10000 0.5 0 00:27 10.03.2020
1606 Clouds 27 1011 83 10000 1 220 23:41 09.03.2020
1607 Clouds 28 1011 83 10000 1 220 23:22 09.03.2020
1608 Clouds 27 1010 88 10000 1 0 22:56 09.03.2020
1609 Clouds 27 1010 88 10000 1 0 22:37 09.03.2020
1610 Clouds 27 1010 88 10000 1 0 22:18 09.03.2020
1611 Clouds 27 1010 88 10000 1.5 280 21:42 09.03.2020
1612 Clouds 27 1010 88 10000 1.5 280 21:22 09.03.2020
1613 Clouds 27 1010 88 10000 1.5 250 20:58 09.03.2020
1614 Clouds 27 1010 88 10000 1.5 250 20:39 09.03.2020
1615 Clouds 27 1010 88 10000 1.5 250 20:20 09.03.2020
1616 Clouds 27 1010 88 10000 0.5 260 19:45 09.03.2020
1617 Clouds 27 1010 88 10000 0.5 260 19:26 09.03.2020
1618 Clouds 28 1010 83 10000 1 230 18:59 09.03.2020
1619 Clouds 28 1010 83 10000 1 230 18:39 09.03.2020
1620 Clouds 28 1010 83 10000 1 230 18:20 09.03.2020
1621 Clouds 28 1011 83 10000 1.5 220 17:58 09.03.2020
1622 Clouds 28 1011 83 10000 1.5 220 17:38 09.03.2020
1623 Clouds 28 1011 83 10000 1.5 220 17:20 09.03.2020
1624 Clouds 28 1011 78 10000 2.1 260 16:58 09.03.2020
1625 Clouds 28 1012 82 0 0.89 292 16:40 09.03.2020
1626 Clouds 28 1011 74 10000 2.1 230 16:22 09.03.2020
1627 Clouds 28 1011 74 10000 2.1 230 15:58 09.03.2020
1628 Clouds 28 1011 74 10000 2.1 230 15:39 09.03.2020
1629 Clouds 28 1011 74 10000 2.1 230 15:20 09.03.2020
1630 Clouds 28 1010 74 10000 3.1 230 14:55 09.03.2020
1631 Clouds 28 1010 74 10000 3.1 230 14:37 09.03.2020
1632 Clouds 29 1010 74 10000 3.1 230 14:18 09.03.2020
1633 Clouds 29 1009 74 10000 3.6 250 13:55 09.03.2020
1634 Clouds 29 1009 74 10000 3.6 250 13:37 09.03.2020
1635 Clouds 29 1009 74 10000 3.6 250 13:18 09.03.2020
1636 Clouds 29 1009 74 10000 3.6 250 13:18 09.03.2020
1637 Clouds 29 1009 74 10000 3.6 250 13:18 09.03.2020
1638 Clouds 29 1009 79 10000 5.1 250 12:41 09.03.2020
1639 Clouds 29 1009 79 10000 5.1 250 12:22 09.03.2020
1640 Clouds 29 1008 79 10000 6.2 260 11:42 09.03.2020
1641 Clouds 29 1008 79 10000 6.2 260 11:22 09.03.2020
1642 Clouds 29 1008 70 10000 5.7 260 10:59 09.03.2020
1643 Clouds 30 1008 70 10000 5.7 260 10:40 09.03.2020
1644 Clouds 30 1008 70 10000 5.7 260 10:40 09.03.2020
1645 Clouds 31 1008 70 10000 5.7 260 10:20 09.03.2020
1646 Clouds 31 1007 66 10000 5.7 260 09:57 09.03.2020
1647 Clouds 31 1007 66 10000 5.7 260 09:37 09.03.2020
1648 Clouds 32 1007 66 10000 5.7 260 09:19 09.03.2020
1649 Clouds 33 1007 52 10000 3.6 120 08:42 09.03.2020
1650 Clouds 33 1007 52 10000 3.6 120 08:23 09.03.2020
1651 Clouds 35 1008 50 10000 4.1 120 07:41 09.03.2020
1652 Clouds 35 1008 50 10000 4.1 120 07:21 09.03.2020
1653 Clouds 34 1009 56 10000 4.1 140 06:43 09.03.2020
1654 Clouds 34 1009 56 10000 4.1 140 06:24 09.03.2020
1655 Clouds 34 1010 52 10000 4.1 110 05:47 09.03.2020
1656 Clouds 34 1010 52 10000 4.1 110 05:22 09.03.2020
1657 Clouds 33 1011 59 10000 4.1 0 04:43 09.03.2020
1658 Clouds 32 1011 59 10000 4.1 0 04:21 09.03.2020
1659 Clouds 31 1012 70 10000 3.6 100 02:59 09.03.2020
1660 Clouds 30 1011 70 10000 2.6 100 01:26 09.03.2020
1661 Clouds 30 1011 70 10000 2.6 100 01:26 09.03.2020
1662 Clouds 28 1010 78 10000 2.1 100 00:38 09.03.2020
1663 Clouds 28 1010 78 10000 2.1 100 00:20 09.03.2020
1664 Clouds 27 1010 78 10000 1.5 110 23:47 08.03.2020
1665 Clouds 27 1010 78 10000 1.5 110 23:21 08.03.2020
1666 Clouds 27 1009 88 10000 1 0 22:55 08.03.2020
1667 Clouds 27 1009 88 10000 1 0 22:55 08.03.2020
1668 Clouds 27 1009 88 10000 1 0 22:37 08.03.2020
1669 Clouds 27 1009 88 10000 1 0 22:18 08.03.2020
1670 Clouds 27 1009 78 10000 1 0 21:42 08.03.2020
1671 Clouds 28 1009 78 10000 1 0 21:23 08.03.2020
1672 Clouds 28 1009 78 10000 1 0 21:23 08.03.2020
1673 Clouds 27 1009 83 10000 1 0 20:59 08.03.2020
1674 Clouds 28 1009 83 10000 1 0 20:39 08.03.2020
1675 Clouds 28 1009 83 10000 1 0 20:20 08.03.2020
1676 Clouds 28 1009 83 10000 1 0 19:41 08.03.2020
1677 Clouds 28 1009 83 10000 1 0 19:21 08.03.2020
1678 Clouds 28 1009 83 10000 1 0 18:59 08.03.2020
1679 Clouds 28 1010 83 10000 2.1 0 18:40 08.03.2020
1680 Clouds 28 1010 83 10000 2.1 0 18:21 08.03.2020
1681 Clouds 28 1009 84 0 2.61 106 17:55 08.03.2020
1682 Clouds 28 1009 84 0 2.61 106 17:37 08.03.2020
1683 Clouds 28 1009 84 0 2.61 106 17:37 08.03.2020
1684 Clouds 28 1011 83 10000 2.1 140 17:18 08.03.2020
1685 Clouds 28 1011 83 10000 2.1 140 16:42 08.03.2020
1686 Clouds 28 1011 83 10000 2.1 140 16:23 08.03.2020
1687 Rain 28 1011 74 10000 2.1 160 15:55 08.03.2020
1688 Rain 28 1011 74 10000 2.1 160 15:37 08.03.2020
1689 Rain 28 1011 74 10000 2.1 160 15:18 08.03.2020
1690 Clouds 29 1011 79 10000 1 0 14:40 08.03.2020
1691 Clouds 29 1011 79 10000 1 0 14:21 08.03.2020
1692 Clouds 29 1010 79 10000 2.1 240 13:55 08.03.2020
1693 Clouds 29 1010 79 10000 2.1 240 13:36 08.03.2020
1694 Clouds 29 1010 79 10000 2.1 240 13:18 08.03.2020
1695 Clouds 29 1009 79 10000 4.6 260 12:37 08.03.2020
1696 Clouds 29 1009 79 10000 4.6 260 12:18 08.03.2020
1697 Clouds 30 974 66 10000 3.1 200 11:42 08.03.2020
1698 Clouds 30 1008 66 10000 4.6 260 11:23 08.03.2020
1699 Clouds 31 1008 66 10000 4.6 260 10:57 08.03.2020
1700 Clouds 31 1008 66 10000 4.6 260 10:39 08.03.2020
1701 Clouds 31 1008 66 10000 4.6 260 10:21 08.03.2020
1702 Clouds 33 1007 63 10000 3.1 260 09:39 08.03.2020
1703 Clouds 33 1007 63 10000 3.1 260 09:21 08.03.2020
1704 Clouds 35 1008 50 10000 3.1 110 08:46 08.03.2020
1705 Clouds 35 1008 50 10000 3.1 110 08:21 08.03.2020
1706 Clouds 35 1009 47 10000 3.1 110 07:49 08.03.2020
1707 Clouds 34 1009 47 10000 3.1 110 07:28 08.03.2020
1708 Clouds 34 1010 47 10000 3.6 90 06:43 08.03.2020
1709 Clouds 34 1010 47 10000 3.6 90 06:25 08.03.2020
1710 Clear 33 1011 55 0 2.24 102 05:43 08.03.2020
1711 Clouds 32 1013 62 10000 1.5 150 03:52 08.03.2020
1712 Clouds 31 1013 66 10000 2.1 100 02:58 08.03.2020
1713 Clouds 29 1012 74 10000 2.6 110 01:38 08.03.2020
1714 Clouds 29 1012 74 10000 2.1 120 01:18 08.03.2020
1715 Clouds 28 1012 74 10000 2.1 120 00:30 08.03.2020
1716 Clouds 27 1011 78 10000 1 0 23:57 07.03.2020
1717 Clouds 27 1011 78 10000 1 0 23:36 07.03.2020
1718 Clouds 27 1011 78 10000 1 0 23:36 07.03.2020
1719 Clouds 27 1011 78 10000 1 0 23:18 07.03.2020
1720 Clouds 27 1011 78 10000 2.1 130 22:38 07.03.2020
1721 Clouds 27 1011 78 10000 2.1 130 22:19 07.03.2020
1722 Clouds 27 1010 78 10000 2.1 130 21:44 07.03.2020
1723 Clouds 27 1010 78 10000 2.1 130 21:22 07.03.2020
1724 Clouds 27 1010 83 10000 1.5 150 20:41 07.03.2020
1725 Clouds 27 1010 83 10000 1.5 150 20:21 07.03.2020
1726 Clouds 27 1010 83 10000 2.1 0 19:42 07.03.2020
1727 Clouds 27 1010 83 10000 2.1 0 19:23 07.03.2020
1728 Clouds 27 1011 83 10000 2.1 130 19:00 07.03.2020
1729 Clouds 27 1011 83 10000 2.1 130 18:39 07.03.2020
1730 Clouds 27 1011 83 10000 2.1 130 18:21 07.03.2020
1731 Clouds 27 1011 83 10000 2.1 150 17:42 07.03.2020
1732 Clouds 27 1011 83 10000 2.1 150 17:20 07.03.2020
1733 Clouds 28 1012 78 10000 2.6 0 16:56 07.03.2020
1734 Clouds 28 1012 78 10000 2.6 0 16:38 07.03.2020
1735 Clouds 28 1012 78 10000 2.6 0 16:20 07.03.2020
1736 Clouds 28 1011 74 10000 1.5 0 15:55 07.03.2020
1737 Clouds 28 1011 74 10000 1.5 0 15:36 07.03.2020
1738 Clouds 28 1011 74 10000 1.5 0 15:18 07.03.2020
1739 Clouds 29 1011 74 10000 1.5 150 14:41 07.03.2020
1740 Clouds 29 1011 74 10000 1.5 150 14:23 07.03.2020
1741 Clouds 29 1011 74 10000 2.1 0 13:43 07.03.2020
1742 Clouds 29 1011 74 10000 2.1 0 13:22 07.03.2020
1743 Clouds 29 1010 70 10000 3.1 130 12:59 07.03.2020
1744 Clouds 29 1010 70 10000 3.1 130 12:38 07.03.2020
1745 Clouds 29 1010 70 10000 3.1 130 12:19 07.03.2020
1746 Clouds 30 1010 62 10000 3.1 130 11:44 07.03.2020
1747 Clouds 31 1010 62 10000 3.1 130 11:24 07.03.2020
1748 Clouds 32 1009 55 10000 2.6 140 10:57 07.03.2020
1749 Clouds 32 1009 55 10000 2.6 140 10:38 07.03.2020
1750 Clouds 33 1009 55 10000 2.6 140 10:18 07.03.2020
1751 Clouds 34 1009 49 10000 2.6 140 09:40 07.03.2020
1752 Clouds 34 1009 49 10000 2.6 140 09:20 07.03.2020
1753 Clouds 34 1009 50 10000 3.6 120 08:57 07.03.2020
1754 Clouds 34 1009 50 10000 3.6 120 08:39 07.03.2020
1755 Clouds 34 1009 50 10000 3.6 120 08:20 07.03.2020
1756 Clouds 33 1010 52 9000 2.6 0 07:46 07.03.2020
1757 Clouds 34 1011 52 0 3.13 136 07:21 07.03.2020
1758 Clouds 33 1012 54 0 2.68 111 06:43 07.03.2020
1759 Clouds 33 1010 61 0 1.34 282 06:25 07.03.2020
1760 Clouds 33 1010 61 0 1.34 282 06:25 07.03.2020
1761 Clouds 32 1013 59 0 1.79 258 05:40 07.03.2020
1762 Clouds 31 1014 62 10000 3.6 280 03:47 07.03.2020
1763 Clouds 30 1016 63 0 1.79 255 02:44 07.03.2020
1764 Clouds 28 1014 65 9000 2.1 0 01:56 07.03.2020
1765 Clouds 27 1013 78 10000 1.5 240 00:58 07.03.2020
1766 Clouds 26 1013 78 10000 1.5 240 00:23 07.03.2020
1767 Clouds 25 1012 74 10000 0.5 0 23:58 06.03.2020
1768 Clouds 25 1012 74 10000 0.5 0 23:39 06.03.2020
1769 Clouds 25 1012 74 10000 0.5 0 23:21 06.03.2020
1770 Clouds 25 1011 74 10000 0.5 0 22:44 06.03.2020
1771 Clouds 26 1011 74 10000 0.5 0 22:19 06.03.2020
1772 Clouds 26 1011 74 10000 1 0 21:46 06.03.2020
1773 Clouds 26 1011 74 10000 1 0 21:20 06.03.2020
1774 Clouds 26 1011 69 10000 1.5 120 20:43 06.03.2020
1775 Clouds 26 1011 69 10000 1.5 120 20:22 06.03.2020
1776 Clouds 26 1013 74 10000 1 0 19:55 06.03.2020
1777 Clouds 26 1013 74 10000 1 0 19:36 06.03.2020
1778 Clouds 26 1013 74 10000 1 0 19:18 06.03.2020
1779 Clouds 27 1013 69 10000 1.5 120 18:42 06.03.2020
1780 Clouds 27 1013 69 10000 1.5 120 18:20 06.03.2020
1781 Clouds 27 1013 69 10000 3.1 360 17:56 06.03.2020
1782 Clouds 27 1013 69 10000 3.1 360 17:38 06.03.2020
1783 Clouds 27 1013 69 10000 3.1 130 17:19 06.03.2020
1784 Clouds 27 1013 69 10000 3.1 130 16:42 06.03.2020
1785 Clouds 27 1013 69 10000 3.1 130 16:21 06.03.2020
1786 Clouds 27 1013 65 10000 2.6 0 15:58 06.03.2020
1787 Clouds 27 1013 65 10000 2.6 0 15:40 06.03.2020
1788 Clouds 28 1013 65 10000 2.6 0 15:20 06.03.2020
1789 Clouds 28 1013 65 10000 3.1 140 14:39 06.03.2020
1790 Clouds 28 1013 65 10000 3.1 140 14:21 06.03.2020
1791 Clouds 28 1012 65 10000 2.6 0 13:43 06.03.2020
1792 Clouds 28 1012 65 10000 2.6 0 13:43 06.03.2020
1793 Clouds 28 1012 65 10000 2.6 0 13:23 06.03.2020
1794 Clouds 29 1012 51 10000 2.6 100 12:58 06.03.2020
1795 Clouds 29 1012 51 10000 2.6 100 12:38 06.03.2020
1796 Clouds 29 1012 51 10000 2.6 100 12:19 06.03.2020
1797 Clouds 29 1011 58 0 3.6 120 11:57 06.03.2020
1798 Clouds 29 1011 58 0 3.6 120 11:39 06.03.2020
1799 Clouds 30 1011 58 0 3.6 120 11:20 06.03.2020
1800 Clouds 30 1011 48 0 4.6 120 10:39 06.03.2020
1801 Clouds 31 1011 48 0 4.6 120 10:21 06.03.2020
1802 Clouds 31 1010 49 10000 5.7 130 09:55 06.03.2020
1803 Clouds 32 1010 49 10000 5.7 130 09:36 06.03.2020
1804 Clouds 32 1010 49 10000 5.7 130 09:18 06.03.2020
1805 Clouds 32 1010 52 10000 4.1 140 08:43 06.03.2020
1806 Clouds 32 1010 52 10000 4.1 140 08:25 06.03.2020
1807 Clouds 33 1010 49 10000 5.1 0 07:47 06.03.2020
1808 Clouds 33 1010 49 10000 5.1 0 07:26 06.03.2020
1809 Clouds 33 1011 52 10000 3.1 0 06:56 06.03.2020
1810 Clouds 32 1011 52 10000 3.1 0 06:38 06.03.2020
1811 Clouds 32 1012 55 10000 2.1 0 05:42 06.03.2020
1812 Clouds 32 1012 55 10000 2.1 0 05:22 06.03.2020
1813 Clouds 32 1013 55 10000 2.6 0 04:55 06.03.2020
1814 Clouds 28 1013 69 10000 2.1 130 01:58 06.03.2020
1815 Clouds 28 1013 69 10000 2.1 130 01:38 06.03.2020
1816 Clouds 28 1013 69 10000 2.1 130 01:19 06.03.2020
1817 Clouds 26 1012 78 10000 1 0 00:32 06.03.2020
1818 Clouds 25 1012 83 10000 0.5 0 23:50 05.03.2020
1819 Clouds 25 1012 83 10000 0.5 0 23:29 05.03.2020
1820 Clouds 25 1011 83 10000 2.29 78 22:57 05.03.2020
1821 Clouds 25 1011 83 10000 2.29 78 22:38 05.03.2020
1822 Clouds 25 1011 83 10000 2.29 78 22:20 05.03.2020
1823 Clouds 25 1011 83 10000 2.29 78 21:56 05.03.2020
1824 Clouds 25 1011 83 10000 2.29 78 21:37 05.03.2020
1825 Clouds 25 1011 83 10000 2.29 78 21:37 05.03.2020
1826 Clouds 25 1011 83 10000 2.29 78 21:19 05.03.2020
1827 Clouds 25 1011 83 10000 0.5 50 20:55 05.03.2020
1828 Clouds 25 1011 83 10000 0.5 50 20:36 05.03.2020
1829 Clouds 25 1011 83 10000 0.5 50 20:18 05.03.2020
1830 Clouds 26 1012 78 10000 1.5 120 19:55 05.03.2020
1831 Clouds 26 1012 78 10000 1.5 120 19:37 05.03.2020
1832 Clouds 26 1012 78 10000 1.5 120 19:18 05.03.2020
1833 Clouds 26 1012 78 10000 1.5 120 19:18 05.03.2020
1834 Clouds 26 1012 74 10000 2.1 130 18:38 05.03.2020
1835 Clouds 27 1012 74 10000 2.1 130 18:19 05.03.2020
1836 Clouds 27 1012 69 10000 2.1 0 17:59 05.03.2020
1837 Clouds 27 1012 69 10000 2.1 0 17:40 05.03.2020
1838 Clouds 27 1012 69 10000 2.1 0 17:21 05.03.2020
1839 Clouds 27 1012 69 10000 2.6 130 16:43 05.03.2020
1840 Clouds 27 1012 69 10000 2.6 130 16:25 05.03.2020
1841 Clouds 27 1012 69 10000 3.1 120 15:59 05.03.2020
1842 Clouds 27 1012 69 10000 3.1 120 15:40 05.03.2020
1843 Clouds 27 1012 69 10000 3.1 120 15:21 05.03.2020
1844 Clouds 27 1012 69 10000 3.1 130 14:55 05.03.2020
1845 Clouds 27 1012 69 10000 3.1 130 14:36 05.03.2020
1846 Clouds 27 1012 69 10000 3.1 130 14:18 05.03.2020
1847 Clouds 27 1011 65 10000 2.6 0 13:43 05.03.2020
1848 Clouds 28 1011 65 10000 2.6 0 13:21 05.03.2020
1849 Clouds 28 1011 61 10000 3.1 130 12:57 05.03.2020
1850 Clouds 28 1011 61 10000 3.1 130 12:38 05.03.2020
1851 Clouds 28 1011 61 10000 3.1 130 12:18 05.03.2020
1852 Clouds 29 1010 55 10000 3.6 130 11:56 05.03.2020
1853 Clouds 29 1010 55 10000 3.6 130 11:37 05.03.2020
1854 Clouds 30 1010 55 10000 3.6 130 11:18 05.03.2020
1855 Clouds 30 1010 55 10000 3.6 130 11:18 05.03.2020
1856 Clouds 30 1009 55 10000 4.1 150 10:56 05.03.2020
1857 Clouds 30 1009 55 10000 4.1 150 10:38 05.03.2020
1858 Clouds 31 1009 55 10000 4.1 150 10:19 05.03.2020
1859 Clouds 32 1009 52 10000 3.6 140 09:44 05.03.2020
1860 Clouds 32 1009 52 10000 3.6 140 09:26 05.03.2020
1861 Clouds 32 1009 52 10000 3.6 140 08:44 05.03.2020
1862 Clouds 32 1009 52 10000 3.6 140 08:25 05.03.2020
1863 Clouds 32 1010 52 10000 3.1 160 07:47 05.03.2020
1864 Clouds 33 1010 52 10000 3.1 160 07:22 05.03.2020
1865 Clouds 32 1011 55 10000 3.1 290 06:48 05.03.2020
1866 Clouds 32 1011 55 10000 3.1 290 06:22 05.03.2020
1867 Clouds 31 1012 66 10000 3.6 290 05:39 05.03.2020
1868 Clouds 31 1013 58 10000 3.6 310 04:55 05.03.2020
1869 Clouds 30 1013 58 10000 3.6 310 04:22 05.03.2020
1870 Clouds 30 1014 62 9000 3.1 270 03:34 05.03.2020
1871 Clouds 28 1013 69 9000 1.5 210 01:55 05.03.2020
1872 Clouds 27 1013 69 9000 1.5 210 01:20 05.03.2020
1873 Clouds 25 1013 78 9000 0.5 0 00:26 05.03.2020
1874 Clouds 24 1012 78 10000 0.5 0 23:42 04.03.2020
1875 Clouds 24 1012 78 10000 0.5 0 23:23 04.03.2020
1876 Clouds 24 1012 73 10000 0.5 0 22:58 04.03.2020
1877 Clouds 24 1012 73 10000 0.5 0 22:39 04.03.2020
1878 Clouds 24 1012 73 10000 0.5 0 22:19 04.03.2020
1879 Clouds 24 1012 73 10000 0.5 0 22:19 04.03.2020
1880 Clouds 24 1012 78 10000 0.5 0 21:57 04.03.2020
1881 Clouds 24 1012 78 10000 0.5 0 21:39 04.03.2020
1882 Clouds 24 1012 78 10000 0.5 0 21:20 04.03.2020
1883 Clouds 25 1012 78 10000 1 0 20:54 04.03.2020
1884 Clouds 25 1012 78 10000 1 0 20:36 04.03.2020
1885 Clouds 25 1012 78 10000 1 0 20:18 04.03.2020
1886 Clouds 24 1013 83 10000 2.6 60 19:42 04.03.2020
1887 Clouds 24 1013 83 10000 2.6 60 19:22 04.03.2020
1888 Clouds 25 1013 74 10000 1.5 70 18:54 04.03.2020
1889 Clouds 26 1013 74 10000 1.5 70 18:36 04.03.2020
1890 Clouds 26 1013 74 10000 1.5 70 18:18 04.03.2020
1891 Clouds 26 1013 78 10000 1.5 100 17:40 04.03.2020
1892 Clouds 26 1013 78 10000 1.5 100 17:40 04.03.2020
1893 Clouds 26 1013 78 10000 1.5 100 17:21 04.03.2020
1894 Clouds 26 1013 78 10000 1.5 60 16:59 04.03.2020
1895 Clouds 26 1013 78 10000 1.5 60 16:40 04.03.2020
1896 Clouds 26 1013 78 10000 1.5 60 16:22 04.03.2020
1897 Clouds 26 1013 69 10000 2.6 110 15:55 04.03.2020
1898 Clouds 26 1013 69 10000 2.6 110 15:36 04.03.2020
1899 Clouds 27 1013 69 10000 2.6 110 15:18 04.03.2020
1900 Clouds 27 1012 74 10000 3.6 110 14:41 04.03.2020
1901 Clouds 27 1012 74 10000 3.6 110 14:21 04.03.2020
1902 Clouds 27 1012 69 10000 3.6 100 13:59 04.03.2020
1903 Clouds 27 1012 69 10000 3.6 100 13:39 04.03.2020
1904 Clouds 28 1012 69 10000 3.6 100 13:21 04.03.2020
1905 Clouds 27 1011 71 10000 4.1 120 12:56 04.03.2020
1906 Clouds 27 1011 71 10000 4.1 120 12:38 04.03.2020
1907 Clouds 28 1011 71 10000 4.1 120 12:20 04.03.2020
1908 Clouds 28 1010 66 10000 4.6 110 11:55 04.03.2020
1909 Clouds 28 1010 66 10000 4.6 110 11:37 04.03.2020
1910 Clouds 28 1010 66 10000 4.6 110 11:19 04.03.2020
1911 Clouds 29 1010 62 10000 5.7 120 10:41 04.03.2020
1912 Clouds 29 1010 62 10000 5.7 120 10:22 04.03.2020
1913 Clouds 30 1010 58 10000 5.1 120 09:44 04.03.2020
1914 Clouds 30 1010 58 10000 5.1 120 09:23 04.03.2020
1915 Clouds 30 1010 58 10000 5.7 120 08:59 04.03.2020
1916 Clouds 30 1010 58 10000 5.7 120 08:40 04.03.2020
1917 Clouds 30 1010 58 10000 5.7 120 08:22 04.03.2020
1918 Clouds 29 1011 66 10000 5.7 120 07:44 04.03.2020
1919 Clouds 29 1011 66 10000 5.7 120 07:25 04.03.2020
1920 Clouds 29 1012 62 10000 5.7 120 06:49 04.03.2020
1921 Clouds 29 1012 62 10000 5.7 120 06:26 04.03.2020
1922 Clouds 30 1013 55 10000 5.1 120 05:55 04.03.2020
1923 -273 0 0 0 0 0 04:59 04.03.2020
1924 -273 0 0 0 0 0 04:59 04.03.2020
1925 Clouds 31 1014 55 10000 3.6 130 04:59 04.03.2020
1926 Clouds 31 1014 55 10000 3.1 110 03:49 04.03.2020
1927 Clouds 31 1014 55 10000 3.1 110 03:30 04.03.2020
1928 Clouds 30 1014 62 10000 2.6 100 02:58 04.03.2020
1929 Clouds 29 1014 62 10000 2.6 100 02:23 04.03.2020
1930 Clouds 29 1014 61 10000 2.1 110 01:56 04.03.2020
1931 Clouds 28 1014 61 10000 2.1 110 01:31 04.03.2020
1932 Clouds 26 1014 74 10000 1 0 00:36 04.03.2020
1933 Clouds 26 1014 74 10000 1 0 00:18 04.03.2020
1934 Clouds 25 1013 78 10000 1 0 23:40 03.03.2020
1935 Clouds 25 1013 78 10000 1 0 23:22 03.03.2020
1936 Clouds 24 1013 78 10000 1 0 22:41 03.03.2020
1937 Clouds 24 1013 78 10000 1 0 22:20 03.03.2020
1938 Clouds 25 1012 78 10000 2.1 70 21:59 03.03.2020
1939 Clouds 25 1012 78 10000 2.1 70 21:40 03.03.2020
1940 -273 0 0 0 0 0 21:21 03.03.2020
1941 Clouds 25 1012 83 10000 2.1 120 20:56 03.03.2020
1942 Clouds 25 1012 83 10000 2.1 120 20:38 03.03.2020
1943 Clouds 25 1012 83 10000 2.1 120 20:18 03.03.2020
1944 Clouds 26 1012 74 10000 3.1 80 19:55 03.03.2020
1945 Clouds 26 1012 74 10000 3.1 80 19:36 03.03.2020
1946 Clouds 26 1012 74 10000 3.1 80 19:18 03.03.2020
1947 Clouds 26 1013 74 10000 2.6 90 18:55 03.03.2020
1948 Clouds 26 1013 74 10000 2.6 90 18:37 03.03.2020
1949 Clouds 26 1013 74 10000 2.6 90 18:18 03.03.2020
1950 Clouds 26 1013 78 10000 6.2 110 17:40 03.03.2020
1951 Clouds 26 1013 78 10000 6.2 110 17:21 03.03.2020
1952 Clouds 25 1013 74 10000 3.6 110 16:59 03.03.2020
1953 Clouds 26 1013 74 10000 3.6 110 16:38 03.03.2020
1954 Clouds 26 1013 74 10000 3.6 110 16:38 03.03.2020
1955 Clouds 26 1013 74 10000 3.6 110 16:20 03.03.2020
1956 Clouds 26 1013 74 10000 3.1 120 15:57 03.03.2020
1957 Clouds 26 1013 74 10000 3.1 120 15:39 03.03.2020
1958 Clouds 26 1013 74 10000 3.1 120 15:20 03.03.2020
1959 Clouds 27 1014 69 10000 3.6 120 14:43 03.03.2020
1960 Clouds 27 1014 69 10000 3.6 120 14:20 03.03.2020
1961 Clouds 27 1013 69 10000 2.6 110 13:58 03.03.2020
1962 Clouds 27 1013 69 10000 2.6 110 13:40 03.03.2020
1963 Clouds 27 1013 69 10000 2.6 110 13:20 03.03.2020
1964 Clouds 27 1012 65 10000 4.1 90 12:47 03.03.2020
1965 Clouds 28 1012 65 10000 4.1 90 12:26 03.03.2020
1966 Clouds 28 1011 69 10000 5.1 110 11:58 03.03.2020
1967 Clouds 28 1011 69 10000 5.1 110 11:37 03.03.2020
1968 Clouds 28 1011 69 10000 5.1 110 11:37 03.03.2020
1969 Clouds 28 1011 69 10000 5.1 110 11:18 03.03.2020
1970 Clouds 29 1011 55 10000 5.1 110 10:56 03.03.2020
1971 Clouds 30 1011 55 10000 5.1 110 10:37 03.03.2020
1972 Clouds 30 1011 55 10000 5.1 110 10:18 03.03.2020
1973 Clouds 30 1011 55 10000 5.7 110 09:44 03.03.2020
1974 Clouds 31 1011 55 10000 5.7 110 09:22 03.03.2020
1975 Clouds 31 1011 52 10000 5.7 120 08:56 03.03.2020
1976 Clouds 31 1011 52 10000 5.7 120 08:37 03.03.2020
1977 Clouds 32 1011 52 10000 5.7 120 08:19 03.03.2020
1978 Clouds 31 1011 55 10000 5.1 120 07:42 03.03.2020
1979 Clouds 31 1011 55 10000 5.1 120 07:19 03.03.2020
1980 Clouds 31 1012 55 10000 4.6 100 06:41 03.03.2020
1981 Clouds 31 1012 55 10000 4.6 100 06:22 03.03.2020
1982 Clouds 31 1013 58 10000 5.1 120 05:47 03.03.2020
1983 Clouds 31 1014 58 10000 5.1 120 04:58 03.03.2020
1984 Clouds 30 1015 58 10000 4.1 120 03:52 03.03.2020
1985 Clouds 28 1015 65 10000 1 0 01:40 03.03.2020
1986 Clouds 26 1014 73 10000 2.6 40 00:48 03.03.2020
1987 Clouds 25 1014 73 10000 2.6 40 00:26 03.03.2020
1988 Clouds 24 1014 78 10000 1 0 23:52 02.03.2020
1989 Clouds 24 1014 78 10000 1 0 23:24 02.03.2020
1990 Clouds 24 1013 73 10000 3.6 80 22:58 02.03.2020
1991 Clouds 25 1013 73 10000 3.6 80 22:39 02.03.2020
1992 Clouds 25 1013 73 10000 3.6 80 22:20 02.03.2020
1993 Clouds 25 1013 78 10000 2.6 110 21:58 02.03.2020
1994 Clouds 25 1013 78 10000 2.6 110 21:39 02.03.2020
1995 Clouds 25 1013 78 10000 2.6 110 21:21 02.03.2020
1996 Clouds 25 1013 74 10000 3.6 110 20:58 02.03.2020
1997 Clouds 25 1013 74 10000 3.6 110 20:38 02.03.2020
1998 Clouds 26 1013 74 10000 3.6 110 20:20 02.03.2020
1999 Clouds 26 1013 74 10000 3.6 110 19:55 02.03.2020
2000 Clouds 26 1013 74 10000 3.6 110 19:36 02.03.2020
2001 Clouds 26 1013 74 10000 3.6 110 19:18 02.03.2020
2002 Clouds 26 1013 69 10000 4.6 110 18:44 02.03.2020
2003 Clouds 26 1013 69 10000 4.6 110 18:19 02.03.2020
2004 Clouds 26 1014 69 10000 4.1 110 17:58 02.03.2020
2005 Clouds 26 1014 69 10000 4.1 110 17:39 02.03.2020
2006 Clouds 26 1014 69 10000 4.1 110 17:21 02.03.2020
2007 Clouds 26 1014 69 10000 5.1 110 16:54 02.03.2020
2008 Clouds 26 1014 69 10000 5.1 110 16:36 02.03.2020
2009 Clouds 26 1014 69 10000 5.1 110 16:18 02.03.2020
2010 Clouds 26 1014 69 10000 5.1 110 16:18 02.03.2020
2011 Clouds 27 1014 65 10000 4.6 120 15:42 02.03.2020
2012 Clouds 27 1014 65 10000 4.6 120 15:19 02.03.2020
2013 Clouds 27 1013 65 10000 4.6 120 14:41 02.03.2020
2014 Clouds 27 1013 65 10000 4.6 120 14:20 02.03.2020
2015 Clouds 27 1013 69 10000 5.1 110 13:58 02.03.2020
2016 Clouds 27 1013 69 10000 5.1 110 13:38 02.03.2020
2017 Clouds 27 1013 69 10000 5.1 110 13:18 02.03.2020
2018 Clouds 27 1012 65 10000 4.6 110 12:43 02.03.2020
2019 Clouds 28 1012 65 10000 4.6 110 12:19 02.03.2020
2020 Clouds 28 1011 54 10000 6.2 110 11:55 02.03.2020
2021 Clouds 29 1011 54 10000 6.2 110 11:36 02.03.2020
2022 Clouds 29 1011 54 10000 6.2 110 11:18 02.03.2020
2023 Clouds 30 1011 51 10000 6.7 110 10:42 02.03.2020
2024 Clouds 30 1011 51 10000 6.7 110 10:20 02.03.2020
2025 Clouds 31 1010 48 10000 7.7 110 09:56 02.03.2020
2026 Clouds 31 1010 48 10000 7.7 110 09:37 02.03.2020
2027 Clouds 31 1010 48 10000 7.7 110 09:18 02.03.2020
2028 Clouds 32 1010 49 10000 5.7 110 08:41 02.03.2020
2029 Clouds 32 1010 49 10000 5.7 110 08:19 02.03.2020
2030 Clouds 31 1011 50 10000 6.7 120 07:41 02.03.2020
2031 Clouds 32 1012 52 10000 5.7 130 06:57 02.03.2020
2032 Clouds 32 1012 52 10000 5.7 130 06:37 02.03.2020
2033 Clouds 31 1013 55 10000 6.2 130 05:52 02.03.2020
2034 Clouds 31 1013 55 10000 4.1 130 04:19 02.03.2020
2035 Clouds 30 1014 58 10000 4.6 110 03:19 02.03.2020
2036 Clouds 29 1014 61 10000 3.6 100 02:36 02.03.2020
2037 Clouds 27 1014 61 10000 2.6 90 01:42 02.03.2020
2038 Clouds 27 1014 61 10000 2.6 90 01:23 02.03.2020
2039 Clouds 25 1013 73 9000 1 0 00:23 02.03.2020
2040 Clouds 24 1013 78 10000 1 120 23:56 01.03.2020
2041 Clouds 24 1013 78 10000 1 120 23:38 01.03.2020
2042 Clouds 24 1013 78 10000 1 120 23:19 01.03.2020
2043 Clouds 24 1012 78 10000 1 0 22:42 01.03.2020
2044 Clouds 24 1012 78 10000 1 0 22:19 01.03.2020
2045 Clouds 24 1012 78 10000 1.5 130 21:44 01.03.2020
2046 Clouds 24 1012 78 10000 1.5 130 21:25 01.03.2020
2047 Clouds 24 1012 83 10000 1.5 80 20:59 01.03.2020
2048 Clouds 24 1012 83 10000 1.5 80 20:41 01.03.2020
2049 Clouds 24 1012 83 10000 1.5 80 20:22 01.03.2020
2050 Clouds 25 1012 69 10000 2.1 120 19:43 01.03.2020
2051 Clouds 25 1012 69 10000 2.1 120 19:24 01.03.2020
2052 Clouds 26 1012 69 10000 2.6 120 18:59 01.03.2020
2053 Clouds 26 1012 69 10000 2.6 120 18:40 01.03.2020
2054 Clouds 26 1012 69 10000 2.6 120 18:19 01.03.2020
2055 Clouds 26 1013 69 10000 2.6 120 17:57 01.03.2020
2056 Clouds 26 1013 69 10000 2.6 120 17:39 01.03.2020
2057 Clouds 26 1013 69 10000 2.6 120 17:20 01.03.2020
2058 Clouds 26 1013 65 10000 3.1 120 16:57 01.03.2020
2059 Clouds 27 1013 65 10000 3.1 120 16:38 01.03.2020
2060 Clouds 27 1013 65 10000 3.1 120 16:18 01.03.2020
2061 Clouds 27 1013 65 10000 2.6 140 15:56 01.03.2020
2062 Clouds 27 1013 65 10000 2.6 140 15:37 01.03.2020
2063 Clouds 27 1013 65 10000 2.6 140 15:19 01.03.2020
2064 Clouds 27 1013 69 10000 2.6 120 14:55 01.03.2020
2065 Clouds 27 1013 69 10000 2.6 120 14:37 01.03.2020
2066 Clouds 27 1013 69 10000 2.6 120 14:18 01.03.2020
2067 Clouds 27 1012 69 10000 3.1 120 13:44 01.03.2020
2068 Clouds 27 1012 69 10000 3.1 120 13:22 01.03.2020
2069 Clouds 28 1011 65 10000 3.6 130 12:59 01.03.2020
2070 Clouds 28 1011 65 10000 3.6 130 12:41 01.03.2020
2071 Clouds 28 1011 65 10000 3.6 130 12:21 01.03.2020
2072 Clouds 28 1011 65 10000 3.6 130 12:21 01.03.2020
2073 Clouds 29 1011 66 10000 3.6 0 11:42 01.03.2020
2074 Clouds 29 1011 66 10000 3.6 0 11:24 01.03.2020
2075 Clouds 29 1010 62 10000 4.1 0 10:57 01.03.2020
2076 Clouds 29 1010 62 10000 4.1 0 10:38 01.03.2020
2077 Clouds 30 1010 62 10000 4.1 0 10:20 01.03.2020
2078 Clouds 30 1010 58 10000 4.6 130 09:55 01.03.2020
2079 Clouds 31 1010 58 10000 4.6 130 09:37 01.03.2020
2080 Clouds 31 1010 58 10000 4.6 130 09:18 01.03.2020
2081 Clouds 32 1010 55 10000 3.6 140 08:41 01.03.2020
2082 Clouds 32 1010 55 10000 3.6 140 08:20 01.03.2020
2083 Clouds 32 1011 52 10000 4.1 0 07:42 01.03.2020
2084 Clouds 32 1011 52 10000 4.1 0 07:24 01.03.2020
2085 Clouds 32 1011 52 10000 4.1 0 07:24 01.03.2020
2086 Clouds 32 1012 52 10000 4.1 130 06:54 01.03.2020
2087 Clouds 32 1012 52 10000 4.1 130 06:36 01.03.2020
2088 Clouds 30 1014 58 10000 4.1 120 04:26 01.03.2020
2089 Clouds 29 1014 62 10000 3.1 110 02:55 01.03.2020
2090 Clouds 28 1013 69 10000 3.6 80 01:53 01.03.2020
2091 Clouds 27 1013 69 10000 3.6 80 01:28 01.03.2020
2092 Clouds 26 1013 74 10000 2.6 90 00:44 01.03.2020
2093 Clouds 26 1013 74 10000 2.6 90 00:22 01.03.2020
2094 Clouds 25 1012 74 10000 2.1 110 23:51 29.02.2020
2095 Clouds 25 1012 74 10000 2.1 110 23:33 29.02.2020
2096 Clouds 25 1012 74 10000 2.6 110 22:44 29.02.2020
2097 Clouds 25 1012 74 10000 2.6 110 22:25 29.02.2020
2098 Clouds 25 1011 74 10000 3.1 120 21:44 29.02.2020
2099 Clouds 25 1011 74 10000 3.1 120 21:26 29.02.2020
2100 Clouds 26 1011 69 10000 3.6 120 20:45 29.02.2020
2101 Clouds 26 1011 69 10000 3.6 120 20:22 29.02.2020
2102 Clouds 26 1011 74 10000 3.6 110 19:58 29.02.2020
2103 Clouds 26 1011 74 10000 3.6 110 19:39 29.02.2020
2104 Clouds 26 1011 74 10000 3.6 110 19:21 29.02.2020
2105 Clouds 26 1012 69 10000 4.1 120 18:44 29.02.2020
2106 Clouds 26 1012 69 10000 4.1 120 18:25 29.02.2020
2107 Clouds 26 1012 65 10000 4.1 120 17:58 29.02.2020
2108 Clouds 26 1012 65 10000 4.1 120 17:40 29.02.2020
2109 Clouds 27 1012 65 10000 4.1 120 17:21 29.02.2020
2110 Clouds 27 1013 69 10000 3.1 120 16:57 29.02.2020
2111 Clouds 27 1013 69 10000 3.1 120 16:39 29.02.2020
2112 Clouds 27 1013 69 10000 3.1 120 16:18 29.02.2020
2113 Clouds 27 1013 69 10000 3.6 110 15:41 29.02.2020
2114 Clouds 27 1013 69 10000 3.6 110 15:23 29.02.2020
2115 Clouds 27 1013 69 10000 3.6 120 14:55 29.02.2020
2116 Clouds 27 1013 69 10000 3.6 120 14:37 29.02.2020
2117 Clouds 27 1013 69 10000 3.6 120 14:19 29.02.2020
2118 Clouds 27 1012 65 10000 5.1 110 13:42 29.02.2020
2119 Clouds 27 1012 65 10000 5.1 110 13:23 29.02.2020
2120 Clouds 27 1011 65 10000 4.1 110 12:43 29.02.2020
2121 Clouds 27 1011 65 10000 4.1 110 12:43 29.02.2020
2122 Clouds 28 1011 65 10000 4.1 110 12:23 29.02.2020
2123 Clouds 28 1011 58 10000 5.1 110 11:58 29.02.2020
2124 Clouds 28 1011 58 10000 5.1 110 11:39 29.02.2020
2125 Clouds 29 1011 58 10000 5.1 110 11:21 29.02.2020
2126 Clouds 29 1010 58 10000 5.1 120 10:47 29.02.2020
2127 Clouds 30 1010 58 10000 5.1 120 10:28 29.02.2020
2128 Clouds 30 1010 62 10000 5.7 130 09:50 29.02.2020
2129 Clouds 30 1010 62 10000 5.7 130 09:27 29.02.2020
2130 Clouds 30 1010 62 10000 5.7 130 09:27 29.02.2020
2131 Clouds 31 1010 52 10000 5.7 130 08:55 29.02.2020
2132 Clouds 31 1010 52 10000 5.7 130 08:37 29.02.2020
2133 Clouds 31 1010 52 10000 5.7 130 08:19 29.02.2020
2134 Clouds 32 1011 52 10000 6.2 130 07:41 29.02.2020
2135 Clouds 32 1011 52 10000 6.2 130 07:19 29.02.2020
2136 Clouds 32 1012 52 10000 5.7 0 06:50 29.02.2020
2137 Clouds 32 1012 52 10000 5.7 0 06:25 29.02.2020
2138 Clouds 31 1012 55 10000 5.1 130 05:48 29.02.2020
2139 Clouds 31 1013 52 10000 5.1 110 04:50 29.02.2020
2140 Clouds 31 1014 52 10000 4.1 120 03:43 29.02.2020
2141 Clouds 30 1014 52 10000 4.1 120 03:22 29.02.2020
2142 Clouds 30 1014 51 10000 3.1 110 02:39 29.02.2020
2143 Clouds 28 1014 58 10000 2.1 0 01:26 29.02.2020
2144 Clouds 26 1013 65 10000 2.6 90 00:37 29.02.2020
2145 Clouds 25 1012 69 10000 1.5 130 23:56 28.02.2020
2146 Clouds 25 1012 69 10000 1.5 130 23:36 28.02.2020
2147 Clouds 24 1012 69 10000 1.5 130 23:18 28.02.2020
2148 Clouds 25 1012 65 10000 2.1 110 22:41 28.02.2020
2149 Clouds 25 1012 65 10000 2.1 110 22:19 28.02.2020
2150 Clouds 26 1012 69 10000 2.1 110 21:41 28.02.2020
2151 Clouds 26 1012 69 10000 2.1 110 21:21 28.02.2020
2152 Clouds 26 1012 69 10000 2.6 110 20:54 28.02.2020
2153 Clouds 26 1012 69 10000 2.6 110 20:36 28.02.2020
2154 Clouds 26 1012 69 10000 2.6 110 20:18 28.02.2020
2155 Clouds 26 1012 65 10000 3.1 110 19:55 28.02.2020
2156 Clouds 27 1012 65 10000 3.1 110 19:37 28.02.2020
2157 Clouds 27 1012 65 10000 3.1 110 19:18 28.02.2020
2158 Clouds 27 1013 65 10000 2.6 110 18:43 28.02.2020
2159 Clouds 27 1013 65 10000 2.6 110 18:22 28.02.2020
2160 Clouds 27 1014 65 10000 2.6 120 17:41 28.02.2020
2161 Clouds 27 1014 65 10000 2.6 120 17:23 28.02.2020
2162 Clouds 27 1014 65 10000 3.1 120 16:55 28.02.2020
2163 Clouds 27 1014 65 10000 3.1 120 16:36 28.02.2020
2164 Clouds 27 1014 65 10000 3.1 120 16:18 28.02.2020
2165 Clouds 27 1014 65 10000 2.6 130 15:42 28.02.2020
2166 Clouds 27 1014 65 10000 2.6 130 15:20 28.02.2020
2167 Clouds 27 1014 61 10000 3.1 110 14:58 28.02.2020
2168 Clouds 27 1014 61 10000 3.1 110 14:39 28.02.2020
2169 Clouds 27 1014 61 10000 3.1 110 14:19 28.02.2020
2170 Clouds 27 1013 61 10000 3.1 120 13:57 28.02.2020
2171 Clouds 27 1013 61 10000 3.1 120 13:39 28.02.2020
2172 Clouds 27 1013 61 10000 3.1 120 13:19 28.02.2020
2173 Clouds 27 1012 61 10000 3.6 110 12:41 28.02.2020
2174 Clouds 28 1012 61 10000 3.6 110 12:22 28.02.2020
2175 Clouds 28 1012 61 10000 4.6 120 11:43 28.02.2020
2176 Clouds 28 1012 61 10000 4.6 120 11:24 28.02.2020
2177 Clouds 28 1011 58 10000 5.7 120 10:59 28.02.2020
2178 Clouds 28 1011 58 10000 5.7 120 10:39 28.02.2020
2179 Clouds 28 1011 58 10000 5.7 120 10:39 28.02.2020
2180 Clouds 29 1011 58 10000 5.7 120 10:20 28.02.2020
2181 Clouds 30 1011 55 10000 5.1 110 09:46 28.02.2020
2182 Clouds 30 1011 55 10000 5.1 110 09:21 28.02.2020
2183 Clouds 31 1011 46 10000 6.7 80 08:56 28.02.2020
2184 Clouds 31 1011 46 10000 6.7 80 08:37 28.02.2020
2185 Clouds 31 1011 46 10000 6.7 80 08:18 28.02.2020
2186 Clouds 31 1011 52 10000 5.7 120 07:40 28.02.2020
2187 Clouds 31 1011 52 10000 5.7 120 07:20 28.02.2020
2188 Clouds 32 1012 43 10000 4.6 90 06:44 28.02.2020
2189 Clouds 31 1013 48 10000 5.7 70 05:51 28.02.2020
2190 Clouds 30 1014 58 10000 4.6 80 04:34 28.02.2020
2191 Clouds 29 1014 54 10000 2.6 70 03:48 28.02.2020
2192 Clouds 29 1014 54 10000 2.1 0 02:46 28.02.2020
2193 Clouds 29 1014 54 10000 2.1 0 02:46 28.02.2020
2194 Clouds 29 1014 54 10000 2.1 0 02:25 28.02.2020
2195 Clouds 26 1013 73 10000 1.5 30 00:46 28.02.2020
2196 Clouds 25 1013 73 10000 1.5 30 00:25 28.02.2020
2197 Clouds 24 1013 78 10000 1.5 70 23:42 27.02.2020
2198 Clouds 24 1013 78 10000 1.5 70 23:19 27.02.2020
2199 Clouds 24 1012 73 10000 1.5 100 22:43 27.02.2020
2200 Clouds 24 1012 73 10000 1.5 100 22:24 27.02.2020
2201 Clouds 24 1012 73 10000 2.1 80 21:56 27.02.2020
2202 Clouds 25 1012 73 10000 2.1 80 21:38 27.02.2020
2203 Clouds 25 1012 73 10000 2.1 80 21:18 27.02.2020
2204 Clouds 24 1012 78 10000 2.6 60 20:56 27.02.2020
2205 Clouds 24 1012 78 10000 2.6 60 20:56 27.02.2020
2206 Clouds 24 1012 78 10000 2.6 60 20:37 27.02.2020
2207 Clouds 24 1012 78 10000 2.6 60 20:37 27.02.2020
2208 Clouds 24 1012 78 10000 2.6 60 20:19 27.02.2020
2209 Clouds 25 1013 69 10000 2.6 120 19:42 27.02.2020
2210 Clouds 25 1013 69 10000 2.6 120 19:23 27.02.2020
2211 Clouds 26 1013 65 10000 2.1 120 18:58 27.02.2020
2212 Clouds 26 1013 65 10000 2.1 120 18:40 27.02.2020
2213 Clouds 26 1013 65 10000 2.1 120 18:20 27.02.2020
2214 Clouds 26 1014 65 10000 2.6 100 17:56 27.02.2020
2215 Clouds 26 1014 65 10000 2.6 100 17:38 27.02.2020
2216 Clouds 26 1014 65 10000 2.6 100 17:19 27.02.2020
2217 Clouds 26 1014 65 10000 3.1 120 16:54 27.02.2020
2218 Clouds 26 1014 65 10000 3.1 120 16:36 27.02.2020
2219 Clouds 26 1014 65 10000 3.1 120 16:18 27.02.2020
2220 Clouds 26 1014 69 10000 2.6 120 15:40 27.02.2020
2221 Clouds 26 1014 69 10000 2.6 120 15:21 27.02.2020
2222 Clouds 26 1014 69 10000 2.6 120 15:21 27.02.2020
2223 Clouds 26 1014 61 10000 3.1 120 14:59 27.02.2020
2224 Clouds 26 1014 61 10000 3.1 120 14:39 27.02.2020
2225 Clouds 26 1014 61 10000 3.1 120 14:21 27.02.2020
2226 Clouds 27 1014 57 10000 2.6 110 13:55 27.02.2020
2227 Clouds 27 1014 57 10000 2.6 110 13:37 27.02.2020
2228 Clouds 27 1014 57 10000 2.6 110 13:19 27.02.2020
2229 Clouds 27 1013 54 10000 4.6 90 12:43 27.02.2020
2230 Clouds 27 1013 54 10000 4.6 90 12:19 27.02.2020
2231 Clouds 28 1013 51 10000 4.1 90 11:46 27.02.2020
2232 Clouds 28 1013 51 10000 4.1 90 11:23 27.02.2020
2233 Clouds 29 1012 51 10000 6.7 70 10:56 27.02.2020
2234 Clouds 29 1012 51 10000 6.7 70 10:37 27.02.2020
2235 Clouds 29 1012 51 10000 6.7 70 10:18 27.02.2020
2236 Clouds 30 1012 45 10000 5.1 80 09:40 27.02.2020
2237 Clouds 30 1012 45 10000 5.1 80 09:40 27.02.2020
2238 Clouds 31 1012 45 10000 5.1 80 09:22 27.02.2020
2239 Clouds 31 1012 43 10000 6.2 100 08:42 27.02.2020
2240 Clouds 31 1012 43 10000 6.2 100 08:23 27.02.2020
2241 Clouds 31 1012 48 10000 5.1 80 07:48 27.02.2020
2242 Clouds 31 1012 48 10000 5.1 80 07:48 27.02.2020
2243 Clouds 31 1012 48 10000 5.1 80 07:28 27.02.2020
2244 Clouds 32 1013 46 10000 4.6 120 06:54 27.02.2020
2245 Clouds 32 1013 46 10000 4.6 120 06:19 27.02.2020
2246 Clouds 30 1014 58 10000 5.1 100 04:22 27.02.2020
2247 Clouds 29 1014 65 10000 2.6 90 02:54 27.02.2020
2248 Clouds 25 1014 88 10000 1 0 00:47 27.02.2020
2249 Clouds 24 1014 88 10000 1 0 00:29 27.02.2020
2250 Clouds 24 1013 88 10000 1.5 20 23:40 26.02.2020
2251 Clouds 24 1013 88 10000 1.5 20 23:20 26.02.2020
2252 Rain 24 1013 83 8000 1 0 22:58 26.02.2020
2253 Rain 24 1013 83 8000 1 0 22:58 26.02.2020
2254 Rain 24 1013 83 8000 1 0 22:39 26.02.2020
2255 Rain 24 1013 83 8000 1 0 22:21 26.02.2020
2256 Clouds 25 1012 74 10000 5.1 100 21:56 26.02.2020
2257 Clouds 25 1012 74 10000 5.1 100 21:38 26.02.2020
2258 Clouds 25 1012 74 10000 5.1 100 21:18 26.02.2020
2259 Clouds 25 1013 78 10000 2.1 110 20:55 26.02.2020
2260 Clouds 25 1013 78 10000 2.1 110 20:37 26.02.2020
2261 Clouds 25 1013 78 10000 2.1 110 20:18 26.02.2020
2262 Clouds 25 1013 74 10000 2.1 130 19:46 26.02.2020
2263 -273 0 0 0 0 0 19:21 26.02.2020
2264 Clouds 26 1013 74 10000 2.1 110 18:58 26.02.2020
2265 Clouds 26 1013 74 10000 2.1 110 18:40 26.02.2020
2266 Clouds 26 1013 74 10000 2.1 110 18:22 26.02.2020
2267 Clouds 26 1014 74 10000 2.6 120 17:56 26.02.2020
2268 Clouds 26 1014 74 10000 2.6 120 17:37 26.02.2020
2269 Clouds 26 1014 74 10000 2.6 120 17:18 26.02.2020
2270 Clouds 26 1014 74 10000 1.5 120 16:43 26.02.2020
2271 Clouds 26 1014 74 10000 1.5 120 16:22 26.02.2020
2272 Clouds 26 1014 69 10000 2.6 100 15:54 26.02.2020
2273 Clouds 26 1014 69 10000 2.6 100 15:36 26.02.2020
2274 Clouds 27 1014 69 10000 2.6 100 15:18 26.02.2020
2275 Clouds 26 1014 78 10000 3.6 120 14:42 26.02.2020
2276 Clouds 26 1014 78 10000 3.6 120 14:22 26.02.2020
2277 Clouds 26 1014 78 10000 3.1 130 13:43 26.02.2020
2278 Clouds 26 1014 78 10000 3.1 130 13:22 26.02.2020
2279 Clouds 27 1013 74 10000 3.6 120 12:42 26.02.2020
2280 Clouds 27 1013 74 10000 3.6 120 12:42 26.02.2020
2281 Clouds 27 1013 74 10000 3.6 120 12:22 26.02.2020
2282 Clouds 28 1013 65 10000 3.6 120 11:59 26.02.2020
2283 Clouds 28 1013 65 10000 3.6 120 11:40 26.02.2020
2284 Clouds 28 1013 65 10000 3.6 120 11:22 26.02.2020
2285 Clouds 28 1012 66 10000 2.6 70 10:43 26.02.2020
2286 Clouds 28 1012 66 10000 2.6 70 10:24 26.02.2020
2287 Rain 28 1012 66 10000 4.1 110 09:58 26.02.2020
2288 Rain 28 1012 66 10000 4.1 110 09:40 26.02.2020
2289 Rain 28 1012 66 10000 4.1 110 09:40 26.02.2020
2290 Rain 28 1012 66 10000 4.1 110 09:21 26.02.2020
2291 Rain 27 1012 69 10000 4.1 130 08:40 26.02.2020
2292 Rain 27 1012 69 10000 4.1 130 08:22 26.02.2020
2293 Rain 29 1012 58 10000 3.6 140 07:59 26.02.2020
2294 Rain 29 1012 58 10000 3.6 140 07:39 26.02.2020
2295 Rain 30 1012 58 10000 3.6 140 07:20 26.02.2020
2296 Clouds 31 1013 52 10000 2.6 0 06:45 26.02.2020
2297 Clouds 31 1013 52 10000 2.6 0 06:22 26.02.2020
2298 Clouds 31 1013 58 10000 3.6 290 05:48 26.02.2020
2299 Clouds 30 1013 58 10000 3.6 290 05:18 26.02.2020
2300 Clouds 30 1015 66 10000 2.1 250 03:20 26.02.2020
2301 Clouds 27 1014 69 10000 1 0 01:58 26.02.2020
2302 Clouds 27 1014 69 10000 1 0 01:25 26.02.2020
2303 Clouds 24 1014 78 9000 0.5 0 00:40 26.02.2020
2304 Clouds 24 1014 78 9000 0.5 0 00:20 26.02.2020
2305 Clouds 23 1013 78 10000 1.44 27 23:42 25.02.2020
2306 Clouds 23 1013 78 10000 1.44 27 23:22 25.02.2020
2307 Clouds 24 1013 78 10000 1 0 22:56 25.02.2020
2308 Clouds 24 1013 78 10000 1 0 22:36 25.02.2020
2309 Clouds 24 1013 78 10000 1 0 22:18 25.02.2020
2310 Clouds 24 1013 73 10000 1 360 21:38 25.02.2020
2311 Clouds 24 1013 73 10000 1 360 21:20 25.02.2020
2312 Clouds 24 1013 88 10000 3.1 60 20:57 25.02.2020
2313 Clouds 24 1013 88 10000 3.1 60 20:38 25.02.2020
2314 Clouds 24 1013 88 10000 3.1 60 20:38 25.02.2020
2315 Clouds 24 1013 88 10000 3.1 60 20:19 25.02.2020
2316 Clouds 25 1013 78 10000 2.6 110 19:45 25.02.2020
2317 Clouds 25 1013 78 10000 2.6 110 19:23 25.02.2020
2318 Clouds 25 1013 74 10000 3.6 110 18:59 25.02.2020
2319 Clouds 25 1013 74 10000 3.6 110 18:40 25.02.2020
2320 Clouds 26 1013 74 10000 3.6 110 18:21 25.02.2020
2321 Clouds 26 1014 69 10000 2.6 110 17:56 25.02.2020
2322 Clouds 26 1014 69 10000 2.6 110 17:37 25.02.2020
2323 Clouds 26 1014 69 10000 2.6 110 17:18 25.02.2020
2324 Clouds 26 1014 74 10000 4.1 100 16:55 25.02.2020
2325 Clouds 26 1014 74 10000 4.1 100 16:37 25.02.2020
2326 Clouds 26 1014 74 10000 4.1 100 16:19 25.02.2020
2327 Clouds 26 1014 74 10000 3.1 80 15:45 25.02.2020
2328 Clouds 26 1014 74 10000 3.1 80 15:45 25.02.2020
2329 Clouds 26 1014 74 10000 3.1 80 15:20 25.02.2020
2330 Clouds 26 1014 69 10000 1 110 14:59 25.02.2020
2331 Clouds 26 1014 69 10000 1 110 14:39 25.02.2020
2332 Clouds 26 1014 69 10000 1 110 14:39 25.02.2020
2333 Clouds 26 1014 69 10000 1 110 14:18 25.02.2020
2334 Clouds 26 1014 69 10000 1 110 14:18 25.02.2020
2335 Clouds 26 1013 61 10000 2.6 100 13:58 25.02.2020
2336 Clouds 26 1013 61 10000 2.6 100 13:39 25.02.2020
2337 Clouds 27 1013 61 10000 2.6 100 13:20 25.02.2020
2338 Clouds 27 1013 54 10000 3.1 100 12:56 25.02.2020
2339 Clouds 27 1013 54 10000 3.1 100 12:37 25.02.2020
2340 Clouds 27 1013 54 10000 3.1 100 12:19 25.02.2020
2341 Clouds 27 1012 69 10000 3.6 120 11:55 25.02.2020
2342 Clouds 28 1012 69 10000 3.6 120 11:37 25.02.2020
2343 Clouds 28 1012 69 10000 3.6 120 11:18 25.02.2020
2344 Clouds 29 1012 55 10000 4.6 100 10:41 25.02.2020
2345 Clouds 29 1012 55 10000 4.6 100 10:41 25.02.2020
2346 Clouds 30 1012 55 10000 4.6 100 10:23 25.02.2020
2347 Clouds 30 1012 62 10000 4.1 130 09:42 25.02.2020
2348 Clouds 30 1012 62 10000 4.1 130 09:23 25.02.2020
2349 Clouds 31 1012 55 10000 4.6 130 08:56 25.02.2020
2350 Clouds 31 1012 55 10000 4.6 130 08:38 25.02.2020
2351 Clouds 31 1012 55 10000 4.6 130 08:20 25.02.2020
2352 Clouds 32 1012 52 10000 4.6 120 07:48 25.02.2020
2353 Clouds 32 1012 52 10000 4.6 120 07:20 25.02.2020
2354 Clouds 31 1013 52 10000 7.92 97 06:51 25.02.2020
2355 Clouds 30 1014 58 10000 6.2 90 05:43 25.02.2020
2356 Clouds 30 1015 62 10000 5.1 110 03:54 25.02.2020
2357 Clouds 29 1015 62 10000 4.6 100 02:32 25.02.2020
2358 Clouds 26 1014 83 10000 2.1 80 00:57 25.02.2020
2359 Clouds 25 1014 83 10000 2.1 80 00:30 25.02.2020
2360 Clouds 25 1014 74 10000 2.6 110 23:46 24.02.2020
2361 Clouds 25 1014 74 10000 2.6 110 23:28 24.02.2020
2362 Clouds 25 1013 83 10000 1 90 22:43 24.02.2020
2363 Clouds 24 1013 83 10000 1 90 22:21 24.02.2020
2364 Clouds 24 1013 83 10000 1 90 22:21 24.02.2020
2365 Clouds 25 1013 83 10000 1 0 21:58 24.02.2020
2366 Clouds 25 1013 83 10000 1 0 21:40 24.02.2020
2367 Clouds 25 1013 83 10000 1 0 21:20 24.02.2020
2368 Clouds 25 1013 78 10000 2.6 120 20:59 24.02.2020
2369 Clouds 25 1013 78 10000 2.6 120 20:59 24.02.2020
2370 Clouds 25 1013 78 10000 2.6 120 20:41 24.02.2020
2371 Clouds 25 1013 78 10000 2.6 120 20:19 24.02.2020
2372 Clouds 26 1013 74 10000 3.1 120 19:58 24.02.2020
2373 Clouds 26 1013 74 10000 3.1 120 19:40 24.02.2020
2374 Clouds 26 1013 74 10000 3.1 120 19:21 24.02.2020
2375 Clouds 26 1014 69 10000 3.1 110 18:55 24.02.2020
2376 Clouds 26 1014 69 10000 3.1 110 18:37 24.02.2020
2377 Clouds 26 1014 69 10000 3.1 110 18:18 24.02.2020
2378 Clouds 26 1015 78 10000 1.5 80 17:40 24.02.2020
2379 Clouds 26 1015 78 10000 1.5 80 17:20 24.02.2020
2380 Clouds 26 1015 78 10000 1.5 80 17:20 24.02.2020
2381 Clouds 26 1015 78 10000 2.1 100 16:58 24.02.2020
2382 Clouds 26 1015 78 10000 2.1 100 16:39 24.02.2020
2383 Clouds 26 1015 78 10000 2.1 100 16:20 24.02.2020
2384 Clouds 26 1015 78 10000 2.1 100 16:20 24.02.2020
2385 Clouds 26 1015 74 10000 2.6 90 15:58 24.02.2020
2386 Clouds 26 1015 74 10000 2.6 90 15:39 24.02.2020
2387 Clouds 27 1015 74 10000 2.6 90 15:21 24.02.2020
2388 Clouds 27 1015 74 10000 2.6 110 14:58 24.02.2020
2389 Clouds 27 1015 74 10000 2.6 110 14:39 24.02.2020
2390 Clouds 27 1015 74 10000 2.6 110 14:19 24.02.2020
2391 Clouds 27 1008 74 10000 2.6 100 13:56 24.02.2020
2392 Clouds 27 1008 74 10000 2.6 100 13:36 24.02.2020
2393 Clouds 27 1008 74 10000 2.6 100 13:18 24.02.2020
2394 Clouds 27 1008 74 10000 2.6 100 13:18 24.02.2020
2395 Clouds 27 1014 74 0 3.6 110 12:42 24.02.2020
2396 Clouds 27 1014 74 0 3.6 110 12:42 24.02.2020
2397 Clouds 27 1014 74 0 3.6 110 12:24 24.02.2020
2398 Rain 27 1014 69 10000 3.6 110 11:56 24.02.2020
2399 Rain 28 1014 69 10000 3.6 110 11:38 24.02.2020
2400 Rain 28 1014 69 10000 3.6 110 11:19 24.02.2020
2401 Rain 29 1013 62 10000 5.1 110 10:41 24.02.2020
2402 Rain 29 1013 62 10000 5.1 110 10:22 24.02.2020
2403 Rain 29 1013 62 10000 5.7 110 09:40 24.02.2020
2404 Rain 30 1013 62 10000 5.7 110 09:19 24.02.2020
2405 Rain 30 1013 66 10000 6.2 100 08:53 24.02.2020
2406 Rain 30 1013 66 10000 6.2 100 08:30 24.02.2020
2407 Clouds 31 1014 58 10000 5.1 0 07:56 24.02.2020
2408 Clouds 31 1014 58 10000 5.1 0 07:36 24.02.2020
2409 Clouds 31 1014 62 10000 7.2 120 06:55 24.02.2020
2410 Clouds 30 1014 62 10000 7.2 120 06:28 24.02.2020
2411 Clouds 31 1015 62 10000 3.6 0 05:46 24.02.2020
2412 Clouds 31 1015 62 10000 3.6 0 05:27 24.02.2020
2413 Clouds 29 1016 69 10000 3.6 280 02:58 24.02.2020
2414 Clouds 29 1016 69 10000 3.6 280 02:31 24.02.2020
2415 Clouds 28 1016 69 10000 1 0 01:39 24.02.2020
2416 Clouds 26 1015 78 10000 1 0 00:47 24.02.2020
2417 Clouds 25 1015 78 10000 1 0 00:21 24.02.2020
2418 Clouds 24 1015 78 10000 0.5 0 23:55 23.02.2020
2419 Clouds 24 1015 78 10000 0.5 0 23:36 23.02.2020
2420 Clouds 24 1015 78 10000 0.5 0 23:18 23.02.2020
2421 Clouds 24 1014 78 10000 1.5 210 22:42 23.02.2020
2422 Clouds 24 1014 78 10000 1.5 210 22:22 23.02.2020
2423 Clouds 24 1014 78 10000 2.6 260 21:55 23.02.2020
2424 Clouds 24 1014 78 10000 2.6 260 21:36 23.02.2020
2425 Clouds 24 1014 78 10000 2.6 260 21:18 23.02.2020
2426 Clouds 25 1014 74 10000 1 0 20:55 23.02.2020
2427 Clouds 25 1014 74 10000 1 0 20:36 23.02.2020
2428 Clouds 25 1014 74 10000 1 0 20:18 23.02.2020
2429 Clouds 25 1015 78 10000 2.6 80 19:41 23.02.2020
2430 Clouds 25 1015 78 10000 2.6 80 19:20 23.02.2020
2431 Clouds 25 1016 78 10000 2.1 100 18:59 23.02.2020
2432 Clouds 25 1016 78 10000 2.1 100 18:40 23.02.2020
2433 Clouds 25 1016 78 10000 2.1 100 18:20 23.02.2020
2434 Clouds 26 1016 74 10000 4.1 110 17:58 23.02.2020
2435 Clouds 26 1016 74 10000 4.1 110 17:39 23.02.2020
2436 Clouds 26 1016 74 10000 4.1 110 17:21 23.02.2020
2437 Clouds 26 1016 74 10000 4.1 110 17:21 23.02.2020
2438 Clouds 26 1016 74 10000 1.5 90 16:56 23.02.2020
2439 Clouds 26 1016 74 10000 1.5 90 16:36 23.02.2020
2440 Clouds 26 1016 74 10000 1.5 90 16:18 23.02.2020
2441 Clouds 26 1016 78 10000 2.1 110 15:40 23.02.2020
2442 Clouds 26 1016 78 10000 2.1 110 15:22 23.02.2020
2443 Clouds 26 1016 74 10000 2.6 110 14:59 23.02.2020
2444 Clouds 26 1016 74 10000 2.6 110 14:41 23.02.2020
2445 Clouds 27 1016 74 10000 2.6 110 14:23 23.02.2020
2446 Clouds 27 1015 74 10000 3.1 120 13:58 23.02.2020
2447 Clouds 27 1015 74 10000 3.1 120 13:39 23.02.2020
2448 Clouds 27 1015 74 10000 3.1 120 13:21 23.02.2020
2449 Clouds 27 1014 69 10000 3.6 110 12:44 23.02.2020
2450 Clouds 28 1014 69 10000 3.6 110 12:23 23.02.2020
2451 Clouds 28 1014 66 10000 4.1 110 11:59 23.02.2020
2452 Clouds 28 1014 66 10000 4.1 110 11:38 23.02.2020
2453 Clouds 28 1014 66 10000 4.1 110 11:19 23.02.2020
2454 Clouds 29 1014 58 10000 4.6 100 10:56 23.02.2020
2455 Clouds 29 1014 58 10000 4.6 100 10:56 23.02.2020
2456 Clouds 29 1014 58 10000 4.6 100 10:37 23.02.2020
2457 Clouds 30 1014 58 10000 4.6 100 10:19 23.02.2020
2458 Clouds 30 1013 58 10000 5.1 100 09:40 23.02.2020
2459 Clouds 31 1013 58 10000 5.1 100 09:21 23.02.2020
2460 Clouds 31 1014 55 10000 5.7 90 08:57 23.02.2020
2461 Clouds 31 1014 55 10000 5.7 90 08:39 23.02.2020
2462 Clouds 31 1014 55 10000 5.7 90 08:19 23.02.2020
2463 Clouds 31 1015 45 10000 7.7 50 07:40 23.02.2020
2464 Clouds 31 1015 45 10000 7.7 50 07:40 23.02.2020
2465 Clouds 31 1016 55 10000 5.1 100 06:54 23.02.2020
2466 Clouds 31 1017 49 10000 7.7 80 05:54 23.02.2020
2467 Clouds 31 1017 52 10000 5.1 90 04:44 23.02.2020
2468 Clouds 30 1018 55 10000 3.6 50 03:25 23.02.2020
2469 Clouds 29 1018 54 10000 3.6 50 02:35 23.02.2020
2470 Clouds 27 1018 61 10000 2.6 360 01:25 23.02.2020
2471 Clouds 25 1017 65 10000 2.1 10 00:49 23.02.2020
2472 Clouds 24 1017 65 10000 2.1 10 00:27 23.02.2020
2473 Clouds 24 1017 65 10000 2.1 10 00:27 23.02.2020
2474 Clouds 25 1017 61 10000 1 30 23:48 22.02.2020
2475 Clouds 25 1017 61 10000 1 30 23:30 22.02.2020
2476 Clouds 24 1016 69 10000 0.5 0 22:59 22.02.2020
2477 Clouds 24 1016 69 10000 0.5 0 22:40 22.02.2020
2478 Clouds 24 1016 69 10000 0.5 0 22:18 22.02.2020
2479 Clouds 25 1016 73 10000 1.5 280 21:41 22.02.2020
2480 Clouds 24 1016 73 10000 1.5 280 21:23 22.02.2020
2481 Clouds 24 1016 78 10000 2.1 250 20:46 22.02.2020
2482 Clouds 24 1016 78 10000 2.1 250 20:25 22.02.2020
2483 Clouds 24 1016 78 10000 2.1 250 20:25 22.02.2020
2484 Clouds 24 1016 73 10000 3.1 63 19:58 22.02.2020
2485 Clouds 24 1016 73 10000 3.1 63 19:39 22.02.2020
2486 Clouds 24 1016 73 10000 3.1 63 19:20 22.02.2020
2487 Clouds 24 1018 69 10000 1 0 18:39 22.02.2020
2488 Clouds 25 1018 69 10000 1 0 18:21 22.02.2020
2489 Clouds 25 1018 65 10000 1 0 17:57 22.02.2020
2490 Clouds 25 1018 65 10000 1 0 17:39 22.02.2020
2491 Clouds 25 1018 65 10000 1 0 17:21 22.02.2020
2492 Clouds 25 1019 61 10000 2.1 110 16:57 22.02.2020
2493 Clouds 25 1019 61 10000 2.1 110 16:38 22.02.2020
2494 Clouds 25 1019 61 10000 2.1 110 16:19 22.02.2020
2495 Clouds 26 1019 57 10000 2.1 110 15:43 22.02.2020
2496 Clouds 26 1019 57 10000 2.1 110 15:24 22.02.2020
2497 Clouds 26 1018 61 10000 3.1 110 14:44 22.02.2020
2498 Clouds 26 1018 61 10000 3.1 110 14:23 22.02.2020
2499 Clouds 26 1018 54 10000 3.1 90 13:58 22.02.2020
2500 Clouds 26 1018 54 10000 3.1 90 13:40 22.02.2020
2501 Clouds 26 1018 54 10000 3.1 90 13:18 22.02.2020
2502 Clouds 27 1017 51 10000 4.6 90 12:42 22.02.2020
2503 Clouds 27 1017 51 10000 4.6 90 12:23 22.02.2020
2504 Clouds 28 1016 45 10000 5.1 80 11:47 22.02.2020
2505 Clouds 28 1016 45 10000 5.1 80 11:28 22.02.2020
2506 Clouds 28 1015 45 10000 5.7 90 10:57 22.02.2020
2507 Clouds 29 1015 45 10000 5.7 90 10:39 22.02.2020
2508 Clouds 29 1015 45 10000 5.7 90 10:19 22.02.2020
2509 Clouds 29 1015 45 10000 5.7 90 10:19 22.02.2020
2510 Clouds 30 1015 45 10000 6.7 90 09:57 22.02.2020
2511 Clouds 30 1015 45 10000 6.7 90 09:57 22.02.2020
2512 Clouds 30 1015 45 10000 6.7 90 09:38 22.02.2020
2513 Clouds 30 1015 45 10000 6.7 90 09:20 22.02.2020
2514 Clouds 31 1015 45 10000 6.2 100 08:46 22.02.2020
2515 Clouds 31 1015 45 10000 6.2 100 08:27 22.02.2020
2516 Clouds 31 1015 45 10000 6.2 100 08:27 22.02.2020
2517 Clouds 32 1016 40 10000 7.7 90 07:48 22.02.2020
2518 Clouds 32 1016 40 10000 7.7 90 07:19 22.02.2020
2519 Clouds 32 1017 38 10000 5.7 70 06:47 22.02.2020
2520 Clouds 32 1017 38 10000 5.7 70 06:27 22.02.2020
2521 Clouds 31 1019 40 10000 6.7 70 04:32 22.02.2020
2522 Clouds 30 1020 51 10000 3.1 60 03:21 22.02.2020
2523 Clouds 28 1020 58 10000 2.1 360 02:28 22.02.2020
2524 Clouds 27 1020 65 10000 0.5 0 01:41 22.02.2020
2525 Clouds 27 1020 65 10000 0.5 0 01:23 22.02.2020
2526 Clouds 24 1019 78 10000 1 0 00:41 22.02.2020
2527 Clouds 24 1019 78 10000 1 0 00:21 22.02.2020
2528 Clouds 23 1019 78 10000 1 0 23:43 21.02.2020
2529 Clouds 23 1019 78 10000 1 0 23:21 21.02.2020
2530 Clouds 24 1018 78 10000 1.5 110 22:45 21.02.2020
2531 Clouds 24 1018 78 10000 1.5 110 22:27 21.02.2020
2532 Clouds 24 1018 73 10000 1 90 21:58 21.02.2020
2533 Clouds 24 1018 73 10000 1 90 21:40 21.02.2020
2534 Clouds 24 1018 73 10000 1 90 21:21 21.02.2020
2535 Clouds 24 1018 78 10000 1.5 70 20:48 21.02.2020
2536 Clouds 24 1018 78 10000 1.5 70 20:27 21.02.2020
2537 Clouds 24 1018 78 10000 2.1 50 19:41 21.02.2020
2538 Clouds 24 1018 78 10000 2.1 50 19:23 21.02.2020
2539 Clouds 25 1019 69 10000 2.6 110 18:55 21.02.2020
2540 Clouds 25 1019 69 10000 2.6 110 18:55 21.02.2020
2541 Clouds 25 1019 69 10000 2.6 110 18:36 21.02.2020
2542 Clouds 25 1019 69 10000 2.6 110 18:18 21.02.2020
2543 Clouds 25 1019 69 10000 2.1 70 17:39 21.02.2020
2544 Clouds 25 1019 69 10000 2.1 70 17:21 21.02.2020
2545 Clouds 25 1019 65 10000 2.1 120 16:57 21.02.2020
2546 Clouds 25 1019 65 10000 2.1 120 16:39 21.02.2020
2547 Clouds 25 1019 65 10000 2.1 120 16:20 21.02.2020
2548 Clouds 26 1019 61 10000 2.1 80 15:44 21.02.2020
2549 Clouds 26 1019 61 10000 2.1 80 15:19 21.02.2020
2550 Clouds 26 1019 57 10000 1.5 100 14:55 21.02.2020
2551 Clouds 26 1019 57 10000 1.5 100 14:37 21.02.2020
2552 Clouds 26 1019 57 10000 1.5 100 14:18 21.02.2020
2553 Clouds 26 1018 57 10000 5.1 70 13:42 21.02.2020
2554 Clouds 27 1018 57 10000 5.1 70 13:21 21.02.2020
2555 Clouds 27 1017 58 10000 5.7 80 12:47 21.02.2020
2556 Clouds 27 1017 58 10000 5.7 80 12:27 21.02.2020
2557 Clouds 27 1016 58 10000 5.1 80 11:59 21.02.2020
2558 Clouds 27 1016 58 10000 5.1 80 11:40 21.02.2020
2559 Clouds 27 1016 58 10000 5.1 80 11:21 21.02.2020
2560 Clouds 28 1016 51 10000 6.2 90 10:55 21.02.2020
2561 Clouds 29 1016 51 10000 6.2 90 10:36 21.02.2020
2562 Clouds 29 1016 51 10000 6.2 90 10:18 21.02.2020
2563 Clouds 30 1016 48 10000 6.2 80 09:42 21.02.2020
2564 Clouds 30 1016 48 10000 6.2 80 09:23 21.02.2020
2565 Clouds 31 1016 46 10000 7.7 80 08:56 21.02.2020
2566 Clouds 31 1016 46 10000 7.7 80 08:37 21.02.2020
2567 Clouds 31 1016 46 10000 7.7 80 08:19 21.02.2020
2568 Clouds 32 1016 46 10000 5.7 90 07:43 21.02.2020
2569 Clouds 32 1016 46 10000 5.7 90 07:22 21.02.2020
2570 Clouds 32 1017 46 10000 8.7 80 06:57 21.02.2020
2571 Clouds 32 1017 46 10000 8.7 80 06:33 21.02.2020
2572 Clouds 31 1018 46 10000 9.3 60 05:58 21.02.2020
2573 Clouds 31 1018 46 10000 9.3 60 05:31 21.02.2020
2574 Clouds 30 1019 51 10000 9.8 60 04:26 21.02.2020
2575 Clouds 30 1019 51 10000 6.2 30 03:52 21.02.2020
2576 Clouds 29 1019 54 10000 4.1 30 02:59 21.02.2020
2577 Clouds 26 1019 57 10000 3.1 20 01:43 21.02.2020
2578 Clouds 26 1019 57 10000 3.1 20 01:22 21.02.2020
2579 Clouds 24 1018 64 10000 1 10 00:39 21.02.2020
2580 Clouds 24 1018 64 10000 1 10 00:39 21.02.2020
2581 Clouds 24 1018 64 10000 1 10 00:19 21.02.2020
2582 Clouds 23 1017 60 10000 2.1 10 23:41 20.02.2020
2583 Clouds 23 1017 60 10000 2.1 10 23:22 20.02.2020
2584 Clouds 23 1016 60 10000 2.1 340 22:42 20.02.2020
2585 Clouds 23 1016 60 10000 2.1 340 22:23 20.02.2020
2586 Clouds 23 1016 60 10000 3.1 10 21:57 20.02.2020
2587 Clouds 23 1016 60 10000 3.1 10 21:39 20.02.2020
2588 Clouds 23 1016 60 10000 3.1 10 21:19 20.02.2020
2589 Clouds 23 1017 64 10000 1 0 20:56 20.02.2020
2590 Clouds 24 1017 64 10000 1 0 20:38 20.02.2020
2591 Clouds 24 1017 64 10000 1 0 20:19 20.02.2020
2592 Clouds 24 1017 60 10000 1 100 19:58 20.02.2020
2593 Clouds 24 1017 60 10000 1 100 19:40 20.02.2020
2594 Clouds 24 1017 60 10000 1 100 19:22 20.02.2020
2595 Clouds 24 1018 60 10000 2.1 80 18:40 20.02.2020
2596 Clouds 24 1018 60 10000 2.1 80 18:21 20.02.2020
2597 Clouds 24 1018 60 10000 2.1 80 18:21 20.02.2020
2598 Clouds 25 1018 57 10000 2.6 90 17:58 20.02.2020
2599 Clouds 25 1018 57 10000 2.6 90 17:39 20.02.2020
2600 Clouds 25 1018 57 10000 2.6 90 17:38 20.02.2020
2601 Clouds 25 1019 57 10000 3.6 100 17:19 20.02.2020
2602 Clouds 25 1019 57 10000 3.6 100 16:56 20.02.2020
2603 Clouds 25 1019 57 10000 3.6 100 16:38 20.02.2020
2604 Clouds 25 1019 57 10000 3.6 100 16:18 20.02.2020
2605 Clouds 26 1018 61 10000 2.6 100 15:42 20.02.2020
2606 Clouds 26 1018 61 10000 2.6 100 15:22 20.02.2020
2607 Clouds 26 1018 61 10000 2.1 100 14:57 20.02.2020
2608 Clouds 26 1018 61 10000 2.1 100 14:39 20.02.2020
2609 Clouds 26 1018 61 10000 2.1 100 14:21 20.02.2020
2610 Clouds 26 1018 54 10000 3.1 80 13:54 20.02.2020
2611 Clouds 26 1018 54 10000 3.1 80 13:36 20.02.2020
2612 Clouds 26 1018 54 10000 3.1 80 13:18 20.02.2020
2613 Clouds 26 1017 57 10000 4.6 70 12:42 20.02.2020
2614 Clouds 26 1017 57 10000 4.6 70 12:21 20.02.2020
2615 Clouds 26 1017 54 10000 4.1 80 11:57 20.02.2020
2616 Clouds 26 1017 54 10000 4.1 80 11:39 20.02.2020
2617 Clouds 26 1017 54 10000 4.1 80 11:39 20.02.2020
2618 Clouds 27 1017 54 10000 4.1 80 11:20 20.02.2020
2619 Clouds 27 1016 51 10000 6.2 70 10:55 20.02.2020
2620 Clouds 27 1016 51 10000 6.2 70 10:37 20.02.2020
2621 Clouds 28 1016 51 10000 6.2 70 10:19 20.02.2020
2622 Clouds 28 1016 48 10000 6.2 90 09:38 20.02.2020
2623 Clouds 29 1016 48 10000 6.2 90 09:19 20.02.2020
2624 Clouds 29 1016 45 10000 8.7 70 08:41 20.02.2020
2625 Clouds 29 1016 45 10000 8.7 70 08:23 20.02.2020
2626 Clouds 29 1017 48 10000 8.2 70 07:47 20.02.2020
2627 Clouds 29 1017 48 10000 8.2 70 07:27 20.02.2020
2628 Clouds 29 1017 48 10000 8.2 70 07:27 20.02.2020
2629 Clouds 29 1017 45 10000 6.7 80 06:57 20.02.2020
2630 Clouds 29 1017 45 10000 6.7 80 06:37 20.02.2020
2631 Clouds 29 1018 48 10000 7.7 70 05:47 20.02.2020
2632 Clouds 29 1018 48 10000 7.7 70 05:20 20.02.2020
2633 Clouds 29 1018 48 10000 8.2 60 04:37 20.02.2020
2634 Clouds 29 1019 51 10000 6.7 60 03:46 20.02.2020
2635 Clouds 28 1018 54 10000 4.6 80 02:45 20.02.2020
2636 Clouds 26 1017 69 9000 2.1 100 01:23 20.02.2020
2637 Clouds 24 1017 69 9000 2.1 100 00:37 20.02.2020
2638 Clouds 23 1016 73 10000 1.5 90 23:55 19.02.2020
2639 Clouds 23 1016 73 10000 1.5 90 23:24 19.02.2020
2640 Clouds 23 1016 69 10000 2.6 90 22:59 19.02.2020
2641 Clouds 23 1016 69 10000 2.6 90 22:41 19.02.2020
2642 Clouds 23 1016 69 10000 2.6 90 22:41 19.02.2020
2643 Clouds 24 1016 69 10000 2.6 90 22:21 19.02.2020
2644 Clouds 24 1016 73 10000 1.5 100 21:57 19.02.2020
2645 Clouds 24 1016 73 10000 1.5 100 21:38 19.02.2020
2646 Clouds 24 1016 73 10000 1.5 100 21:18 19.02.2020
2647 Clouds 23 1016 83 10000 1 60 20:56 19.02.2020
2648 Clouds 23 1016 83 10000 1 60 20:37 19.02.2020
2649 Clouds 23 1016 83 10000 1 60 20:18 19.02.2020
2650 Clouds 23 1016 83 10000 1 60 20:18 19.02.2020
2651 Clouds 24 1016 73 10000 1.5 100 19:56 19.02.2020
2652 Clouds 24 1016 73 10000 1.5 100 19:37 19.02.2020
2653 Clouds 24 1016 73 10000 1.5 100 19:18 19.02.2020
2654 Clouds 24 1017 73 10000 1.5 190 18:56 19.02.2020
2655 Clouds 24 1017 73 10000 1.5 190 18:38 19.02.2020
2656 Clouds 24 1017 73 10000 1.5 190 18:19 19.02.2020
2657 Clouds 25 1018 61 10000 1 0 17:42 19.02.2020
2658 Clouds 25 1018 61 10000 1 0 17:19 19.02.2020
2659 Clouds 25 1018 61 10000 5.1 10 16:44 19.02.2020
2660 Clouds 25 1018 61 10000 5.1 10 16:20 19.02.2020
2661 Clouds 25 1017 61 10000 4.6 80 15:58 19.02.2020
2662 Clouds 26 1017 61 10000 4.6 80 15:39 19.02.2020
2663 Clouds 26 1017 61 10000 4.6 80 15:20 19.02.2020
2664 Clouds 26 1017 61 10000 4.6 90 14:55 19.02.2020
2665 Clouds 26 1017 61 10000 4.6 90 14:36 19.02.2020
2666 Clouds 26 1017 61 10000 4.6 90 14:18 19.02.2020
2667 Clouds 26 1017 65 10000 4.1 90 13:41 19.02.2020
2668 Clouds 26 1017 65 10000 4.1 90 13:20 19.02.2020
2669 Clouds 26 1016 57 10000 5.1 90 12:41 19.02.2020
2670 Clouds 26 1016 57 10000 5.1 90 12:19 19.02.2020
2671 Clouds 26 1016 57 10000 6.2 90 11:58 19.02.2020
2672 Clouds 27 1016 57 10000 6.2 90 11:37 19.02.2020
2673 Clouds 27 1016 57 10000 6.2 90 11:19 19.02.2020
2674 Clouds 28 1015 51 10000 5.1 90 10:57 19.02.2020
2675 Clouds 28 1015 51 10000 5.1 90 10:38 19.02.2020
2676 Clouds 28 1015 51 10000 5.1 90 10:19 19.02.2020
2677 Clouds 29 1015 51 10000 5.7 90 09:56 19.02.2020
2678 Clouds 29 1015 51 10000 5.7 90 09:37 19.02.2020
2679 Clouds 29 1015 51 10000 5.7 90 09:18 19.02.2020
2680 Clouds 30 1014 59 10000 5.7 110 08:44 19.02.2020
2681 Clouds 30 1014 59 10000 5.7 110 08:24 19.02.2020
2682 Clouds 31 1015 48 10000 5.7 90 07:41 19.02.2020
2683 Clouds 31 1015 48 10000 5.7 90 07:21 19.02.2020
2684 Clouds 31 1016 48 10000 5.7 90 06:53 19.02.2020
2685 Clouds 31 1016 48 10000 5.7 90 06:20 19.02.2020
2686 Clouds 30 1017 51 10000 2.6 0 04:21 19.02.2020
2687 Clouds 28 1018 65 10000 2.1 0 02:56 19.02.2020
2688 Clouds 27 1018 65 10000 2.1 0 02:30 19.02.2020
2689 Clouds 26 1018 65 10000 1 0 01:24 19.02.2020
2690 Clouds 24 1017 73 10000 1.5 340 00:49 19.02.2020
2691 Clouds 24 1017 73 10000 1.5 340 00:29 19.02.2020
2692 Clouds 23 1016 73 10000 1 0 23:44 18.02.2020
2693 Clouds 23 1016 73 10000 1 0 23:20 18.02.2020
2694 Clouds 23 1015 73 10000 2.1 230 22:57 18.02.2020
2695 Clouds 23 1015 73 10000 2.1 230 22:39 18.02.2020
2696 Clouds 23 1015 73 10000 2.1 230 22:19 18.02.2020
2697 Clouds 24 1015 73 10000 1.5 220 21:55 18.02.2020
2698 Clouds 24 1015 73 10000 1.5 220 21:37 18.02.2020
2699 Clouds 24 1015 73 10000 1.5 220 21:18 18.02.2020
2700 Clouds 24 1015 73 10000 1.5 220 21:18 18.02.2020
2701 Clouds 24 1015 69 10000 1 0 20:56 18.02.2020
2702 Clouds 24 1015 69 10000 1 0 20:56 18.02.2020
2703 Clouds 24 1015 69 10000 1 0 20:37 18.02.2020
2704 Clouds 24 1015 69 10000 1 0 20:19 18.02.2020
2705 Clouds 24 1016 69 10000 3.1 60 19:42 18.02.2020
2706 Clouds 24 1016 69 10000 3.1 60 19:20 18.02.2020
2707 Clouds 24 1016 65 10000 4.6 70 18:59 18.02.2020
2708 Clouds 24 1016 65 10000 4.6 70 18:59 18.02.2020
2709 Clouds 24 1016 65 10000 4.6 70 18:40 18.02.2020
2710 Clouds 25 1016 65 10000 4.6 70 18:20 18.02.2020
2711 Clouds 25 1017 61 10000 4.6 80 17:43 18.02.2020
2712 Clouds 25 1017 61 10000 4.6 80 17:20 18.02.2020
2713 Clouds 25 1017 65 10000 4.1 90 16:58 18.02.2020
2714 Clouds 25 1017 65 10000 4.1 90 16:38 18.02.2020
2715 Clouds 25 1017 65 10000 4.1 90 16:18 18.02.2020
2716 Clouds 25 1017 65 10000 3.6 100 15:40 18.02.2020
2717 Clouds 25 1017 65 10000 3.6 100 15:20 18.02.2020
2718 Clouds 26 1017 69 10000 3.6 120 14:57 18.02.2020
2719 Clouds 26 1017 69 10000 3.6 120 14:38 18.02.2020
2720 Clouds 26 1017 69 10000 3.6 120 14:20 18.02.2020
2721 Clouds 26 1016 67 10000 3.6 100 13:41 18.02.2020
2722 Clouds 26 1016 67 10000 3.6 100 13:22 18.02.2020
2723 Clouds 26 1015 65 10000 4.1 110 12:56 18.02.2020
2724 Clouds 26 1015 65 10000 4.1 110 12:38 18.02.2020
2725 Clouds 26 1015 65 10000 4.1 110 12:19 18.02.2020
2726 Clouds 27 1015 65 10000 4.1 110 11:43 18.02.2020
2727 Clouds 27 1015 65 10000 4.1 110 11:43 18.02.2020
2728 Clouds 27 1015 65 10000 4.1 110 11:25 18.02.2020
2729 Clouds 28 1014 58 10000 5.1 100 10:55 18.02.2020
2730 Clouds 28 1014 58 10000 5.1 100 10:37 18.02.2020
2731 Clouds 28 1014 58 10000 5.1 100 10:18 18.02.2020
2732 Clouds 29 1013 51 10000 6.2 90 09:55 18.02.2020
2733 Clouds 29 1013 51 10000 6.2 90 09:36 18.02.2020
2734 Clouds 30 1013 51 10000 6.2 90 09:18 18.02.2020
2735 Clouds 30 1013 62 10000 5.1 110 08:42 18.02.2020
2736 Clouds 30 1013 62 10000 5.1 110 08:20 18.02.2020
2737 Clouds 30 1014 52 10000 6.2 90 07:56 18.02.2020
2738 Clouds 31 1014 52 10000 6.2 90 07:31 18.02.2020
2739 Clouds 31 1014 55 10000 5.7 90 06:56 18.02.2020
2740 Clouds 30 1014 55 10000 5.7 90 06:37 18.02.2020
2741 Clouds 30 1015 58 10000 4.1 280 05:59 18.02.2020
2742 Clouds 30 1015 58 10000 4.1 280 05:33 18.02.2020
2743 Clouds 29 1016 55 10000 4.6 120 04:26 18.02.2020
2744 Clouds 29 1017 58 10000 1 0 02:59 18.02.2020
2745 Clouds 28 1017 65 10000 1 0 01:59 18.02.2020
2746 Clouds 27 1016 78 10000 1.5 0 00:54 18.02.2020
2747 Clouds 25 1016 78 10000 1.5 0 00:22 18.02.2020
2748 Clouds 25 1015 78 10000 1.5 130 23:45 17.02.2020
2749 Clouds 25 1015 78 10000 1.5 130 23:26 17.02.2020
2750 Rain 26 1015 74 10000 1.5 90 22:59 17.02.2020
2751 Rain 26 1015 74 10000 1.5 90 22:41 17.02.2020
2752 Rain 26 1015 74 10000 1.5 90 22:20 17.02.2020
2753 Clouds 26 1015 74 10000 1.5 110 21:56 17.02.2020
2754 Clouds 26 1015 74 10000 1.5 110 21:37 17.02.2020
2755 Clouds 26 1015 74 10000 1.5 110 21:18 17.02.2020
2756 Clouds 26 1015 74 10000 1.5 110 20:40 17.02.2020
2757 Clouds 26 1015 74 10000 1.5 110 20:21 17.02.2020
2758 Clouds 26 1015 74 10000 2.6 130 19:56 17.02.2020
2759 Clouds 26 1015 74 10000 2.6 130 19:38 17.02.2020
2760 Clouds 26 1015 74 10000 2.6 130 19:19 17.02.2020
2761 Clouds 26 1015 74 10000 1.5 110 18:37 17.02.2020
2762 Clouds 26 1015 74 10000 1.5 110 18:19 17.02.2020
2763 Clouds 26 1016 74 10000 2.1 110 17:55 17.02.2020
2764 Clouds 26 1016 74 10000 2.1 110 17:36 17.02.2020
2765 Clouds 26 1016 74 10000 2.1 110 17:36 17.02.2020
2766 Clouds 26 1016 74 10000 2.1 110 17:18 17.02.2020
2767 Clouds 26 1016 78 10000 2.6 120 16:43 17.02.2020
2768 Clouds 26 1016 78 10000 2.6 120 16:23 17.02.2020
2769 Clouds 26 1016 78 10000 3.1 110 15:58 17.02.2020
2770 Clouds 26 1016 78 10000 3.1 110 15:40 17.02.2020
2771 Clouds 26 1016 78 10000 3.1 110 15:21 17.02.2020
2772 Clouds 26 1016 78 10000 3.1 80 14:45 17.02.2020
2773 Clouds 26 1016 78 10000 3.1 80 14:26 17.02.2020
2774 Clouds 26 1015 74 10000 3.6 110 13:58 17.02.2020
2775 Clouds 27 1015 74 10000 3.6 110 13:39 17.02.2020
2776 Clouds 27 1015 74 10000 3.6 110 13:19 17.02.2020
2777 Clouds 28 1014 58 10000 4.1 90 12:47 17.02.2020
2778 Clouds 28 1014 58 10000 4.1 90 12:47 17.02.2020
2779 Clouds 28 1014 58 10000 4.1 90 12:47 17.02.2020
2780 Clouds 28 1014 58 10000 4.1 90 12:26 17.02.2020
2781 Clouds 28 1014 66 10000 3.1 120 11:59 17.02.2020
2782 Clouds 28 1014 66 10000 3.1 120 11:40 17.02.2020
2783 Clouds 29 1014 66 10000 3.1 120 11:21 17.02.2020
2784 Clouds 30 1013 58 10000 1.5 0 10:55 17.02.2020
2785 Clouds 30 1013 58 10000 1.5 0 10:37 17.02.2020
2786 Clouds 30 1013 58 10000 1.5 0 10:19 17.02.2020
2787 Clouds 30 1013 62 10000 1.5 0 09:42 17.02.2020
2788 Clouds 31 1013 62 10000 1.5 0 09:23 17.02.2020
2789 Clouds 30 1014 66 10000 2.6 280 08:58 17.02.2020
2790 Clouds 30 1014 66 10000 2.6 280 08:40 17.02.2020
2791 Clouds 29 1014 66 10000 2.6 280 08:20 17.02.2020
2792 Clouds 29 1014 69 10000 3.1 260 07:45 17.02.2020
2793 Clouds 29 1014 69 10000 3.1 260 07:24 17.02.2020
2794 Clouds 28 1015 69 10000 2.6 270 06:52 17.02.2020
2795 Clouds 28 1015 69 10000 2.6 270 06:32 17.02.2020
2796 Rain 28 1016 74 9000 3.1 300 05:56 17.02.2020
2797 Rain 28 1016 74 9000 3.1 300 05:37 17.02.2020
2798 Clouds 28 1017 69 9000 3.1 260 03:21 17.02.2020
2799 Clouds 26 1016 74 10000 1.5 0 01:49 17.02.2020
2800 Clouds 25 1015 78 10000 0.5 0 00:44 17.02.2020
2801 Clouds 25 1015 78 10000 0.5 0 00:21 17.02.2020
2802 Clouds 25 1015 78 10000 0.5 0 00:21 17.02.2020
2803 Clouds 24 1015 83 10000 1.73 55 23:53 16.02.2020
2804 Clouds 24 1015 83 10000 1.73 55 23:32 16.02.2020
2805 Clouds 24 1014 78 10000 1 110 22:57 16.02.2020
2806 Clouds 24 1014 78 10000 1 110 22:39 16.02.2020
2807 Clouds 25 1014 78 10000 1 110 22:20 16.02.2020
2808 Clouds 25 1014 78 10000 1 90 21:57 16.02.2020
2809 Clouds 25 1014 78 10000 1 90 21:39 16.02.2020
2810 Clouds 25 1014 78 10000 1 90 21:20 16.02.2020
2811 Clouds 25 1014 78 10000 1 0 20:57 16.02.2020
2812 Clouds 25 1014 78 10000 1 0 20:57 16.02.2020
2813 Clouds 25 1014 78 10000 1 0 20:38 16.02.2020
2814 Clouds 25 1014 78 10000 1 0 20:20 16.02.2020
2815 Clouds 25 1014 74 10000 1 0 19:57 16.02.2020
2816 Clouds 25 1014 74 10000 1 0 19:37 16.02.2020
2817 Clouds 25 1014 74 10000 1 0 19:18 16.02.2020
2818 Clouds 25 1014 74 10000 1 0 19:18 16.02.2020
2819 Clouds 25 1015 69 10000 0.5 0 18:42 16.02.2020
2820 Clouds 26 1015 69 10000 0.5 0 18:23 16.02.2020
2821 Clouds 26 1015 69 10000 1.5 130 17:47 16.02.2020
2822 Clouds 26 1015 69 10000 1.5 130 17:21 16.02.2020
2823 Clouds 26 1015 74 10000 1.5 130 16:59 16.02.2020
2824 Clouds 26 1015 74 10000 1.5 130 16:39 16.02.2020
2825 Clouds 27 1015 74 10000 1.5 130 16:21 16.02.2020
2826 Clouds 27 1015 74 10000 1.5 130 16:21 16.02.2020
2827 Clouds 27 1015 74 10000 1.5 0 15:59 16.02.2020
2828 Clouds 27 1015 74 10000 1.5 0 15:39 16.02.2020
2829 Clouds 27 1015 74 10000 1.5 0 15:21 16.02.2020
2830 Clouds 27 1015 74 10000 1.5 0 15:21 16.02.2020
2831 Clouds 27 1014 74 10000 2.1 130 14:41 16.02.2020
2832 Clouds 27 1014 74 10000 2.1 130 14:23 16.02.2020
2833 Clouds 28 1014 69 10000 3.1 130 13:48 16.02.2020
2834 Clouds 28 1014 69 10000 3.1 130 13:48 16.02.2020
2835 Clouds 28 1014 69 10000 3.1 130 13:25 16.02.2020
2836 Clouds 28 1014 69 10000 3.1 130 13:25 16.02.2020
2837 Clouds 28 1014 69 10000 3.1 140 12:58 16.02.2020
2838 Clouds 28 1014 69 10000 3.1 140 12:38 16.02.2020
2839 Clouds 28 1014 69 10000 3.1 140 12:19 16.02.2020
2840 Clouds 29 1013 62 10000 1.5 0 11:40 16.02.2020
2841 Clouds 30 1013 62 10000 1.5 0 11:19 16.02.2020
2842 Clouds 30 1013 58 10000 3.1 130 10:58 16.02.2020
2843 Clouds 30 1013 58 10000 3.1 130 10:58 16.02.2020
2844 Clouds 30 1013 58 10000 3.1 130 10:39 16.02.2020
2845 Clouds 30 1013 58 10000 3.1 130 10:39 16.02.2020
2846 Clouds 31 1013 58 10000 3.1 130 10:21 16.02.2020
2847 Clouds 31 1012 52 10000 3.1 130 09:57 16.02.2020
2848 Clouds 32 1012 52 10000 3.1 130 09:37 16.02.2020
2849 Clouds 32 1012 52 10000 3.1 130 09:19 16.02.2020
2850 Clouds 32 1012 49 10000 3.6 140 08:47 16.02.2020
2851 Clouds 32 1012 49 10000 3.6 140 08:22 16.02.2020
2852 Clouds 32 1013 52 10000 5.1 120 07:56 16.02.2020
2853 Clouds 32 1013 52 10000 5.1 120 07:34 16.02.2020
2854 Clouds 32 1014 52 10000 4.1 120 06:36 16.02.2020
2855 Clouds 32 1015 55 10000 3.1 130 05:37 16.02.2020
2856 Clouds 30 1016 55 10000 3.1 100 03:58 16.02.2020
2857 Clouds 30 1016 58 10000 2.1 0 02:35 16.02.2020
2858 Clouds 28 1016 68 9000 0.5 0 01:45 16.02.2020
2859 Clouds 27 1016 68 9000 0.5 0 01:26 16.02.2020
2860 Clouds 25 1015 78 8000 0.5 0 00:59 16.02.2020
2861 Clouds 25 1015 78 8000 0.5 0 00:40 16.02.2020
2862 Clouds 24 1015 78 8000 0.5 0 00:19 16.02.2020
2863 Clouds 23 1014 73 9000 1 0 23:42 15.02.2020
2864 Clouds 23 1014 73 9000 1 0 23:23 15.02.2020
2865 Clouds 23 1014 73 10000 1 0 22:56 15.02.2020
2866 Clouds 23 1014 73 10000 1 0 22:37 15.02.2020
2867 Clouds 24 1014 73 10000 1 0 22:18 15.02.2020
2868 Clouds 24 1013 73 10000 1.5 90 21:42 15.02.2020
2869 Clouds 24 1013 73 10000 1.5 90 21:23 15.02.2020
2870 Clouds 25 1013 73 10000 1 0 20:42 15.02.2020
2871 Clouds 25 1013 73 10000 1 0 20:42 15.02.2020
2872 Clouds 25 1013 73 10000 1 0 20:21 15.02.2020
2873 Clouds 25 1013 73 10000 1 0 20:21 15.02.2020
2874 Clouds 25 1014 73 10000 1 0 19:57 15.02.2020
2875 Clouds 25 1014 73 10000 1 0 19:39 15.02.2020
2876 Clouds 25 1014 73 10000 1 0 19:20 15.02.2020
2877 Clouds 24 1014 83 10000 1.5 80 18:40 15.02.2020
2878 Clouds 25 1014 83 10000 1.5 80 18:20 15.02.2020
2879 Clouds 26 1014 74 10000 2.1 100 17:44 15.02.2020
2880 Clouds 26 1014 74 10000 2.1 100 17:24 15.02.2020
2881 Clouds 26 1014 65 10000 3.1 100 16:59 15.02.2020
2882 Clouds 26 1014 65 10000 3.1 100 16:39 15.02.2020
2883 Clouds 27 1014 65 10000 3.1 100 16:20 15.02.2020
2884 Clouds 27 1014 69 10000 3.1 100 15:49 15.02.2020
2885 Clouds 27 1014 69 10000 3.1 100 15:30 15.02.2020
2886 Clouds 27 1014 69 10000 2.6 90 14:46 15.02.2020
2887 Clouds 27 1014 69 10000 2.6 90 14:24 15.02.2020
2888 Clouds 27 1013 69 10000 2.6 100 13:58 15.02.2020
2889 Clouds 27 1013 69 10000 2.6 100 13:40 15.02.2020
2890 Clouds 27 1013 69 10000 2.6 100 13:21 15.02.2020
2891 Clouds 28 1012 61 10000 3.1 100 12:44 15.02.2020
2892 Clouds 28 1012 61 10000 3.1 100 12:26 15.02.2020
2893 Clouds 28 1012 58 10000 5.1 90 11:56 15.02.2020
2894 Clouds 29 1012 58 10000 5.1 90 11:36 15.02.2020
2895 Clouds 29 1012 58 10000 5.1 90 11:18 15.02.2020
2896 Clouds 29 1011 51 10000 6.7 90 10:46 15.02.2020
2897 Clouds 30 1011 51 10000 6.7 90 10:27 15.02.2020
2898 Clouds 30 1011 51 10000 6.7 90 10:27 15.02.2020
2899 Clouds 31 1011 46 10000 5.7 110 09:45 15.02.2020
2900 Clouds 31 1011 46 10000 5.7 110 09:25 15.02.2020
2901 Clouds 31 1011 49 10000 6.2 110 08:59 15.02.2020
2902 Clouds 31 1011 49 10000 6.2 110 08:59 15.02.2020
2903 Clouds 31 1011 49 10000 6.2 110 08:39 15.02.2020
2904 Clouds 32 1011 49 10000 6.2 110 08:20 15.02.2020
2905 Clouds 32 1012 58 10000 6.7 120 07:41 15.02.2020
2906 Clouds 32 1012 58 10000 6.7 120 07:22 15.02.2020
2907 Clouds 32 1014 60 0 5.36 125 06:38 15.02.2020
2908 Clouds 32 1014 58 10000 5.7 110 06:20 15.02.2020
2909 Clouds 31 1015 58 10000 5.1 120 04:51 15.02.2020
2910 Clouds 31 1015 58 10000 5.1 120 04:26 15.02.2020
2911 Clouds 30 1016 66 9000 3.6 100 02:59 15.02.2020
2912 Clouds 30 1016 66 9000 3.6 100 02:28 15.02.2020
2913 Clouds 28 1015 69 9000 2.6 110 01:58 15.02.2020
2914 Clouds 28 1015 69 9000 2.6 110 01:36 15.02.2020
2915 Clouds 25 1015 83 8000 0.5 0 00:30 15.02.2020
2916 Clouds 25 1014 78 10000 0.5 0 23:48 14.02.2020
2917 Clouds 25 1014 78 10000 0.5 0 23:21 14.02.2020
2918 Clouds 24 1014 83 10000 2.1 290 22:58 14.02.2020
2919 Clouds 24 1014 83 10000 2.1 290 22:40 14.02.2020
2920 Clouds 25 1014 83 10000 2.1 290 22:21 14.02.2020
2921 Clouds 25 1013 78 10000 1 0 21:49 14.02.2020
2922 Clouds 25 1013 78 10000 1 0 21:49 14.02.2020
2923 Clouds 25 1013 78 10000 1 0 21:30 14.02.2020
2924 Clouds 25 1013 78 10000 2.6 110 20:48 14.02.2020
2925 Clouds 26 1013 78 10000 2.6 110 20:21 14.02.2020
2926 Clouds 26 1013 78 10000 2.6 110 19:59 14.02.2020
2927 Clouds 26 1013 78 10000 2.6 110 19:41 14.02.2020
2928 Clouds 26 1013 78 10000 2.6 110 19:41 14.02.2020
2929 Clouds 26 1013 78 10000 2.6 110 19:41 14.02.2020
2930 Clouds 26 1013 78 10000 2.6 110 19:22 14.02.2020
2931 Clouds 26 1014 74 10000 3.1 120 18:56 14.02.2020
2932 Clouds 26 1014 74 10000 3.1 120 18:38 14.02.2020
2933 Clouds 26 1014 74 10000 3.1 120 18:19 14.02.2020
2934 Clouds 26 1014 74 10000 4.1 120 17:44 14.02.2020
2935 Clouds 27 1014 74 10000 4.1 120 17:22 14.02.2020
2936 Clouds 27 1014 74 10000 2.6 110 16:59 14.02.2020
2937 Clouds 27 1014 74 10000 2.6 110 16:59 14.02.2020
2938 Clouds 27 1014 74 10000 2.6 110 16:40 14.02.2020
2939 Clouds 27 1014 74 10000 2.6 110 16:22 14.02.2020
2940 Clouds 27 1015 74 10000 2.6 110 15:56 14.02.2020
2941 Clouds 27 1015 74 10000 2.6 110 15:37 14.02.2020
2942 Clouds 27 1015 74 10000 2.6 110 15:37 14.02.2020
2943 Clouds 27 1015 74 10000 2.6 110 15:19 14.02.2020
2944 Clouds 27 1014 69 10000 3.6 110 14:58 14.02.2020
2945 Clouds 27 1014 69 10000 3.6 110 14:40 14.02.2020
2946 Clouds 28 1014 69 10000 3.6 110 14:21 14.02.2020
2947 Clouds 27 1014 69 10000 3.1 110 13:54 14.02.2020
2948 Clouds 28 1014 69 10000 3.1 110 13:36 14.02.2020
2949 Clouds 28 1014 69 10000 3.1 110 13:18 14.02.2020
2950 Clouds 28 1013 69 10000 4.1 110 12:54 14.02.2020
2951 Clouds 28 1013 69 10000 4.1 110 12:36 14.02.2020
2952 Clouds 28 1013 69 10000 4.1 110 12:36 14.02.2020
2953 Clouds 28 1013 69 10000 4.1 110 12:18 14.02.2020
2954 Clouds 29 1012 58 10000 4.6 90 11:41 14.02.2020
2955 Clouds 29 1012 58 10000 4.6 90 11:21 14.02.2020
2956 Clouds 29 1012 58 10000 4.1 110 10:56 14.02.2020
2957 Clouds 29 1012 58 10000 4.1 110 10:38 14.02.2020
2958 Clouds 29 1012 58 10000 4.1 110 10:20 14.02.2020
2959 Clouds 30 1011 55 10000 5.1 120 09:43 14.02.2020
2960 Clouds 30 1011 55 10000 5.1 120 09:22 14.02.2020
2961 Clouds 31 1011 52 10000 5.1 110 08:55 14.02.2020
2962 Clouds 31 1011 52 10000 5.1 110 08:37 14.02.2020
2963 Clouds 31 1011 52 10000 5.1 110 08:18 14.02.2020
2964 Clouds 31 1011 55 10000 5.1 120 07:43 14.02.2020
2965 Clouds 31 1011 55 10000 5.1 120 07:24 14.02.2020
2966 Clouds 31 1012 52 10000 5.1 120 06:32 14.02.2020
2967 Clouds 31 1013 55 10000 5.1 120 05:48 14.02.2020
2968 Clouds 30 1014 58 10000 4.6 110 04:47 14.02.2020
2969 Clouds 29 1015 62 10000 3.6 110 03:30 14.02.2020
2970 Clouds 28 1014 61 10000 1 0 02:32 14.02.2020
2971 Clouds 26 1014 69 10000 2.6 360 01:28 14.02.2020
2972 Clouds 24 1013 83 10000 2.1 100 00:43 14.02.2020
2973 Clouds 24 1013 83 10000 2.1 100 00:43 14.02.2020
2974 Clouds 24 1013 83 10000 2.1 100 00:23 14.02.2020
2975 Clouds 24 1013 73 10000 4.1 110 23:46 13.02.2020
2976 Clouds 24 1013 73 10000 4.1 110 23:22 13.02.2020
2977 Clouds 24 1012 73 10000 3.6 120 22:44 13.02.2020
2978 Clouds 24 1012 73 10000 3.6 120 22:20 13.02.2020
2979 Clouds 24 1012 83 10000 1.5 130 21:59 13.02.2020
2980 Clouds 24 1012 83 10000 1.5 130 21:40 13.02.2020
2981 Clouds 24 1012 83 10000 1.5 130 21:22 13.02.2020
2982 Clouds 23 1013 83 10000 1.5 100 20:58 13.02.2020
2983 Clouds 23 1013 83 10000 1.5 100 20:39 13.02.2020
2984 Clouds 23 1013 83 10000 1.5 100 20:21 13.02.2020
2985 Clouds 23 1014 83 10000 1 0 19:56 13.02.2020
2986 Clouds 23 1014 83 10000 1 0 19:37 13.02.2020
2987 Clouds 23 1014 83 10000 1 0 19:18 13.02.2020
2988 Clouds 23 1014 83 10000 1 0 19:18 13.02.2020
2989 Clouds 24 1014 78 10000 1 0 18:44 13.02.2020
2990 Clouds 24 1014 78 10000 1 0 18:44 13.02.2020
2991 Clouds 24 1014 78 10000 1 0 18:24 13.02.2020
2992 Clouds 24 1015 78 10000 1 0 17:59 13.02.2020
2993 Clouds 24 1015 78 10000 1 0 17:40 13.02.2020
2994 Clouds 24 1015 78 10000 1 0 17:20 13.02.2020
2995 Clouds 25 1015 78 10000 2.1 110 16:58 13.02.2020
2996 Clouds 25 1015 78 10000 2.1 110 16:38 13.02.2020
2997 Clouds 25 1015 78 10000 2.1 110 16:19 13.02.2020
2998 Clouds 25 1015 69 10000 3.1 120 15:56 13.02.2020
2999 Clouds 25 1015 69 10000 3.1 120 15:37 13.02.2020
3000 Clouds 26 1015 69 10000 3.1 120 15:19 13.02.2020
3001 Clouds 26 1015 69 10000 3.1 120 14:55 13.02.2020
3002 Clouds 26 1015 69 10000 3.1 120 14:37 13.02.2020
3003 Clouds 26 1015 69 10000 3.1 120 14:19 13.02.2020
3004 Clouds 26 1015 74 10000 2.6 120 13:44 13.02.2020
3005 Clouds 26 1015 74 10000 2.6 120 13:18 13.02.2020
3006 Clouds 26 1015 74 10000 2.6 120 13:18 13.02.2020
3007 Clouds 26 1014 69 10000 3.1 100 12:55 13.02.2020
3008 Clouds 27 1014 69 10000 3.1 100 12:37 13.02.2020
3009 Clouds 27 1014 69 10000 3.1 100 12:18 13.02.2020
3010 Clouds 27 1014 74 10000 3.1 100 11:43 13.02.2020
3011 Clouds 27 1014 74 10000 3.1 100 11:43 13.02.2020
3012 Clouds 27 1014 74 10000 3.1 100 11:20 13.02.2020
3013 Clouds 27 1014 74 10000 3.1 100 11:20 13.02.2020
3014 Clouds 28 1014 61 10000 4.1 90 10:46 13.02.2020
3015 Clouds 28 1014 61 10000 4.1 90 10:27 13.02.2020
3016 Clouds 28 1014 65 10000 5.1 100 09:51 13.02.2020
3017 Clouds 28 1014 65 10000 5.1 100 09:28 13.02.2020
3018 Clouds 28 1014 69 10000 3.6 90 08:58 13.02.2020
3019 Clouds 28 1014 69 10000 3.6 90 08:37 13.02.2020
3020 Clouds 28 1014 69 10000 3.6 90 08:18 13.02.2020
3021 Rain 27 1015 83 9000 2.6 90 07:39 13.02.2020
3022 Rain 26 1015 83 9000 2.6 90 07:20 13.02.2020
3023 Rain 26 1016 78 3000 1 0 06:44 13.02.2020
3024 Rain 26 1016 78 3000 1 0 06:19 13.02.2020
3025 Rain 26 1016 78 9000 1 0 05:33 13.02.2020
3026 Clouds 27 1016 65 10000 3.1 120 04:26 13.02.2020
3027 Clouds 28 1017 58 10000 3.1 100 03:51 13.02.2020
3028 Clouds 29 1017 58 10000 3.1 100 03:24 13.02.2020
3029 Clouds 28 1017 61 10000 1.5 80 02:50 13.02.2020
3030 Clouds 28 1017 61 10000 1.5 80 02:19 13.02.2020
3031 Clouds 25 1016 73 9000 0.5 0 01:32 13.02.2020
3032 Clouds 24 1016 78 9000 1 0 00:39 13.02.2020
3033 Clouds 23 1016 78 9000 1 0 00:21 13.02.2020
3034 Clouds 23 1015 78 10000 0.5 0 23:39 12.02.2020
3035 Clouds 23 1015 78 10000 0.5 0 23:21 12.02.2020
3036 Clouds 23 1015 73 10000 1.5 100 22:45 12.02.2020
3037 Clouds 23 1015 73 10000 1.5 100 22:25 12.02.2020
3038 Clouds 23 1015 83 10000 3.1 60 21:58 12.02.2020
3039 Clouds 23 1015 83 10000 3.1 60 21:40 12.02.2020
3040 Clouds 23 1015 83 10000 3.1 60 21:19 12.02.2020
3041 Clouds 23 1015 78 10000 2.1 100 20:56 12.02.2020
3042 Clouds 23 1015 78 10000 2.1 100 20:56 12.02.2020
3043 Clouds 24 1015 78 10000 2.1 100 20:37 12.02.2020
3044 Clouds 24 1015 78 10000 2.1 100 20:19 12.02.2020
3045 Clouds 24 1015 78 10000 2.6 110 19:44 12.02.2020
3046 Clouds 24 1015 78 10000 2.6 110 19:23 12.02.2020
3047 Clouds 25 1016 73 10000 2.6 120 18:55 12.02.2020
3048 Clouds 25 1016 73 10000 2.6 120 18:37 12.02.2020
3049 Clouds 25 1016 73 10000 2.6 120 18:18 12.02.2020
3050 Clouds 25 1016 73 10000 2.1 120 17:42 12.02.2020
3051 Clouds 25 1016 73 10000 2.1 120 17:20 12.02.2020
3052 Clouds 25 1016 94 10000 2.6 330 16:58 12.02.2020
3053 Clouds 25 1018 76 0 1.79 120 16:38 12.02.2020
3054 Rain 25 1016 88 10000 5.7 20 16:18 12.02.2020
3055 Rain 25 1016 88 10000 5.7 20 16:18 12.02.2020
3056 Rain 25 1016 88 10000 5.7 20 15:41 12.02.2020
3057 Rain 25 1016 88 10000 5.7 20 15:20 12.02.2020
3058 Clouds 26 1017 65 10000 2.6 120 14:56 12.02.2020
3059 Clouds 26 1017 65 10000 2.6 120 14:38 12.02.2020
3060 Clouds 26 1017 65 10000 2.6 120 14:19 12.02.2020
3061 Clouds 27 1016 54 10000 2.1 90 13:56 12.02.2020
3062 Clouds 27 1016 54 10000 2.1 90 13:37 12.02.2020
3063 Clouds 27 1016 54 10000 2.1 90 13:18 12.02.2020
3064 Clouds 27 1016 54 10000 2.1 90 13:18 12.02.2020
3065 Clouds 27 1015 65 10000 2.6 110 12:55 12.02.2020
3066 Clouds 27 1015 65 10000 2.6 110 12:36 12.02.2020
3067 Clouds 27 1015 65 10000 2.6 110 12:18 12.02.2020
3068 Clouds 27 1015 58 10000 3.1 110 11:42 12.02.2020
3069 Clouds 28 1015 58 10000 3.1 110 11:21 12.02.2020
3070 Clouds 29 1014 51 10000 3.6 120 10:59 12.02.2020
3071 Clouds 29 1014 51 10000 3.6 120 10:41 12.02.2020
3072 Clouds 29 1014 51 10000 3.6 120 10:21 12.02.2020
3073 Clouds 29 1014 51 10000 3.6 120 10:21 12.02.2020
3074 Clouds 29 1014 51 10000 4.1 120 09:57 12.02.2020
3075 Clouds 30 1014 51 10000 4.1 120 09:39 12.02.2020
3076 Clouds 30 1014 51 10000 4.1 120 09:19 12.02.2020
3077 Clouds 30 1014 51 10000 4.1 120 09:19 12.02.2020
3078 Clouds 30 1014 48 10000 5.1 120 08:55 12.02.2020
3079 Clouds 31 1014 48 10000 5.1 120 08:36 12.02.2020
3080 Clouds 31 1014 48 10000 5.1 120 08:18 12.02.2020
3081 Clouds 31 1015 48 10000 5.1 120 07:42 12.02.2020
3082 Clouds 31 1015 48 10000 5.1 120 07:22 12.02.2020
3083 Clouds 31 1016 45 10000 5.7 120 06:52 12.02.2020
3084 Clouds 31 1016 45 10000 5.7 120 06:20 12.02.2020
3085 Clouds 31 1016 45 10000 5.7 120 06:20 12.02.2020
3086 Clouds 31 1017 45 10000 5.1 100 05:33 12.02.2020
3087 Clouds 30 1017 51 10000 5.7 100 04:43 12.02.2020
3088 Clouds 30 1017 51 10000 5.7 100 04:24 12.02.2020
3089 Clouds 29 1018 54 10000 6.7 90 03:31 12.02.2020
3090 Clouds 28 1018 65 10000 3.6 80 02:54 12.02.2020
3091 Clouds 27 1018 65 10000 3.6 80 02:27 12.02.2020
3092 Clouds 25 1018 65 10000 1.5 120 01:40 12.02.2020
3093 Clouds 23 1017 73 9000 1 0 00:43 12.02.2020
3094 Clouds 23 1017 73 9000 1 0 00:25 12.02.2020
3095 Clouds 22 1017 78 9000 1 110 23:53 11.02.2020
3096 Clouds 22 1017 78 9000 1 110 23:35 11.02.2020
3097 Clouds 22 1016 78 10000 1 0 22:59 11.02.2020
3098 Clouds 22 1016 78 10000 1 0 22:40 11.02.2020
3099 Clouds 22 1016 78 10000 1 0 22:20 11.02.2020
3100 Clouds 22 1016 78 10000 1 0 22:20 11.02.2020
3101 Clouds 22 1017 78 10000 1.5 100 21:57 11.02.2020
3102 Clouds 22 1017 78 10000 1.5 100 21:39 11.02.2020
3103 Clouds 22 1017 78 10000 1.5 100 21:19 11.02.2020
3104 Clouds 22 1017 83 10000 1 60 20:58 11.02.2020
3105 Clouds 22 1017 83 10000 1 60 20:39 11.02.2020
3106 Clouds 22 1017 83 10000 1 60 20:39 11.02.2020
3107 Clouds 22 1017 83 10000 1 60 20:19 11.02.2020
3108 Clouds 23 1017 78 10000 2.1 100 19:57 11.02.2020
3109 Clouds 23 1017 78 10000 2.1 100 19:39 11.02.2020
3110 Clouds 23 1017 78 10000 2.1 100 19:20 11.02.2020
3111 Clouds 23 1018 78 10000 2.1 80 18:45 11.02.2020
3112 Clouds 23 1018 78 10000 2.1 80 18:26 11.02.2020
3113 Clouds 24 1018 73 10000 2.6 90 17:57 11.02.2020
3114 Clouds 24 1018 73 10000 2.6 90 17:38 11.02.2020
3115 Clouds 24 1018 73 10000 2.6 90 17:19 11.02.2020
3116 Clouds 24 1019 73 10000 2.6 100 16:58 11.02.2020
3117 Clouds 24 1019 73 10000 2.6 100 16:38 11.02.2020
3118 Clouds 24 1019 73 10000 2.6 100 16:20 11.02.2020
3119 Clouds 24 1019 69 10000 2.6 80 15:57 11.02.2020
3120 Clouds 24 1019 69 10000 2.6 80 15:38 11.02.2020
3121 Clouds 25 1019 69 10000 2.6 80 15:18 11.02.2020
3122 Clouds 25 1018 69 10000 2.6 100 14:41 11.02.2020
3123 Clouds 25 1018 69 10000 2.6 100 14:19 11.02.2020
3124 Clouds 25 1018 65 10000 3.1 100 13:42 11.02.2020
3125 Clouds 25 1018 65 10000 3.1 100 13:23 11.02.2020
3126 Clouds 26 1017 65 10000 3.1 100 12:59 11.02.2020
3127 Clouds 26 1017 65 10000 3.1 100 12:41 11.02.2020
3128 Clouds 26 1017 65 10000 3.1 100 12:21 11.02.2020
3129 Clouds 26 1016 61 10000 4.6 110 11:57 11.02.2020
3130 Clouds 27 1016 61 10000 4.6 110 11:39 11.02.2020
3131 Clouds 27 1016 61 10000 4.6 110 11:19 11.02.2020
3132 Clouds 28 1016 51 10000 4.6 100 10:40 11.02.2020
3133 -273 0 0 0 0 0 10:21 11.02.2020
3134 Clouds 30 1015 48 10000 5.1 80 09:58 11.02.2020
3135 Clouds 29 1015 48 10000 5.1 80 09:40 11.02.2020
3136 Clouds 30 1015 48 10000 5.1 80 09:21 11.02.2020
3137 Clouds 30 1015 48 10000 5.1 110 08:49 11.02.2020
3138 Clouds 30 1015 48 10000 5.1 110 08:25 11.02.2020
3139 Clouds 30 1015 48 10000 5.1 110 08:25 11.02.2020
3140 Clouds 30 1016 51 10000 5.1 100 07:54 11.02.2020
3141 Clouds 30 1016 51 10000 5.1 100 07:54 11.02.2020
3142 Clouds 30 1016 51 10000 5.1 100 07:33 11.02.2020
3143 Clouds 30 1017 51 10000 5.1 90 06:57 11.02.2020
3144 Clouds 30 1017 51 10000 5.1 90 06:38 11.02.2020
3145 Clouds 30 1017 51 10000 5.1 90 06:20 11.02.2020
3146 Clouds 30 1017 51 10000 5.1 90 06:20 11.02.2020
3147 Clouds 30 1017 54 10000 6.2 110 05:39 11.02.2020
3148 Clouds 29 1017 54 10000 6.2 110 05:19 11.02.2020
3149 Clouds 28 1019 54 10000 6.2 90 03:32 11.02.2020
3150 Clouds 27 1019 61 10000 4.6 100 02:37 11.02.2020
3151 Clouds 27 1019 65 10000 3.6 90 01:52 11.02.2020
3152 Clouds 26 1019 65 10000 3.6 90 01:30 11.02.2020
3153 Clouds 24 1018 73 10000 1.5 100 00:23 11.02.2020
3154 Clouds 23 1018 73 10000 2.1 100 23:45 10.02.2020
3155 Clouds 23 1018 73 10000 2.1 100 23:26 10.02.2020
3156 Clouds 23 1017 78 10000 2.1 80 22:57 10.02.2020
3157 Clouds 23 1017 78 10000 2.1 80 22:36 10.02.2020
3158 Clouds 23 1017 78 10000 2.1 80 22:18 10.02.2020
3159 Clouds 23 1017 73 10000 2.6 100 21:40 10.02.2020
3160 Clouds 23 1017 73 10000 2.6 100 21:22 10.02.2020
3161 Clouds 23 1017 73 10000 3.1 100 20:56 10.02.2020
3162 Clouds 24 1017 73 10000 3.1 100 20:37 10.02.2020
3163 Clouds 24 1017 73 10000 3.1 100 20:19 10.02.2020
3164 Clouds 24 1017 73 10000 2.6 100 19:57 10.02.2020
3165 Clouds 24 1017 73 10000 2.6 100 19:36 10.02.2020
3166 Clouds 24 1017 73 10000 2.6 100 19:18 10.02.2020
3167 Clouds 24 1017 69 10000 3.1 100 18:55 10.02.2020
3168 Clouds 24 1017 69 10000 3.1 100 18:37 10.02.2020
3169 Clouds 24 1017 69 10000 3.1 100 18:18 10.02.2020
3170 Clouds 24 1018 73 10000 2.1 100 17:40 10.02.2020
3171 Clouds 24 1018 73 10000 2.1 100 17:22 10.02.2020
3172 Clouds 24 1018 73 10000 2.1 100 16:59 10.02.2020
3173 Clouds 24 1018 73 10000 2.1 100 16:41 10.02.2020
3174 Clouds 24 1018 73 10000 2.1 100 16:20 10.02.2020
3175 Clouds 24 1018 73 10000 2.1 100 16:20 10.02.2020
3176 Clouds 24 1018 69 10000 3.6 110 15:59 10.02.2020
3177 Clouds 24 1018 69 10000 3.6 110 15:59 10.02.2020
3178 Clouds 24 1018 69 10000 3.6 110 15:40 10.02.2020
3179 Clouds 24 1018 69 10000 3.6 110 15:22 10.02.2020
3180 Clouds 25 1018 69 10000 3.1 110 14:58 10.02.2020
3181 Clouds 24 1018 69 10000 3.1 110 14:39 10.02.2020
3182 Clouds 25 1018 69 10000 3.1 110 14:19 10.02.2020
3183 Clouds 25 1017 69 10000 4.1 110 13:44 10.02.2020
3184 Clouds 25 1017 69 10000 4.1 110 13:25 10.02.2020
3185 Clouds 25 1016 68 10000 4.1 110 12:57 10.02.2020
3186 Clouds 25 1016 68 10000 4.1 110 12:38 10.02.2020
3187 Clouds 25 1016 68 10000 4.1 110 12:20 10.02.2020
3188 Clouds 26 1016 61 10000 4.1 100 11:45 10.02.2020
3189 Clouds 26 1016 61 10000 4.1 100 11:21 10.02.2020
3190 Clouds 27 1015 54 10000 5.1 100 10:49 10.02.2020
3191 Clouds 27 1015 54 10000 5.1 100 10:31 10.02.2020
3192 Clouds 28 1015 51 10000 6.2 90 09:56 10.02.2020
3193 Clouds 28 1015 51 10000 6.2 90 09:37 10.02.2020
3194 Clouds 28 1015 51 10000 6.2 90 09:18 10.02.2020
3195 Clouds 28 1015 54 10000 5.7 110 08:40 10.02.2020
3196 Clouds 29 1015 54 10000 5.7 110 08:21 10.02.2020
3197 Clouds 29 1015 51 10000 6.7 100 07:55 10.02.2020
3198 Clouds 29 1015 51 10000 6.7 100 07:55 10.02.2020
3199 Clouds 29 1015 51 10000 6.7 100 07:32 10.02.2020
3200 Clouds 29 1016 54 10000 6.7 80 06:49 10.02.2020
3201 Clouds 27 1017 58 10000 5.7 110 04:59 10.02.2020
3202 Clouds 27 1017 65 10000 5.1 110 03:55 10.02.2020
3203 Clouds 27 1017 65 10000 5.1 110 03:18 10.02.2020
3204 Clouds 27 1017 65 10000 4.1 120 02:40 10.02.2020
3205 Clouds 26 1017 69 10000 4.1 110 01:24 10.02.2020
3206 Clouds 25 1015 73 10000 2.6 110 00:37 10.02.2020
3207 Clouds 24 1015 73 10000 2.6 110 00:19 10.02.2020
3208 Clouds 24 1015 73 10000 2.6 110 23:41 09.02.2020
3209 Clouds 24 1015 73 10000 2.6 110 23:23 09.02.2020
3210 Clouds 24 1015 78 10000 1.5 0 22:44 09.02.2020
3211 Clouds 24 1015 78 10000 1.5 0 22:22 09.02.2020
3212 Clouds 24 1014 78 10000 5.98 97 21:55 09.02.2020
3213 Clouds 24 1014 78 10000 5.98 97 21:36 09.02.2020
3214 Clouds 24 1014 78 10000 5.98 97 21:18 09.02.2020
3215 Clouds 24 1014 78 10000 1 0 20:44 09.02.2020
3216 Clouds 24 1014 78 10000 1 0 20:21 09.02.2020
3217 Clouds 24 1015 78 10000 2.1 120 19:54 09.02.2020
3218 Clouds 24 1015 78 10000 2.1 120 19:36 09.02.2020
3219 Clouds 24 1015 78 10000 2.1 120 19:18 09.02.2020
3220 Clouds 25 1015 73 10000 0.5 0 18:41 09.02.2020
3221 Clouds 25 1015 73 10000 0.5 0 18:23 09.02.2020
3222 Clouds 25 1016 69 10000 2.1 90 17:44 09.02.2020
3223 Clouds 25 1016 69 10000 2.1 90 17:24 09.02.2020
3224 Clouds 26 1015 65 10000 2.6 100 16:59 09.02.2020
3225 Clouds 26 1015 65 10000 2.6 100 16:40 09.02.2020
3226 Clouds 26 1015 65 10000 2.6 100 16:21 09.02.2020
3227 Clouds 26 1016 69 10000 2.6 80 15:57 09.02.2020
3228 Clouds 26 1016 69 10000 2.6 80 15:39 09.02.2020
3229 Clouds 26 1016 69 10000 2.6 80 15:20 09.02.2020
3230 Clouds 26 1015 69 10000 2.1 120 14:55 09.02.2020
3231 Clouds 26 1015 69 10000 2.1 120 14:36 09.02.2020
3232 Clouds 26 1015 69 10000 2.1 120 14:18 09.02.2020
3233 Clouds 26 1015 65 10000 3.1 120 13:41 09.02.2020
3234 Clouds 26 1015 65 10000 3.1 120 13:21 09.02.2020
3235 Clouds 26 1014 61 10000 3.6 90 12:54 09.02.2020
3236 Clouds 26 1014 61 10000 3.6 90 12:36 09.02.2020
3237 Clouds 26 1014 61 10000 3.6 90 12:18 09.02.2020
3238 Clouds 27 1014 58 10000 4.1 90 11:39 09.02.2020
3239 Clouds 27 1014 58 10000 4.1 90 11:19 09.02.2020
3240 Clouds 27 1013 61 10000 2.1 110 10:43 09.02.2020
3241 Clouds 28 1013 61 10000 2.1 110 10:23 09.02.2020
3242 Clouds 28 1013 58 10000 2.6 110 09:58 09.02.2020
3243 Clouds 28 1013 58 10000 2.6 110 09:38 09.02.2020
3244 Clouds 28 1013 58 10000 2.6 110 09:19 09.02.2020
3245 Clouds 29 1014 58 10000 4.6 80 08:41 09.02.2020
3246 Clouds 29 1014 58 10000 4.6 80 08:23 09.02.2020
3247 Clouds 29 1014 58 10000 5.1 50 07:52 09.02.2020
3248 Clouds 29 1014 58 10000 5.1 50 07:26 09.02.2020
3249 Clouds 28 1015 62 10000 3.6 10 06:37 09.02.2020
3250 Clouds 28 1016 69 10000 2.6 60 05:55 09.02.2020
3251 Clouds 28 1016 69 10000 2.6 60 05:33 09.02.2020
3252 Clouds 28 1016 69 10000 1.5 0 04:48 09.02.2020
3253 Clouds 28 1017 74 10000 2.1 60 02:58 09.02.2020
3254 Clouds 27 1017 74 10000 2.1 60 02:36 09.02.2020
3255 Clouds 26 1016 74 10000 2.6 50 01:39 09.02.2020
3256 Clouds 25 1016 83 10000 2.1 20 00:56 09.02.2020
3257 Clouds 24 1016 83 10000 2.1 20 00:30 09.02.2020
3258 Rain 24 1015 78 10000 2.1 10 23:50 08.02.2020
3259 Rain 25 1015 78 10000 2.1 10 23:25 08.02.2020
3260 Clouds 25 1015 78 10000 0.5 0 22:58 08.02.2020
3261 Clouds 25 1015 78 10000 0.5 0 22:40 08.02.2020
3262 Clouds 25 1015 78 10000 0.5 0 22:20 08.02.2020
3263 Clouds 25 1014 78 10000 1.5 50 21:46 08.02.2020
3264 Clouds 25 1014 78 10000 1.5 50 21:27 08.02.2020
3265 Clouds 25 1014 83 10000 0.5 290 20:59 08.02.2020
3266 Clouds 25 1014 83 10000 0.5 290 20:40 08.02.2020
3267 Clouds 25 1014 83 10000 0.5 290 20:20 08.02.2020
3268 Clouds 25 1015 88 10000 1.5 50 19:58 08.02.2020
3269 Clouds 25 1015 88 10000 1.5 50 19:38 08.02.2020
3270 Clouds 25 1015 88 10000 1.5 50 19:38 08.02.2020
3271 Clouds 25 1015 88 10000 1.5 50 19:20 08.02.2020
3272 Clouds 25 1015 83 10000 1.5 90 18:56 08.02.2020
3273 Clouds 25 1015 83 10000 1.5 90 18:37 08.02.2020
3274 Clouds 25 1015 83 10000 1.5 90 18:19 08.02.2020
3275 Rain 25 1015 83 10000 2.6 50 17:41 08.02.2020
3276 Rain 25 1015 83 10000 2.6 50 17:19 08.02.2020
3277 Rain 26 1016 78 10000 3.6 90 16:41 08.02.2020
3278 Rain 26 1016 78 10000 3.6 90 16:23 08.02.2020
3279 Rain 26 1016 78 10000 3.6 90 16:23 08.02.2020
3280 Clouds 26 1015 78 10000 3.1 120 15:58 08.02.2020
3281 Clouds 26 1015 78 10000 3.1 120 15:39 08.02.2020
3282 Clouds 26 1015 78 10000 3.1 120 15:18 08.02.2020
3283 Clouds 26 1015 78 10000 3.1 120 15:18 08.02.2020
3284 Clouds 26 1015 78 10000 3.1 120 15:18 08.02.2020
3285 Clouds 27 1015 78 10000 3.6 120 14:44 08.02.2020
3286 Clouds 27 1015 78 10000 3.6 120 14:21 08.02.2020
3287 Clouds 27 1014 78 10000 2.6 120 13:57 08.02.2020
3288 Clouds 27 1014 78 10000 2.6 120 13:38 08.02.2020
3289 Clouds 27 1014 78 10000 2.6 120 13:38 08.02.2020
3290 Clouds 27 1014 78 10000 2.6 120 13:20 08.02.2020
3291 Clouds 27 1014 74 10000 3.1 110 12:40 08.02.2020
3292 Clouds 28 1014 74 10000 3.1 110 12:21 08.02.2020
3293 Clouds 28 1013 74 10000 4.1 110 11:56 08.02.2020
3294 Clouds 28 1013 74 10000 4.1 110 11:37 08.02.2020
3295 Clouds 28 1013 74 10000 4.1 110 11:18 08.02.2020
3296 Clouds 28 1013 74 10000 4.1 110 10:42 08.02.2020
3297 Clouds 28 1013 74 10000 4.1 110 10:21 08.02.2020
3298 Clouds 28 1012 83 10000 2.1 350 09:51 08.02.2020
3299 Clouds 28 1012 83 10000 2.1 350 09:27 08.02.2020
3300 Rain 28 1012 83 10000 3.1 20 08:54 08.02.2020
3301 Rain 28 1012 88 9000 3.1 110 08:36 08.02.2020
3302 Rain 28 1012 88 9000 3.1 110 08:36 08.02.2020
3303 Rain 27 1012 88 9000 3.1 110 08:18 08.02.2020
3304 Rain 29 1013 70 10000 2.6 0 07:43 08.02.2020
3305 Rain 29 1013 70 10000 2.6 0 07:18 08.02.2020
3306 Clouds 30 1013 70 10000 1.5 0 06:24 08.02.2020
3307 Clouds 30 1014 74 10000 2.1 90 05:47 08.02.2020
3308 Clouds 30 1014 74 10000 2.1 90 05:28 08.02.2020
3309 Clouds 29 1015 74 10000 2.6 100 04:37 08.02.2020
3310 Clouds 27 1016 88 10000 2.6 90 03:41 08.02.2020
3311 Clouds 27 1016 88 8000 0.5 0 02:43 08.02.2020
3312 Clouds 25 1015 94 9000 2.1 10 01:37 08.02.2020
3313 Clouds 25 1015 94 8000 3.1 10 00:59 08.02.2020
3314 Clouds 24 1015 94 8000 3.1 10 00:37 08.02.2020
3315 Clouds 24 1015 94 8000 3.1 10 00:37 08.02.2020
3316 Clouds 24 1015 94 8000 3.1 10 00:18 08.02.2020
3317 Rain 24 1015 94 7000 2.6 10 23:42 07.02.2020
3318 Rain 24 1015 94 7000 2.6 10 23:20 07.02.2020
3319 Rain 24 1014 94 8000 3.1 350 22:56 07.02.2020
3320 Rain 24 1014 94 8000 3.1 350 22:37 07.02.2020
3321 Rain 24 1014 94 8000 3.1 350 22:18 07.02.2020
3322 Rain 24 1014 94 8000 3.1 350 22:18 07.02.2020
3323 Rain 24 1014 94 9000 4.1 10 21:41 07.02.2020
3324 Rain 24 1014 94 9000 4.1 10 21:21 07.02.2020
3325 Rain 24 1014 94 10000 2.1 20 20:40 07.02.2020
3326 Rain 24 1014 94 10000 2.1 20 20:22 07.02.2020
3327 Rain 24 1014 94 3600 1 0 19:56 07.02.2020
3328 Rain 24 1014 94 3600 1 0 19:37 07.02.2020
3329 Rain 24 1014 94 3600 1 0 19:19 07.02.2020
3330 Rain 24 1014 94 9000 0.5 0 18:46 07.02.2020
3331 Rain 24 1014 94 9000 0.5 0 18:26 07.02.2020
3332 Rain 24 1015 94 4000 1 0 17:57 07.02.2020
3333 Rain 24 1015 94 4000 1 0 17:39 07.02.2020
3334 Rain 24 1015 94 4000 1 0 17:19 07.02.2020
3335 Rain 25 1015 88 6000 1.5 20 16:50 07.02.2020
3336 Rain 25 1015 88 6000 1.5 20 16:24 07.02.2020
3337 Rain 25 1015 100 8000 2.1 70 15:55 07.02.2020
3338 Rain 25 1015 100 8000 2.1 70 15:29 07.02.2020
3339 Rain 25 1015 100 5000 2.1 0 14:58 07.02.2020
3340 Rain 25 1015 100 5000 2.1 0 14:40 07.02.2020
3341 Rain 25 1015 100 5000 2.1 0 14:21 07.02.2020
3342 Rain 26 1014 94 8000 2.1 0 13:57 07.02.2020
3343 Rain 26 1014 94 8000 2.1 0 13:57 07.02.2020
3344 Rain 26 1014 94 8000 2.1 0 13:38 07.02.2020
3345 Rain 26 1014 94 8000 2.1 0 13:38 07.02.2020
3346 Rain 26 1014 94 8000 2.1 0 13:20 07.02.2020
3347 Rain 26 1014 83 9000 2.1 140 12:42 07.02.2020
3348 Rain 26 1013 88 10000 1 0 12:23 07.02.2020
3349 Rain 27 1012 83 10000 1.5 270 11:45 07.02.2020
3350 Rain 27 1012 83 10000 1.5 270 11:24 07.02.2020
3351 Clouds 27 1012 83 10000 2.1 270 10:59 07.02.2020
3352 Clouds 28 1012 83 10000 2.1 270 10:39 07.02.2020
3353 Clouds 28 1012 83 10000 2.1 270 10:20 07.02.2020
3354 Rain 28 1012 83 10000 1 0 09:45 07.02.2020
3355 Rain 28 1012 83 10000 1 0 09:25 07.02.2020
3356 Rain 27 1012 88 10000 1 0 08:57 07.02.2020
3357 Rain 27 1012 88 10000 1 0 08:36 07.02.2020
3358 Rain 27 1012 88 10000 1 0 08:18 07.02.2020
3359 Rain 28 1012 83 4000 1.5 0 07:40 07.02.2020
3360 Rain 28 1012 83 4000 1.5 0 07:19 07.02.2020
3361 Rain 28 1013 88 9000 4.1 310 06:42 07.02.2020
3362 Rain 27 1013 88 9000 4.1 310 06:22 07.02.2020
3363 Rain 28 1014 78 8000 3.6 310 05:43 07.02.2020
3364 Clouds 28 1015 70 10000 2.1 0 03:57 07.02.2020
3365 Clouds 28 1015 78 10000 3.1 360 02:28 07.02.2020
3366 Clouds 26 1015 83 10000 2.6 10 01:22 07.02.2020
3367 Clouds 25 1014 83 8000 1 0 00:37 07.02.2020
3368 Clouds 25 1013 78 10000 3.6 10 23:39 06.02.2020
3369 Clouds 25 1013 78 10000 3.6 10 23:39 06.02.2020
3370 Clouds 25 1013 78 10000 3.6 10 23:20 06.02.2020
3371 Clouds 25 1012 78 10000 2.6 10 22:57 06.02.2020
3372 Clouds 25 1012 78 10000 2.6 10 22:39 06.02.2020
3373 Clouds 25 1012 78 10000 2.6 10 22:20 06.02.2020
3374 Clouds 26 1012 78 10000 1.5 290 21:37 06.02.2020
3375 Clouds 26 1012 78 10000 1.5 290 21:19 06.02.2020
3376 Clouds 25 1012 78 10000 1 250 20:56 06.02.2020
3377 Clouds 26 1012 78 10000 1 250 20:37 06.02.2020
3378 Clouds 26 1012 78 10000 1 250 20:18 06.02.2020
3379 Clouds 26 1013 78 10000 0.5 0 19:57 06.02.2020
3380 Clouds 26 1013 78 10000 0.5 0 19:37 06.02.2020
3381 Clouds 26 1013 78 10000 0.5 0 19:19 06.02.2020
3382 Clouds 26 1013 78 10000 1 0 18:43 06.02.2020
3383 Clouds 26 1013 78 10000 1 0 18:25 06.02.2020
3384 Clouds 26 1013 69 10000 1 0 17:59 06.02.2020
3385 Clouds 26 1013 69 10000 1 0 17:41 06.02.2020
3386 Clouds 26 1013 69 10000 1 0 17:20 06.02.2020
3387 Clouds 26 1014 69 10000 1 0 16:43 06.02.2020
3388 Clouds 26 1014 69 10000 1 0 16:25 06.02.2020
3389 Clouds 26 1014 74 10000 1 0 15:44 06.02.2020
3390 Clouds 26 1014 74 10000 1 0 15:24 06.02.2020
3391 Clouds 26 1014 74 10000 2.1 100 14:59 06.02.2020
3392 Clouds 26 1014 74 10000 2.1 100 14:41 06.02.2020
3393 Clouds 27 1014 74 10000 2.1 100 14:23 06.02.2020
3394 Clouds 27 1013 65 10000 2.6 120 13:45 06.02.2020
3395 Clouds 27 1013 65 10000 2.6 120 13:26 06.02.2020
3396 Clouds 27 1013 74 10000 3.6 110 12:45 06.02.2020
3397 Clouds 27 1013 74 10000 3.6 110 12:45 06.02.2020
3398 Clouds 27 1013 74 10000 3.6 110 12:20 06.02.2020
3399 Clouds 27 1012 65 10000 4.1 110 11:59 06.02.2020
3400 Clouds 28 1012 65 10000 4.1 110 11:40 06.02.2020
3401 Clouds 28 1012 65 10000 4.1 110 11:21 06.02.2020
3402 Clouds 28 1011 62 10000 5.1 110 10:58 06.02.2020
3403 Clouds 29 1011 62 10000 5.1 110 10:39 06.02.2020
3404 Clouds 29 1011 62 10000 5.1 110 10:21 06.02.2020
3405 Clouds 29 1011 62 10000 6.2 110 09:57 06.02.2020
3406 Clouds 29 1011 62 10000 6.2 110 09:38 06.02.2020
3407 Clouds 29 1011 62 10000 6.2 110 09:19 06.02.2020
3408 Clouds 29 1011 62 10000 5.1 110 08:42 06.02.2020
3409 Clouds 30 1011 62 10000 5.1 110 08:22 06.02.2020
3410 Clouds 30 1011 62 10000 5.1 110 08:22 06.02.2020
3411 Clouds 29 1012 70 10000 5.1 110 07:51 06.02.2020
3412 Clouds 28 1012 70 10000 5.1 110 07:28 06.02.2020
3413 Clouds 29 1013 70 10000 1.5 0 06:46 06.02.2020
3414 Clouds 29 1013 70 10000 1.5 0 06:18 06.02.2020
3415 Clouds 28 1014 74 10000 1 0 04:54 06.02.2020
3416 Rain 27 1015 74 9000 1 0 03:21 06.02.2020
3417 Clouds 27 1014 78 8000 2.1 270 02:44 06.02.2020
3418 Clouds 27 1014 74 10000 1 0 01:41 06.02.2020
3419 Clouds 26 1013 78 10000 1.5 150 00:59 06.02.2020
3420 Clouds 26 1013 78 10000 1.5 150 00:26 06.02.2020
3421 Clouds 25 1012 83 10000 0.5 0 23:48 05.02.2020
3422 Clouds 25 1012 83 10000 0.5 0 23:29 05.02.2020
3423 Clouds 25 1012 78 10000 1 0 22:59 05.02.2020
3424 Clouds 26 1012 78 10000 1 0 22:40 05.02.2020
3425 Clouds 26 1012 78 10000 1 0 22:40 05.02.2020
3426 Clouds 26 1012 78 10000 1 0 22:22 05.02.2020
3427 Clouds 26 1012 78 10000 1 0 22:22 05.02.2020
3428 Clouds 26 1012 78 10000 1 0 22:22 05.02.2020
3429 Clouds 25 1012 83 10000 2.9 72 21:54 05.02.2020
3430 Clouds 25 1012 83 10000 2.9 72 21:36 05.02.2020
3431 Clouds 25 1012 83 10000 2.9 72 21:18 05.02.2020
3432 Clouds 26 1012 78 10000 1 0 20:39 05.02.2020
3433 Clouds 26 1012 78 10000 1 0 20:39 05.02.2020
3434 Clouds 26 1012 78 10000 1 0 20:19 05.02.2020
3435 Clouds 26 1013 78 10000 1 0 19:57 05.02.2020
3436 Clouds 26 1013 78 10000 1 0 19:38 05.02.2020
3437 Clouds 26 1013 78 10000 1 0 19:19 05.02.2020
3438 Clouds 26 1013 78 10000 1 0 19:19 05.02.2020
3439 Clouds 26 1013 78 10000 1 0 19:19 05.02.2020
3440 Clouds 26 1013 78 10000 1 0 18:45 05.02.2020
3441 Clouds 26 1013 78 10000 1 0 18:22 05.02.2020
3442 Clouds 26 1013 78 10000 1.5 90 17:59 05.02.2020
3443 Clouds 26 1013 78 10000 1.5 90 17:37 05.02.2020
3444 Clouds 26 1013 78 10000 1.5 90 17:37 05.02.2020
3445 Clouds 26 1013 78 10000 1.5 90 17:18 05.02.2020
3446 Clouds 26 1013 78 10000 3.1 120 16:55 05.02.2020
3447 Clouds 26 1013 78 10000 3.1 120 16:37 05.02.2020
3448 Clouds 26 1013 78 10000 3.1 120 16:18 05.02.2020
3449 Clouds 26 1013 78 10000 1 130 15:41 05.02.2020
3450 Clouds 26 1013 78 10000 1 130 15:19 05.02.2020
3451 Clouds 26 1013 78 10000 2.1 130 14:55 05.02.2020
3452 Clouds 26 1013 78 10000 2.1 130 14:37 05.02.2020
3453 Clouds 26 1013 78 10000 2.1 130 14:19 05.02.2020
3454 Clouds 27 1013 74 10000 2.6 130 13:40 05.02.2020
3455 Clouds 27 1013 74 10000 2.6 130 13:22 05.02.2020
3456 Clouds 27 1013 58 8000 3.1 140 12:44 05.02.2020
3457 Clouds 27 1013 58 8000 3.1 140 12:25 05.02.2020
3458 Clouds 28 1011 62 10000 3.1 110 11:57 05.02.2020
3459 Clouds 28 1011 62 10000 3.1 110 11:38 05.02.2020
3460 Clouds 28 1011 62 10000 3.1 110 11:20 05.02.2020
3461 Clouds 29 1011 55 10000 4.6 90 10:43 05.02.2020
3462 Clouds 29 1011 55 10000 4.6 90 10:43 05.02.2020
3463 Clouds 29 1011 55 10000 4.6 90 10:24 05.02.2020
3464 Clouds 30 1010 58 10000 3.6 130 09:58 05.02.2020
3465 Clouds 30 1010 58 10000 3.6 130 09:37 05.02.2020
3466 Clouds 30 1010 58 10000 3.6 130 09:19 05.02.2020
3467 Clouds 30 1010 55 10000 4.1 120 08:43 05.02.2020
3468 Clouds 31 1010 55 10000 4.1 120 08:23 05.02.2020
3469 Clouds 31 1011 52 10000 3.1 0 07:54 05.02.2020
3470 Clouds 31 1011 52 10000 3.1 0 07:33 05.02.2020
3471 Clouds 31 1012 49 10000 1.5 0 06:49 05.02.2020
3472 Clouds 31 1012 49 10000 1.5 0 06:23 05.02.2020
3473 Clouds 31 1013 52 10000 2.6 0 05:52 05.02.2020
3474 Clouds 31 1013 52 10000 2.6 0 05:18 05.02.2020
3475 Clouds 30 1014 55 10000 2.6 0 04:45 05.02.2020
3476 Clouds 29 1015 58 10000 2.6 60 03:48 05.02.2020
3477 Clouds 27 1015 47 10000 2.6 60 02:25 05.02.2020
3478 Clouds 25 1015 65 10000 3.1 20 01:37 05.02.2020
3479 Clouds 23 1014 73 10000 2.1 20 00:42 05.02.2020
3480 Clouds 23 1013 69 10000 2.6 10 23:57 04.02.2020
3481 Clouds 23 1013 69 10000 2.6 10 23:37 04.02.2020
3482 Clouds 23 1013 69 10000 2.6 10 23:18 04.02.2020
3483 Clouds 23 1013 69 10000 2.1 350 22:42 04.02.2020
3484 Clouds 23 1013 69 10000 2.1 350 22:21 04.02.2020
3485 Clouds 23 1013 73 10000 2.1 20 21:59 04.02.2020
3486 Clouds 23 1013 73 10000 2.1 20 21:40 04.02.2020
3487 Clouds 23 1013 73 10000 2.1 20 21:19 04.02.2020
3488 Clouds 23 1013 73 10000 2.1 20 21:19 04.02.2020
3489 Clouds 23 1013 78 10000 1 130 20:58 04.02.2020
3490 Clouds 23 1013 78 10000 1 130 20:38 04.02.2020
3491 Clouds 23 1013 78 10000 1 130 20:20 04.02.2020
3492 Clouds 24 1013 78 10000 1 0 19:56 04.02.2020
3493 Clouds 24 1013 78 10000 1 0 19:38 04.02.2020
3494 Clouds 24 1013 78 10000 1 0 19:19 04.02.2020
3495 Clouds 24 1014 78 10000 1.5 120 18:54 04.02.2020
3496 Clouds 24 1014 78 10000 1.5 120 18:36 04.02.2020
3497 Clouds 24 1014 78 10000 1.5 120 18:18 04.02.2020
3498 Clouds 25 1014 78 10000 1 0 17:41 04.02.2020
3499 Clouds 25 1014 78 10000 1 0 17:20 04.02.2020
3500 Clouds 25 1015 78 10000 2.1 130 16:40 04.02.2020
3501 Clouds 25 1015 78 10000 2.1 130 16:21 04.02.2020
3502 Clouds 25 1015 69 10000 2.1 120 15:58 04.02.2020
3503 Clouds 25 1015 69 10000 2.1 120 15:58 04.02.2020
3504 Clouds 25 1015 69 10000 2.1 120 15:40 04.02.2020
3505 Clouds 26 1015 69 10000 2.1 120 15:21 04.02.2020
3506 Clouds 26 1015 69 10000 3.6 110 14:57 04.02.2020
3507 Clouds 26 1015 69 10000 3.6 110 14:39 04.02.2020
3508 Clouds 26 1015 69 10000 3.6 110 14:20 04.02.2020
3509 Clouds 26 1014 61 10000 2.6 90 13:41 04.02.2020
3510 Clouds 26 1014 61 10000 2.6 90 13:23 04.02.2020
3511 Clouds 26 1013 61 10000 2.1 110 12:58 04.02.2020
3512 Clouds 26 1013 61 10000 2.1 110 12:39 04.02.2020
3513 Clouds 26 1013 61 10000 2.1 110 12:20 04.02.2020
3514 Clouds 27 1013 58 10000 3.6 120 11:56 04.02.2020
3515 Clouds 27 1013 58 10000 3.6 120 11:37 04.02.2020
3516 Clouds 27 1013 58 10000 3.6 120 11:37 04.02.2020
3517 Clouds 27 1013 58 10000 3.6 120 11:19 04.02.2020
3518 Clouds 28 1012 58 10000 4.1 130 10:45 04.02.2020
3519 Clouds 28 1012 58 10000 4.1 130 10:26 04.02.2020
3520 Clouds 30 1012 51 10000 4.1 140 09:57 04.02.2020
3521 Clouds 29 1012 51 10000 4.1 140 09:38 04.02.2020
3522 Clouds 29 1012 51 10000 4.1 140 09:19 04.02.2020
3523 Clouds 29 1012 48 10000 4.1 140 08:45 04.02.2020
3524 Clouds 29 1012 48 10000 4.1 140 08:45 04.02.2020
3525 Clouds 29 1012 48 10000 4.1 140 08:27 04.02.2020
3526 Clouds 30 1013 54 10000 2.6 280 07:50 04.02.2020
3527 Clouds 30 1013 54 10000 2.6 280 07:24 04.02.2020
3528 Clouds 30 1014 54 10000 5.1 270 06:48 04.02.2020
3529 Clouds 29 1014 54 10000 5.1 270 06:30 04.02.2020
3530 Clouds 29 1015 45 10000 3.1 130 05:33 04.02.2020
3531 Clouds 28 1016 48 10000 2.6 0 04:27 04.02.2020
3532 Clouds 28 1016 54 10000 2.6 90 03:43 04.02.2020
3533 Clouds 28 1016 54 10000 2.6 90 03:25 04.02.2020
3534 Clouds 26 1016 61 10000 2.6 100 02:34 04.02.2020
3535 Clouds 25 1016 69 7000 1 0 01:56 04.02.2020
3536 Clouds 24 1016 69 7000 1 0 01:36 04.02.2020
3537 Clouds 22 1015 83 6000 1 260 00:49 04.02.2020
3538 Clouds 21 1015 83 6000 1 260 00:22 04.02.2020
3539 Clouds 21 1015 83 6000 1 260 00:22 04.02.2020
3540 Clouds 21 1015 83 7000 3.78 75 23:41 03.02.2020
3541 Clouds 21 1015 83 7000 3.78 75 23:22 03.02.2020
3542 Clouds 21 1014 77 9000 2.9 55 22:40 03.02.2020
3543 Clouds 21 1014 77 9000 2.9 55 22:40 03.02.2020
3544 Clouds 21 1014 77 9000 2.9 55 22:21 03.02.2020
3545 Clouds 21 1014 83 0 1.5 170 21:59 03.02.2020
3546 Clouds 21 1014 83 0 1.5 170 21:39 03.02.2020
3547 Clouds 21 1014 83 0 1.5 170 21:19 03.02.2020
3548 Clouds 21 1014 83 10000 1 150 20:42 03.02.2020
3549 Clouds 21 1014 83 10000 1 150 20:20 03.02.2020
3550 Clouds 21 1015 77 10000 1 70 19:58 03.02.2020
3551 Clouds 21 1015 77 10000 1 70 19:58 03.02.2020
3552 Clouds 21 1015 77 10000 1 70 19:40 03.02.2020
3553 Clouds 21 1015 77 10000 1 70 19:20 03.02.2020
3554 Clouds 22 1015 78 10000 1.5 80 18:56 03.02.2020
3555 Clouds 22 1015 78 10000 1.5 80 18:37 03.02.2020
3556 Clouds 22 1015 78 10000 1.5 80 18:18 03.02.2020
3557 Clouds 22 1016 73 10000 1.5 120 17:40 03.02.2020
3558 Clouds 23 1016 73 10000 1.5 120 17:20 03.02.2020
3559 Clouds 22 1016 69 10000 1.5 140 16:59 03.02.2020
3560 Clouds 23 1016 69 10000 1.5 140 16:39 03.02.2020
3561 Clouds 23 1016 69 10000 1.5 140 16:20 03.02.2020
3562 Clouds 23 1016 64 10000 3.1 110 15:55 03.02.2020
3563 Clouds 24 1016 64 10000 3.1 110 15:37 03.02.2020
3564 Clouds 24 1016 64 10000 3.1 110 15:18 03.02.2020
3565 Clouds 24 1016 64 10000 4.1 100 14:41 03.02.2020
3566 Clouds 24 1016 64 10000 4.1 100 14:23 03.02.2020
3567 Clouds 24 1016 61 10000 3.1 100 13:56 03.02.2020
3568 Clouds 24 1016 61 10000 3.1 100 13:37 03.02.2020
3569 Clouds 24 1016 61 10000 3.1 100 13:19 03.02.2020
3570 Clouds 24 1015 61 10000 2.6 90 12:41 03.02.2020
3571 Clouds 24 1015 61 10000 2.6 90 12:23 03.02.2020
3572 Clouds 25 1015 57 10000 3.6 90 11:59 03.02.2020
3573 Clouds 25 1015 57 10000 3.6 90 11:38 03.02.2020
3574 Clouds 25 1015 57 10000 3.6 90 11:19 03.02.2020
3575 Clouds 26 1014 54 10000 4.1 90 10:54 03.02.2020
3576 Clouds 26 1014 54 10000 4.1 90 10:36 03.02.2020
3577 Clouds 26 1014 54 10000 4.1 90 10:18 03.02.2020
3578 Clouds 26 1014 54 10000 4.1 90 10:18 03.02.2020
3579 Clouds 27 1015 57 10000 5.7 70 09:38 03.02.2020
3580 Clouds 27 1015 57 10000 5.7 70 09:19 03.02.2020
3581 Clouds 27 1015 57 10000 4.1 70 08:40 03.02.2020
3582 Clouds 27 1015 57 10000 4.1 70 08:22 03.02.2020
3583 Clouds 27 1015 58 10000 4.1 0 07:42 03.02.2020
3584 Clouds 27 1015 58 10000 4.1 0 07:23 03.02.2020
3585 Rain 26 1016 65 10000 4.1 110 06:56 03.02.2020
3586 Clouds 26 1016 65 10000 4.6 100 06:31 03.02.2020
3587 Rain 26 1017 61 10000 3.6 20 05:51 03.02.2020
3588 Rain 25 1017 61 10000 3.6 20 05:31 03.02.2020
3589 Rain 25 1017 57 10000 5.7 80 04:44 03.02.2020
3590 Clouds 25 1018 65 10000 3.1 80 02:42 03.02.2020
3591 Clouds 25 1018 65 10000 3.1 80 02:42 03.02.2020
3592 Clouds 25 1018 65 10000 3.1 80 02:20 03.02.2020
3593 Clouds 24 1017 78 10000 2.1 80 00:49 03.02.2020
3594 Clouds 23 1017 78 10000 2.1 80 00:26 03.02.2020
3595 Rain 22 1017 83 9000 2.6 60 23:55 02.02.2020
3596 Clouds 23 1016 78 10000 1.5 80 23:36 02.02.2020
3597 Clouds 23 1016 78 10000 1.5 80 23:18 02.02.2020
3598 Clouds 23 1016 78 10000 1 90 22:39 02.02.2020
3599 Clouds 23 1016 78 10000 1 90 22:21 02.02.2020
3600 Clouds 23 1015 73 10000 1 0 21:57 02.02.2020
3601 Clouds 23 1015 73 10000 1 0 21:38 02.02.2020
3602 Clouds 23 1015 73 10000 1 0 21:20 02.02.2020
3603 Clouds 23 1016 73 10000 1.5 100 20:57 02.02.2020
3604 Clouds 23 1016 73 10000 1.5 100 20:57 02.02.2020
3605 Clouds 23 1016 73 10000 1.5 100 20:39 02.02.2020
3606 Clouds 23 1016 73 10000 1.5 100 20:20 02.02.2020
3607 Clouds 23 1016 73 10000 1.5 100 19:56 02.02.2020
3608 Clouds 23 1016 73 10000 1.5 100 19:38 02.02.2020
3609 Clouds 23 1016 73 10000 1.5 100 19:19 02.02.2020
3610 Clouds 23 1016 73 10000 1.5 90 18:54 02.02.2020
3611 Clouds 23 1016 73 10000 1.5 90 18:36 02.02.2020
3612 Clouds 23 1016 73 10000 1.5 90 18:36 02.02.2020
3613 Clouds 23 1016 73 10000 1.5 90 18:18 02.02.2020
3614 Clouds 23 1016 73 10000 2.1 120 17:55 02.02.2020
3615 Clouds 23 1016 73 10000 2.1 120 17:36 02.02.2020
3616 Clouds 24 1016 73 10000 2.1 120 17:18 02.02.2020
3617 Clouds 24 1016 73 10000 2.6 110 16:54 02.02.2020
3618 Clouds 24 1016 73 10000 2.6 110 16:36 02.02.2020
3619 Clouds 24 1016 73 10000 2.6 110 16:18 02.02.2020
3620 Clouds 24 1016 73 10000 2.6 110 16:18 02.02.2020
3621 Clouds 24 1016 78 10000 3.1 110 15:40 02.02.2020
3622 Clouds 24 1016 78 10000 3.1 110 15:20 02.02.2020
3623 Clouds 24 1016 73 10000 4.1 110 14:59 02.02.2020
3624 Clouds 24 1016 73 10000 4.1 110 14:40 02.02.2020
3625 Clouds 24 1016 73 10000 4.1 110 14:18 02.02.2020
3626 Clouds 24 1016 69 10000 4.1 110 13:55 02.02.2020
3627 Clouds 24 1016 69 10000 4.1 110 13:37 02.02.2020
3628 Clouds 24 1016 69 10000 4.1 110 13:19 02.02.2020
3629 Clouds 24 1015 61 10000 3.6 110 12:45 02.02.2020
3630 Clouds 24 1015 61 10000 3.6 110 12:23 02.02.2020
3631 Clouds 24 1015 69 10000 4.1 110 11:59 02.02.2020
3632 Clouds 25 1015 69 10000 4.1 110 11:40 02.02.2020
3633 Clouds 25 1015 69 10000 4.1 110 11:19 02.02.2020
3634 Clouds 26 1014 61 10000 4.1 110 10:56 02.02.2020
3635 Clouds 26 1014 61 10000 4.1 110 10:37 02.02.2020
3636 Clouds 26 1014 61 10000 4.1 110 10:19 02.02.2020
3637 Clouds 27 1014 61 10000 4.6 130 09:55 02.02.2020
3638 Clouds 27 1014 61 10000 4.6 130 09:36 02.02.2020
3639 Clouds 27 1014 61 10000 4.6 130 09:36 02.02.2020
3640 Clouds 27 1014 61 10000 4.6 130 09:18 02.02.2020
3641 Clouds 27 1014 61 10000 3.6 0 08:41 02.02.2020
3642 Clouds 28 1014 61 10000 3.6 0 08:22 02.02.2020
3643 Clouds 27 1015 61 10000 4.1 130 07:46 02.02.2020
3644 Clouds 27 1015 61 10000 4.1 130 07:46 02.02.2020
3645 Clouds 27 1015 61 10000 4.1 130 07:28 02.02.2020
3646 Rain 26 1016 69 10000 3.6 130 06:43 02.02.2020
3647 Rain 26 1016 69 10000 3.6 130 06:25 02.02.2020
3648 Clouds 27 1017 65 10000 2.1 0 05:47 02.02.2020
3649 Clouds 27 1018 65 10000 2.1 0 04:42 02.02.2020
3650 Clouds 26 1018 61 10000 3.1 110 03:25 02.02.2020
3651 Clouds 26 1018 65 10000 2.6 80 02:29 02.02.2020
3652 Clouds 25 1018 69 9000 2.1 70 01:52 02.02.2020
3653 Clouds 25 1018 69 9000 2.1 70 01:52 02.02.2020
3654 Clouds 24 1018 69 9000 2.1 70 01:19 02.02.2020
3655 Clouds 23 1017 78 10000 1.5 130 00:43 02.02.2020
3656 Clouds 23 1017 78 10000 1.5 130 00:20 02.02.2020
3657 Clouds 22 1016 78 10000 1.5 120 23:45 01.02.2020
3658 Clouds 22 1016 78 10000 1.5 120 23:21 01.02.2020
3659 Clouds 22 1016 78 10000 1.5 80 22:48 01.02.2020
3660 Clouds 22 1016 78 10000 1.5 80 22:19 01.02.2020
3661 Clouds 22 1016 78 10000 1.5 80 22:19 01.02.2020
3662 Clouds 22 1015 78 10000 3.8 80 21:44 01.02.2020
3663 Clouds 23 1015 78 10000 3.8 80 21:20 01.02.2020
3664 Clouds 22 1015 78 10000 3.8 80 20:58 01.02.2020
3665 Clouds 22 1015 78 10000 3.8 80 20:39 01.02.2020
3666 Clouds 23 1015 78 10000 5.14 88 20:20 01.02.2020
3667 Clouds 22 1016 78 10000 5.14 88 19:56 01.02.2020
3668 Clouds 22 1016 78 10000 5.14 88 19:38 01.02.2020
3669 Clouds 22 1016 78 10000 5.14 88 19:19 01.02.2020
3670 Clouds 23 1016 78 10000 1 0 18:57 01.02.2020
3671 Clouds 23 1016 78 10000 1 0 18:38 01.02.2020
3672 Clouds 23 1016 78 10000 1 0 18:19 01.02.2020
3673 Clouds 23 1016 69 10000 1.5 100 17:55 01.02.2020
3674 Clouds 24 1016 69 10000 1.5 100 17:37 01.02.2020
3675 Clouds 24 1016 69 10000 1.5 100 17:18 01.02.2020
3676 Clouds 24 1016 73 10000 2.6 120 16:41 01.02.2020
3677 Clouds 24 1016 73 10000 2.6 120 16:21 01.02.2020
3678 Clouds 24 1016 69 10000 2.1 110 15:47 01.02.2020
3679 Clouds 24 1016 69 10000 2.1 110 15:29 01.02.2020
3680 Clouds 24 1016 69 10000 2.1 0 15:00 01.02.2020
3681 Clouds 24 1016 69 10000 2.1 0 14:40 01.02.2020
3682 Clouds 25 1016 69 10000 2.1 0 14:20 01.02.2020
3683 Clouds 24 1015 69 10000 2.6 110 13:45 01.02.2020
3684 Clouds 25 1015 69 10000 2.6 110 13:23 01.02.2020
3685 Clouds 25 1015 69 10000 2.6 110 13:23 01.02.2020
3686 Clouds 25 1015 61 10000 3.1 90 12:50 01.02.2020
3687 Clouds 25 1015 61 10000 3.1 90 12:32 01.02.2020
3688 Clouds 26 1014 57 10000 3.6 90 11:59 01.02.2020
3689 Clouds 26 1014 57 10000 3.6 90 11:39 01.02.2020
3690 Clouds 26 1014 57 10000 3.6 90 11:20 01.02.2020
3691 Clouds 27 1013 54 10000 5.1 90 10:57 01.02.2020
3692 Clouds 27 1013 54 10000 5.1 90 10:38 01.02.2020
3693 Clouds 27 1013 54 10000 5.1 90 10:20 01.02.2020
3694 Clouds 28 1013 54 10000 5.7 110 09:57 01.02.2020
3695 Clouds 28 1013 54 10000 5.7 110 09:38 01.02.2020
3696 Clouds 28 1013 54 10000 5.7 110 09:19 01.02.2020
3697 Clouds 29 1013 51 10000 4.6 120 08:41 01.02.2020
3698 Clouds 30 1014 51 10000 5.1 110 07:48 01.02.2020
3699 Clouds 29 1014 51 10000 5.1 110 07:26 01.02.2020
3700 Clouds 29 1015 51 10000 5.7 90 06:55 01.02.2020
3701 Clouds 29 1015 51 10000 5.7 90 06:32 01.02.2020
3702 Clouds 29 1015 51 10000 5.1 100 05:51 01.02.2020
3703 Clouds 28 1017 58 10000 5.1 90 03:48 01.02.2020
3704 Clouds 28 1017 58 10000 5.1 90 03:21 01.02.2020
3705 Clouds 26 1017 65 10000 3.1 80 02:44 01.02.2020
3706 Clouds 26 1017 65 10000 3.1 80 02:25 01.02.2020
3707 Clouds 26 1017 65 9000 0.5 0 01:50 01.02.2020
3708 Clouds 25 1017 65 9000 0.5 0 01:30 01.02.2020
3709 Clouds 23 1016 78 8000 1 0 00:29 01.02.2020
3710 Clouds 22 1016 78 10000 2.1 30 23:43 31.01.2020
3711 Clouds 22 1016 78 10000 2.1 30 23:20 31.01.2020
3712 Clouds 22 1015 73 10000 1 80 22:59 31.01.2020
3713 Clouds 22 1015 73 10000 1 80 22:40 31.01.2020
3714 Clouds 22 1015 73 10000 1 80 22:21 31.01.2020
3715 Clouds 23 1015 69 10000 1.5 100 21:56 31.01.2020
3716 Clouds 23 1015 69 10000 1.5 100 21:37 31.01.2020
3717 Clouds 23 1015 69 10000 1.5 100 21:19 31.01.2020
3718 Clouds 23 1015 73 10000 1.5 120 20:56 31.01.2020
3719 Clouds 23 1015 73 10000 1.5 120 20:37 31.01.2020
3720 Clouds 23 1015 73 10000 1.5 110 20:18 31.01.2020
3721 Clouds 23 1015 73 10000 1.5 110 19:55 31.01.2020
3722 Clouds 23 1015 73 10000 1.5 110 19:37 31.01.2020
3723 Clouds 23 1015 73 10000 1.5 110 19:18 31.01.2020
3724 Clouds 24 1015 73 10000 2.1 120 18:40 31.01.2020
3725 Clouds 24 1015 73 10000 2.1 120 18:22 31.01.2020
3726 Clouds 24 1016 73 10000 2.1 120 17:47 31.01.2020
3727 Clouds 24 1016 73 10000 2.1 120 17:28 31.01.2020
3728 Clouds 24 1016 69 10000 2.1 120 16:59 31.01.2020
3729 Clouds 24 1016 69 10000 2.1 120 16:39 31.01.2020
3730 Clouds 24 1016 69 10000 2.1 120 16:39 31.01.2020
3731 Clouds 24 1016 69 10000 2.1 120 16:19 31.01.2020
3732 Clouds 24 1015 69 10000 2.6 120 15:59 31.01.2020
3733 Clouds 24 1015 69 10000 2.6 120 15:59 31.01.2020
3734 Clouds 24 1015 69 10000 2.6 120 15:40 31.01.2020
3735 Clouds 25 1015 69 10000 2.6 120 15:20 31.01.2020
3736 Clouds 24 1015 69 10000 2.1 120 14:45 31.01.2020
3737 Clouds 24 1015 69 10000 2.1 120 14:26 31.01.2020
3738 Clouds 24 1015 69 10000 2.6 120 13:59 31.01.2020
3739 Clouds 25 1015 69 10000 2.6 120 13:38 31.01.2020
3740 Clouds 25 1015 69 10000 2.6 120 13:20 31.01.2020
3741 Clouds 25 1014 69 10000 2.1 110 12:45 31.01.2020
3742 Clouds 25 1014 69 10000 2.1 110 12:24 31.01.2020
3743 Clouds 25 1013 69 10000 4.1 110 11:56 31.01.2020
3744 Clouds 26 1013 69 10000 4.1 110 11:37 31.01.2020
3745 Clouds 26 1013 69 10000 4.1 110 11:19 31.01.2020
3746 Clouds 27 1013 61 10000 3.6 130 10:44 31.01.2020
3747 Clouds 27 1013 61 10000 3.6 130 10:23 31.01.2020
3748 Clouds 28 1013 58 10000 3.1 0 09:59 31.01.2020
3749 Clouds 28 1013 58 10000 3.1 0 09:41 31.01.2020
3750 Clouds 28 1013 58 10000 3.1 0 09:41 31.01.2020
3751 Clouds 28 1013 58 10000 3.1 0 09:21 31.01.2020
3752 Clouds 28 1013 61 10000 2.6 150 08:54 31.01.2020
3753 Clouds 28 1013 61 10000 2.6 150 08:54 31.01.2020
3754 Clouds 28 1013 61 10000 2.6 150 08:28 31.01.2020
3755 Clouds 28 1013 74 9000 1.5 0 07:58 31.01.2020
3756 Clouds 28 1013 74 9000 1.5 0 07:39 31.01.2020
3757 Clouds 28 1013 74 9000 1.5 0 07:18 31.01.2020
3758 Clouds 27 1014 65 8000 3.1 270 06:27 31.01.2020
3759 Clouds 27 1014 65 8000 3.1 270 06:27 31.01.2020
3760 Clouds 27 1015 69 9000 3.6 310 05:50 31.01.2020
3761 Clouds 27 1015 69 9000 3.6 310 05:18 31.01.2020
3762 Clouds 27 1016 65 10000 2.6 110 03:29 31.01.2020
3763 Clouds 24 1015 78 8000 2.1 10 01:40 31.01.2020
3764 Clouds 23 1014 78 8000 2.6 320 00:47 31.01.2020
3765 Clouds 23 1014 78 8000 2.6 320 00:28 31.01.2020
3766 Clouds 23 1013 78 8000 1 0 23:57 30.01.2020
3767 Clouds 23 1013 78 8000 1 0 23:26 30.01.2020
3768 Clouds 23 1012 78 8000 1.5 350 22:58 30.01.2020
3769 Clouds 23 1012 78 8000 1.5 350 22:37 30.01.2020
3770 Clouds 23 1012 78 8000 1.5 350 22:37 30.01.2020
3771 Clouds 23 1012 78 8000 1.5 350 22:18 30.01.2020
3772 Clouds 23 1012 78 9000 1.5 330 21:57 30.01.2020
3773 Clouds 23 1012 78 9000 1.5 330 21:38 30.01.2020
3774 Clouds 23 1012 78 9000 1.5 330 21:38 30.01.2020
3775 Clouds 23 1012 78 9000 1.5 330 21:18 30.01.2020
3776 Clouds 23 1012 73 10000 2.6 20 20:41 30.01.2020
3777 Clouds 23 1012 73 10000 2.6 20 20:22 30.01.2020
3778 Clouds 23 1012 73 10000 2.6 350 19:57 30.01.2020
3779 Clouds 23 1012 73 10000 2.6 350 19:57 30.01.2020
3780 Clouds 24 1012 73 10000 2.6 350 19:39 30.01.2020
3781 Clouds 24 1012 73 10000 2.6 350 19:19 30.01.2020
3782 Clouds 24 1012 73 10000 2.6 20 18:42 30.01.2020
3783 Clouds 24 1012 73 10000 2.6 20 18:22 30.01.2020
3784 Clouds 24 1012 69 10000 4.6 10 17:58 30.01.2020
3785 Clouds 24 1012 69 10000 4.6 10 17:39 30.01.2020
3786 Clouds 24 1012 69 10000 4.6 10 17:19 30.01.2020
3787 Clouds 24 1013 69 10000 5.7 10 16:56 30.01.2020
3788 Clouds 24 1013 69 10000 5.7 10 16:38 30.01.2020
3789 Clouds 24 1013 69 10000 5.7 10 16:20 30.01.2020
3790 Clouds 24 1013 69 10000 6.2 10 15:43 30.01.2020
3791 Clouds 24 1013 69 10000 6.2 10 15:20 30.01.2020
3792 Clouds 25 1012 65 10000 6.2 10 14:50 30.01.2020
3793 Clouds 25 1012 65 10000 6.2 10 14:50 30.01.2020
3794 Clouds 25 1012 65 10000 6.2 10 14:27 30.01.2020
3795 Clouds 25 1012 65 10000 6.2 10 13:57 30.01.2020
3796 Clouds 25 1012 65 10000 6.2 10 13:37 30.01.2020
3797 Clouds 25 1012 65 10000 6.2 10 13:19 30.01.2020
3798 Clouds 26 1011 58 10000 4.6 10 12:43 30.01.2020
3799 Clouds 27 1011 58 10000 4.6 10 12:24 30.01.2020
3800 Clouds 27 1011 58 10000 4.6 330 11:58 30.01.2020
3801 Clouds 27 1011 58 10000 4.6 330 11:39 30.01.2020
3802 Clouds 27 1011 58 10000 4.6 330 11:21 30.01.2020
3803 Clouds 28 1010 62 10000 5.1 280 10:42 30.01.2020
3804 Clouds 28 1010 62 10000 5.1 280 10:24 30.01.2020
3805 Clouds 29 1009 48 10000 3.6 290 09:49 30.01.2020
3806 Clouds 29 1009 48 10000 3.6 290 09:30 30.01.2020
3807 Clouds 30 1009 55 10000 4.1 270 08:59 30.01.2020
3808 Clouds 30 1009 55 10000 4.1 270 08:41 30.01.2020
3809 Clouds 30 1009 55 10000 4.1 270 08:20 30.01.2020
3810 Clouds 30 1010 58 10000 4.1 280 07:49 30.01.2020
3811 Clouds 30 1010 58 10000 4.1 280 07:28 30.01.2020
3812 Clouds 29 1011 62 10000 2.6 310 06:47 30.01.2020
3813 Clouds 29 1011 62 10000 2.6 310 06:28 30.01.2020
3814 Clouds 29 1012 62 10000 5.1 280 05:44 30.01.2020
3815 Clouds 29 1012 62 10000 5.1 280 05:20 30.01.2020
3816 Clouds 28 1013 58 10000 4.1 360 03:54 30.01.2020
3817 Clouds 28 1013 58 10000 4.1 360 03:36 30.01.2020
3818 Clouds 27 1014 61 10000 4.6 10 02:22 30.01.2020
3819 Clouds 24 1013 73 10000 4.1 10 00:42 30.01.2020
3820 Clouds 24 1013 73 10000 4.1 10 00:20 30.01.2020
3821 Clouds 24 1012 78 10000 5.1 10 23:46 29.01.2020
3822 Clouds 24 1012 78 10000 5.1 10 23:22 29.01.2020
3823 Clouds 24 1011 78 10000 4.1 360 22:57 29.01.2020
3824 Clouds 24 1011 78 10000 4.1 360 22:38 29.01.2020
3825 Clouds 24 1011 78 10000 4.1 360 22:19 29.01.2020
3826 Clouds 24 1011 78 10000 5.1 10 21:57 29.01.2020
3827 Clouds 24 1011 78 10000 5.1 10 21:38 29.01.2020
3828 Clouds 24 1011 78 10000 5.1 10 21:19 29.01.2020
3829 Clouds 24 1011 73 10000 5.1 30 20:57 29.01.2020
3830 Clouds 24 1011 73 10000 5.1 30 20:37 29.01.2020
3831 Clouds 24 1011 73 10000 5.1 30 20:19 29.01.2020
3832 Clouds 24 1011 73 10000 4.1 20 19:55 29.01.2020
3833 Clouds 25 1011 73 10000 4.1 20 19:36 29.01.2020
3834 Clouds 25 1011 73 10000 4.1 20 19:18 29.01.2020
3835 Clouds 25 1011 74 10000 4.6 10 18:40 29.01.2020
3836 Clouds 25 1011 74 10000 4.6 10 18:19 29.01.2020
3837 Clouds 25 1012 74 10000 5.1 20 17:41 29.01.2020
3838 Clouds 25 1012 74 10000 5.1 20 17:23 29.01.2020
3839 Clouds 26 1012 74 10000 5.1 20 16:59 29.01.2020
3840 Clouds 26 1012 74 10000 5.1 20 16:40 29.01.2020
3841 Clouds 26 1012 74 10000 5.1 20 16:19 29.01.2020
3842 Clouds 26 1012 69 9000 4.6 20 15:40 29.01.2020
3843 Clouds 26 1012 69 9000 4.6 20 15:22 29.01.2020
3844 Clouds 26 1012 78 10000 3.1 260 14:57 29.01.2020
3845 Clouds 26 1012 78 10000 3.1 260 14:39 29.01.2020
3846 Clouds 26 1012 78 10000 3.1 260 14:18 29.01.2020
3847 Clouds 26 1012 74 10000 4.6 260 13:40 29.01.2020
3848 Clouds 27 1012 74 10000 4.6 260 13:22 29.01.2020
3849 Clouds 27 1012 74 10000 4.6 260 13:22 29.01.2020
3850 Clouds 27 1011 74 10000 5.1 260 12:56 29.01.2020
3851 Clouds 27 1011 74 10000 5.1 260 12:38 29.01.2020
3852 Clouds 27 1011 74 10000 5.1 260 12:20 29.01.2020
3853 Clouds 27 1010 69 10000 4.6 250 11:47 29.01.2020
3854 Clouds 27 1010 69 10000 4.6 250 11:24 29.01.2020
3855 Clouds 28 1010 69 10000 5.7 270 10:58 29.01.2020
3856 Clouds 28 1009 77 0 1.34 203 10:40 29.01.2020
3857 Clouds 28 1009 58 10000 5.1 280 10:20 29.01.2020
3858 Clouds 29 1009 58 10000 5.1 280 09:40 29.01.2020
3859 Clouds 30 1009 58 10000 5.1 280 09:22 29.01.2020
3860 Clouds 30 1009 58 10000 5.1 280 09:22 29.01.2020
3861 Clouds 30 1010 48 10000 4.1 290 08:58 29.01.2020
3862 Clouds 30 1010 48 10000 4.1 290 08:39 29.01.2020
3863 Clouds 30 1010 48 10000 4.1 290 08:20 29.01.2020
3864 Clouds 30 1010 48 10000 4.6 280 07:45 29.01.2020
3865 Clouds 30 1010 48 10000 4.6 280 07:25 29.01.2020
3866 Clouds 30 1011 58 9000 4.6 290 06:55 29.01.2020
3867 Clouds 30 1011 58 9000 4.6 290 06:37 29.01.2020
3868 Clouds 30 1011 58 9000 4.6 290 06:18 29.01.2020
3869 Clouds 29 1012 66 9000 4.6 280 05:44 29.01.2020
3870 Clouds 29 1012 66 9000 4.6 280 05:25 29.01.2020
3871 Clouds 29 1014 69 6000 4.1 270 04:37 29.01.2020
3872 Haze 28 1014 74 4700 1 0 02:50 29.01.2020
3873 Haze 26 1014 83 5000 1 0 02:18 29.01.2020
3874 Clouds 24 1013 83 7000 1 0 00:43 29.01.2020
3875 Clouds 24 1013 83 7000 1 0 00:24 29.01.2020
3876 Clouds 23 1012 83 8000 1 0 23:56 28.01.2020
3877 Clouds 23 1012 83 8000 1 0 23:37 28.01.2020
3878 Clouds 23 1012 83 8000 1 0 23:18 28.01.2020
3879 Clouds 23 1012 88 8000 1 0 22:40 28.01.2020
3880 Clouds 23 1012 88 8000 1 0 22:21 28.01.2020
3881 Clouds 24 1011 88 8000 0.91 19 21:42 28.01.2020
3882 Clouds 24 1011 88 8000 0.91 19 21:22 28.01.2020
3883 Clouds 24 1011 88 8000 0.5 0 20:58 28.01.2020
3884 Clouds 24 1011 88 8000 0.5 0 20:39 28.01.2020
3885 Clouds 24 1011 88 8000 0.5 0 20:39 28.01.2020
3886 Clouds 24 1011 88 8000 0.5 0 20:21 28.01.2020
3887 Clouds 24 1011 83 8000 1 0 19:39 28.01.2020
3888 Clouds 25 1011 83 8000 1 0 19:20 28.01.2020
3889 Clouds 24 1012 83 7000 1 0 18:58 28.01.2020
3890 Clouds 24 1012 83 7000 1 0 18:39 28.01.2020
3891 Clouds 25 1012 83 7000 1 0 18:21 28.01.2020
3892 Clouds 25 1012 78 8000 1 0 17:57 28.01.2020
3893 Clouds 25 1012 78 8000 1 0 17:37 28.01.2020
3894 Clouds 25 1012 78 8000 1 0 17:19 28.01.2020
3895 Clouds 25 1012 78 8000 1 0 17:19 28.01.2020
3896 Clouds 25 1012 78 8000 1 0 17:19 28.01.2020
3897 Clouds 26 1012 83 8000 1 0 16:46 28.01.2020
3898 Clouds 26 1012 83 8000 1 0 16:27 28.01.2020
3899 Clouds 26 1012 83 8000 1.5 190 15:59 28.01.2020
3900 Clouds 26 1012 83 8000 1.5 190 15:41 28.01.2020
3901 Clouds 26 1012 83 8000 1.5 190 15:18 28.01.2020
3902 Clouds 26 1012 83 10000 3.6 250 14:45 28.01.2020
3903 Clouds 26 1012 83 10000 3.6 250 14:20 28.01.2020
3904 Clouds 27 1011 78 8000 2.6 240 13:57 28.01.2020
3905 Clouds 27 1011 78 8000 2.6 240 13:38 28.01.2020
3906 Clouds 27 1011 78 8000 2.6 240 13:19 28.01.2020
3907 Clouds 27 1010 74 10000 2.6 250 12:41 28.01.2020
3908 Clouds 27 1010 74 10000 2.6 250 12:22 28.01.2020
3909 Clouds 28 1010 78 10000 4.1 260 11:48 28.01.2020
3910 Clouds 28 1010 78 10000 4.1 260 11:23 28.01.2020
3911 Clouds 29 1009 66 10000 3.6 280 10:56 28.01.2020
3912 Clouds 29 1009 66 10000 3.6 280 10:56 28.01.2020
3913 Clouds 29 1009 66 10000 3.6 280 10:38 28.01.2020
3914 Clouds 30 1009 66 10000 3.6 280 10:18 28.01.2020
3915 Clouds 31 1009 62 10000 3.6 290 09:42 28.01.2020
3916 Clouds 31 1009 62 10000 3.6 290 09:21 28.01.2020
3917 Clouds 31 1009 62 10000 4.6 310 08:47 28.01.2020
3918 Clouds 31 1009 62 10000 4.6 310 08:27 28.01.2020
3919 Clouds 32 1010 49 10000 2.6 130 07:57 28.01.2020
3920 Clouds 32 1010 49 10000 2.6 130 07:36 28.01.2020
3921 Clouds 32 1011 49 10000 3.6 100 06:49 28.01.2020
3922 Clouds 31 1011 49 10000 3.6 100 06:25 28.01.2020
3923 Clouds 31 1012 58 10000 2.6 0 05:42 28.01.2020
3924 Clouds 31 1012 58 10000 2.6 0 05:24 28.01.2020
3925 Clouds 29 1013 66 10000 2.6 120 03:51 28.01.2020
3926 Clouds 29 1013 69 9000 2.1 180 02:58 28.01.2020
3927 Clouds 28 1013 69 9000 2.1 180 02:25 28.01.2020
3928 Clouds 27 1013 74 9000 1 0 01:56 28.01.2020
3929 Clouds 26 1013 74 9000 1 0 01:22 28.01.2020
3930 Clouds 24 1012 83 9000 1.5 350 00:45 28.01.2020
3931 Clouds 24 1012 83 9000 1.5 350 00:24 28.01.2020
3932 Clouds 24 1011 83 10000 1 280 23:46 27.01.2020
3933 Clouds 24 1011 83 10000 1 280 23:28 27.01.2020
3934 Clouds 24 1011 83 10000 1 280 23:28 27.01.2020
3935 Clouds 24 1011 83 10000 1 0 22:46 27.01.2020
3936 Clouds 24 1011 83 10000 1 0 22:22 27.01.2020
3937 Clouds 24 1011 83 10000 1 0 22:22 27.01.2020
3938 Clouds 24 1010 83 10000 1.5 350 21:59 27.01.2020
3939 Clouds 24 1010 83 10000 1.5 350 21:39 27.01.2020
3940 Clouds 24 1010 83 10000 1.5 350 21:19 27.01.2020
3941 Clouds 24 1010 83 10000 1.5 290 20:59 27.01.2020
3942 Clouds 25 1010 83 10000 1.5 290 20:38 27.01.2020
3943 Clouds 25 1010 83 10000 1.5 290 20:20 27.01.2020
3944 Clouds 25 1011 78 10000 2.1 300 19:57 27.01.2020
3945 Clouds 25 1011 78 10000 2.1 300 19:39 27.01.2020
3946 Clouds 25 1011 78 10000 2.1 300 19:21 27.01.2020
3947 Clouds 26 1011 78 10000 1 0 18:54 27.01.2020
3948 Clouds 26 1011 78 10000 1 0 18:36 27.01.2020
3949 Clouds 26 1011 78 10000 1 0 18:18 27.01.2020
3950 Clouds 26 1010 82 0 1.34 36 17:39 27.01.2020
3951 Clouds 26 1010 82 0 1.34 36 17:39 27.01.2020
3952 Clouds 26 1010 82 0 1.34 36 17:39 27.01.2020
3953 Clouds 26 1011 83 10000 0.5 0 17:19 27.01.2020
3954 Clouds 26 1011 83 10000 0.5 0 16:56 27.01.2020
3955 Clouds 27 1011 83 10000 0.5 0 16:37 27.01.2020
3956 Clouds 27 1011 83 10000 0.5 0 16:19 27.01.2020
3957 Clouds 27 1012 78 10000 1 0 15:42 27.01.2020
3958 Clouds 27 1012 78 10000 1 0 15:20 27.01.2020
3959 Clouds 27 1011 83 10000 1.5 0 14:59 27.01.2020
3960 Clouds 27 1011 83 10000 1.5 0 14:40 27.01.2020
3961 Clouds 27 1011 83 10000 1.5 0 14:21 27.01.2020
3962 Clouds 27 1011 78 10000 3.6 250 13:46 27.01.2020
3963 Clouds 27 1011 78 10000 3.6 250 13:24 27.01.2020
3964 Clouds 27 1010 69 10000 3.6 260 12:58 27.01.2020
3965 Clouds 27 1010 69 10000 3.6 260 12:39 27.01.2020
3966 Clouds 28 1010 69 10000 3.6 260 12:21 27.01.2020
3967 Clouds 28 1009 69 10000 4.1 260 11:43 27.01.2020
3968 Clouds 28 1009 69 10000 4.1 260 11:43 27.01.2020
3969 Clouds 28 1009 69 10000 4.1 260 11:22 27.01.2020
3970 Clouds 29 1009 55 10000 3.82 255 10:57 27.01.2020
3971 Clouds 29 1009 55 10000 3.82 255 10:39 27.01.2020
3972 Clouds 30 1009 55 10000 3.82 255 10:20 27.01.2020
3973 Clouds 31 1009 58 9000 3.6 280 09:39 27.01.2020
3974 Clouds 31 1009 58 9000 3.6 280 09:19 27.01.2020
3975 Clouds 31 1009 58 10000 3.6 300 08:55 27.01.2020
3976 Clouds 31 1009 58 10000 3.6 300 08:37 27.01.2020
3977 Clouds 31 1009 58 10000 3.6 300 08:18 27.01.2020
3978 Clouds 32 1009 62 10000 4.1 290 07:45 27.01.2020
3979 Clouds 32 1009 62 10000 4.1 290 07:25 27.01.2020
3980 Clouds 32 1010 58 10000 4.1 290 06:38 27.01.2020
3981 Clouds 31 1011 66 10000 4.1 310 05:43 27.01.2020
3982 Clouds 30 1012 66 10000 3.6 280 04:37 27.01.2020
3983 Clouds 30 1012 62 10000 3.1 350 03:35 27.01.2020
3984 Clouds 27 1012 78 10000 4.6 10 01:54 27.01.2020
3985 Clouds 27 1012 78 10000 4.6 10 01:25 27.01.2020
3986 Clouds 26 1011 83 10000 4.6 20 00:41 27.01.2020
3987 Clouds 26 1011 83 10000 4.6 20 00:21 27.01.2020
3988 Clouds 25 1011 83 10000 4.1 10 23:43 26.01.2020
3989 Clouds 25 1011 83 10000 4.1 10 23:22 26.01.2020
3990 Clouds 25 1010 83 10000 3.6 10 22:58 26.01.2020
3991 Clouds 25 1010 83 10000 3.6 10 22:38 26.01.2020
3992 Clouds 26 1010 83 10000 3.6 10 22:20 26.01.2020
3993 Clouds 26 1010 83 10000 2.6 10 21:57 26.01.2020
3994 Clouds 26 1010 83 10000 2.6 10 21:39 26.01.2020
3995 Clouds 26 1010 83 10000 2.6 10 21:20 26.01.2020
3996 Clouds 26 1010 83 9000 3.1 20 20:57 26.01.2020
3997 Clouds 26 1010 83 9000 3.1 20 20:38 26.01.2020
3998 Clouds 26 1010 83 9000 3.1 20 20:38 26.01.2020
3999 Clouds 26 1010 83 9000 3.1 20 20:19 26.01.2020
4000 Clouds 26 1010 83 9000 3.1 20 20:19 26.01.2020
4001 Clouds 26 1010 83 9000 1 230 19:57 26.01.2020
4002 Clouds 26 1010 83 9000 1 230 19:38 26.01.2020
4003 Clouds 26 1010 83 9000 1 230 19:19 26.01.2020
4004 Clouds 26 1010 83 9000 1 230 19:19 26.01.2020
4005 Clouds 26 1011 88 10000 4.33 359 18:54 26.01.2020
4006 Clouds 26 1011 88 10000 4.33 359 18:54 26.01.2020
4007 Clouds 26 1011 88 10000 4.33 359 18:36 26.01.2020
4008 Clouds 26 1011 88 10000 4.33 359 18:18 26.01.2020
4009 Clouds 26 1011 88 10000 4.33 359 18:18 26.01.2020
4010 Clouds 26 1011 88 10000 1 0 17:54 26.01.2020
4011 Clouds 26 1011 88 10000 1 0 17:36 26.01.2020
4012 Clouds 26 1011 88 10000 1 0 17:18 26.01.2020
4013 Clouds 27 1011 83 10000 1.5 210 16:54 26.01.2020
4014 Clouds 27 1011 83 10000 1.5 210 16:36 26.01.2020
4015 Clouds 27 1011 83 10000 1.5 210 16:18 26.01.2020
4016 Clouds 27 1009 89 0 0.45 204 15:41 26.01.2020
4017 Clouds 27 1010 90 0 2.82 336 15:19 26.01.2020
4018 Clouds 27 1010 86 0 0.45 189 14:41 26.01.2020
4019 Clouds 27 1010 86 0 2.82 336 14:23 26.01.2020
4020 Clouds 27 1010 86 0 2.82 336 14:23 26.01.2020
4021 Rain 27 1010 86 0 3.56 270 13:59 26.01.2020
4022 Rain 27 1009 86 0 3.56 270 13:38 26.01.2020
4023 Rain 27 1009 91 0 3.16 270 13:18 26.01.2020
4024 Rain 27 1009 91 0 0.45 163 12:42 26.01.2020
4025 Rain 27 1011 84 0 1.79 211 12:24 26.01.2020
4026 Rain 28 1011 82 0 2.24 243 11:58 26.01.2020
4027 Rain 28 1008 88 0 0.89 185 11:39 26.01.2020
4028 Clouds 28 1008 70 10000 5.1 250 11:19 26.01.2020
4029 Clouds 29 1008 70 10000 5.1 250 10:58 26.01.2020
4030 Clouds 29 1008 70 10000 5.1 250 10:38 26.01.2020
4031 Clouds 29 1008 70 10000 5.1 250 10:38 26.01.2020
4032 Clouds 29 1008 70 10000 5.1 250 10:20 26.01.2020
4033 Clouds 29 1008 74 10000 6.2 260 09:58 26.01.2020
4034 Clouds 30 1008 74 10000 6.2 260 09:40 26.01.2020
4035 Clouds 30 1008 74 10000 6.2 260 09:21 26.01.2020
4036 Clouds 31 1008 70 10000 5.1 290 08:43 26.01.2020
4037 Clouds 31 1008 70 10000 5.1 290 08:23 26.01.2020
4038 Clouds 31 1009 66 10000 4.6 310 07:57 26.01.2020
4039 Clouds 31 1009 66 10000 4.6 310 07:39 26.01.2020
4040 Clouds 31 1009 66 10000 4.6 310 07:21 26.01.2020
4041 Clouds 31 1010 66 10000 2.6 0 06:31 26.01.2020
4042 Clouds 30 1011 70 10000 3.6 280 05:32 26.01.2020
4043 Clouds 30 1011 70 10000 2.6 280 04:45 26.01.2020
4044 Clouds 29 1012 74 10000 1 0 02:42 26.01.2020
4045 Clouds 27 1012 83 10000 0.5 0 01:48 26.01.2020
4046 Clouds 27 1012 83 10000 0.5 0 01:24 26.01.2020
4047 Clouds 25 1011 94 10000 0.5 0 00:48 26.01.2020
4048 Clouds 25 1011 94 10000 0.5 0 00:29 26.01.2020
4049 Clouds 24 1010 91 0 0.89 92 23:41 25.01.2020
4050 Clouds 24 1010 90 0 1.1 21 23:21 25.01.2020
4051 Clouds 24 1010 90 0 1.1 21 22:58 25.01.2020
4052 Clouds 24 1010 90 0 1.1 21 22:40 25.01.2020
4053 Clouds 25 1009 90 0 1.1 21 22:18 25.01.2020
4054 Clouds 25 1012 89 0 0.45 75 21:56 25.01.2020
4055 Clouds 25 1012 89 0 1.1 21 21:38 25.01.2020
4056 Clouds 25 1010 83 0 1.1 21 21:19 25.01.2020
4057 Clouds 25 1009 90 0 2.24 5 20:43 25.01.2020
4058 Clouds 25 1011 87 0 1.1 21 20:25 25.01.2020
4059 Clouds 25 1012 87 0 2.86 98 19:54 25.01.2020
4060 Clouds 25 1009 90 0 0.45 301 19:36 25.01.2020
4061 Clouds 26 1010 88 0 0.45 316 19:18 25.01.2020
4062 Clouds 26 1010 89 0 2.86 98 18:41 25.01.2020
4063 Clouds 26 1010 88 0 0.45 316 18:21 25.01.2020
4064 Clouds 26 1013 86 0 0.45 63 17:57 25.01.2020
4065 Clouds 26 1010 89 0 1.91 72 17:37 25.01.2020
4066 Clouds 26 1010 89 0 1.91 72 17:37 25.01.2020
4067 Clouds 26 1010 89 0 1.34 324 17:18 25.01.2020
4068 Clouds 26 1011 88 0 0.45 347 16:42 25.01.2020
4069 Clouds 26 1011 88 0 0.45 347 16:42 25.01.2020
4070 Clouds 26 1013 85 0 2.24 139 16:23 25.01.2020
4071 Clouds 26 1013 86 0 1.34 111 15:56 25.01.2020
4072 Clouds 26 1011 85 0 2.74 99 15:38 25.01.2020
4073 Clouds 26 1011 85 0 2.74 99 15:19 25.01.2020
4074 Clouds 26 1011 85 0 2.74 99 14:42 25.01.2020
4075 Rain 26 1011 85 0 4.22 97 14:19 25.01.2020
4076 Rain 26 1011 84 0 4.22 97 13:45 25.01.2020
4077 Rain 26 1013 81 0 1.79 136 13:27 25.01.2020
4078 Rain 27 1013 81 0 3.13 114 12:57 25.01.2020
4079 Rain 27 1010 82 0 0.89 0 12:37 25.01.2020
4080 Clouds 27 1011 74 10000 1.5 210 12:19 25.01.2020
4081 Clouds 27 1011 74 10000 1.5 210 12:19 25.01.2020
4082 Clouds 27 1011 74 10000 1.5 210 11:40 25.01.2020
4083 Clouds 28 1011 74 10000 1.5 210 11:19 25.01.2020
4084 Clouds 28 1010 74 10000 2.6 270 10:42 25.01.2020
4085 Clouds 28 1010 74 10000 2.6 270 10:21 25.01.2020
4086 Clouds 29 1010 70 10000 2.1 100 09:59 25.01.2020
4087 Clouds 29 1010 70 10000 2.1 100 09:38 25.01.2020
4088 Clouds 29 1010 70 10000 2.1 100 09:19 25.01.2020
4089 Clouds 29 1010 70 10000 3.1 110 08:42 25.01.2020
4090 Clouds 29 1010 70 10000 3.1 110 08:42 25.01.2020
4091 Clouds 29 1011 70 10000 3.6 120 07:57 25.01.2020
4092 Clouds 29 1011 70 10000 3.6 120 07:28 25.01.2020
4093 Clouds 29 1012 70 10000 4.1 110 06:33 25.01.2020
4094 Rain 29 1013 70 10000 4.1 110 05:57 25.01.2020
4095 Rain 28 1013 70 10000 4.1 110 05:38 25.01.2020
4096 Clouds 29 1014 74 10000 1.5 0 03:58 25.01.2020
4097 Clouds 28 1014 74 10000 1.5 0 03:39 25.01.2020
4098 Clouds 27 1014 78 10000 1.5 80 02:36 25.01.2020
4099 Clouds 26 1014 83 10000 1 0 01:56 25.01.2020
4100 Clouds 25 1014 83 10000 1 0 01:21 25.01.2020
4101 Rain 24 1013 88 9000 2.1 60 00:37 25.01.2020
4102 Rain 24 1013 88 9000 2.1 60 00:18 25.01.2020
4103 Clouds 24 1012 88 10000 1.5 10 23:41 24.01.2020
4104 Clouds 24 1012 88 10000 1.5 10 23:41 24.01.2020
4105 Clouds 24 1012 88 10000 1.5 10 23:41 24.01.2020
4106 Clouds 24 1012 88 10000 1.5 10 23:41 24.01.2020
4107 Clouds 24 1012 88 10000 1.5 10 23:23 24.01.2020
4108 Rain 24 1012 94 10000 1 0 22:46 24.01.2020
4109 Rain 24 1012 94 10000 1 0 22:28 24.01.2020
4110 Rain 24 1012 94 8000 2.1 100 21:58 24.01.2020
4111 Rain 24 1012 94 8000 2.1 100 21:40 24.01.2020
4112 Rain 24 1012 94 8000 2.1 100 21:18 24.01.2020
4113 Clouds 24 1012 94 10000 1 0 20:43 24.01.2020
4114 Clouds 24 1012 94 10000 1 0 20:22 24.01.2020
4115 Clouds 24 1013 94 10000 1 0 19:58 24.01.2020
4116 Clouds 24 1013 94 10000 1 0 19:40 24.01.2020
4117 Clouds 24 1013 94 10000 1 0 19:21 24.01.2020
4118 Rain 25 1013 88 10000 1 0 18:54 24.01.2020
4119 Rain 25 1013 88 10000 1 0 18:36 24.01.2020
4120 Rain 25 1013 88 10000 1 0 18:18 24.01.2020
4121 Rain 25 1014 88 9000 1 0 17:42 24.01.2020
4122 Rain 25 1014 88 9000 1 0 17:21 24.01.2020
4123 Rain 25 1014 88 9000 1 0 16:43 24.01.2020
4124 Rain 26 1014 88 9000 1 0 16:22 24.01.2020
4125 -273 0 0 0 0 0 16:22 24.01.2020
4126 Clouds 26 1014 88 10000 1.5 180 15:56 24.01.2020
4127 Clouds 26 1014 88 10000 1.5 180 15:38 24.01.2020
4128 Clouds 26 1014 88 10000 1.5 180 15:19 24.01.2020
4129 Clouds 26 1014 83 10000 1 0 14:41 24.01.2020
4130 Clouds 26 1014 83 10000 1 0 14:23 24.01.2020
4131 Clouds 26 1014 83 10000 1 0 14:23 24.01.2020
4132 Clouds 26 1013 83 10000 1.5 0 13:45 24.01.2020
4133 Clouds 26 1013 83 10000 1.5 0 13:24 24.01.2020
4134 Clouds 26 1013 83 10000 1.5 330 12:55 24.01.2020
4135 Clouds 26 1013 83 10000 1.5 330 12:37 24.01.2020
4136 Clouds 26 1013 83 10000 1.5 330 12:18 24.01.2020
4137 Clouds 26 1013 83 10000 1.5 330 12:18 24.01.2020
4138 Clouds 26 1012 88 8000 3.1 310 11:42 24.01.2020
4139 Clouds 26 1012 88 8000 3.1 310 11:19 24.01.2020
4140 Rain 26 1012 88 5000 2.1 70 10:43 24.01.2020
4141 Rain 26 1012 88 5000 2.1 70 10:22 24.01.2020
4142 Rain 26 1012 88 5000 2.1 270 09:56 24.01.2020
4143 Rain 26 1012 88 5000 2.1 270 09:38 24.01.2020
4144 Rain 26 1012 88 5000 2.1 270 09:38 24.01.2020
4145 Rain 26 1012 88 5000 2.1 270 09:20 24.01.2020
4146 Rain 26 1012 78 6000 3.1 310 08:40 24.01.2020
4147 Rain 26 1012 78 6000 3.1 310 08:19 24.01.2020
4148 Clouds 27 1013 83 6000 3.1 0 07:50 24.01.2020
4149 Clouds 27 1013 83 6000 3.1 0 07:28 24.01.2020
4150 Clouds 26 1013 88 6000 3.6 280 06:48 24.01.2020
4151 Clouds 26 1013 88 6000 3.6 280 06:28 24.01.2020
4152 Rain 26 1015 88 4000 1.5 260 05:57 24.01.2020
4153 Clouds 26 1015 83 8000 2.6 320 04:52 24.01.2020
4154 Clouds 28 1015 69 10000 1 0 02:53 24.01.2020
4155 Clouds 28 1015 69 10000 1 0 02:23 24.01.2020
4156 Clouds 26 1015 78 10000 1 0 01:40 24.01.2020
4157 Clouds 26 1015 78 10000 1 0 01:19 24.01.2020
4158 Clouds 25 1014 74 10000 1 0 00:19 24.01.2020
4159 Clouds 25 1014 74 10000 0.82 9 23:45 23.01.2020
4160 Clouds 25 1014 74 10000 0.82 9 23:45 23.01.2020
4161 Clouds 25 1014 74 10000 0.82 9 23:27 23.01.2020
4162 Clouds 25 1013 74 10000 1 0 22:59 23.01.2020
4163 Clouds 25 1013 74 10000 1 0 22:37 23.01.2020
4164 Clouds 25 1013 74 10000 1 0 22:19 23.01.2020
4165 Clouds 25 1013 74 10000 1 0 21:56 23.01.2020
4166 Clouds 25 1013 74 10000 1 0 21:38 23.01.2020
4167 Clouds 25 1013 74 10000 1 0 21:19 23.01.2020
4168 Clouds 25 1013 78 10000 2.1 280 20:56 23.01.2020
4169 Clouds 25 1013 78 10000 2.1 280 20:37 23.01.2020
4170 Clouds 25 1013 78 10000 2.1 280 20:37 23.01.2020
4171 Clouds 25 1013 78 10000 2.1 280 20:18 23.01.2020
4172 Clouds 25 1014 78 10000 1 310 19:44 23.01.2020
4173 Clouds 25 1014 78 10000 1 310 19:24 23.01.2020
4174 Clouds 25 1014 78 10000 2.1 50 18:58 23.01.2020
4175 Clouds 25 1014 78 10000 2.1 50 18:39 23.01.2020
4176 Clouds 25 1014 78 10000 2.1 50 18:20 23.01.2020
4177 Clouds 25 1015 78 10000 2.1 110 17:56 23.01.2020
4178 Clouds 25 1015 78 10000 2.1 110 17:38 23.01.2020
4179 Clouds 25 1015 78 10000 2.1 110 17:18 23.01.2020
4180 Clouds 26 1015 74 10000 3.1 130 16:39 23.01.2020
4181 Clouds 26 1015 74 10000 3.1 130 16:20 23.01.2020
4182 Clouds 26 1015 65 10000 1 0 15:58 23.01.2020
4183 Clouds 26 1015 65 10000 1 0 15:40 23.01.2020
4184 Clouds 26 1015 65 10000 1 0 15:19 23.01.2020
4185 Clouds 27 1015 61 10000 3.1 60 14:59 23.01.2020
4186 Clouds 26 1015 61 10000 3.1 60 14:41 23.01.2020
4187 Clouds 27 1015 61 10000 3.1 60 14:22 23.01.2020
4188 Clouds 27 1015 61 10000 2.6 80 13:56 23.01.2020
4189 Clouds 27 1015 61 10000 2.6 80 13:37 23.01.2020
4190 Clouds 27 1015 61 10000 2.6 80 13:18 23.01.2020
4191 Clouds 27 1014 61 10000 2.6 100 12:43 23.01.2020
4192 Clouds 27 1014 61 10000 2.6 100 12:24 23.01.2020
4193 Clouds 27 1014 58 10000 3.6 110 11:56 23.01.2020
4194 Clouds 27 1014 58 10000 3.6 110 11:37 23.01.2020
4195 Clouds 27 1014 58 10000 3.6 110 11:37 23.01.2020
4196 Clouds 28 1014 58 10000 3.6 110 11:18 23.01.2020
4197 Clouds 28 1014 58 10000 3.6 110 11:18 23.01.2020
4198 Clouds 28 1013 54 10000 4.6 90 10:42 23.01.2020
4199 Clouds 29 1013 54 10000 4.6 90 10:19 23.01.2020
4200 Clouds 30 1013 48 10000 4.1 130 09:42 23.01.2020
4201 Clouds 30 1013 48 10000 4.1 130 09:24 23.01.2020
4202 Clouds 30 1013 45 10000 5.1 140 08:58 23.01.2020
4203 Clouds 30 1013 45 10000 5.1 140 08:58 23.01.2020
4204 Clouds 31 1013 45 10000 5.1 140 08:40 23.01.2020
4205 Clouds 31 1013 45 10000 5.1 140 08:21 23.01.2020
4206 Clouds 31 1013 43 10000 5.1 130 07:44 23.01.2020
4207 Clouds 31 1013 43 10000 5.1 130 07:24 23.01.2020
4208 Clouds 31 1014 45 10000 5.7 130 06:51 23.01.2020
4209 Clouds 31 1014 45 10000 5.7 130 06:51 23.01.2020
4210 Clouds 31 1014 45 10000 5.7 130 06:20 23.01.2020
4211 Clouds 31 1016 48 10000 5.1 110 04:58 23.01.2020
4212 Clouds 30 1016 48 10000 5.1 110 04:22 23.01.2020
4213 Clouds 29 1016 61 10000 5.1 100 02:31 23.01.2020
4214 Clouds 25 1015 78 9000 3.1 70 00:56 23.01.2020
4215 Clouds 25 1015 78 9000 3.1 70 00:26 23.01.2020
4216 Clouds 25 1015 78 10000 3.6 70 23:47 22.01.2020
4217 Clouds 25 1015 78 10000 3.6 70 23:29 22.01.2020
4218 Clouds 25 1014 74 10000 3.1 100 22:56 22.01.2020
4219 Clouds 25 1014 74 10000 3.1 100 22:38 22.01.2020
4220 Clouds 25 1014 74 10000 3.1 100 22:20 22.01.2020
4221 Clouds 24 1014 78 10000 1.5 120 21:39 22.01.2020
4222 Clouds 24 1014 78 10000 1.5 120 21:21 22.01.2020
4223 Clouds 24 1014 78 10000 1 0 20:56 22.01.2020
4224 Clouds 24 1014 78 10000 1 0 20:36 22.01.2020
4225 Clouds 24 1014 78 10000 1 0 20:18 22.01.2020
4226 Clouds 24 1015 83 10000 3.1 70 19:55 22.01.2020
4227 Clouds 24 1015 83 10000 3.1 70 19:37 22.01.2020
4228 Clouds 24 1015 83 10000 3.1 70 19:18 22.01.2020
4229 Clouds 24 1016 83 10000 2.6 70 18:55 22.01.2020
4230 Clouds 24 1016 83 10000 2.6 70 18:36 22.01.2020
4231 Clouds 24 1016 83 10000 2.6 70 18:18 22.01.2020
4232 Clouds 24 1016 83 10000 2.6 70 18:18 22.01.2020
4233 Clouds 25 1016 78 10000 2.6 100 17:40 22.01.2020
4234 Clouds 25 1016 78 10000 2.6 100 17:21 22.01.2020
4235 Clouds 25 1017 73 10000 1.5 90 16:57 22.01.2020
4236 Clouds 25 1017 73 10000 1.5 90 16:39 22.01.2020
4237 Clouds 25 1017 73 10000 1.5 90 16:20 22.01.2020
4238 Clouds 25 1017 65 10000 1.5 100 15:55 22.01.2020
4239 Clouds 26 1017 65 10000 1.5 100 15:37 22.01.2020
4240 Clouds 26 1017 65 10000 1.5 100 15:18 22.01.2020
4241 Clouds 26 1017 69 10000 1.5 110 14:39 22.01.2020
4242 Clouds 26 1017 69 10000 1.5 110 14:20 22.01.2020
4243 Clouds 26 1016 69 10000 3.1 70 13:57 22.01.2020
4244 Clouds 26 1016 69 10000 3.1 70 13:37 22.01.2020
4245 Clouds 26 1016 69 10000 3.1 70 13:19 22.01.2020
4246 Clouds 26 1015 61 10000 3.1 90 12:57 22.01.2020
4247 Clouds 27 1015 61 10000 3.1 90 12:38 22.01.2020
4248 Clouds 27 1015 61 10000 3.1 90 12:19 22.01.2020
4249 Clouds 27 1015 54 10000 3.6 100 11:56 22.01.2020
4250 Clouds 28 1015 54 10000 3.6 100 11:38 22.01.2020
4251 Clouds 28 1015 54 10000 3.6 100 11:19 22.01.2020
4252 Clouds 28 1015 54 10000 3.6 100 11:19 22.01.2020
4253 Clouds 29 1014 48 10000 4.6 110 10:45 22.01.2020
4254 Clouds 30 1014 48 10000 4.6 110 10:21 22.01.2020
4255 Clouds 29 1014 48 10000 6.2 90 09:58 22.01.2020
4256 Clouds 29 1014 48 10000 6.2 90 09:40 22.01.2020
4257 Clouds 30 1014 48 10000 6.2 90 09:21 22.01.2020
4258 Clouds 30 1014 48 10000 6.2 100 08:55 22.01.2020
4259 Clouds 31 1014 48 10000 6.2 100 08:36 22.01.2020
4260 Clouds 31 1014 48 10000 6.2 100 08:18 22.01.2020
4261 Clouds 31 1015 48 10000 6.2 100 07:42 22.01.2020
4262 Clouds 31 1015 48 10000 6.2 100 07:23 22.01.2020
4263 Clouds 31 1016 45 10000 6.7 90 06:34 22.01.2020
4264 Clouds 31 1017 51 10000 5.7 110 05:45 22.01.2020
4265 Clouds 30 1018 51 10000 5.7 110 04:25 22.01.2020
4266 Clouds 30 1018 51 10000 5.7 110 03:26 22.01.2020
4267 Clouds 29 1018 51 10000 5.7 70 02:39 22.01.2020
4268 Clouds 24 1017 78 9000 2.6 70 00:47 22.01.2020
4269 Clouds 24 1017 78 9000 2.6 70 00:47 22.01.2020
4270 Clouds 24 1017 78 9000 2.6 70 00:27 22.01.2020
4271 Clouds 24 1016 69 10000 2.6 80 23:55 21.01.2020
4272 Clouds 23 1016 69 10000 2.6 80 23:37 21.01.2020
4273 Clouds 23 1016 69 10000 2.6 80 23:18 21.01.2020
4274 Clouds 23 1016 73 10000 3.1 50 22:40 21.01.2020
4275 Clouds 23 1016 73 10000 3.1 50 22:21 21.01.2020
4276 Clouds 24 1016 78 10000 3.1 80 21:57 21.01.2020
4277 Clouds 24 1016 78 10000 3.1 80 21:38 21.01.2020
4278 Clouds 24 1016 78 10000 3.1 80 21:20 21.01.2020
4279 Clouds 24 1016 78 10000 2.1 90 20:56 21.01.2020
4280 Clouds 24 1016 78 10000 2.1 90 20:37 21.01.2020
4281 Clouds 24 1016 78 10000 2.1 90 20:19 21.01.2020
4282 Clouds 24 1017 78 10000 3.1 80 19:56 21.01.2020
4283 Clouds 24 1017 78 10000 3.1 80 19:37 21.01.2020
4284 Clouds 24 1017 78 10000 3.1 80 19:19 21.01.2020
4285 Clouds 24 1017 73 10000 3.1 110 18:55 21.01.2020
4286 Clouds 24 1017 73 10000 3.1 110 18:37 21.01.2020
4287 Clouds 25 1017 73 10000 3.1 110 18:18 21.01.2020
4288 Clouds 25 1018 65 10000 3.1 110 17:44 21.01.2020
4289 Clouds 25 1018 65 10000 3.1 110 17:20 21.01.2020
4290 Clouds 25 1018 65 10000 3.6 110 16:59 21.01.2020
4291 Clouds 25 1018 65 10000 3.6 110 16:37 21.01.2020
4292 Clouds 26 1018 65 10000 3.6 110 16:18 21.01.2020
4293 Clouds 26 1019 65 10000 3.6 120 15:42 21.01.2020
4294 Clouds 26 1019 65 10000 3.6 120 15:21 21.01.2020
4295 Clouds 26 1019 65 10000 3.1 110 14:59 21.01.2020
4296 Clouds 26 1019 65 10000 3.1 110 14:37 21.01.2020
4297 Clouds 26 1019 65 10000 3.1 110 14:19 21.01.2020
4298 Clouds 26 1018 65 10000 2.6 110 13:40 21.01.2020
4299 Clouds 26 1018 65 10000 2.6 110 13:19 21.01.2020
4300 Clouds 26 1017 57 10000 3.6 100 12:43 21.01.2020
4301 Clouds 27 1017 57 10000 3.6 100 12:25 21.01.2020
4302 Clouds 27 1017 54 10000 3.6 100 11:57 21.01.2020
4303 Clouds 27 1017 54 10000 3.6 100 11:38 21.01.2020
4304 Clouds 27 1017 54 10000 3.6 100 11:20 21.01.2020
4305 Clouds 28 1016 54 10000 5.7 110 10:44 21.01.2020
4306 Clouds 28 1016 54 10000 5.7 110 10:24 21.01.2020
4307 Clouds 29 1016 51 10000 6.2 100 09:59 21.01.2020
4308 Clouds 29 1016 51 10000 6.2 100 09:41 21.01.2020
4309 Clouds 29 1016 51 10000 6.2 100 09:22 21.01.2020
4310 Clouds 30 1016 48 10000 7.2 100 08:48 21.01.2020
4311 Clouds 30 1016 48 10000 7.2 100 08:29 21.01.2020
4312 Clouds 30 1016 55 10000 6.7 110 07:57 21.01.2020
4313 Clouds 31 1016 55 10000 6.7 110 07:38 21.01.2020
4314 Clouds 31 1016 55 10000 6.7 110 07:20 21.01.2020
4315 Clouds 30 1017 48 10000 6.2 100 06:45 21.01.2020
4316 Clouds 30 1017 48 10000 6.2 100 06:23 21.01.2020
4317 Clouds 30 1018 55 10000 5.7 110 05:41 21.01.2020
4318 Clouds 30 1018 55 10000 6.2 100 04:39 21.01.2020
4319 Clouds 27 1018 69 10000 4.6 110 02:55 21.01.2020
4320 Clouds 26 1018 74 9000 2.1 70 01:47 21.01.2020
4321 Clouds 25 1017 83 9000 1 0 00:54 21.01.2020
4322 Clouds 24 1017 83 9000 1 0 00:32 21.01.2020
4323 Clouds 24 1016 78 10000 1.5 90 23:57 20.01.2020
4324 Clouds 24 1016 78 10000 1.5 90 23:37 20.01.2020
4325 Clouds 24 1016 78 10000 1.5 90 23:18 20.01.2020
4326 Clouds 23 1016 88 10000 2.6 70 22:56 20.01.2020
4327 Clouds 23 1016 88 10000 2.6 70 22:36 20.01.2020
4328 Clouds 24 1016 88 10000 2.6 70 22:18 20.01.2020
4329 Clouds 25 1015 78 10000 2.6 90 21:55 20.01.2020
4330 Clouds 25 1015 78 10000 2.6 90 21:36 20.01.2020
4331 Clouds 25 1015 78 10000 2.6 90 21:18 20.01.2020
4332 Clouds 25 1015 78 10000 2.1 90 20:54 20.01.2020
4333 Clouds 25 1015 78 10000 2.1 90 20:36 20.01.2020
4334 Clouds 25 1015 78 10000 2.1 90 20:18 20.01.2020
4335 Clouds 25 1015 78 10000 2.1 90 20:18 20.01.2020
4336 Clouds 25 1016 78 10000 1.5 90 19:54 20.01.2020
4337 Clouds 25 1016 78 10000 1.5 90 19:36 20.01.2020
4338 Clouds 25 1016 78 10000 1.5 90 19:18 20.01.2020
4339 Clouds 25 1016 78 10000 3.1 110 18:42 20.01.2020
4340 Clouds 25 1016 78 10000 3.1 110 18:21 20.01.2020
4341 Clouds 26 1017 78 10000 2.6 110 17:39 20.01.2020
4342 Clouds 26 1017 78 10000 2.6 110 17:19 20.01.2020
4343 Clouds 26 1017 78 10000 2.6 120 16:47 20.01.2020
4344 Clouds 26 1017 78 10000 2.6 120 16:26 20.01.2020
4345 Clouds 26 1017 74 10000 3.6 120 15:59 20.01.2020
4346 Clouds 26 1017 74 10000 3.6 120 15:40 20.01.2020
4347 Clouds 26 1017 74 10000 3.6 120 15:22 20.01.2020
4348 Clouds 26 1017 74 10000 4.6 110 14:59 20.01.2020
4349 Clouds 26 1017 74 10000 4.6 110 14:40 20.01.2020
4350 Clouds 26 1017 74 10000 4.6 110 14:21 20.01.2020
4351 Clouds 26 1016 69 10000 4.6 120 13:56 20.01.2020
4352 Clouds 26 1016 69 10000 4.6 120 13:38 20.01.2020
4353 Clouds 26 1016 69 10000 4.6 120 13:38 20.01.2020
4354 Clouds 26 1016 69 10000 4.6 120 13:18 20.01.2020
4355 Clouds 27 1015 69 10000 4.6 120 12:42 20.01.2020
4356 Clouds 27 1015 69 10000 4.6 120 12:23 20.01.2020
4357 Clouds 27 1015 74 10000 4.1 110 11:55 20.01.2020
4358 Clouds 27 1015 74 10000 4.1 110 11:36 20.01.2020
4359 Clouds 27 1015 74 10000 4.1 110 11:18 20.01.2020
4360 Clouds 27 1014 65 10000 6.2 110 10:41 20.01.2020
4361 Clouds 28 1014 65 10000 6.2 110 10:20 20.01.2020
4362 Clouds 29 1014 62 10000 6.7 110 09:42 20.01.2020
4363 Clouds 29 1014 62 10000 6.7 110 09:24 20.01.2020
4364 Clouds 29 1014 66 10000 5.1 120 08:55 20.01.2020
4365 Clouds 29 1014 66 10000 5.1 120 08:34 20.01.2020
4366 Clouds 30 1014 58 10000 4.1 0 07:56 20.01.2020
4367 Clouds 30 1014 58 10000 4.1 0 07:38 20.01.2020
4368 Clouds 30 1014 58 10000 4.1 0 07:19 20.01.2020
4369 Clouds 29 1015 62 10000 3.6 120 06:40 20.01.2020
4370 Clouds 29 1015 62 10000 3.6 120 06:20 20.01.2020
4371 Clouds 29 1016 62 10000 5.1 110 05:38 20.01.2020
4372 Clouds 29 1016 62 10000 5.1 110 05:19 20.01.2020
4373 Clouds 28 1017 69 10000 3.6 90 03:55 20.01.2020
4374 Clouds 27 1016 69 10000 1 0 01:58 20.01.2020
4375 Clouds 27 1016 69 10000 1 0 01:39 20.01.2020
4376 Clouds 25 1015 83 10000 4.37 78 00:56 20.01.2020
4377 Clouds 24 1015 83 10000 4.37 78 00:37 20.01.2020
4378 Clouds 24 1015 83 10000 4.37 78 00:19 20.01.2020
4379 Clouds 24 1015 83 10000 0.5 0 23:37 19.01.2020
4380 Clouds 24 1015 83 10000 0.5 0 23:18 19.01.2020
4381 Clouds 24 1014 83 10000 1 0 22:55 19.01.2020
4382 Clouds 24 1014 83 10000 1 0 22:37 19.01.2020
4383 Clouds 24 1014 83 10000 1 0 22:18 19.01.2020
4384 Clouds 24 1014 78 10000 4.04 85 21:56 19.01.2020
4385 Clouds 24 1014 78 10000 4.04 85 21:37 19.01.2020
4386 Clouds 24 1014 78 10000 4.04 85 21:19 19.01.2020
4387 Clouds 24 1014 78 10000 4.04 85 21:19 19.01.2020
4388 Clouds 24 1014 83 10000 0.5 50 20:55 19.01.2020
4389 Clouds 24 1014 83 10000 0.5 50 20:55 19.01.2020
4390 Clouds 24 1014 83 10000 0.5 50 20:37 19.01.2020
4391 Clouds 24 1014 83 10000 0.5 50 20:37 19.01.2020
4392 Clouds 24 1014 83 10000 0.5 50 20:18 19.01.2020
4393 Clouds 25 1014 78 10000 1 100 19:54 19.01.2020
4394 Clouds 25 1014 78 10000 1 100 19:36 19.01.2020
4395 Clouds 25 1014 78 10000 1 100 19:18 19.01.2020
4396 Clouds 25 1014 78 10000 1 100 18:54 19.01.2020
4397 Clouds 25 1014 78 10000 1 100 18:36 19.01.2020
4398 Clouds 25 1014 78 10000 1 100 18:18 19.01.2020
4399 Clouds 25 1015 78 10000 1.5 140 17:56 19.01.2020
4400 Clouds 25 1015 78 10000 1.5 140 17:38 19.01.2020
4401 Clouds 26 1015 78 10000 1.5 140 17:18 19.01.2020
4402 Clouds 26 1015 78 10000 1.5 130 16:55 19.01.2020
4403 Clouds 26 1015 78 10000 1.5 130 16:36 19.01.2020
4404 Clouds 26 1015 78 10000 1.5 130 16:18 19.01.2020
4405 Clouds 26 1015 74 10000 2.6 120 15:41 19.01.2020
4406 Clouds 26 1015 74 10000 2.6 120 15:22 19.01.2020
4407 Clouds 26 1015 74 10000 3.1 120 14:59 19.01.2020
4408 Clouds 26 1015 74 10000 3.1 120 14:40 19.01.2020
4409 Clouds 26 1015 74 10000 3.1 120 14:19 19.01.2020
4410 Clouds 27 1015 74 10000 3.1 120 13:58 19.01.2020
4411 Clouds 27 1015 74 10000 3.1 120 13:39 19.01.2020
4412 Clouds 27 1015 74 10000 3.1 120 13:21 19.01.2020
4413 Clouds 27 1014 74 10000 2.6 130 12:58 19.01.2020
4414 Clouds 27 1014 74 10000 2.6 130 12:58 19.01.2020
4415 Clouds 27 1014 74 10000 2.6 130 12:40 19.01.2020
4416 Clouds 27 1014 74 10000 2.6 130 12:40 19.01.2020
4417 Clouds 27 1014 74 10000 2.6 130 12:21 19.01.2020
4418 Clouds 27 1014 69 10000 2.1 0 11:56 19.01.2020
4419 Clouds 28 1014 69 10000 2.1 0 11:37 19.01.2020
4420 Clouds 28 1014 69 10000 2.1 0 11:18 19.01.2020
4421 Clouds 28 1013 66 10000 3.1 120 10:39 19.01.2020
4422 Clouds 29 1013 66 10000 3.1 120 10:20 19.01.2020
4423 Clouds 29 1012 66 10000 3.6 120 09:57 19.01.2020
4424 Clouds 29 1012 66 10000 3.6 120 09:57 19.01.2020
4425 Clouds 29 1012 66 10000 3.6 120 09:57 19.01.2020
4426 Clouds 29 1012 66 10000 3.6 120 09:38 19.01.2020
4427 Clouds 29 1012 66 10000 3.6 120 09:19 19.01.2020
4428 Clouds 29 1012 66 10000 3.1 0 08:54 19.01.2020
4429 Clouds 29 1012 66 10000 3.1 0 08:31 19.01.2020
4430 Clouds 30 1013 66 10000 2.6 0 07:49 19.01.2020
4431 Clouds 30 1013 66 10000 2.6 0 07:28 19.01.2020
4432 Clouds 30 1014 62 10000 2.6 0 06:55 19.01.2020
4433 Clouds 30 1014 62 10000 2.6 0 06:21 19.01.2020
4434 Clouds 28 1015 69 10000 2.1 0 03:52 19.01.2020
4435 Clouds 28 1015 69 10000 1.5 280 02:32 19.01.2020
4436 Clouds 27 1015 74 10000 1.5 340 01:39 19.01.2020
4437 Clouds 26 1015 74 10000 1.5 340 01:18 19.01.2020
4438 Clouds 25 1014 78 9000 1.5 350 00:44 19.01.2020
4439 Clouds 25 1013 78 10000 1.5 300 00:19 19.01.2020
4440 Clouds 25 1013 78 10000 1.5 300 23:42 18.01.2020
4441 Clouds 25 1013 78 10000 1.5 300 23:24 18.01.2020
4442 Clouds 25 1012 78 10000 1 0 22:58 18.01.2020
4443 Clouds 25 1012 78 10000 1 0 22:40 18.01.2020
4444 Clouds 25 1012 78 10000 1 0 22:21 18.01.2020
4445 Clouds 24 1012 83 10000 0.5 0 21:57 18.01.2020
4446 Clouds 25 1012 83 10000 0.5 0 21:38 18.01.2020
4447 Clouds 25 1012 83 10000 0.5 0 21:20 18.01.2020
4448 Clouds 25 1012 83 10000 2.39 67 20:44 18.01.2020
4449 Clouds 25 1012 83 10000 4.1 91 20:22 18.01.2020
4450 Clouds 25 1012 83 10000 1 80 19:59 18.01.2020
4451 Clouds 25 1012 83 10000 1 80 19:41 18.01.2020
4452 Clouds 25 1012 83 10000 1 80 19:22 18.01.2020
4453 Clouds 26 1013 78 10000 2.1 120 18:43 18.01.2020
4454 Clouds 26 1013 78 10000 2.1 120 18:24 18.01.2020
4455 Clouds 26 1013 78 10000 2.1 130 17:56 18.01.2020
4456 Clouds 26 1013 78 10000 2.1 130 17:38 18.01.2020
4457 Clouds 26 1013 78 10000 2.1 130 17:19 18.01.2020
4458 Clouds 26 1013 74 10000 2.6 130 16:55 18.01.2020
4459 Clouds 26 1013 74 10000 2.6 130 16:55 18.01.2020
4460 Clouds 26 1013 74 10000 2.6 130 16:36 18.01.2020
4461 Clouds 26 1013 74 10000 2.6 130 16:18 18.01.2020
4462 Clouds 26 1013 74 10000 2.6 130 16:18 18.01.2020
4463 Clouds 27 1013 74 10000 2.6 120 15:41 18.01.2020
4464 Clouds 27 1013 74 10000 2.6 120 15:23 18.01.2020
4465 Clouds 27 1013 74 10000 2.6 120 14:57 18.01.2020
4466 Clouds 27 1013 74 10000 2.6 120 14:39 18.01.2020
4467 Clouds 27 1013 74 10000 2.6 120 14:18 18.01.2020
4468 Clouds 27 1013 78 10000 2.6 120 13:43 18.01.2020
4469 Clouds 27 1013 78 10000 2.6 120 13:24 18.01.2020
4470 Clouds 27 1012 74 10000 49.4 119 12:57 18.01.2020
4471 Clouds 27 1012 74 10000 49.4 119 12:38 18.01.2020
4472 Clouds 27 1012 74 10000 49.4 119 12:38 18.01.2020
4473 Clouds 28 1012 74 10000 49.4 119 12:19 18.01.2020
4474 Clouds 28 1011 70 10000 2.6 120 11:44 18.01.2020
4475 Clouds 28 1011 70 10000 2.6 120 11:21 18.01.2020
4476 Clouds 29 1011 66 10000 3.6 110 10:56 18.01.2020
4477 Clouds 29 1011 66 10000 3.6 110 10:38 18.01.2020
4478 Clouds 30 1011 66 10000 3.6 110 10:19 18.01.2020
4479 Rain 30 1010 70 10000 3.1 140 09:43 18.01.2020
4480 Rain 29 1010 70 10000 3.1 140 09:24 18.01.2020
4481 Rain 29 1010 66 9000 1.5 0 08:55 18.01.2020
4482 Rain 29 1010 66 9000 1.5 0 08:37 18.01.2020
4483 Rain 30 1010 66 9000 1.5 0 08:18 18.01.2020
4484 Rain 30 1010 66 9000 1.5 0 08:18 18.01.2020
4485 Rain 30 1011 70 8000 2.1 0 07:44 18.01.2020
4486 Rain 31 1011 70 8000 2.1 0 07:25 18.01.2020
4487 Clouds 30 1012 74 7000 2.6 290 06:47 18.01.2020
4488 Rain 30 1013 74 0 3.1 300 05:58 18.01.2020
4489 Clouds 29 1013 74 9000 2.6 310 04:36 18.01.2020
4490 Clouds 28 1014 78 9000 1.5 270 02:53 18.01.2020
4491 Clouds 28 1014 78 9000 1.5 270 02:53 18.01.2020
4492 Clouds 28 1014 78 10000 1.5 40 01:51 18.01.2020
4493 Clouds 27 1014 78 10000 1.5 40 01:20 18.01.2020
4494 Clouds 26 1013 83 10000 2.1 340 00:36 18.01.2020
4495 Clouds 26 1013 83 10000 2.1 340 00:18 18.01.2020
4496 Clouds 25 1012 83 10000 2.6 340 23:40 17.01.2020
4497 Clouds 25 1012 83 10000 2.6 340 23:19 17.01.2020
4498 Clouds 25 1012 83 10000 0.5 0 22:44 17.01.2020
4499 Clouds 25 1012 83 10000 0.5 0 22:21 17.01.2020
4500 Clouds 25 1011 83 10000 2.6 360 21:58 17.01.2020
4501 Clouds 25 1011 83 10000 2.6 360 21:40 17.01.2020
4502 Clouds 25 1011 83 10000 2.6 360 21:22 17.01.2020
4503 Clouds 25 1011 83 10000 1.5 310 20:55 17.01.2020
4504 Clouds 25 1011 83 10000 1.5 310 20:37 17.01.2020
4505 Clouds 25 1011 83 10000 1.5 310 20:18 17.01.2020
4506 Clouds 25 1011 83 10000 1.5 310 20:18 17.01.2020
4507 Clouds 25 1012 83 10000 2.1 310 19:54 17.01.2020
4508 Clouds 25 1012 83 10000 2.1 310 19:54 17.01.2020
4509 Clouds 26 1012 83 10000 2.1 310 19:36 17.01.2020
4510 Clouds 26 1012 83 10000 2.1 310 19:18 17.01.2020
4511 Clouds 26 1013 78 10000 2.6 360 18:44 17.01.2020
4512 Clouds 26 1013 78 10000 2.6 360 18:26 17.01.2020
4513 Clouds 26 1013 78 10000 2.1 10 17:56 17.01.2020
4514 Clouds 26 1013 78 10000 2.1 10 17:56 17.01.2020
4515 Clouds 26 1013 78 10000 2.1 10 17:38 17.01.2020
4516 Clouds 26 1013 78 10000 2.1 10 17:19 17.01.2020
4517 Clouds 26 1013 83 10000 0.89 49 16:41 17.01.2020
4518 Clouds 26 1013 83 10000 0.89 49 16:20 17.01.2020
4519 Clouds 27 1013 83 10000 1.5 0 15:48 17.01.2020
4520 Clouds 27 1013 83 10000 1.5 0 15:48 17.01.2020
4521 Clouds 27 1013 83 10000 1.5 0 15:26 17.01.2020
4522 Clouds 27 1013 78 10000 1.5 150 14:54 17.01.2020
4523 Clouds 28 1013 78 10000 1.5 150 14:36 17.01.2020
4524 Clouds 28 1013 78 10000 1.5 150 14:18 17.01.2020
4525 Clouds 28 1013 78 10000 2.1 0 13:39 17.01.2020
4526 Clouds 28 1013 78 10000 2.1 0 13:19 17.01.2020
4527 Clouds 28 1012 78 10000 2.1 160 12:45 17.01.2020
4528 Clouds 28 1012 78 10000 2.1 160 12:22 17.01.2020
4529 Clouds 29 1011 74 10000 2.1 0 11:40 17.01.2020
4530 Clouds 29 1011 74 10000 2.1 0 11:19 17.01.2020
4531 Clouds 29 1011 70 10000 2.6 130 10:45 17.01.2020
4532 Clouds 30 1011 70 10000 2.6 130 10:23 17.01.2020
4533 Clouds 30 1010 66 10000 2.6 140 09:59 17.01.2020
4534 Clouds 30 1010 66 10000 2.6 140 09:59 17.01.2020
4535 Clouds 30 1010 66 10000 2.6 140 09:41 17.01.2020
4536 Clouds 31 1010 66 10000 2.6 140 09:20 17.01.2020
4537 Clouds 31 1010 66 10000 2.1 0 08:46 17.01.2020
4538 Clouds 31 1010 66 10000 2.1 0 08:25 17.01.2020
4539 Clouds 31 1011 70 9000 1.5 0 07:56 17.01.2020
4540 Clouds 31 1011 70 9000 1.5 0 07:56 17.01.2020
4541 Clouds 31 1011 70 9000 1.5 0 07:32 17.01.2020
4542 Clouds 31 1012 70 9000 2.6 270 06:59 17.01.2020
4543 Clouds 31 1012 70 9000 2.6 270 06:41 17.01.2020
4544 Clouds 31 1013 66 9000 3.6 280 05:57 17.01.2020
4545 Clear 30 1015 69 0 1.34 108 03:39 17.01.2020
4546 Clear 30 1013 71 0 1.34 354 02:53 17.01.2020
4547 Clear 28 1013 74 0 1.79 355 01:47 17.01.2020
4548 Clear 27 1015 76 0 0.85 34 01:29 17.01.2020
4549 Clear 25 1013 84 0 1.34 344 00:51 17.01.2020
4550 Clouds 25 1012 74 10000 2.1 360 00:28 17.01.2020
4551 Clouds 25 1012 74 10000 2.1 360 23:46 16.01.2020
4552 Clouds 25 1012 74 10000 2.1 360 23:26 16.01.2020
4553 Clouds 25 1012 74 10000 1 0 22:58 16.01.2020
4554 Clouds 25 1012 74 10000 1 0 22:40 16.01.2020
4555 Clouds 25 1012 74 10000 1 0 22:20 16.01.2020
4556 Clouds 25 1011 74 10000 1.5 0 21:55 16.01.2020
4557 Clouds 25 1011 74 10000 1.5 0 21:37 16.01.2020
4558 Clouds 25 1011 74 10000 1.5 0 21:18 16.01.2020
4559 Clouds 25 1011 74 10000 1.5 0 21:18 16.01.2020
4560 Clouds 25 1011 78 10000 1.5 260 20:41 16.01.2020
4561 Clouds 25 1011 78 10000 1.5 260 20:21 16.01.2020
4562 Clouds 26 1012 78 10000 1 250 19:59 16.01.2020
4563 Clouds 26 1012 78 10000 1 250 19:41 16.01.2020
4564 Clouds 26 1012 78 10000 1 250 19:41 16.01.2020
4565 Clouds 26 1012 78 10000 1 250 19:22 16.01.2020
4566 Clouds 26 1012 78 10000 1 250 19:22 16.01.2020
4567 Clouds 26 1012 74 10000 1.5 220 18:57 16.01.2020
4568 Clouds 26 1012 74 10000 1.5 220 18:38 16.01.2020
4569 Clouds 26 1012 74 10000 1.5 220 18:20 16.01.2020
4570 Clouds 26 1012 74 10000 1 0 17:59 16.01.2020
4571 Clouds 26 1012 74 10000 1 0 17:40 16.01.2020
4572 Clouds 26 1012 74 10000 1 0 17:20 16.01.2020
4573 Clouds 27 1013 69 10000 1 0 16:42 16.01.2020
4574 Clouds 27 1013 69 10000 1 0 16:24 16.01.2020
4575 Clouds 27 1013 69 0 2.1 130 15:59 16.01.2020
4576 Clouds 27 1013 69 0 2.1 130 15:39 16.01.2020
4577 Clouds 27 1013 69 0 2.1 130 15:39 16.01.2020
4578 Clouds 27 1013 69 0 2.1 130 15:20 16.01.2020
4579 Clouds 27 1013 65 10000 2.1 140 14:44 16.01.2020
4580 Clouds 28 1013 65 10000 2.1 140 14:24 16.01.2020
4581 Clouds 28 1013 65 10000 2.1 140 14:24 16.01.2020
4582 Clouds 28 1012 65 10000 2.1 120 13:56 16.01.2020
4583 Clouds 28 1012 65 10000 2.1 120 13:37 16.01.2020
4584 Clouds 28 1012 65 10000 2.1 120 13:19 16.01.2020
4585 Clouds 28 1012 66 10000 2.6 130 12:42 16.01.2020
4586 Clouds 28 1012 66 10000 2.6 130 12:22 16.01.2020
4587 Clouds 29 1011 58 10000 3.1 120 11:43 16.01.2020
4588 Clouds 29 1011 58 10000 3.1 120 11:24 16.01.2020
4589 Clouds 30 1010 58 10000 3.1 0 10:59 16.01.2020
4590 Clouds 30 1010 58 10000 3.1 0 10:38 16.01.2020
4591 Clouds 30 1010 58 10000 3.1 0 10:20 16.01.2020
4592 Clouds 31 1010 55 10000 3.6 140 09:54 16.01.2020
4593 Clouds 31 1010 55 10000 3.6 140 09:36 16.01.2020
4594 Clouds 31 1010 55 10000 3.6 140 09:18 16.01.2020
4595 Clouds 31 1010 55 10000 3.6 130 08:42 16.01.2020
4596 Clouds 32 1010 55 10000 3.6 130 08:23 16.01.2020
4597 Clouds 31 1010 59 10000 2.6 0 07:43 16.01.2020
4598 Clouds 32 1010 59 10000 2.6 0 07:25 16.01.2020
4599 Clouds 31 1011 62 10000 2.1 240 06:55 16.01.2020
4600 Clouds 31 1011 62 10000 2.1 240 06:35 16.01.2020
4601 Clouds 31 1012 62 9000 3.6 280 05:56 16.01.2020
4602 Clouds 31 1012 62 9000 3.6 280 05:30 16.01.2020
4603 Clouds 30 1013 66 9000 3.1 280 04:37 16.01.2020
4604 Clouds 29 1014 69 9000 3.1 290 03:27 16.01.2020
4605 Clouds 28 1014 69 9000 1.5 270 02:24 16.01.2020
4606 Clouds 25 1013 83 10000 1 0 00:44 16.01.2020
4607 Clouds 24 1013 83 10000 1 0 00:23 16.01.2020
4608 Clouds 24 1013 78 10000 1 0 23:46 15.01.2020
4609 Clouds 24 1013 78 10000 1 0 23:22 15.01.2020
4610 Clouds 24 1012 78 10000 1 0 22:57 15.01.2020
4611 Clouds 24 1012 78 10000 1 0 22:39 15.01.2020
4612 Clouds 24 1012 78 10000 1 0 22:19 15.01.2020
4613 Clouds 24 1012 83 10000 2.14 60 21:57 15.01.2020
4614 Clouds 24 1012 83 10000 2.14 60 21:37 15.01.2020
4615 Clouds 24 1012 83 10000 2.14 60 21:19 15.01.2020
4616 Clouds 25 1012 78 10000 1 90 20:56 15.01.2020
4617 Clouds 25 1012 78 10000 1 90 20:38 15.01.2020
4618 Clouds 25 1012 78 10000 1 90 20:19 15.01.2020
4619 Clouds 25 1012 78 10000 2.1 70 19:54 15.01.2020
4620 Clouds 25 1012 78 10000 2.1 70 19:36 15.01.2020
4621 Clouds 25 1012 78 10000 2.1 70 19:18 15.01.2020
4622 Clouds 25 1012 78 10000 1.5 90 18:56 15.01.2020
4623 Clouds 26 1012 78 10000 1.5 90 18:37 15.01.2020
4624 Clouds 26 1012 78 10000 1.5 90 18:37 15.01.2020
4625 Clouds 26 1012 78 10000 1.5 90 18:19 15.01.2020
4626 Clouds 26 1013 69 10000 3.1 110 17:55 15.01.2020
4627 Clouds 26 1013 69 10000 3.1 110 17:36 15.01.2020
4628 Clouds 26 1013 69 10000 3.1 110 17:18 15.01.2020
4629 Clouds 26 1013 74 10000 2.1 110 16:40 15.01.2020
4630 Clouds 26 1013 74 10000 2.1 110 16:21 15.01.2020
4631 Clouds 26 1013 74 10000 2.1 110 16:21 15.01.2020
4632 Clouds 26 1013 69 10000 2.6 120 15:56 15.01.2020
4633 Clouds 26 1013 69 10000 2.6 120 15:38 15.01.2020
4634 Clouds 26 1013 69 10000 2.6 120 15:18 15.01.2020
4635 Clouds 26 1013 69 10000 3.1 110 14:42 15.01.2020
4636 Clouds 26 1013 69 10000 3.1 110 14:19 15.01.2020
4637 Clouds 26 1013 69 10000 3.1 120 13:46 15.01.2020
4638 Clouds 26 1013 69 10000 3.1 120 13:26 15.01.2020
4639 Clouds 26 1012 69 10000 3.6 110 12:59 15.01.2020
4640 Clouds 27 1012 69 10000 3.6 110 12:39 15.01.2020
4641 Clouds 27 1012 69 10000 3.6 110 12:19 15.01.2020
4642 Clouds 27 1012 69 10000 2.6 110 11:56 15.01.2020
4643 Clouds 27 1012 69 10000 2.6 110 11:37 15.01.2020
4644 Clouds 27 1012 69 10000 2.6 110 11:19 15.01.2020
4645 Clouds 28 1011 66 10000 4.1 120 10:42 15.01.2020
4646 Clouds 28 1011 66 10000 4.1 120 10:24 15.01.2020
4647 Clouds 29 1011 62 10000 4.1 110 09:42 15.01.2020
4648 Clouds 29 1011 62 10000 4.1 110 09:23 15.01.2020
4649 Clouds 29 1011 62 10000 5.1 110 08:56 15.01.2020
4650 Clouds 29 1011 62 10000 5.1 110 08:37 15.01.2020
4651 Clouds 29 1011 62 10000 5.1 110 08:19 15.01.2020
4652 Clouds 29 1011 62 10000 5.7 120 07:50 15.01.2020
4653 Clouds 30 1011 62 10000 5.7 120 07:29 15.01.2020
4654 Clouds 30 1012 70 10000 3.1 280 06:44 15.01.2020
4655 Clouds 30 1012 70 10000 3.1 280 06:18 15.01.2020
4656 Clouds 29 1014 66 10000 1.5 120 04:34 15.01.2020
4657 Clouds 28 1014 69 10000 1.5 240 02:30 15.01.2020
4658 Clouds 26 1014 78 10000 1 0 01:25 15.01.2020
4659 Clouds 26 1013 78 10000 0.5 0 00:45 15.01.2020
4660 Clouds 25 1013 78 10000 0.5 0 00:26 15.01.2020
4661 Clouds 24 1013 88 10000 0.5 0 23:47 14.01.2020
4662 Clouds 24 1013 88 10000 0.5 0 23:29 14.01.2020
4663 Clouds 24 1012 83 10000 0.5 100 22:59 14.01.2020
4664 Clouds 24 1012 83 10000 0.5 100 22:40 14.01.2020
4665 Clouds 24 1012 83 10000 0.5 100 22:19 14.01.2020
4666 Clouds 25 1012 83 10000 1.5 60 21:58 14.01.2020
4667 Clouds 25 1012 83 10000 1.5 60 21:39 14.01.2020
4668 Clouds 25 1012 83 10000 1.5 60 21:20 14.01.2020
4669 Clouds 24 1012 88 10000 2.33 64 20:56 14.01.2020
4670 Clouds 25 1011 81 0 2.33 64 20:38 14.01.2020
4671 Clouds 25 1012 83 10000 1 0 20:19 14.01.2020
4672 Clouds 25 1012 83 10000 1 0 19:55 14.01.2020
4673 Clouds 25 1012 83 10000 1 0 19:37 14.01.2020
4674 Clouds 25 1012 83 10000 1 0 19:18 14.01.2020
4675 Clear 25 1014 82 0 1.34 110 18:41 14.01.2020
4676 Clouds 26 1013 78 10000 2.1 120 18:20 14.01.2020
4677 Clouds 26 1013 78 10000 2.1 120 17:58 14.01.2020
4678 Clouds 26 1013 78 10000 2.1 120 17:37 14.01.2020
4679 Clouds 26 1013 78 10000 2.1 120 17:18 14.01.2020
4680 Clouds 26 1013 74 10000 2.6 110 16:43 14.01.2020
4681 Clouds 27 1013 74 10000 2.6 110 16:23 14.01.2020
4682 Clouds 27 1013 74 10000 2.6 110 16:23 14.01.2020
4683 Clouds 27 1013 74 10000 2.6 120 15:58 14.01.2020
4684 Clouds 27 1013 74 10000 2.6 120 15:40 14.01.2020
4685 Clouds 27 1013 74 10000 2.6 120 15:19 14.01.2020
4686 Clouds 27 1013 74 10000 2.6 110 14:44 14.01.2020
4687 Clouds 27 1013 74 10000 2.6 110 14:21 14.01.2020
4688 Clouds 27 1012 78 10000 1.5 100 13:57 14.01.2020
4689 Clouds 27 1012 78 10000 1.5 100 13:38 14.01.2020
4690 Clouds 27 1012 78 10000 1.5 100 13:18 14.01.2020
4691 Clouds 27 1012 74 10000 2.1 110 12:42 14.01.2020
4692 Clouds 27 1012 74 10000 2.1 110 12:22 14.01.2020
4693 Clouds 28 1011 66 10000 3.1 80 11:56 14.01.2020
4694 Clouds 28 1011 66 10000 3.1 80 11:36 14.01.2020
4695 Clouds 28 1011 66 10000 3.1 80 11:18 14.01.2020
4696 Clouds 28 1011 66 10000 4.1 50 10:40 14.01.2020
4697 Clouds 29 1011 66 10000 4.1 50 10:20 14.01.2020
4698 Clouds 29 1010 66 10000 2.6 120 09:58 14.01.2020
4699 Clouds 29 1010 66 10000 2.6 120 09:40 14.01.2020
4700 Clouds 29 1010 66 10000 2.6 120 09:21 14.01.2020
4701 Clouds 29 1010 66 10000 2.1 0 08:48 14.01.2020
4702 Clouds 29 1010 66 10000 2.1 0 08:26 14.01.2020
4703 Clouds 29 1010 70 10000 1.5 230 07:56 14.01.2020
4704 Clouds 29 1010 70 10000 1.5 230 07:34 14.01.2020
4705 Clouds 29 1011 74 10000 3.1 260 06:57 14.01.2020
4706 Clouds 29 1011 74 10000 3.1 260 06:39 14.01.2020
4707 Clouds 29 1011 74 10000 3.1 260 06:39 14.01.2020
4708 Clouds 29 1012 66 10000 3.6 280 05:28 14.01.2020
4709 Clouds 28 1013 69 10000 3.1 270 03:57 14.01.2020
4710 Clouds 28 1013 69 10000 3.1 270 03:35 14.01.2020
4711 Clouds 28 1013 74 10000 1.5 210 01:58 14.01.2020
4712 Clouds 25 1012 83 10000 0.5 0 00:53 14.01.2020
4713 Clouds 25 1012 83 10000 0.5 0 00:35 14.01.2020
4714 Clouds 25 1011 83 10000 0.5 0 23:56 13.01.2020
4715 Clouds 25 1011 83 10000 0.5 0 23:37 13.01.2020
4716 Clouds 25 1011 83 10000 0.5 0 23:18 13.01.2020
4717 Clouds 25 1011 83 10000 0.5 0 23:18 13.01.2020
4718 Clouds 24 1010 83 10000 1 100 22:42 13.01.2020
4719 Clouds 24 1010 83 10000 1 100 22:21 13.01.2020
4720 Clouds 24 1010 88 10000 0.5 0 21:57 13.01.2020
4721 Clouds 24 1010 88 10000 0.5 0 21:38 13.01.2020
4722 Clouds 24 1010 88 10000 0.5 0 21:19 13.01.2020
4723 Clouds 25 1010 94 10000 2.78 46 20:59 13.01.2020
4724 Clouds 25 1010 94 10000 2.78 46 20:41 13.01.2020
4725 -273 0 0 0 0 0 20:22 13.01.2020
4726 -273 0 0 0 0 0 20:22 13.01.2020
4727 Clouds 25 1010 83 10000 2.1 50 19:59 13.01.2020
4728 Clouds 25 1010 83 10000 2.1 50 19:39 13.01.2020
4729 Clouds 25 1010 83 10000 2.1 50 19:20 13.01.2020
4730 Clouds 25 1010 78 10000 1.5 120 18:56 13.01.2020
4731 Clouds 26 1010 78 10000 1.5 120 18:37 13.01.2020
4732 Clouds 26 1010 78 10000 1.5 120 18:37 13.01.2020
4733 Clouds 26 1010 78 10000 1.5 120 18:18 13.01.2020
4734 Clouds 26 1011 78 10000 2.6 0 17:43 13.01.2020
4735 Clouds 26 1011 78 10000 2.6 0 17:24 13.01.2020
4736 Clouds 26 1011 78 10000 2.6 0 17:24 13.01.2020
4737 Clouds 26 1011 78 10000 3.1 120 16:57 13.01.2020
4738 Clouds 26 1010 82 0 4.68 105 16:38 13.01.2020
4739 Clouds 26 1010 82 0 4.68 105 16:20 13.01.2020
4740 Clouds 26 1010 83 0 4.68 105 15:44 13.01.2020
4741 Clouds 26 1010 83 0 4.68 105 15:24 13.01.2020
4742 Clouds 26 1010 82 0 0.45 151 14:58 13.01.2020
4743 Clouds 26 1010 83 0 1.34 144 14:38 13.01.2020
4744 Clouds 26 1010 84 0 5.66 96 14:20 13.01.2020
4745 Clouds 26 1009 85 0 0.45 17 13:43 13.01.2020
4746 Clouds 26 1009 85 0 0.45 17 13:43 13.01.2020
4747 Clouds 26 1009 84 0 0.89 291 13:25 13.01.2020
4748 Clouds 26 1009 84 0 5.89 97 12:59 13.01.2020
4749 Clouds 26 1012 82 0 3.13 121 12:41 13.01.2020
4750 Clouds 27 1009 78 10000 2.1 140 12:23 13.01.2020
4751 Clouds 27 1009 78 10000 2.1 140 11:57 13.01.2020
4752 Clouds 27 1009 78 10000 2.1 140 11:37 13.01.2020
4753 Clouds 27 1009 78 10000 2.1 140 11:19 13.01.2020
4754 Clouds 27 1009 74 10000 2.1 130 10:55 13.01.2020
4755 Clouds 28 1009 74 10000 2.1 130 10:37 13.01.2020
4756 Clouds 28 1009 74 10000 2.1 130 10:19 13.01.2020
4757 Clouds 28 1008 70 10000 1 0 09:43 13.01.2020
4758 Clouds 29 1008 70 10000 1 0 09:23 13.01.2020
4759 Rain 29 1008 74 10000 1.5 330 08:44 13.01.2020
4760 Rain 29 1008 74 10000 1.5 330 08:24 13.01.2020
4761 Rain 28 1008 74 9000 3.6 300 07:59 13.01.2020
4762 Rain 28 1008 74 9000 3.6 300 07:59 13.01.2020
4763 Rain 28 1008 74 9000 3.6 300 07:41 13.01.2020
4764 Rain 27 1008 74 9000 3.6 300 07:19 13.01.2020
4765 Clouds 28 1009 74 8000 4.6 270 06:37 13.01.2020
4766 Clouds 29 1009 78 9000 3.1 260 05:37 13.01.2020
4767 Clouds 27 1011 78 10000 4.6 320 04:26 13.01.2020
4768 Clouds 28 1010 62 10000 1 0 03:35 13.01.2020
4769 Clouds 29 1010 74 10000 2.6 120 02:49 13.01.2020
4770 Clouds 28 1010 74 10000 2.6 120 02:30 13.01.2020
4771 Clouds 28 1010 74 10000 2.6 120 02:30 13.01.2020
4772 Clouds 27 1010 88 10000 1.5 0 01:33 13.01.2020
4773 Clouds 25 1009 88 10000 1 0 00:44 13.01.2020
4774 Clouds 25 1009 88 10000 1 0 00:25 13.01.2020
4775 Clouds 25 1009 88 10000 1 0 23:57 12.01.2020
4776 Clouds 25 1009 88 10000 1 0 23:38 12.01.2020
4777 Clouds 25 1009 88 10000 1 0 23:20 12.01.2020
4778 Clouds 25 1009 88 10000 0.5 0 22:43 12.01.2020
4779 Clouds 25 1009 88 10000 0.5 0 22:24 12.01.2020
4780 Clouds 25 1009 94 10000 1 0 21:59 12.01.2020
4781 Clouds 25 1009 94 10000 1 0 21:59 12.01.2020
4782 Clouds 25 1009 94 10000 1 0 21:40 12.01.2020
4783 Clouds 25 1009 94 10000 1 0 21:20 12.01.2020
4784 Clouds 25 1009 88 10000 1 0 20:57 12.01.2020
4785 Clouds 25 1009 88 10000 1 0 20:39 12.01.2020
4786 Clouds 25 1009 88 10000 1 0 20:20 12.01.2020
4787 Clouds 25 1009 94 10000 1.5 190 19:56 12.01.2020
4788 Clouds 25 1009 94 10000 1.5 190 19:38 12.01.2020
4789 Clouds 25 1009 94 10000 1.5 190 19:19 12.01.2020
4790 Rain 25 1010 94 9000 2.1 0 18:57 12.01.2020
4791 Rain 25 1010 94 9000 2.1 0 18:57 12.01.2020
4792 Rain 25 1010 94 9000 2.1 0 18:39 12.01.2020
4793 Rain 25 1010 94 9000 2.1 0 18:21 12.01.2020
4794 Ash 26 1010 78 10000 1 0 17:56 12.01.2020
4795 Ash 26 1010 78 10000 1 0 17:37 12.01.2020
4796 Ash 26 1010 78 10000 1 0 17:18 12.01.2020
4797 Thunderstorm 26 1010 78 10000 1 0 16:55 12.01.2020
4798 Thunderstorm 26 1010 78 10000 1 0 16:55 12.01.2020
4799 Thunderstorm 26 1010 78 10000 1 0 16:37 12.01.2020
4800 Thunderstorm 27 1010 78 10000 1 0 16:18 12.01.2020
4801 Ash 27 1010 78 9000 1.5 0 15:42 12.01.2020
4802 Ash 27 1010 78 9000 1.5 0 15:24 12.01.2020
4803 Ash 27 1010 78 9000 1.5 0 15:24 12.01.2020
4804 Ash 27 1010 74 9000 1.5 0 14:56 12.01.2020
4805 Ash 28 1010 74 9000 1.5 0 14:37 12.01.2020
4806 Ash 28 1010 74 9000 1.5 0 14:18 12.01.2020
4807 Ash 28 1009 74 9000 2.1 140 13:42 12.01.2020
4808 Ash 28 1009 74 9000 2.1 140 13:23 12.01.2020
4809 Ash 28 1008 65 10000 5.25 110 12:58 12.01.2020
4810 Ash 28 1008 65 10000 5.25 110 12:38 12.01.2020
4811 Ash 28 1008 65 10000 5.25 110 12:20 12.01.2020
4812 Ash 28 1008 69 9000 0.5 0 11:57 12.01.2020
4813 Ash 28 1008 69 9000 0.5 0 11:38 12.01.2020
4814 Ash 28 1008 69 9000 0.5 0 11:19 12.01.2020
4815 Clouds 29 1008 66 10000 1 0 10:41 12.01.2020
4816 Clouds 29 1008 66 10000 1 0 10:21 12.01.2020
4817 Clouds 29 1007 66 10000 3.1 320 09:56 12.01.2020
4818 Clouds 29 1007 66 10000 3.1 320 09:38 12.01.2020
4819 Clouds 29 1007 66 10000 3.1 320 09:18 12.01.2020
4820 Clouds 29 1008 70 0 4.1 320 08:42 12.01.2020
4821 Clouds 30 1008 70 0 4.1 320 08:19 12.01.2020
4822 Clouds 29 1008 66 10000 4.1 280 07:40 12.01.2020
4823 Clouds 30 1008 66 10000 4.1 280 07:21 12.01.2020
4824 Clouds 31 1009 58 10000 2.1 0 06:43 12.01.2020
4825 Clouds 31 1009 58 10000 2.1 0 06:24 12.01.2020
4826 Clouds 30 1010 62 10000 1.5 0 05:23 12.01.2020
4827 Clouds 29 1011 69 10000 2.1 60 03:55 12.01.2020
4828 Clouds 29 1011 69 10000 2.1 60 03:22 12.01.2020
4829 Clouds 27 1011 74 10000 1.5 0 02:33 12.01.2020
4830 Clouds 26 1011 78 10000 2.1 360 01:42 12.01.2020
4831 Clouds 25 1011 78 10000 2.1 360 01:22 12.01.2020
4832 Clouds 24 1010 83 10000 0.5 0 00:40 12.01.2020
4833 Clouds 24 1010 83 10000 0.5 0 00:40 12.01.2020
4834 Clouds 24 1010 83 10000 0.5 0 00:20 12.01.2020
4835 Clouds 24 1009 83 10000 1.5 20 23:42 11.01.2020
4836 Clouds 24 1009 83 10000 1.5 20 23:19 11.01.2020
4837 Clouds 25 1009 83 10000 1 0 22:57 11.01.2020
4838 Clouds 25 1009 83 10000 1 0 22:39 11.01.2020
4839 Clouds 25 1009 83 10000 1 0 22:20 11.01.2020
4840 Clouds 25 1009 83 10000 1 0 21:55 11.01.2020
4841 Clouds 25 1009 83 10000 1 0 21:37 11.01.2020
4842 Clouds 25 1009 83 10000 1 0 21:18 11.01.2020
4843 Clouds 25 1009 83 10000 1 0 20:40 11.01.2020
4844 Clouds 25 1009 83 10000 1 0 20:22 11.01.2020
4845 Clouds 25 1009 83 10000 1 0 19:58 11.01.2020
4846 Clouds 25 1009 83 10000 1 0 19:38 11.01.2020
4847 Clouds 25 1009 83 10000 1 0 19:38 11.01.2020
4848 Clouds 25 1009 83 10000 1 0 19:38 11.01.2020
4849 Clouds 25 1009 83 10000 1 0 19:20 11.01.2020
4850 Clouds 26 1010 78 10000 2.1 120 18:57 11.01.2020
4851 Clouds 26 1010 78 10000 2.1 120 18:37 11.01.2020
4852 Clouds 26 1010 78 10000 2.1 120 18:19 11.01.2020
4853 Clouds 26 1010 78 10000 2.1 120 18:19 11.01.2020
4854 Clouds 26 1010 78 10000 2.1 120 17:57 11.01.2020
4855 Clouds 26 1010 78 10000 2.1 120 17:39 11.01.2020
4856 Clouds 26 1010 78 10000 2.1 120 17:19 11.01.2020
4857 Clouds 26 1010 78 10000 1 0 16:44 11.01.2020
4858 Clouds 26 1010 78 10000 1 0 16:25 11.01.2020
4859 Clouds 26 1011 74 10000 2.1 110 15:57 11.01.2020
4860 Clouds 27 1011 74 10000 2.1 110 15:39 11.01.2020
4861 Clouds 27 1011 74 10000 2.1 110 15:20 11.01.2020
4862 Clouds 27 1010 74 10000 2.6 110 14:47 11.01.2020
4863 Clouds 27 1010 74 10000 2.6 110 14:25 11.01.2020
4864 Clouds 27 1010 69 10000 2.6 110 13:58 11.01.2020
4865 Clouds 27 1010 69 10000 2.6 110 13:38 11.01.2020
4866 Clouds 28 1010 69 10000 2.6 110 13:20 11.01.2020
4867 Clouds 28 1009 69 10000 3.1 110 12:56 11.01.2020
4868 Clouds 27 1009 69 10000 3.1 110 12:37 11.01.2020
4869 Clouds 28 1009 69 10000 3.1 110 12:19 11.01.2020
4870 Clouds 28 1009 66 10000 2.6 120 11:42 11.01.2020
4871 Clouds 28 1009 66 10000 2.6 120 11:24 11.01.2020
4872 Clouds 29 1008 62 10000 3.6 0 10:47 11.01.2020
4873 Clouds 29 1008 62 10000 3.6 0 10:47 11.01.2020
4874 Clouds 29 1008 62 10000 3.6 0 10:25 11.01.2020
4875 Clouds 30 1007 62 10000 4.1 0 09:44 11.01.2020
4876 Clouds 30 1007 62 10000 4.1 0 09:21 11.01.2020
4877 Clouds 30 1007 58 10000 4.1 130 08:57 11.01.2020
4878 Clouds 30 1007 58 10000 4.1 130 08:38 11.01.2020
4879 Clouds 31 1007 58 10000 4.1 130 08:19 11.01.2020
4880 Clouds 31 1008 55 10000 4.1 130 07:42 11.01.2020
4881 Clouds 31 1008 55 10000 4.1 130 07:24 11.01.2020
4882 Clouds 31 1009 58 10000 3.1 110 06:43 11.01.2020
4883 Clouds 31 1010 58 10000 3.1 120 05:29 11.01.2020
4884 Clouds 31 1011 58 10000 2.6 0 04:40 11.01.2020
4885 Clouds 31 1011 58 10000 2.6 0 04:21 11.01.2020
4886 Clouds 28 1012 65 10000 1.5 70 02:46 11.01.2020
4887 Clouds 27 1011 78 10000 1.5 10 01:47 11.01.2020
4888 Clouds 26 1011 78 10000 1.5 10 01:25 11.01.2020
4889 Clouds 25 1011 83 10000 2.6 20 00:52 11.01.2020
4890 Clouds 24 1011 83 10000 2.6 20 00:24 11.01.2020
4891 Clouds 24 1010 94 10000 1 0 23:58 10.01.2020
4892 Clouds 24 1010 94 10000 1 0 23:38 10.01.2020
4893 Clouds 24 1010 94 10000 1 0 23:38 10.01.2020
4894 Clouds 24 1010 94 10000 1 0 23:20 10.01.2020
4895 Clouds 24 1010 94 10000 0.5 0 22:41 10.01.2020
4896 Clouds 24 1010 94 10000 0.5 0 22:22 10.01.2020
4897 Clouds 25 1010 83 10000 0.5 250 21:58 10.01.2020
4898 Clouds 25 1010 83 10000 0.5 250 21:40 10.01.2020
4899 Clouds 25 1010 83 10000 0.5 250 21:20 10.01.2020
4900 Clouds 24 1010 88 10000 1 80 20:57 10.01.2020
4901 Clouds 24 1010 88 10000 1 80 20:38 10.01.2020
4902 Clouds 25 1010 88 10000 1 80 20:19 10.01.2020
4903 Clouds 25 1010 83 10000 1.5 70 19:40 10.01.2020
4904 Clouds 25 1010 83 10000 1.5 70 19:20 10.01.2020
4905 Clouds 25 1010 83 10000 1 0 18:55 10.01.2020
4906 Clouds 25 1010 83 10000 1 0 18:36 10.01.2020
4907 Clouds 25 1010 83 10000 1 0 18:18 10.01.2020
4908 Clouds 25 1010 83 10000 1 0 18:18 10.01.2020
4909 Clouds 25 1011 83 10000 1.5 80 17:56 10.01.2020
4910 Clouds 25 1011 83 10000 1.5 80 17:37 10.01.2020
4911 Clouds 25 1011 83 10000 1.5 80 17:19 10.01.2020
4912 Clouds 26 1011 78 10000 1.5 130 16:41 10.01.2020
4913 Clouds 26 1011 78 10000 1.5 130 16:21 10.01.2020
4914 Clouds 26 1011 78 10000 2.6 130 15:56 10.01.2020
4915 Clouds 26 1011 78 10000 2.6 130 15:37 10.01.2020
4916 Clouds 26 1011 78 10000 2.6 130 15:19 10.01.2020
4917 Clouds 26 1011 78 10000 2.6 130 15:19 10.01.2020
4918 Clouds 26 1011 78 10000 2.6 130 15:19 10.01.2020
4919 Clouds 26 1011 74 10000 2.6 110 14:57 10.01.2020
4920 Clouds 26 1011 74 10000 2.6 110 14:38 10.01.2020
4921 Clouds 26 1011 74 10000 2.6 110 14:19 10.01.2020
4922 Clouds 26 1011 74 10000 2.1 110 13:46 10.01.2020
4923 Clouds 27 1011 74 10000 2.1 110 13:28 10.01.2020
4924 Clouds 27 1010 65 10000 2.6 100 12:59 10.01.2020
4925 Clouds 27 1010 65 10000 2.6 100 12:40 10.01.2020
4926 Clouds 27 1010 65 10000 2.6 100 12:21 10.01.2020
4927 Clouds 28 1009 62 10000 3.6 80 11:58 10.01.2020
4928 Clouds 28 1009 62 10000 3.6 80 11:40 10.01.2020
4929 Clouds 28 1009 62 10000 3.6 80 11:19 10.01.2020
4930 Clouds 28 1008 66 10000 4.1 100 10:59 10.01.2020
4931 Clouds 28 1008 66 10000 4.1 100 10:38 10.01.2020
4932 Clouds 29 1008 66 10000 4.1 100 10:18 10.01.2020
4933 Clouds 28 1008 74 10000 2.6 230 09:45 10.01.2020
4934 Clouds 28 1008 74 10000 2.6 230 09:26 10.01.2020
4935 Clouds 29 1008 70 10000 2.6 300 08:57 10.01.2020
4936 Clouds 29 1008 70 10000 2.6 300 08:37 10.01.2020
4937 Clouds 30 1008 70 10000 2.6 300 08:18 10.01.2020
4938 Clouds 30 1008 70 10000 2.6 300 08:18 10.01.2020
4939 Clouds 29 1009 74 10000 2.6 300 07:41 10.01.2020
4940 Clouds 29 1009 74 10000 2.6 300 07:19 10.01.2020
4941 Rain 28 1010 78 10000 3.1 0 06:37 10.01.2020
4942 Rain 28 1010 78 10000 3.1 0 06:19 10.01.2020
4943 Clouds 30 1011 70 10000 3.1 280 05:19 10.01.2020
4944 Clouds 28 1012 69 10000 3.1 280 03:31 10.01.2020
4945 Clouds 28 1012 74 10000 0.5 0 02:52 10.01.2020
4946 Clouds 27 1012 74 10000 0.5 0 02:19 10.01.2020
4947 Clouds 27 1012 74 10000 0.5 0 01:30 10.01.2020
4948 Clouds 26 1011 74 10000 1.5 220 00:49 10.01.2020
4949 Clouds 25 1011 74 10000 1.5 220 00:31 10.01.2020
4950 Clouds 25 1011 74 10000 0.5 0 23:55 09.01.2020
4951 Clouds 25 1011 74 10000 0.5 0 23:36 09.01.2020
4952 Clouds 25 1011 74 10000 0.5 0 23:18 09.01.2020
4953 Clouds 25 1010 78 10000 1.45 33 22:54 09.01.2020
4954 Clouds 25 1010 78 10000 1.45 33 22:36 09.01.2020
4955 Clouds 25 1010 78 10000 1.45 33 22:18 09.01.2020
4956 Clouds 25 1010 78 10000 1 0 21:54 09.01.2020
4957 Clouds 25 1010 78 10000 1 0 21:36 09.01.2020
4958 Clouds 24 1010 78 10000 1 0 21:18 09.01.2020
4959 Clouds 24 1010 78 10000 1 0 21:18 09.01.2020
4960 Clouds 24 1010 83 10000 1.5 110 20:54 09.01.2020
4961 Clouds 24 1010 83 10000 1.5 110 20:36 09.01.2020
4962 Clouds 24 1010 83 10000 1.5 110 20:18 09.01.2020
4963 Clouds 25 1010 78 10000 1.5 90 19:39 09.01.2020
4964 Clouds 25 1010 78 10000 1.5 90 19:20 09.01.2020
4965 Clouds 25 1011 74 10000 2.1 100 18:56 09.01.2020
4966 Clouds 25 1011 74 10000 2.1 100 18:38 09.01.2020
4967 Clouds 25 1011 74 10000 2.1 100 18:20 09.01.2020
4968 Clouds 25 1011 74 10000 2.1 100 17:41 09.01.2020
4969 Clouds 26 1011 74 10000 2.1 100 17:19 09.01.2020
4970 Clouds 26 1011 74 10000 2.6 100 16:56 09.01.2020
4971 Clouds 26 1011 74 10000 2.6 100 16:38 09.01.2020
4972 Clouds 26 1011 74 10000 2.6 100 16:20 09.01.2020
4973 Clouds 26 1012 74 10000 2.6 120 15:43 09.01.2020
4974 Clouds 26 1012 74 10000 2.6 120 15:22 09.01.2020
4975 Clouds 26 1012 69 10000 3.1 120 14:57 09.01.2020
4976 Clouds 26 1012 69 10000 3.1 120 14:38 09.01.2020
4977 Clouds 26 1012 69 10000 3.1 120 14:19 09.01.2020
4978 Clouds 26 1012 69 10000 2.6 110 13:55 09.01.2020
4979 Clouds 26 1012 69 10000 2.6 110 13:37 09.01.2020
4980 Clouds 27 1012 69 10000 2.6 110 13:18 09.01.2020
4981 Clouds 27 1012 65 10000 2.1 100 12:42 09.01.2020
4982 Clouds 27 1012 65 10000 2.1 100 12:24 09.01.2020
4983 Clouds 27 1011 65 10000 3.1 120 11:59 09.01.2020
4984 Clouds 27 1011 65 10000 3.1 120 11:41 09.01.2020
4985 Clouds 28 1011 65 10000 3.1 120 11:23 09.01.2020
4986 Clouds 28 1010 62 10000 3.1 120 10:56 09.01.2020
4987 Clouds 28 1010 62 10000 3.1 120 10:37 09.01.2020
4988 Clouds 29 1010 62 10000 3.1 120 10:19 09.01.2020
4989 Clouds 29 1010 66 10000 3.6 100 09:41 09.01.2020
4990 Clouds 29 1010 66 10000 3.6 100 09:22 09.01.2020
4991 Clouds 30 1010 55 10000 6.2 110 08:56 09.01.2020
4992 Clouds 30 1010 55 10000 6.2 110 08:38 09.01.2020
4993 Clouds 30 1010 55 10000 6.2 110 08:19 09.01.2020
4994 Clouds 30 1010 58 10000 4.6 130 07:44 09.01.2020
4995 Clouds 31 1010 58 10000 4.6 130 07:25 09.01.2020
4996 Clouds 31 1011 52 10000 5.1 120 06:39 09.01.2020
4997 Clouds 31 1011 52 10000 5.1 120 06:21 09.01.2020
4998 Clouds 31 1012 58 10000 4.1 100 05:50 09.01.2020
4999 Clouds 29 1013 62 10000 2.1 0 04:45 09.01.2020
5000 Clouds 29 1013 69 10000 2.6 310 03:54 09.01.2020
5001 Clouds 29 1013 69 10000 2.6 310 03:26 09.01.2020
5002 Clouds 29 1014 65 10000 2.6 90 02:31 09.01.2020
5003 Clouds 27 1013 78 10000 2.6 90 01:40 09.01.2020
5004 Clouds 26 1013 78 10000 4.14 74 00:44 09.01.2020
5005 Clouds 25 1013 78 10000 4.14 74 00:22 09.01.2020
5006 Clouds 24 1012 83 10000 0.5 0 23:56 08.01.2020
5007 Clouds 24 1012 83 10000 0.5 0 23:37 08.01.2020
5008 Clouds 24 1012 83 10000 0.5 0 23:19 08.01.2020
5009 Clouds 25 1012 78 10000 0.5 0 22:39 08.01.2020
5010 Clouds 25 1012 78 10000 0.5 0 22:21 08.01.2020
5011 Clouds 25 1012 78 10000 1.5 70 21:58 08.01.2020
5012 Clouds 25 1012 78 10000 1.5 70 21:38 08.01.2020
5013 Clouds 25 1012 78 10000 1.5 70 21:20 08.01.2020
5014 Clouds 25 1012 74 10000 2.1 10 20:58 08.01.2020
5015 Clouds 26 1012 74 10000 2.1 10 20:39 08.01.2020
5016 Clouds 26 1012 74 10000 2.1 10 20:20 08.01.2020
5017 Clouds 25 1013 78 10000 3.16 66 19:56 08.01.2020
5018 Clouds 25 1013 78 10000 3.16 66 19:37 08.01.2020
5019 Clouds 25 1013 78 10000 3.16 66 19:19 08.01.2020
5020 Clouds 25 1013 78 10000 3.16 66 19:19 08.01.2020
5021 Clouds 26 1013 74 10000 1 0 18:55 08.01.2020
5022 Clouds 26 1013 74 10000 1 0 18:37 08.01.2020
5023 Clouds 26 1013 74 10000 1 0 18:18 08.01.2020
5024 Clouds 26 1013 74 10000 2.1 130 17:48 08.01.2020
5025 Clouds 26 1013 74 10000 2.1 130 17:24 08.01.2020
5026 Clouds 26 1013 74 10000 2.1 120 16:58 08.01.2020
5027 Clouds 26 1013 74 10000 2.1 120 16:39 08.01.2020
5028 Clouds 26 1013 74 10000 2.1 120 16:19 08.01.2020
5029 Clouds 26 1013 78 10000 1.5 0 15:59 08.01.2020
5030 Clouds 26 1013 78 10000 1.5 0 15:40 08.01.2020
5031 Clouds 26 1013 78 10000 1.5 0 15:20 08.01.2020
5032 Clouds 27 1013 69 10000 3.6 90 14:56 08.01.2020
5033 Clouds 27 1013 69 10000 3.6 90 14:38 08.01.2020
5034 Clouds 27 1013 69 10000 3.6 90 14:19 08.01.2020
5035 Clouds 27 1012 65 10000 2.6 90 13:39 08.01.2020
5036 Clouds 27 1012 65 10000 2.6 90 13:19 08.01.2020
5037 Clouds 27 1012 69 10000 2.1 100 12:42 08.01.2020
5038 Clouds 27 1012 69 10000 2.1 100 12:19 08.01.2020
5039 Clouds 27 1011 69 10000 4.1 90 11:55 08.01.2020
5040 Clouds 27 1011 69 10000 4.1 90 11:37 08.01.2020
5041 Clouds 27 1011 69 10000 4.1 90 11:18 08.01.2020
5042 Clouds 28 1011 66 10000 4.1 90 10:54 08.01.2020
5043 Clouds 28 1011 66 10000 4.1 90 10:36 08.01.2020
5044 Clouds 29 1011 66 10000 4.1 90 10:18 08.01.2020
5045 Clouds 29 1010 66 10000 4.6 100 09:41 08.01.2020
5046 Clouds 29 1010 66 10000 4.6 100 09:19 08.01.2020
5047 Clouds 29 1010 66 10000 4.6 100 09:19 08.01.2020
5048 Clouds 30 1010 62 10000 2.6 0 08:55 08.01.2020
5049 Clouds 30 1010 62 10000 2.6 0 08:36 08.01.2020
5050 Clouds 30 1010 62 10000 2.6 0 08:18 08.01.2020
5051 Clouds 30 1011 70 10000 2.6 0 07:43 08.01.2020
5052 Clouds 30 1011 70 10000 2.6 0 07:23 08.01.2020
5053 Clouds 29 1012 74 10000 3.6 140 06:44 08.01.2020
5054 Clouds 29 1012 70 10000 4.1 310 05:59 08.01.2020
5055 Clouds 29 1012 70 10000 4.1 310 05:28 08.01.2020
5056 Clouds 29 1013 74 10000 3.6 270 04:46 08.01.2020
5057 Clouds 29 1014 74 10000 2.1 70 03:32 08.01.2020
5058 Clouds 28 1014 74 10000 2.6 70 02:44 08.01.2020
5059 Clouds 28 1014 74 10000 2.6 70 02:19 08.01.2020
5060 Clouds 27 1013 78 10000 1.5 90 01:39 08.01.2020
5061 Clouds 26 1013 88 10000 1 0 00:53 08.01.2020
5062 Clouds 25 1013 88 10000 1 0 00:26 08.01.2020
5063 Clouds 24 1013 94 10000 2.1 50 23:46 07.01.2020
5064 Clouds 24 1013 94 10000 2.1 50 23:22 07.01.2020
5065 Clouds 25 1013 88 10000 1.5 110 22:58 07.01.2020
5066 Clouds 25 1013 88 10000 1.5 110 22:38 07.01.2020
5067 Clouds 25 1013 88 10000 1.5 110 22:19 07.01.2020
5068 Clouds 25 1013 88 10000 1.5 110 22:19 07.01.2020
5069 Clouds 25 1012 83 10000 2.1 90 21:42 07.01.2020
5070 Clouds 25 1012 83 10000 2.1 90 21:23 07.01.2020
5071 Clouds 26 1012 83 10000 2.1 120 20:59 07.01.2020
5072 Clouds 25 1012 83 10000 2.1 120 20:41 07.01.2020
5073 Clouds 25 1012 83 10000 2.1 120 20:41 07.01.2020
5074 Clouds 25 1012 83 10000 2.1 120 20:22 07.01.2020
5075 Clouds 25 1013 88 10000 2.6 120 19:58 07.01.2020
5076 Clouds 25 1013 88 10000 2.6 120 19:38 07.01.2020
5077 Clouds 25 1013 88 10000 2.6 120 19:19 07.01.2020
5078 Clouds 24 1013 88 10000 2.1 140 18:56 07.01.2020
5079 Clouds 24 1013 88 10000 2.1 140 18:38 07.01.2020
5080 Clouds 24 1013 88 10000 2.1 140 18:18 07.01.2020
5081 Rain 24 1013 94 8000 2.1 100 17:56 07.01.2020
5082 Rain 24 1013 94 8000 2.1 100 17:37 07.01.2020
5083 Rain 24 1013 94 8000 2.1 100 17:18 07.01.2020
5084 Rain 25 1014 74 8000 3.1 110 16:55 07.01.2020
5085 Rain 26 1014 74 8000 3.1 110 16:37 07.01.2020
5086 Rain 27 1014 74 8000 3.1 110 16:18 07.01.2020
5087 Clouds 27 1014 74 10000 2.6 80 15:43 07.01.2020
5088 Clouds 27 1014 74 10000 2.6 80 15:24 07.01.2020
5089 Clouds 27 1014 74 10000 2.6 80 15:24 07.01.2020
5090 Clouds 27 1014 74 10000 3.1 110 14:58 07.01.2020
5091 Clouds 27 1014 74 10000 3.1 110 14:40 07.01.2020
5092 Clouds 27 1014 74 10000 3.1 110 14:20 07.01.2020
5093 Rain 27 1014 78 10000 3.1 0 13:46 07.01.2020
5094 Rain 27 1014 78 10000 3.1 0 13:21 07.01.2020
5095 Clouds 27 1013 74 10000 4.1 120 12:56 07.01.2020
5096 Clouds 27 1013 74 10000 4.1 120 12:37 07.01.2020
5097 Clouds 28 1013 74 10000 4.1 120 12:19 07.01.2020
5098 Clouds 28 1012 74 10000 4.1 120 11:41 07.01.2020
5099 Clouds 28 1012 74 10000 4.1 120 11:22 07.01.2020
5100 Clouds 29 1011 66 10000 4.1 120 10:56 07.01.2020
5101 Clouds 29 1011 66 10000 4.1 120 10:37 07.01.2020
5102 Clouds 29 1011 66 10000 4.1 120 10:37 07.01.2020
5103 Clouds 29 1011 66 10000 4.1 120 10:19 07.01.2020
5104 Clouds 30 1011 62 10000 4.6 90 09:39 07.01.2020
5105 Clouds 30 1011 62 10000 4.6 90 09:21 07.01.2020
5106 Clouds 30 1011 62 10000 3.6 120 08:57 07.01.2020
5107 Clouds 30 1011 62 10000 3.6 120 08:37 07.01.2020
5108 Clouds 30 1011 62 10000 3.6 120 08:37 07.01.2020
5109 Clouds 30 1011 62 10000 3.6 120 08:18 07.01.2020
5110 Clouds 31 1013 58 10000 1.5 0 07:42 07.01.2020
5111 Clouds 31 1013 58 10000 1.5 0 07:42 07.01.2020
5112 Clouds 30 1012 66 10000 1.5 0 06:57 07.01.2020
5113 Clouds 30 1012 66 10000 1.5 0 06:35 07.01.2020
5114 Clouds 31 1013 62 8000 4.1 280 05:59 07.01.2020
5115 Clouds 31 1013 62 8000 4.1 280 05:40 07.01.2020
5116 Clouds 31 1014 58 9000 2.1 40 03:45 07.01.2020
5117 Clouds 29 1014 62 9000 2.1 350 02:47 07.01.2020
5118 Clouds 28 1014 69 9000 1 0 01:59 07.01.2020
5119 Clouds 27 1014 69 9000 1 0 01:36 07.01.2020
5120 Clouds 26 1014 74 9000 2.1 20 00:55 07.01.2020
5121 Clouds 25 1014 74 9000 2.1 20 00:20 07.01.2020
5122 Clouds 24 1013 78 10000 2.1 330 23:56 06.01.2020
5123 Clouds 24 1013 78 10000 2.1 330 23:37 06.01.2020
5124 Clouds 24 1013 78 10000 2.1 330 23:19 06.01.2020
5125 Clouds 24 1013 78 10000 0.5 0 22:43 06.01.2020
5126 Clouds 24 1013 78 10000 0.5 0 22:24 06.01.2020
5127 Clouds 24 1013 78 10000 0.5 0 22:24 06.01.2020
5128 Clouds 24 1013 78 10000 0.5 0 22:24 06.01.2020
5129 Clouds 24 1013 78 10000 0.5 0 21:58 06.01.2020
5130 Clouds 24 1013 78 10000 0.5 0 21:39 06.01.2020
5131 Clouds 24 1013 78 10000 0.5 0 21:20 06.01.2020
5132 Clouds 24 1013 78 10000 0.5 0 21:20 06.01.2020
5133 Clouds 25 1013 78 10000 1.64 52 20:57 06.01.2020
5134 Clouds 25 1013 78 10000 1.64 52 20:38 06.01.2020
5135 Clouds 25 1013 78 10000 1.63 34 20:20 06.01.2020
5136 Clouds 25 1013 78 10000 0.5 0 19:56 06.01.2020
5137 Clouds 25 1013 78 10000 0.5 0 19:38 06.01.2020
5138 Clouds 25 1013 78 10000 0.5 0 19:20 06.01.2020
5139 Clouds 26 1013 74 10000 1 0 18:48 06.01.2020
5140 Clouds 26 1013 74 10000 1 0 18:22 06.01.2020
5141 Clouds 26 1014 74 10000 2.6 120 17:58 06.01.2020
5142 Clouds 26 1014 74 10000 2.6 120 17:38 06.01.2020
5143 Clouds 26 1014 74 10000 2.6 120 17:18 06.01.2020
5144 Clouds 26 1014 69 10000 2.1 120 16:44 06.01.2020
5145 Clouds 27 1014 69 10000 2.1 120 16:25 06.01.2020
5146 Clouds 27 1014 69 10000 2.1 120 16:25 06.01.2020
5147 Clouds 27 1014 69 10000 1.5 110 15:59 06.01.2020
5148 Clouds 27 1014 69 10000 1.5 110 15:39 06.01.2020
5149 Clouds 27 1014 69 10000 1.5 110 15:18 06.01.2020
5150 Clouds 27 1014 69 10000 3.6 100 14:56 06.01.2020
5151 Clouds 27 1014 69 10000 3.6 100 14:37 06.01.2020
5152 Clouds 27 1014 69 10000 3.6 100 14:18 06.01.2020
5153 Clouds 27 1014 69 10000 3.6 100 14:18 06.01.2020
5154 Clouds 27 1012 74 10000 5.7 60 13:41 06.01.2020
5155 Clouds 27 1012 74 10000 5.7 60 13:22 06.01.2020
5156 Clouds 27 1013 65 10000 3.1 120 12:59 06.01.2020
5157 Clouds 27 1013 65 10000 3.1 120 12:41 06.01.2020
5158 Clouds 28 1013 65 10000 3.1 120 12:20 06.01.2020
5159 Clouds 28 1012 58 10000 4.1 80 11:55 06.01.2020
5160 Clouds 28 1012 58 10000 4.1 80 11:37 06.01.2020
5161 Clouds 28 1012 58 10000 4.1 80 11:18 06.01.2020
5162 Clouds 29 1012 55 10000 5.1 80 10:42 06.01.2020
5163 Clouds 29 1012 55 10000 5.1 80 10:21 06.01.2020
5164 Clouds 30 1011 52 10000 5.7 80 09:42 06.01.2020
5165 Clouds 31 1011 52 10000 5.7 80 09:24 06.01.2020
5166 Clouds 31 1011 49 10000 5.1 90 08:57 06.01.2020
5167 Clouds 31 1011 49 10000 5.1 90 08:38 06.01.2020
5168 Clouds 31 1011 49 10000 5.1 90 08:38 06.01.2020
5169 Clouds 31 1011 49 10000 5.1 90 08:19 06.01.2020
5170 Clouds 31 1012 49 10000 5.1 100 07:44 06.01.2020
5171 Clouds 31 1013 52 10000 5.7 110 06:53 06.01.2020
5172 Clouds 31 1013 52 10000 5.7 110 06:35 06.01.2020
5173 Clouds 31 1013 55 10000 5.7 70 05:48 06.01.2020
5174 Clouds 31 1013 55 10000 5.7 70 05:23 06.01.2020
5175 Clouds 31 1015 52 10000 5.1 90 04:23 06.01.2020
5176 Clouds 30 1015 55 10000 6.2 90 03:30 06.01.2020
5177 Clouds 29 1015 58 10000 4.6 90 02:27 06.01.2020
5178 Clouds 28 1015 61 10000 3.1 120 01:53 06.01.2020
5179 Clouds 28 1015 61 10000 3.1 120 01:30 06.01.2020
5180 Clouds 27 1014 65 10000 3.1 100 00:46 06.01.2020
5181 Clouds 27 1014 65 10000 3.1 100 00:27 06.01.2020
5182 Clouds 26 1014 65 10000 2.6 110 23:57 05.01.2020
5183 Clouds 26 1014 65 10000 2.6 110 23:38 05.01.2020
5184 Clouds 26 1014 65 10000 2.6 110 23:19 05.01.2020
5185 Clouds 26 1013 69 10000 2.6 110 22:40 05.01.2020
5186 Clouds 26 1013 69 10000 2.6 110 22:40 05.01.2020
5187 Clouds 26 1013 69 10000 2.6 110 22:20 05.01.2020
5188 Clouds 26 1013 74 10000 1.5 100 21:56 05.01.2020
5189 Clouds 26 1013 74 10000 1.5 100 21:38 05.01.2020
5190 Clouds 26 1013 74 10000 1.5 100 21:20 05.01.2020
5191 Clouds 26 1013 74 10000 1.5 110 20:56 05.01.2020
5192 Clouds 26 1013 74 10000 1.5 110 20:38 05.01.2020
5193 Clouds 26 1013 69 10000 2.1 100 20:19 05.01.2020
5194 Clouds 26 1013 69 10000 2.1 100 19:57 05.01.2020
5195 Clouds 26 1013 69 10000 2.1 100 19:38 05.01.2020
5196 Clouds 27 1013 69 10000 2.1 100 19:19 05.01.2020
5197 Clouds 27 1014 69 10000 3.6 110 18:55 05.01.2020
5198 Clouds 27 1014 69 10000 3.6 110 18:36 05.01.2020
5199 Clouds 27 1014 69 10000 3.6 110 18:18 05.01.2020
5200 Clouds 26 1014 74 10000 3.6 110 17:57 05.01.2020
5201 Clouds 26 1014 74 10000 3.6 110 17:37 05.01.2020
5202 Clouds 26 1014 74 10000 3.6 110 17:19 05.01.2020
5203 Clouds 26 1014 74 10000 3.6 110 17:19 05.01.2020
5204 Clouds 27 1015 74 10000 4.1 100 16:55 05.01.2020
5205 Clouds 27 1015 74 10000 4.1 100 16:37 05.01.2020
5206 Clouds 27 1015 74 10000 4.1 100 16:19 05.01.2020
5207 Clouds 27 1015 74 10000 4.1 100 16:19 05.01.2020
5208 Clouds 27 1015 74 10000 4.1 100 15:37 05.01.2020
5209 Clouds 27 1015 74 10000 4.1 100 15:18 05.01.2020
5210 Clouds 27 1014 74 10000 2.6 110 14:55 05.01.2020
5211 Clouds 27 1014 74 10000 2.6 110 14:36 05.01.2020
5212 Clouds 27 1014 74 10000 2.6 110 14:18 05.01.2020
5213 Clouds 27 1014 74 10000 3.1 110 13:40 05.01.2020
5214 Clouds 27 1014 74 10000 3.1 110 13:21 05.01.2020
5215 Clouds 27 1013 69 10000 2.6 100 12:58 05.01.2020
5216 Clouds 27 1013 69 10000 2.6 100 12:39 05.01.2020
5217 Clouds 27 1013 69 10000 2.6 100 12:21 05.01.2020
5218 Clouds 27 1013 69 10000 4.1 120 11:58 05.01.2020
5219 Clouds 27 1013 69 10000 4.1 120 11:39 05.01.2020
5220 Clouds 27 1013 69 10000 4.1 120 11:39 05.01.2020
5221 Clouds 27 1013 69 10000 4.1 120 11:19 05.01.2020
5222 Clouds 28 1012 62 10000 5.1 100 10:56 05.01.2020
5223 Clouds 28 1012 62 10000 5.1 100 10:36 05.01.2020
5224 Clouds 28 1012 62 10000 5.1 100 10:36 05.01.2020
5225 Clouds 28 1012 62 10000 5.1 100 10:18 05.01.2020
5226 Clouds 29 1012 55 10000 5.7 90 09:41 05.01.2020
5227 Clouds 30 1012 55 10000 5.7 90 09:21 05.01.2020
5228 Clouds 30 1012 52 10000 6.7 80 08:46 05.01.2020
5229 Clouds 30 1012 52 10000 6.7 80 08:27 05.01.2020
5230 Clouds 30 1012 51 10000 7.7 80 07:55 05.01.2020
5231 Clouds 30 1012 51 10000 7.7 80 07:35 05.01.2020
5232 Clouds 30 1013 55 10000 7.7 80 06:58 05.01.2020
5233 Clouds 30 1014 55 10000 7.7 80 05:55 05.01.2020
5234 Clouds 30 1014 55 10000 7.7 80 05:30 05.01.2020
5235 Clouds 29 1014 58 10000 5.7 80 04:34 05.01.2020
5236 Clouds 29 1015 62 10000 5.7 80 03:47 05.01.2020
5237 Clouds 29 1015 58 10000 3.1 80 02:43 05.01.2020
5238 Clouds 28 1015 58 10000 3.1 80 02:20 05.01.2020
5239 Clouds 27 1015 69 10000 2.6 70 01:40 05.01.2020
5240 Clouds 26 1015 69 10000 2.6 70 01:18 05.01.2020
5241 Clouds 26 1014 74 10000 2.1 100 00:40 05.01.2020
5242 Clouds 25 1014 74 10000 2.1 100 00:21 05.01.2020
5243 Clouds 25 1013 83 10000 1.5 100 23:59 04.01.2020
5244 Clouds 25 1013 83 10000 1.5 100 23:39 04.01.2020
5245 Clouds 24 1013 83 10000 1.5 100 23:18 04.01.2020
5246 Clouds 24 1013 83 10000 1.5 80 22:39 04.01.2020
5247 Clouds 24 1013 83 10000 1.5 80 22:39 04.01.2020
5248 Clouds 24 1013 83 10000 1.5 80 22:21 04.01.2020
5249 Clouds 24 1013 83 10000 1 120 21:57 04.01.2020
5250 Clouds 24 1013 83 10000 1 120 21:57 04.01.2020
5251 Clouds 24 1013 83 10000 1 120 21:38 04.01.2020
5252 Clouds 24 1013 83 10000 1 120 21:19 04.01.2020
5253 Clouds 25 1013 83 10000 1 0 20:56 04.01.2020
5254 Clouds 25 1013 83 10000 1 0 20:37 04.01.2020
5255 Clouds 25 1013 83 10000 1 0 20:19 04.01.2020
5256 Clouds 25 1013 83 10000 3.1 70 19:42 04.01.2020
5257 Clouds 25 1013 83 10000 3.1 70 19:42 04.01.2020
5258 Clouds 25 1013 83 10000 3.1 70 19:23 04.01.2020
5259 Clouds 25 1013 83 10000 4.1 70 18:58 04.01.2020
5260 Clouds 25 1013 83 10000 4.1 70 18:39 04.01.2020
5261 Clouds 25 1013 83 10000 4.1 70 18:20 04.01.2020
5262 Clouds 25 1013 83 10000 3.6 110 17:58 04.01.2020
5263 Clouds 25 1013 83 10000 3.6 110 17:40 04.01.2020
5264 Clouds 25 1013 83 10000 3.6 110 17:21 04.01.2020
5265 Rain 25 1014 88 9000 3.6 120 16:42 04.01.2020
5266 Rain 25 1014 88 9000 3.6 120 16:24 04.01.2020
5267 Rain 25 1014 88 9000 3.6 120 16:24 04.01.2020
5268 Clouds 26 1014 83 10000 3.6 110 15:57 04.01.2020
5269 Clouds 26 1014 83 10000 3.6 110 15:39 04.01.2020
5270 Clouds 26 1014 83 10000 3.6 110 15:39 04.01.2020
5271 Clouds 26 1014 83 10000 3.6 110 15:19 04.01.2020
5272 Clouds 27 1014 74 10000 3.1 100 14:57 04.01.2020
5273 Clouds 26 1014 74 10000 3.1 100 14:39 04.01.2020
5274 Clouds 26 1014 74 10000 3.1 100 14:19 04.01.2020
5275 Clouds 27 1013 65 10000 3.1 110 13:55 04.01.2020
5276 Clouds 27 1013 65 10000 3.1 110 13:37 04.01.2020
5277 Clouds 27 1013 65 10000 3.1 110 13:37 04.01.2020
5278 Clouds 27 1013 65 10000 3.1 110 13:18 04.01.2020
5279 Clouds 27 1013 65 10000 3.1 110 13:18 04.01.2020
5280 Clouds 27 1012 65 10000 2.6 70 12:42 04.01.2020
5281 Clouds 27 1012 65 10000 2.6 70 12:20 04.01.2020
5282 Clouds 27 1012 65 10000 2.6 70 12:20 04.01.2020
5283 Clouds 27 1012 61 10000 5.1 80 11:59 04.01.2020
5284 Clouds 27 1012 61 10000 5.1 80 11:40 04.01.2020
5285 Clouds 28 1012 61 10000 5.1 80 11:19 04.01.2020
5286 Clouds 28 1011 66 10000 3.6 110 10:55 04.01.2020
5287 Clouds 28 1011 66 10000 3.6 110 10:55 04.01.2020
5288 Clouds 28 1011 66 10000 3.6 110 10:36 04.01.2020
5289 Clouds 29 1011 66 10000 3.6 110 10:18 04.01.2020
5290 Clouds 29 1011 62 10000 4.1 0 09:41 04.01.2020
5291 Clouds 29 1011 62 10000 4.1 0 09:22 04.01.2020
5292 Clouds 30 1011 58 10000 2.1 0 08:42 04.01.2020
5293 Clouds 31 1011 58 10000 2.1 0 08:21 04.01.2020
5294 Clouds 31 1011 55 10000 4.6 100 07:44 04.01.2020
5295 Clouds 31 1011 55 10000 4.6 100 07:21 04.01.2020
5296 Clouds 31 1012 55 10000 3.6 100 06:33 04.01.2020
5297 Clouds 30 1013 62 10000 1.5 290 05:39 04.01.2020
5298 Clouds 29 1014 65 10000 3.6 270 04:44 04.01.2020
5299 Clouds 29 1014 65 10000 3.6 270 04:26 04.01.2020
5300 Clouds 29 1015 61 10000 1.5 0 03:19 04.01.2020
5301 Clouds 28 1015 61 10000 1.5 60 02:23 04.01.2020
5302 Clouds 26 1015 69 10000 1.5 0 01:56 04.01.2020
5303 Clouds 26 1015 69 10000 1.5 0 01:32 04.01.2020
5304 Clouds 24 1014 73 10000 2.6 20 00:46 04.01.2020
5305 Clouds 24 1014 73 10000 2.6 20 00:27 04.01.2020
5306 Clouds 23 1013 73 10000 2.6 10 23:48 03.01.2020
5307 Clouds 23 1013 73 10000 2.6 10 23:26 03.01.2020
5308 Clouds 24 1013 69 10000 3.1 10 22:54 03.01.2020
5309 Clouds 24 1013 69 10000 3.1 10 22:36 03.01.2020
5310 Clouds 24 1013 69 10000 3.1 10 22:18 03.01.2020
5311 Clouds 24 1013 69 10000 3.1 10 22:18 03.01.2020
5312 Clouds 24 1013 69 10000 2.6 360 21:54 03.01.2020
5313 Clouds 24 1013 69 10000 2.6 360 21:36 03.01.2020
5314 Clouds 24 1013 69 10000 2.6 360 21:18 03.01.2020
5315 Clouds 24 1013 73 10000 1 0 20:43 03.01.2020
5316 Clouds 24 1013 73 10000 1 0 20:19 03.01.2020
5317 Clouds 24 1013 73 10000 2.1 320 19:58 03.01.2020
5318 Clouds 24 1013 73 10000 2.1 320 19:39 03.01.2020
5319 Clouds 24 1013 73 10000 2.1 320 19:21 03.01.2020
5320 Clouds 24 1014 73 10000 1.5 250 18:44 03.01.2020
5321 Clouds 24 1014 73 10000 1.5 250 18:44 03.01.2020
5322 Clouds 24 1014 73 10000 1.5 250 18:26 03.01.2020
5323 Clouds 24 1014 73 10000 1.5 220 17:57 03.01.2020
5324 Clouds 25 1014 73 10000 1.5 220 17:39 03.01.2020
5325 Clouds 25 1014 73 10000 1.5 220 17:19 03.01.2020
5326 Clouds 25 1015 65 10000 1.5 110 16:43 03.01.2020
5327 Clouds 25 1015 65 10000 1.5 110 16:24 03.01.2020
5328 Clouds 25 1015 65 10000 1.5 100 15:58 03.01.2020
5329 Clouds 25 1015 65 10000 1.5 100 15:58 03.01.2020
5330 Clouds 25 1015 65 10000 1.5 100 15:40 03.01.2020
5331 Clouds 26 1015 65 10000 1.5 100 15:18 03.01.2020
5332 Clouds 25 1015 69 10000 3.1 60 14:39 03.01.2020
5333 Clouds 26 1015 69 10000 3.1 60 14:20 03.01.2020
5334 Clouds 26 1015 65 10000 3.1 70 13:56 03.01.2020
5335 Clouds 26 1015 65 10000 3.1 70 13:37 03.01.2020
5336 Clouds 26 1015 65 10000 3.1 70 13:19 03.01.2020
5337 Clouds 27 1014 61 10000 3.1 80 12:39 03.01.2020
5338 Clouds 27 1014 61 10000 3.1 80 12:21 03.01.2020
5339 Clouds 27 1014 58 10000 3.1 80 11:48 03.01.2020
5340 Clouds 27 1014 58 10000 3.1 80 11:29 03.01.2020
5341 Clouds 29 1014 51 10000 5.1 70 10:47 03.01.2020
5342 Clouds 29 1014 51 10000 5.1 70 10:28 03.01.2020
5343 Clouds 29 1013 51 10000 6.7 80 09:59 03.01.2020
5344 Clouds 29 1013 51 10000 6.7 80 09:41 03.01.2020
5345 Clouds 30 1013 51 10000 6.7 80 09:22 03.01.2020
5346 Clouds 31 1013 49 10000 5.1 90 08:57 03.01.2020
5347 Clouds 31 1013 49 10000 5.1 90 08:38 03.01.2020
5348 Clouds 31 1013 49 10000 5.1 90 08:19 03.01.2020
5349 Clouds 31 1013 49 10000 5.1 100 07:40 03.01.2020
5350 Clouds 32 1013 49 10000 5.1 100 07:19 03.01.2020
5351 Clouds 31 1014 52 10000 7.7 80 06:51 03.01.2020
5352 Clouds 31 1014 52 10000 7.7 80 06:33 03.01.2020
5353 Clouds 31 1015 48 10000 7.2 80 05:47 03.01.2020
5354 Clouds 31 1016 48 10000 7.2 80 04:27 03.01.2020
5355 Clouds 29 1016 65 10000 1.5 60 02:59 03.01.2020
5356 Clouds 28 1016 65 10000 1.5 60 02:41 03.01.2020
5357 Clouds 28 1016 65 10000 1.5 60 01:45 03.01.2020
5358 Clouds 26 1016 73 10000 3.1 59 00:53 03.01.2020
5359 Clouds 25 1016 73 10000 3.1 59 00:31 03.01.2020
5360 Clouds 25 1015 73 10000 1 0 23:57 02.01.2020
5361 Clouds 25 1015 73 10000 1 0 23:38 02.01.2020
5362 Clouds 25 1015 73 10000 1 0 23:19 02.01.2020
5363 Clouds 25 1014 73 10000 1 0 22:57 02.01.2020
5364 Clouds 25 1014 73 10000 1 0 22:38 02.01.2020
5365 Clouds 25 1014 73 10000 1 0 22:18 02.01.2020
5366 Clouds 25 1015 69 10000 1 0 21:41 02.01.2020
5367 Clouds 25 1015 69 10000 1 0 21:23 02.01.2020
5368 Clouds 25 1014 73 10000 1 350 20:59 02.01.2020
5369 Clouds 25 1014 73 10000 1 350 20:59 02.01.2020
5370 Clouds 25 1014 73 10000 1 350 20:59 02.01.2020
5371 Clouds 25 1014 73 10000 1 350 20:39 02.01.2020
5372 Clouds 25 1014 73 10000 1 350 20:21 02.01.2020
5373 Clouds 25 1014 73 10000 1 350 20:21 02.01.2020
5374 Clouds 26 1015 65 10000 2.1 90 19:56 02.01.2020
5375 Clouds 26 1015 65 10000 2.1 90 19:38 02.01.2020
5376 Clouds 26 1015 65 10000 2.1 90 19:19 02.01.2020
5377 Clouds 26 1016 65 10000 2.1 40 18:58 02.01.2020
5378 Clouds 26 1016 65 10000 2.1 40 18:58 02.01.2020
5379 Clouds 26 1016 65 10000 2.1 40 18:39 02.01.2020
5380 Clouds 26 1016 65 10000 2.1 40 18:21 02.01.2020
5381 Clouds 26 1016 65 10000 1 0 17:56 02.01.2020
5382 Clouds 26 1016 65 10000 1 0 17:37 02.01.2020
5383 Clouds 26 1016 65 10000 1 0 17:19 02.01.2020
5384 Clouds 26 1016 65 10000 1.5 110 16:56 02.01.2020
5385 Clouds 26 1016 65 10000 1.5 110 16:38 02.01.2020
5386 Clouds 26 1016 65 10000 1.5 110 16:20 02.01.2020
5387 Clouds 26 1017 65 10000 2.1 90 15:45 02.01.2020
5388 Clouds 27 1017 65 10000 2.1 90 15:24 02.01.2020
5389 Clouds 27 1017 69 10000 2.6 80 14:59 02.01.2020
5390 Clouds 27 1017 69 10000 2.6 80 14:39 02.01.2020
5391 Clouds 27 1017 69 10000 2.6 80 14:39 02.01.2020
5392 Clouds 27 1017 69 10000 2.6 80 14:21 02.01.2020
5393 Clouds 27 1016 61 10000 2.6 90 13:58 02.01.2020
5394 Clouds 27 1016 61 10000 2.6 90 13:40 02.01.2020
5395 Clouds 27 1016 61 10000 2.6 90 13:19 02.01.2020
5396 Clouds 27 1016 61 10000 2.6 100 12:43 02.01.2020
5397 Clouds 28 1015 58 10000 4.6 80 12:23 02.01.2020
5398 Clouds 28 1015 58 10000 4.6 80 11:42 02.01.2020
5399 Clouds 28 1015 58 10000 4.6 80 11:23 02.01.2020
5400 Clouds 29 1014 55 10000 6.7 70 10:46 02.01.2020
5401 Clouds 29 1014 55 10000 6.7 70 10:28 02.01.2020
5402 Clouds 30 1014 58 10000 7.7 70 09:58 02.01.2020
5403 Clouds 30 1014 58 10000 7.7 70 09:36 02.01.2020
5404 Clouds 30 1014 58 10000 5.1 80 08:59 02.01.2020
5405 Clouds 30 1014 58 10000 5.1 80 08:40 02.01.2020
5406 Clouds 31 1014 58 10000 5.1 80 08:21 02.01.2020
5407 Clouds 31 1014 55 10000 6.2 90 07:47 02.01.2020
5408 Clouds 31 1014 55 10000 6.2 90 07:27 02.01.2020
5409 Clouds 30 1015 62 10000 6.7 70 06:43 02.01.2020
5410 Clouds 30 1016 62 10000 5.1 90 05:42 02.01.2020
5411 Clouds 30 1017 66 10000 5.7 70 04:36 02.01.2020
5412 Clouds 30 1018 62 10000 4.6 80 03:44 02.01.2020
5413 Clouds 29 1018 69 10000 4.1 70 02:21 02.01.2020
5414 Clouds 28 1018 78 10000 2.6 80 01:53 02.01.2020
5415 Clouds 27 1018 78 10000 2.6 80 01:25 02.01.2020
5416 Clouds 25 1017 88 10000 1 0 00:45 02.01.2020
5417 Clouds 25 1017 88 10000 1 0 00:26 02.01.2020
5418 Rain 25 1016 88 10000 6.38 78 23:43 01.01.2020
5419 Rain 25 1016 88 10000 6.38 78 23:23 01.01.2020
5420 Rain 25 1016 88 10000 5.52 76 22:39 01.01.2020
5421 Rain 25 1016 88 10000 5.52 76 22:39 01.01.2020
5422 Rain 25 1016 88 10000 5.52 76 22:20 01.01.2020
5423 Rain 25 1015 94 9000 1 0 21:58 01.01.2020
5424 Rain 25 1015 94 9000 1 0 21:39 01.01.2020
5425 Clouds 25 1015 83 50 5.52 76 21:20 01.01.2020
5426 Clouds 25 1015 88 10000 1 0 20:57 01.01.2020
5427 Clouds 25 1015 88 10000 1 0 20:38 01.01.2020
5428 Clouds 25 1015 88 10000 1 0 20:20 01.01.2020
5429 Rain 25 1017 83 10000 1 0 19:57 01.01.2020
5430 Rain 26 1017 83 10000 1 0 19:38 01.01.2020
5431 Rain 26 1017 83 10000 1 0 19:20 01.01.2020
5432 Clouds 26 1016 83 10000 1 0 18:57 01.01.2020
5433 Clouds 26 1016 83 10000 1 0 18:37 01.01.2020
5434 Clouds 26 1016 83 10000 1 0 18:19 01.01.2020
5435 Rain 26 1017 83 10000 4.03 78 17:57 01.01.2020
5436 Rain 26 1017 83 10000 4.03 78 17:39 01.01.2020
5437 Rain 26 1017 83 10000 4.77 68 17:19 01.01.2020
5438 Clouds 26 1017 88 10000 1 0 16:56 01.01.2020
5439 Clouds 26 1017 88 10000 1 0 16:56 01.01.2020
5440 Clouds 26 1017 88 10000 1 0 16:37 01.01.2020
5441 Clouds 26 1017 88 10000 1 0 16:19 01.01.2020
5442 Clouds 26 1017 88 10000 1 0 15:54 01.01.2020
5443 Clouds 26 1017 88 10000 1 0 15:36 01.01.2020
5444 Clouds 26 1017 88 10000 1 0 15:18 01.01.2020
5445 Rain 27 1017 78 10000 2.1 200 14:41 01.01.2020
5446 Rain 27 1017 78 10000 2.1 200 14:22 01.01.2020
5447 Rain 27 1017 83 10000 1.5 250 13:56 01.01.2020
5448 Rain 27 1017 83 10000 1.5 250 13:56 01.01.2020
5449 Rain 27 1017 83 10000 1.5 250 13:56 01.01.2020
5450 Rain 27 1017 83 10000 1.5 250 13:37 01.01.2020
5451 Rain 27 1017 83 10000 1.5 250 13:19 01.01.2020
5452 Clouds 27 1016 78 10000 1.5 220 12:57 01.01.2020
5453 Clouds 27 1016 78 10000 1.5 220 12:39 01.01.2020
5454 Clouds 27 1016 78 10000 1.5 220 12:19 01.01.2020
5455 Clouds 27 1016 78 10000 1.5 220 12:19 01.01.2020
5456 Clouds 27 1015 74 10000 2.6 20 11:56 01.01.2020
5457 Clouds 27 1015 74 10000 2.6 20 11:37 01.01.2020
5458 Clouds 27 1015 74 10000 2.6 20 11:18 01.01.2020
5459 Clouds 28 1015 74 10000 3.1 360 10:41 01.01.2020
5460 Clouds 28 1015 74 10000 3.1 360 10:21 01.01.2020
5461 Clouds 28 1014 74 10000 1.5 220 09:59 01.01.2020
5462 Clouds 28 1014 74 10000 1.5 220 09:38 01.01.2020
5463 Clouds 28 1014 74 10000 1.5 220 09:19 01.01.2020
5464 Rain 28 1014 78 10000 2.1 270 08:56 01.01.2020
5465 Rain 28 1014 78 10000 2.1 270 08:37 01.01.2020
5466 Rain 28 1014 78 10000 2.1 270 08:19 01.01.2020
5467 Rain 28 1014 78 9000 1.5 320 07:54 01.01.2020
5468 Rain 28 1014 78 9000 1.5 320 07:36 01.01.2020
5469 Rain 28 1015 74 9000 1.5 230 06:45 01.01.2020
5470 Rain 29 1015 74 9000 1.5 230 06:21 01.01.2020
5471 Rain 29 1016 66 10000 1 0 05:22 01.01.2020
5472 Clouds 29 1017 78 10000 1.5 350 03:46 01.01.2020
5473 Clouds 29 1017 78 10000 1.5 350 03:23 01.01.2020
5474 Clouds 27 1017 83 10000 1.5 10 02:57 01.01.2020
5475 Clouds 27 1017 83 10000 1.5 10 02:35 01.01.2020
5476 Rain 26 1017 88 8000 1.5 160 01:56 01.01.2020
5477 Rain 26 1017 88 8000 1.5 160 01:38 01.01.2020
5478 Rain 25 1017 88 8000 1.5 160 01:19 01.01.2020
5479 Rain 25 1016 88 9000 1 130 00:44 01.01.2020
5480 Rain 25 1016 88 9000 1 130 00:25 01.01.2020
5481 Clouds 26 1015 78 10000 3.1 20 23:41 31.12.2019
5482 Clouds 26 1015 78 10000 3.1 20 23:21 31.12.2019
5483 Clouds 26 1014 78 6000 0.5 0 22:57 31.12.2019
5484 Clouds 26 1014 78 6000 0.5 0 22:39 31.12.2019
5485 Clouds 26 1014 78 6000 0.5 0 22:20 31.12.2019
5486 Clouds 26 1014 78 6000 0.5 0 21:57 31.12.2019
5487 Clouds 26 1014 78 6000 0.5 0 21:38 31.12.2019
5488 Clouds 26 1014 78 6000 0.5 0 21:38 31.12.2019
5489 Clouds 26 1014 78 6000 0.5 0 21:20 31.12.2019
5490 Clouds 26 1014 78 6000 1 0 20:55 31.12.2019
5491 Clouds 26 1014 78 6000 1 0 20:36 31.12.2019
5492 Clouds 26 1014 78 6000 1 0 20:18 31.12.2019
5493 Clouds 26 1015 78 7000 1 0 19:42 31.12.2019
5494 Clouds 26 1015 78 7000 1 0 19:24 31.12.2019
5495 Clouds 26 1015 74 7000 2.1 80 18:59 31.12.2019
5496 Clouds 26 1015 74 7000 2.1 80 18:40 31.12.2019
5497 Clouds 27 1015 74 7000 2.1 80 18:20 31.12.2019
5498 Clouds 26 1016 78 10000 1.5 70 17:57 31.12.2019
5499 Clouds 26 1016 78 10000 1.5 70 17:38 31.12.2019
5500 Clouds 26 1016 78 10000 1.5 70 17:19 31.12.2019
5501 Clouds 26 1016 78 10000 3.92 73 16:57 31.12.2019
5502 Clouds 26 1016 78 10000 3.92 73 16:38 31.12.2019
5503 Clouds 26 1016 78 10000 3.92 73 16:19 31.12.2019
5504 Clouds 27 1016 78 10000 1 0 15:57 31.12.2019
5505 Clouds 26 1016 78 10000 1 0 15:38 31.12.2019
5506 Clouds 27 1016 78 10000 1 0 15:20 31.12.2019
5507 Clouds 27 1016 74 10000 2.1 70 14:58 31.12.2019
5508 Clouds 27 1016 74 10000 2.1 70 14:38 31.12.2019
5509 Clouds 27 1016 74 10000 2.1 70 14:19 31.12.2019
5510 Clouds 27 1016 69 10000 1.5 120 13:57 31.12.2019
5511 Clouds 27 1016 69 10000 1.5 120 13:39 31.12.2019
5512 Clouds 27 1016 69 10000 1.5 120 13:21 31.12.2019
5513 Clouds 27 1016 69 10000 1.5 120 13:21 31.12.2019
5514 Clouds 28 1015 62 10000 3.1 80 12:58 31.12.2019
5515 Clouds 28 1015 62 10000 3.1 80 12:39 31.12.2019
5516 Clouds 28 1015 62 10000 3.1 80 12:20 31.12.2019
5517 Clouds 28 1015 58 10000 4.1 70 11:56 31.12.2019
5518 Clouds 28 1015 58 10000 4.1 70 11:38 31.12.2019
5519 Clouds 28 1015 58 10000 4.1 70 11:20 31.12.2019
5520 Clouds 29 1015 58 10000 5.1 70 10:57 31.12.2019
5521 Clouds 29 1015 58 10000 5.1 70 10:38 31.12.2019
5522 Clouds 29 1015 58 10000 5.1 70 10:38 31.12.2019
5523 Clouds 29 1015 58 10000 5.1 70 10:20 31.12.2019
5524 Clouds 30 1014 55 10000 4.6 80 09:58 31.12.2019
5525 Clouds 30 1014 55 10000 4.6 80 09:39 31.12.2019
5526 Clouds 30 1014 55 10000 4.6 80 09:39 31.12.2019
5527 Clouds 30 1014 55 10000 4.6 80 09:20 31.12.2019
5528 Clouds 30 1014 70 10000 4.1 30 08:57 31.12.2019
5529 Clouds 30 1014 70 10000 4.1 30 08:37 31.12.2019
5530 Clouds 30 1014 70 10000 4.1 30 08:37 31.12.2019
5531 Clouds 30 1014 70 10000 4.1 30 08:18 31.12.2019
5532 Rain 29 1014 70 10000 5.7 50 07:41 31.12.2019
5533 Rain 29 1014 70 10000 5.7 50 07:19 31.12.2019
5534 Clouds 30 1015 58 10000 4.6 70 06:48 31.12.2019
5535 Clouds 30 1016 58 10000 2.6 90 05:55 31.12.2019
5536 Clouds 30 1017 70 10000 1.5 0 04:27 31.12.2019
5537 Clouds 29 1018 70 10000 1.5 60 03:27 31.12.2019
5538 Clouds 27 1018 78 10000 3.6 60 02:43 31.12.2019
5539 Clouds 27 1017 74 10000 2.6 40 01:53 31.12.2019
5540 Clouds 27 1017 74 10000 2.6 40 01:34 31.12.2019
5541 Clouds 26 1016 78 10000 2.6 40 00:57 31.12.2019
5542 Clouds 26 1016 78 10000 2.6 40 00:38 31.12.2019
5543 Clouds 25 1016 78 10000 2.6 40 00:18 31.12.2019
5544 Clouds 25 1015 78 10000 3.6 10 23:55 30.12.2019
5545 Clouds 25 1015 78 10000 3.6 10 23:37 30.12.2019
5546 Clouds 25 1015 78 10000 3.6 10 23:18 30.12.2019
5547 Clouds 25 1015 78 10000 2.6 30 22:55 30.12.2019
5548 Clouds 25 1015 78 10000 2.6 30 22:37 30.12.2019
5549 Clouds 25 1015 78 10000 2.6 30 22:18 30.12.2019
5550 Clouds 25 1015 78 10000 1 0 21:55 30.12.2019
5551 Clouds 25 1015 78 10000 1 0 21:37 30.12.2019
5552 Clouds 25 1015 78 10000 1 0 21:18 30.12.2019
5553 Clouds 25 1014 78 10000 0.5 0 20:54 30.12.2019
5554 Clouds 25 1014 78 10000 0.5 0 20:36 30.12.2019
5555 Clouds 25 1014 78 10000 0.5 0 20:18 30.12.2019
5556 Clouds 25 1012 74 10000 1 0 19:55 30.12.2019
5557 Clouds 26 1012 74 10000 1 0 19:36 30.12.2019
5558 Clouds 26 1012 74 10000 1 0 19:18 30.12.2019
5559 Clouds 26 1012 74 10000 1 0 19:18 30.12.2019
5560 Clouds 25 1015 78 10000 1.5 110 18:41 30.12.2019
5561 Clouds 26 1015 78 10000 1.5 110 18:21 30.12.2019
5562 Clouds 26 1015 78 10000 1.5 90 17:59 30.12.2019
5563 Clouds 26 1015 78 10000 1.5 90 17:41 30.12.2019
5564 Clouds 26 1015 78 10000 1.5 90 17:20 30.12.2019
5565 Clouds 26 1015 74 10000 0.5 0 16:59 30.12.2019
5566 Clouds 26 1015 74 10000 0.5 0 16:40 30.12.2019
5567 Clouds 26 1015 74 10000 0.5 0 16:20 30.12.2019
5568 Clouds 26 1016 74 10000 1 0 15:56 30.12.2019
5569 Clouds 26 1016 74 10000 1 0 15:38 30.12.2019
5570 Clouds 26 1016 74 10000 1 0 15:19 30.12.2019
5571 Clouds 27 1015 69 10000 1.5 110 14:43 30.12.2019
5572 Clouds 27 1015 69 10000 1.5 110 14:21 30.12.2019
5573 Clouds 27 1015 69 10000 1.5 110 14:21 30.12.2019
5574 Clouds 27 1015 69 10000 2.1 80 13:59 30.12.2019
5575 Clouds 27 1015 69 10000 2.1 80 13:41 30.12.2019
5576 Clouds 27 1015 69 10000 2.1 80 13:22 30.12.2019
5577 Clouds 28 1015 69 10000 3.6 80 12:57 30.12.2019
5578 Clouds 28 1015 69 10000 3.6 80 12:38 30.12.2019
5579 Clouds 28 1015 69 10000 3.6 80 12:19 30.12.2019
5580 Clouds 28 1015 69 10000 3.6 80 12:19 30.12.2019
5581 Clouds 28 1014 66 10000 3.6 90 11:46 30.12.2019
5582 Clouds 29 1014 66 10000 3.6 90 11:22 30.12.2019
5583 Clouds 29 1013 66 10000 4.6 110 10:59 30.12.2019
5584 Clouds 29 1013 66 10000 4.6 110 10:40 30.12.2019
5585 Clouds 29 1013 66 10000 4.6 110 10:19 30.12.2019
5586 Clouds 29 1013 62 10000 6.2 110 09:43 30.12.2019
5587 Clouds 30 1012 58 10000 5.7 110 09:21 30.12.2019
5588 Clouds 30 1012 58 10000 5.7 110 08:57 30.12.2019
5589 Clouds 31 1012 58 10000 5.7 110 08:38 30.12.2019
5590 Clouds 31 1012 58 10000 5.7 110 08:19 30.12.2019
5591 Clouds 31 1012 55 10000 5.7 120 07:46 30.12.2019
5592 Clouds 32 1012 55 10000 5.7 120 07:23 30.12.2019
5593 Clouds 31 1013 59 10000 4.6 120 06:30 30.12.2019
5594 Clouds 31 1015 62 10000 3.6 100 04:31 30.12.2019
5595 Clouds 30 1016 66 10000 3.6 100 03:47 30.12.2019
5596 Clouds 30 1016 66 10000 2.6 60 02:45 30.12.2019
5597 Clouds 29 1016 66 10000 2.6 60 02:25 30.12.2019
5598 Clouds 28 1015 69 10000 1.5 70 01:27 30.12.2019
5599 Clouds 27 1015 78 10000 1.5 130 00:56 30.12.2019
5600 Clouds 26 1015 78 10000 1.5 130 00:36 30.12.2019
5601 Clouds 25 1014 83 10000 2.6 70 23:42 29.12.2019
5602 Clouds 25 1014 83 10000 2.6 70 23:24 29.12.2019
5603 Clouds 26 1014 78 10000 1 0 22:58 29.12.2019
5604 Clouds 26 1014 78 10000 1 0 22:38 29.12.2019
5605 Clouds 26 1014 78 10000 1 0 22:20 29.12.2019
5606 Clouds 26 1014 78 10000 2.03 63 21:55 29.12.2019
5607 Clouds 26 1014 78 10000 2.03 63 21:37 29.12.2019
5608 Clouds 26 1014 78 10000 2.03 63 21:18 29.12.2019
5609 Clouds 26 1014 78 10000 1.5 210 20:55 29.12.2019
5610 Clouds 26 1014 78 10000 1.5 210 20:55 29.12.2019
5611 Clouds 26 1014 78 10000 1.5 210 20:37 29.12.2019
5612 Clouds 26 1014 78 10000 1.5 210 20:37 29.12.2019
5613 Clouds 25 1014 78 10000 1.5 210 20:18 29.12.2019
5614 Clouds 25 1014 78 10000 1 0 19:55 29.12.2019
5615 Clouds 25 1014 78 10000 1 0 19:37 29.12.2019
5616 Clouds 26 1014 78 10000 1 0 19:18 29.12.2019
5617 Clouds 26 1015 78 10000 2.65 63 18:40 29.12.2019
5618 Clouds 26 1015 78 10000 2.65 63 18:21 29.12.2019
5619 Clouds 26 1015 74 10000 2.65 63 17:59 29.12.2019
5620 Clouds 26 1015 74 10000 2.65 63 17:40 29.12.2019
5621 Clouds 26 1015 74 10000 4.43 76 17:20 29.12.2019
5622 Clouds 26 1015 74 10000 1 0 16:58 29.12.2019
5623 Clouds 26 1015 74 10000 1 0 16:40 29.12.2019
5624 Clouds 26 1015 74 10000 1 0 16:40 29.12.2019
5625 Clouds 27 1015 74 10000 1 0 16:21 29.12.2019
5626 Clouds 27 1015 74 10000 1 0 16:21 29.12.2019
5627 Clouds 26 1015 74 10000 1 0 15:59 29.12.2019
5628 Clouds 26 1015 74 10000 1 0 15:40 29.12.2019
5629 Clouds 27 1015 74 10000 1 0 15:20 29.12.2019
5630 Clouds 27 1015 74 10000 1 90 14:59 29.12.2019
5631 Clouds 27 1015 74 10000 1 90 14:41 29.12.2019
5632 Clouds 27 1015 74 10000 1 90 14:19 29.12.2019
5633 Clouds 28 1014 69 10000 1.5 90 13:59 29.12.2019
5634 Clouds 28 1014 69 10000 1.5 90 13:40 29.12.2019
5635 Clouds 28 1014 69 10000 1.5 90 13:22 29.12.2019
5636 Clouds 28 1013 69 10000 2.6 100 12:57 29.12.2019
5637 Clouds 28 1013 69 10000 2.6 100 12:38 29.12.2019
5638 Clouds 28 1013 69 10000 2.6 100 12:20 29.12.2019
5639 Clouds 29 1013 62 10000 3.1 120 11:41 29.12.2019
5640 Clouds 29 1013 62 10000 3.1 120 11:21 29.12.2019
5641 Clouds 29 1012 58 10000 4.1 110 10:57 29.12.2019
5642 Clouds 30 1012 58 10000 4.1 110 10:38 29.12.2019
5643 Clouds 30 1012 58 10000 4.1 110 10:18 29.12.2019
5644 Clouds 30 1012 55 10000 4.1 110 09:45 29.12.2019
5645 Clouds 31 1012 55 10000 4.1 110 09:27 29.12.2019
5646 Clouds 31 1012 55 10000 5.7 100 08:55 29.12.2019
5647 Clouds 31 1012 55 10000 5.7 100 08:37 29.12.2019
5648 Clouds 32 1012 55 10000 5.7 100 08:18 29.12.2019
5649 Clouds 31 1012 58 10000 5.7 110 07:43 29.12.2019
5650 Clouds 31 1012 58 10000 5.7 110 07:25 29.12.2019
5651 Clouds 31 1012 66 10000 6.7 120 06:28 29.12.2019
5652 Clouds 29 1014 69 10000 5.1 110 05:55 29.12.2019
5653 Clouds 29 1014 62 10000 5.1 100 04:59 29.12.2019
5654 Clouds 30 1014 62 10000 5.1 100 04:30 29.12.2019
5655 Clouds 30 1015 62 10000 5.1 90 03:32 29.12.2019
5656 Clouds 29 1014 65 10000 4.1 90 02:27 29.12.2019
5657 Clouds 28 1014 69 10000 3.6 90 01:47 29.12.2019
5658 Clouds 28 1014 69 10000 3.6 90 01:28 29.12.2019
5659 Clouds 27 1014 78 10000 2.6 100 00:45 29.12.2019
5660 Clouds 26 1014 78 10000 2.6 100 00:24 29.12.2019
5661 Clouds 26 1013 78 10000 1.5 110 23:46 28.12.2019
5662 Clouds 26 1013 78 10000 1.5 110 23:19 28.12.2019
5663 Clouds 26 1013 78 10000 1 90 22:59 28.12.2019
5664 Clouds 26 1013 78 10000 1 90 22:37 28.12.2019
5665 Clouds 26 1013 78 10000 1 90 22:18 28.12.2019
5666 Clouds 25 1013 83 10000 1 80 21:55 28.12.2019
5667 Clouds 25 1013 83 10000 1 80 21:37 28.12.2019
5668 Clouds 25 1013 83 10000 1 80 21:19 28.12.2019
5669 Clouds 26 1012 83 10000 1.5 80 20:40 28.12.2019
5670 Clouds 26 1012 83 10000 1.5 80 20:22 28.12.2019
5671 Clouds 26 1013 78 10000 1.5 90 19:59 28.12.2019
5672 Clouds 26 1013 78 10000 1.5 90 19:40 28.12.2019
5673 Clouds 27 1013 78 10000 1.5 90 19:22 28.12.2019
5674 Clouds 26 1013 83 10000 2.1 70 18:59 28.12.2019
5675 Clouds 26 1013 83 10000 2.1 70 18:40 28.12.2019
5676 Clouds 26 1013 83 10000 2.1 70 18:20 28.12.2019
5677 Clouds 27 1013 74 10000 1.5 90 17:56 28.12.2019
5678 Clouds 27 1013 74 10000 1.5 90 17:38 28.12.2019
5679 Clouds 27 1013 74 10000 1.5 90 17:19 28.12.2019
5680 Clouds 27 1013 65 10000 3.1 80 16:46 28.12.2019
5681 Clouds 27 1013 65 10000 3.1 80 16:26 28.12.2019
5682 Clouds 27 1013 69 10000 1.5 100 15:49 28.12.2019
5683 Clouds 27 1013 69 10000 1.5 100 15:25 28.12.2019
5684 Clouds 28 1013 65 10000 2.6 80 15:00 28.12.2019
5685 Clouds 28 1013 65 10000 2.6 80 14:40 28.12.2019
5686 Clouds 28 1013 65 10000 2.6 80 14:40 28.12.2019
5687 Clouds 28 1013 65 10000 2.6 80 14:21 28.12.2019
5688 Clouds 28 1013 74 10000 2.6 100 13:57 28.12.2019
5689 Clouds 28 1013 74 10000 2.6 100 13:38 28.12.2019
5690 Clouds 28 1013 74 10000 2.6 100 13:19 28.12.2019
5691 Clouds 28 1012 74 10000 3.1 110 12:43 28.12.2019
5692 Clouds 28 1012 74 10000 3.1 110 12:43 28.12.2019
5693 Clouds 28 1012 74 10000 3.1 110 12:24 28.12.2019
5694 Clouds 29 1012 66 10000 3.6 100 11:57 28.12.2019
5695 Clouds 29 1012 66 10000 3.6 100 11:38 28.12.2019
5696 Clouds 29 1012 66 10000 3.6 100 11:19 28.12.2019
5697 Clouds 29 1011 66 10000 4.1 90 10:44 28.12.2019
5698 Clouds 30 1011 66 10000 4.1 90 10:22 28.12.2019
5699 Clouds 30 1011 62 10000 5.7 100 09:58 28.12.2019
5700 Clouds 31 1011 62 10000 5.7 100 09:40 28.12.2019
5701 Clouds 31 1010 59 10000 5.7 90 09:20 28.12.2019
5702 Clouds 32 1010 59 10000 5.7 90 08:44 28.12.2019
5703 Clouds 32 1010 59 10000 5.7 90 08:26 28.12.2019
5704 Clouds 31 1010 66 10000 5.1 120 07:53 28.12.2019
5705 Clouds 32 1010 66 10000 5.1 120 07:30 28.12.2019
5706 Clouds 32 1011 62 10000 5.1 100 06:27 28.12.2019
5707 Clouds 30 1013 74 10000 5.1 90 04:36 28.12.2019
5708 Clouds 29 1013 70 10000 3.6 110 03:39 28.12.2019
5709 Clouds 29 1013 74 10000 2.1 100 02:48 28.12.2019
5710 Clouds 28 1013 83 10000 2.6 70 01:59 28.12.2019
5711 Clouds 27 1013 83 10000 2.6 70 01:30 28.12.2019
5712 Clouds 27 1012 78 10000 1 60 00:55 28.12.2019
5713 Clouds 26 1012 78 10000 1 60 00:37 28.12.2019
5714 Clouds 26 1012 78 10000 1 60 00:19 28.12.2019
5715 Clouds 26 1011 83 10000 1 0 23:43 27.12.2019
5716 Clouds 26 1011 83 10000 1 0 23:19 27.12.2019
5717 Clouds 26 1011 83 10000 1 0 23:19 27.12.2019
5718 Clouds 26 1010 83 10000 2.6 80 22:57 27.12.2019
5719 Clouds 26 1010 83 10000 2.6 80 22:38 27.12.2019
5720 Clouds 26 1010 83 10000 2.6 80 22:20 27.12.2019
5721 Clouds 26 1010 83 10000 2.6 70 21:55 27.12.2019
5722 Clouds 26 1010 83 10000 2.6 70 21:36 27.12.2019
5723 Clouds 26 1010 83 10000 2.6 70 21:36 27.12.2019
5724 Clouds 26 1010 83 10000 2.6 70 21:18 27.12.2019
5725 Clouds 27 1010 74 10000 3.85 83 20:41 27.12.2019
5726 Clouds 27 1010 74 10000 3.65 97 20:22 27.12.2019
5727 Clouds 27 1010 78 10000 2.6 130 19:42 27.12.2019
5728 Clouds 27 1010 78 10000 2.6 130 19:21 27.12.2019
5729 Clouds 27 1010 74 10000 3.1 120 18:59 27.12.2019
5730 Clouds 27 1010 74 10000 3.1 120 18:39 27.12.2019
5731 Clouds 27 1010 74 10000 3.1 120 18:20 27.12.2019
5732 Clouds 27 1011 78 10000 1 0 17:57 27.12.2019
5733 Clouds 27 1011 78 10000 1 0 17:39 27.12.2019
5734 Clouds 27 1011 78 10000 1 0 17:19 27.12.2019
5735 Clouds 27 1011 78 10000 1.5 120 16:58 27.12.2019
5736 Clouds 27 1011 78 10000 1.5 120 16:38 27.12.2019
5737 Clouds 27 1011 78 10000 1.5 120 16:19 27.12.2019
5738 Clouds 27 1011 78 10000 1.5 120 16:19 27.12.2019
5739 Clouds 28 1012 74 10000 1.5 130 15:43 27.12.2019
5740 Clouds 28 1012 74 10000 1.5 130 15:20 27.12.2019
5741 Clouds 28 1012 74 10000 2.1 120 14:57 27.12.2019
5742 Clouds 28 1012 74 10000 2.1 120 14:39 27.12.2019
5743 Clouds 28 1012 74 10000 2.1 120 14:20 27.12.2019
5744 Clouds 29 1011 70 10000 3.1 120 13:48 27.12.2019
5745 Clouds 29 1011 70 10000 3.1 120 13:25 27.12.2019
5746 Clouds 29 1011 70 10000 3.1 120 13:25 27.12.2019
5747 Clouds 29 1011 74 10000 2.1 0 12:58 27.12.2019
5748 Clouds 29 1011 74 10000 2.1 0 12:39 27.12.2019
5749 Clouds 29 1011 74 10000 2.1 0 12:21 27.12.2019
5750 Clouds 29 1010 70 10000 1.5 210 11:44 27.12.2019
5751 Clouds 30 1010 70 10000 1.5 210 11:24 27.12.2019
5752 Clouds 30 1009 66 10000 1.5 0 10:55 27.12.2019
5753 Clouds 31 1009 66 10000 1.5 0 10:37 27.12.2019
5754 Clouds 31 1009 66 10000 1.5 0 10:19 27.12.2019
5755 Clouds 31 1009 62 10000 3.1 140 09:42 27.12.2019
5756 Clouds 31 1009 62 10000 3.1 140 09:21 27.12.2019
5757 Clouds 32 1009 59 10000 3.1 130 08:56 27.12.2019
5758 Clouds 32 1009 59 10000 3.1 130 08:36 27.12.2019
5759 Clouds 32 1009 62 10000 2.6 0 07:51 27.12.2019
5760 Clouds 32 1009 62 10000 2.6 0 07:31 27.12.2019
5761 Clouds 33 1010 59 10000 4.1 100 06:37 27.12.2019
5762 Clouds 31 1011 62 10000 3.1 120 05:28 27.12.2019
5763 Clouds 30 1012 74 10000 3.6 110 03:40 27.12.2019
5764 Clouds 29 1011 70 10000 3.1 100 02:20 27.12.2019
5765 Clouds 28 1011 78 10000 2.6 100 01:37 27.12.2019
5766 Clouds 27 1011 78 10000 2.6 100 01:18 27.12.2019
5767 Clouds 26 1011 83 10000 2.1 80 00:41 27.12.2019
5768 Clouds 26 1011 83 10000 2.1 80 00:23 27.12.2019
5769 Clouds 25 1010 88 10000 1 0 23:41 26.12.2019
5770 Clouds 25 1010 88 10000 1 0 23:22 26.12.2019
5771 Clouds 25 1009 88 10000 1 100 22:47 26.12.2019
5772 Clouds 25 1009 88 10000 1 100 22:23 26.12.2019
5773 Clouds 26 1009 88 10000 2.85 119 21:59 26.12.2019
5774 Clouds 26 1009 88 10000 2.85 119 21:38 26.12.2019
5775 Clouds 26 1009 88 10000 2.85 119 21:20 26.12.2019
5776 Clouds 26 1009 83 10000 1 0 20:46 26.12.2019
5777 Clouds 26 1009 83 10000 1 0 20:23 26.12.2019
5778 Clouds 26 1009 88 10000 1 0 19:59 26.12.2019
5779 Clouds 26 1009 88 10000 1 0 19:40 26.12.2019
5780 Clouds 26 1009 88 10000 1 0 19:21 26.12.2019
5781 Clouds 26 1010 88 10000 1 0 18:58 26.12.2019
5782 Clouds 26 1010 88 10000 1 0 18:39 26.12.2019
5783 Clouds 26 1010 88 10000 1 0 18:19 26.12.2019
5784 Clouds 26 1011 83 10000 3.06 125 17:55 26.12.2019
5785 Clouds 26 1011 83 10000 3.06 125 17:37 26.12.2019
5786 Clouds 26 1011 83 10000 3.38 135 17:18 26.12.2019
5787 Clouds 26 1011 83 10000 1 0 16:41 26.12.2019
5788 Clouds 26 1011 83 10000 1 0 16:22 26.12.2019
5789 Clouds 27 1011 88 10000 1 0 15:56 26.12.2019
5790 Clouds 27 1011 88 10000 1 0 15:37 26.12.2019
5791 Clouds 27 1011 88 10000 1 0 15:18 26.12.2019
5792 Clouds 27 1011 88 10000 1 0 14:40 26.12.2019
5793 Clouds 27 1011 88 10000 1 0 14:21 26.12.2019
5794 Clouds 28 1011 83 10000 1 0 13:43 26.12.2019
5795 Clouds 28 1011 83 10000 1 0 13:21 26.12.2019
5796 Clouds 28 1011 83 10000 1 0 13:21 26.12.2019
5797 Clouds 28 1010 83 10000 0.5 0 12:58 26.12.2019
5798 Clouds 28 1010 83 10000 0.5 0 12:58 26.12.2019
5799 Clouds 28 1010 83 10000 0.5 0 12:39 26.12.2019
5800 Clouds 28 1010 83 10000 0.5 0 12:20 26.12.2019
5801 Thunderstorm 28 1009 79 10000 2.1 110 11:57 26.12.2019
5802 Thunderstorm 28 1009 79 10000 2.1 110 11:38 26.12.2019
5803 Thunderstorm 29 1009 79 10000 2.1 110 11:20 26.12.2019
5804 Clouds 29 1009 79 10000 2.6 110 10:47 26.12.2019
5805 Clouds 29 1009 79 10000 2.6 110 10:19 26.12.2019
5806 Clouds 29 1008 79 10000 3.6 110 09:50 26.12.2019
5807 Clouds 29 1008 79 10000 3.6 110 09:31 26.12.2019
5808 Clouds 30 1008 74 10000 3.1 100 08:43 26.12.2019
5809 Clouds 30 1008 70 10000 3.6 110 08:24 26.12.2019
5810 Clouds 30 1008 70 10000 3.6 110 07:53 26.12.2019
5811 Clouds 30 1008 70 10000 3.6 110 07:28 26.12.2019
5812 Clouds 31 1009 66 10000 3.6 0 06:53 26.12.2019
5813 Clouds 31 1009 66 10000 3.6 0 06:32 26.12.2019
5814 Clouds 31 1009 70 10000 4.1 110 05:45 26.12.2019
5815 Clouds 31 1010 70 10000 4.1 110 04:57 26.12.2019
5816 Clouds 30 1010 70 10000 4.1 110 04:30 26.12.2019
5817 Clouds 29 1010 83 10000 3.6 90 02:56 26.12.2019
5818 Clouds 28 1010 83 10000 3.6 90 02:34 26.12.2019
5819 Clouds 27 1010 83 10000 2.1 110 01:50 26.12.2019
5820 Clouds 27 1009 83 10000 2.1 100 01:32 26.12.2019
5821 Clouds 26 1009 83 10000 2.1 100 00:50 26.12.2019
5822 Clouds 26 1009 83 10000 2.1 100 00:27 26.12.2019
5823 Clouds 26 1009 83 10000 0.5 120 23:58 25.12.2019
5824 Clouds 26 1009 83 10000 0.5 120 23:39 25.12.2019
5825 Clouds 26 1009 83 10000 0.5 120 23:21 25.12.2019
5826 Clouds 25 1008 88 10000 1 80 22:59 25.12.2019
5827 Clouds 25 1008 88 10000 1 80 22:39 25.12.2019
5828 Clouds 25 1008 88 10000 1 80 22:20 25.12.2019
5829 Clouds 25 1008 94 10000 1 0 21:58 25.12.2019
5830 Clouds 25 1008 94 10000 1 0 21:39 25.12.2019
5831 Clouds 25 1008 94 10000 1 0 21:20 25.12.2019
5832 Clouds 25 1007 94 10000 2.1 90 20:54 25.12.2019
5833 Clouds 25 1007 94 10000 2.1 90 20:36 25.12.2019
5834 Clouds 25 1007 94 10000 2.1 90 20:18 25.12.2019
5835 Clouds 25 1008 88 10000 2.1 30 19:43 25.12.2019
5836 Clouds 25 1008 88 10000 2.1 30 19:23 25.12.2019
5837 Clouds 24 1009 94 10000 2.1 360 18:58 25.12.2019
5838 Clouds 24 1009 94 10000 2.1 360 18:36 25.12.2019
5839 Clouds 24 1009 94 10000 2.1 360 18:18 25.12.2019
5840 Clouds 25 1009 88 10000 2.1 70 17:40 25.12.2019
5841 Clouds 25 1009 88 10000 2.1 70 17:19 25.12.2019
5842 Clouds 24 1010 100 9000 2.1 70 16:57 25.12.2019
5843 Clouds 25 1010 100 9000 2.1 70 16:37 25.12.2019
5844 Clouds 25 1010 100 9000 2.1 70 16:18 25.12.2019
5845 Clouds 25 1010 100 9000 2.1 70 16:18 25.12.2019
5846 Rain 25 1010 100 7000 3.1 90 15:56 25.12.2019
5847 Rain 25 1010 100 7000 3.1 90 15:38 25.12.2019
5848 Rain 25 1010 100 7000 3.1 90 15:19 25.12.2019
5849 Rain 25 1010 100 7000 3.1 90 15:19 25.12.2019
5850 Rain 24 1010 100 8000 2.6 10 14:56 25.12.2019
5851 Rain 24 1010 100 8000 2.6 10 14:37 25.12.2019
5852 Rain 24 1010 100 8000 2.6 10 14:18 25.12.2019
5853 Thunderstorm 25 1010 94 3000 2.1 240 13:42 25.12.2019
5854 Thunderstorm 25 1010 94 3000 2.1 240 13:21 25.12.2019
5855 Rain 25 1009 88 8000 2.1 220 12:44 25.12.2019
5856 Rain 26 1009 88 8000 2.1 220 12:23 25.12.2019
5857 Rain 26 1008 88 7000 1 0 11:58 25.12.2019
5858 Rain 26 1008 88 7000 1 0 11:40 25.12.2019
5859 Rain 26 1008 88 7000 1 0 11:21 25.12.2019
5860 Rain 27 1007 83 9000 2.1 40 10:41 25.12.2019
5861 Rain 27 1007 83 9000 2.1 40 10:21 25.12.2019
5862 Clouds 28 1006 70 10000 3.1 40 09:59 25.12.2019
5863 Clouds 28 1006 70 10000 3.1 40 09:40 25.12.2019
5864 Clouds 28 1006 70 10000 3.1 40 09:22 25.12.2019
5865 Clouds 28 1006 70 10000 2.1 40 08:43 25.12.2019
5866 Clouds 28 1006 70 10000 2.1 40 08:24 25.12.2019
5867 Rain 28 1007 74 10000 3.6 10 07:43 25.12.2019
5868 Rain 27 1007 74 10000 3.6 10 07:22 25.12.2019
5869 Rain 28 1008 74 9000 3.1 70 06:24 25.12.2019
5870 Clouds 28 1009 70 10000 3.6 40 05:50 25.12.2019
5871 Clouds 29 1011 70 10000 2.1 40 04:46 25.12.2019
5872 Clouds 29 1011 70 10000 2.1 40 04:24 25.12.2019
5873 Clouds 28 1011 78 10000 1.5 10 03:44 25.12.2019
5874 Clouds 28 1011 78 10000 1.5 10 03:44 25.12.2019
5875 Rain 26 1011 83 6000 1.5 360 02:59 25.12.2019
5876 Rain 25 1011 83 6000 1.5 360 02:29 25.12.2019
5877 Rain 26 1011 78 8000 2.6 20 01:44 25.12.2019
5878 Clouds 26 1010 69 10000 3.6 20 01:19 25.12.2019
5879 Clouds 26 1009 69 10000 3.6 10 00:41 25.12.2019
5880 Clouds 26 1009 69 10000 3.6 10 00:41 25.12.2019
5881 Clouds 26 1009 69 10000 3.6 10 00:23 25.12.2019
5882 Clouds 26 1009 69 10000 3.6 10 23:39 24.12.2019
5883 Clouds 26 1009 69 10000 3.6 10 23:20 24.12.2019
5884 Clouds 26 1009 69 10000 4.6 360 22:42 24.12.2019
5885 Clouds 26 1009 69 10000 4.6 360 22:24 24.12.2019
5886 Clouds 26 1009 69 10000 2.1 240 21:59 24.12.2019
5887 Clouds 26 1009 69 10000 2.1 240 21:41 24.12.2019
5888 Clouds 26 1009 69 10000 2.1 240 21:41 24.12.2019
5889 Clouds 26 1009 69 10000 2.1 240 21:20 24.12.2019
5890 Clouds 26 1009 69 10000 1 0 20:42 24.12.2019
5891 Clouds 26 1009 69 10000 1 0 20:23 24.12.2019
5892 Clouds 26 1010 69 10000 1 0 19:55 24.12.2019
5893 Clouds 26 1010 69 10000 1 0 19:37 24.12.2019
5894 Clouds 26 1010 69 10000 1 0 19:18 24.12.2019
5895 Clouds 26 1010 69 10000 2.86 67 18:42 24.12.2019
5896 Clouds 26 1010 69 10000 2.86 67 18:18 24.12.2019
5897 Clouds 26 1012 65 10000 1.5 290 17:44 24.12.2019
5898 Clouds 26 1012 65 10000 1.5 290 17:22 24.12.2019
5899 Clouds 26 1012 65 10000 0.5 0 16:58 24.12.2019
5900 Clouds 26 1012 65 10000 0.5 0 16:39 24.12.2019
5901 Clouds 26 1012 65 10000 0.5 0 16:21 24.12.2019
5902 Clouds 26 1012 69 10000 1 0 15:57 24.12.2019
5903 Clouds 26 1012 69 10000 1 0 15:37 24.12.2019
5904 Clouds 26 1012 69 10000 1 0 15:19 24.12.2019
5905 Clouds 26 1013 71 0 2.15 36 14:58 24.12.2019
5906 Clouds 26 1013 70 0 2.15 36 14:39 24.12.2019
5907 Clouds 27 1012 54 10000 1.5 110 14:21 24.12.2019
5908 Clouds 27 1012 54 10000 1.5 110 14:21 24.12.2019
5909 Clouds 27 1012 54 10000 1.5 110 13:56 24.12.2019
5910 Clouds 27 1012 54 10000 1.5 110 13:38 24.12.2019
5911 Clouds 27 1012 54 10000 1.5 110 13:19 24.12.2019
5912 Clouds 28 1011 45 10000 3.1 80 12:56 24.12.2019
5913 Clouds 28 1011 45 10000 3.1 80 12:37 24.12.2019
5914 Clouds 28 1011 45 10000 3.1 80 12:19 24.12.2019
5915 Clouds 28 1010 51 10000 3.6 80 11:56 24.12.2019
5916 Clouds 28 1010 51 10000 3.6 80 11:37 24.12.2019
5917 Clouds 28 1010 51 10000 3.6 80 11:37 24.12.2019
5918 Clouds 29 1010 51 10000 3.6 80 11:19 24.12.2019
5919 Clouds 29 1010 48 10000 5.1 80 10:56 24.12.2019
5920 Clouds 30 1010 48 10000 5.1 80 10:37 24.12.2019
5921 Clouds 30 1010 48 10000 5.1 80 10:19 24.12.2019
5922 Clouds 31 1009 43 10000 5.7 80 09:55 24.12.2019
5923 Clouds 31 1009 43 10000 5.7 80 09:37 24.12.2019
5924 Clouds 31 1009 43 10000 5.7 80 09:19 24.12.2019
5925 Clouds 32 1009 43 10000 5.7 90 08:45 24.12.2019
5926 Clouds 32 1009 43 10000 5.7 90 08:24 24.12.2019
5927 Clouds 32 1010 46 10000 4.1 110 07:46 24.12.2019
5928 Clouds 32 1010 46 10000 4.1 110 07:26 24.12.2019
5929 Clouds 32 1011 49 10000 2.6 0 06:59 24.12.2019
5930 Clouds 32 1011 49 10000 2.6 0 06:38 24.12.2019
5931 Clouds 32 1011 49 10000 2.6 0 06:19 24.12.2019
5932 Clouds 31 1011 62 10000 4.1 260 05:46 24.12.2019
5933 Clouds 31 1011 62 10000 4.1 260 05:18 24.12.2019
5934 Clouds 29 1013 66 10000 3.6 270 03:55 24.12.2019
5935 Clouds 29 1013 66 10000 3.6 270 03:25 24.12.2019
5936 Clouds 29 1014 66 10000 0.5 0 02:25 24.12.2019
5937 Clouds 28 1013 74 10000 2.1 30 01:52 24.12.2019
5938 Clouds 27 1013 74 10000 2.1 30 01:23 24.12.2019
5939 Clouds 26 1013 78 10000 2.1 330 00:47 24.12.2019
5940 Clouds 25 1013 78 10000 2.1 330 00:26 24.12.2019
5941 Clouds 24 1012 88 10000 1 60 23:59 23.12.2019
5942 Clouds 24 1012 88 10000 1 60 23:41 23.12.2019
5943 Clouds 24 1012 88 10000 1 60 23:23 23.12.2019
5944 Clouds 24 1012 88 10000 1 60 23:23 23.12.2019
5945 Clouds 24 1012 88 10000 1.76 47 22:56 23.12.2019
5946 Clouds 24 1012 88 10000 1.76 47 22:56 23.12.2019
5947 Clouds 24 1012 88 10000 1.76 47 22:56 23.12.2019
5948 Clouds 24 1012 88 10000 1.76 47 22:37 23.12.2019
5949 Clouds 24 1012 88 10000 1.76 47 22:19 23.12.2019
5950 Clouds 24 1011 83 10000 1 0 21:55 23.12.2019
5951 Clouds 24 1011 83 10000 1 0 21:55 23.12.2019
5952 Clouds 24 1011 83 10000 1 0 21:36 23.12.2019
5953 Clouds 24 1011 83 10000 1 0 21:18 23.12.2019
5954 Clouds 24 1011 83 10000 2.6 70 20:57 23.12.2019
5955 Clouds 24 1011 83 10000 2.6 70 20:39 23.12.2019
5956 Clouds 24 1011 83 10000 2.6 70 20:39 23.12.2019
5957 Clouds 25 1011 83 10000 2.6 70 20:18 23.12.2019
5958 Clouds 25 1012 83 10000 1.5 100 19:56 23.12.2019
5959 Clouds 25 1012 83 10000 1.5 100 19:56 23.12.2019
5960 Clouds 25 1012 83 10000 1.5 100 19:38 23.12.2019
5961 Clouds 25 1012 83 10000 1.5 100 19:19 23.12.2019
5962 Clouds 25 1012 88 10000 2.1 70 18:57 23.12.2019
5963 Clouds 25 1012 88 10000 2.1 70 18:38 23.12.2019
5964 Clouds 25 1012 88 10000 2.1 70 18:20 23.12.2019
5965 Clouds 26 1013 74 10000 1.5 110 17:56 23.12.2019
5966 Clouds 26 1013 74 10000 1.5 110 17:37 23.12.2019
5967 Clouds 26 1013 74 10000 1.5 110 17:19 23.12.2019
5968 Clouds 26 1013 74 10000 1.5 110 16:54 23.12.2019
5969 Clouds 26 1013 74 10000 1.5 110 16:36 23.12.2019
5970 Clouds 26 1013 74 10000 1.5 110 16:18 23.12.2019
5971 Clouds 26 1013 78 10000 1 0 15:55 23.12.2019
5972 Clouds 26 1013 78 10000 1 0 15:36 23.12.2019
5973 Clouds 26 1013 78 10000 1 0 15:18 23.12.2019
5974 Clouds 26 1013 72 10000 1.5 130 14:42 23.12.2019
5975 Clouds 26 1013 72 10000 1.5 130 14:24 23.12.2019
5976 Clouds 27 1012 83 10000 1.5 140 13:59 23.12.2019
5977 Clouds 27 1012 83 10000 1.5 140 13:40 23.12.2019
5978 Clouds 27 1012 83 10000 1.5 140 13:22 23.12.2019
5979 Clouds 27 1012 83 10000 1.5 140 13:22 23.12.2019
5980 Clouds 27 1012 78 10000 1 0 12:58 23.12.2019
5981 Clouds 27 1012 78 10000 1 0 12:39 23.12.2019
5982 Clouds 27 1012 78 10000 1 0 12:20 23.12.2019
5983 Rain 27 1011 78 10000 2.1 0 11:45 23.12.2019
5984 Rain 27 1011 78 10000 2.1 0 11:26 23.12.2019
5985 Rain 28 1010 74 9000 1 0 10:59 23.12.2019
5986 Rain 28 1010 74 9000 1 0 10:41 23.12.2019
5987 Rain 28 1010 74 9000 1 0 10:21 23.12.2019
5988 Clouds 28 1009 70 10000 2.1 250 09:59 23.12.2019
5989 Clouds 29 1009 70 10000 2.1 250 09:40 23.12.2019
5990 Clouds 29 1009 70 10000 2.1 250 09:21 23.12.2019
5991 Clouds 29 1009 70 10000 2.1 280 08:58 23.12.2019
5992 Clouds 29 1009 70 10000 2.1 280 08:40 23.12.2019
5993 Clouds 29 1009 70 10000 2.1 280 08:22 23.12.2019
5994 Clouds 29 1010 66 10000 3.1 310 07:47 23.12.2019
5995 Clouds 29 1010 66 10000 3.1 310 07:20 23.12.2019
5996 Clouds 29 1010 66 10000 3.6 280 06:53 23.12.2019
5997 Clouds 29 1010 66 10000 3.6 280 06:53 23.12.2019
5998 Clouds 29 1010 66 10000 3.6 280 06:26 23.12.2019
5999 Clouds 30 1011 66 10000 1.5 290 05:53 23.12.2019
6000 Clouds 30 1011 66 10000 1.5 290 05:28 23.12.2019
6001 Clouds 30 1012 70 10000 3.1 270 04:31 23.12.2019
6002 Clouds 29 1012 74 10000 3.6 270 03:18 23.12.2019
6003 Clouds 29 1013 69 10000 2.1 250 02:40 23.12.2019
6004 Clouds 28 1013 69 10000 2.1 250 02:19 23.12.2019
6005 Clouds 27 1012 78 10000 1 0 01:42 23.12.2019
6006 Clouds 26 1012 78 10000 1 0 01:20 23.12.2019
6007 Clouds 25 1011 78 10000 2.1 40 00:43 23.12.2019
6008 Clouds 24 1011 78 10000 2.1 40 00:21 23.12.2019
6009 Clouds 24 1011 78 10000 2.6 360 23:39 22.12.2019
6010 Clouds 24 1011 78 10000 2.6 360 23:21 22.12.2019
6011 Clouds 24 1010 78 10000 2.1 10 22:58 22.12.2019
6012 Clouds 24 1010 78 10000 2.1 10 22:39 22.12.2019
6013 Clouds 24 1010 78 10000 2.1 10 22:19 22.12.2019
6014 Clouds 24 1010 78 10000 1.76 0 21:57 22.12.2019
6015 Clouds 24 1010 78 10000 1.76 0 21:39 22.12.2019
6016 Clouds 24 1010 78 10000 1.76 0 21:20 22.12.2019
6017 Clouds 24 1010 78 10000 0.5 0 20:56 22.12.2019
6018 Clouds 24 1010 78 10000 0.5 0 20:38 22.12.2019
6019 Clouds 25 1010 78 10000 0.5 0 20:18 22.12.2019
6020 Clouds 25 1010 78 10000 2.6 100 19:54 22.12.2019
6021 Clouds 25 1010 78 10000 2.6 100 19:36 22.12.2019
6022 Clouds 25 1010 78 10000 2.6 100 19:18 22.12.2019
6023 Clouds 26 1011 78 10000 2.6 90 18:39 22.12.2019
6024 Clouds 26 1011 78 10000 2.6 90 18:39 22.12.2019
6025 Clouds 26 1011 78 10000 2.6 90 18:21 22.12.2019
6026 Clouds 26 1011 83 10000 3.6 90 17:55 22.12.2019
6027 Clouds 26 1011 83 10000 3.6 90 17:37 22.12.2019
6028 Clouds 26 1011 83 10000 3.6 90 17:18 22.12.2019
6029 Clouds 27 1012 74 10000 3.1 100 16:56 22.12.2019
6030 Clouds 27 1012 74 10000 3.1 100 16:56 22.12.2019
6031 Clouds 27 1012 74 10000 3.1 100 16:37 22.12.2019
6032 Clouds 27 1012 74 10000 3.1 100 16:19 22.12.2019
6033 Clouds 27 1012 69 10000 1.5 110 15:54 22.12.2019
6034 Clouds 27 1012 69 10000 1.5 110 15:36 22.12.2019
6035 Clouds 27 1012 69 10000 1.5 110 15:18 22.12.2019
6036 Clouds 27 1011 61 10000 2.1 100 14:39 22.12.2019
6037 Clouds 27 1011 61 10000 2.1 100 14:20 22.12.2019
6038 Clouds 28 1014 62 10000 3.1 90 13:56 22.12.2019
6039 Clouds 28 1014 62 10000 3.1 90 13:38 22.12.2019
6040 Clouds 28 1014 62 10000 3.1 90 13:20 22.12.2019
6041 Clouds 28 1010 66 10000 3.1 110 12:57 22.12.2019
6042 Clouds 28 1010 66 10000 3.1 110 12:39 22.12.2019
6043 Clouds 29 1010 66 10000 3.1 110 12:20 22.12.2019
6044 Clouds 29 1010 66 10000 4.83 95 11:59 22.12.2019
6045 Clouds 29 1010 66 10000 4.83 95 11:39 22.12.2019
6046 Clouds 29 1010 66 10000 5.19 117 11:20 22.12.2019
6047 Clouds 29 1009 66 10000 2.6 130 10:58 22.12.2019
6048 Clouds 29 1009 66 10000 2.6 130 10:40 22.12.2019
6049 Clouds 29 1009 66 10000 2.6 130 10:40 22.12.2019
6050 Clouds 30 1009 66 10000 2.6 130 10:20 22.12.2019
6051 Clouds 31 1009 55 10000 2.1 0 09:58 22.12.2019
6052 Clouds 31 1009 55 10000 2.1 0 09:39 22.12.2019
6053 Clouds 32 1009 55 10000 2.1 0 09:21 22.12.2019
6054 Clouds 32 1009 55 10000 2.6 140 08:45 22.12.2019
6055 Clouds 32 1009 55 10000 2.6 140 08:45 22.12.2019
6056 Clouds 32 1009 55 10000 2.6 140 08:23 22.12.2019
6057 Clouds 32 1009 55 10000 2.6 110 07:50 22.12.2019
6058 Clouds 32 1009 55 10000 2.6 110 07:22 22.12.2019
6059 Clouds 32 1010 55 10000 2.1 0 06:57 22.12.2019
6060 Clouds 32 1010 55 10000 2.1 0 06:27 22.12.2019
6061 Clouds 31 1011 62 10000 4.1 290 05:43 22.12.2019
6062 Clouds 31 1011 62 10000 4.1 290 05:21 22.12.2019
6063 Clouds 31 1012 62 10000 2.6 290 04:26 22.12.2019
6064 Clouds 29 1013 62 10000 2.6 40 02:56 22.12.2019
6065 Clouds 29 1013 62 10000 2.6 40 02:34 22.12.2019
6066 Clouds 27 1013 65 10000 2.6 40 01:32 22.12.2019
6067 Clouds 26 1012 74 10000 2.1 30 00:57 22.12.2019
6068 Clouds 26 1012 74 10000 2.1 30 00:38 22.12.2019
6069 Clouds 25 1012 74 10000 2.1 30 00:20 22.12.2019
6070 Clouds 25 1012 83 10000 1 0 23:41 21.12.2019
6071 Clouds 25 1012 83 10000 1 0 23:22 21.12.2019
6072 Clouds 25 1011 78 10000 1.5 280 22:57 21.12.2019
6073 Clouds 25 1011 78 10000 1.5 280 22:39 21.12.2019
6074 Clouds 25 1011 78 10000 1.5 280 22:18 21.12.2019
6075 Clouds 25 1011 78 10000 1.5 280 22:18 21.12.2019
6076 Clouds 25 1011 83 10000 1 90 21:55 21.12.2019
6077 Clouds 25 1011 83 10000 1 90 21:36 21.12.2019
6078 Clouds 25 1011 83 10000 1 90 21:18 21.12.2019
6079 Clouds 25 1011 88 10000 2.6 60 20:56 21.12.2019
6080 Clouds 25 1011 88 10000 2.6 60 20:37 21.12.2019
6081 Clouds 25 1011 88 10000 2.6 60 20:19 21.12.2019
6082 Clouds 25 1011 78 10000 1 110 19:55 21.12.2019
6083 Clouds 26 1011 78 10000 1 110 19:36 21.12.2019
6084 Clouds 26 1011 78 10000 1 110 19:18 21.12.2019
6085 Clouds 26 1012 74 10000 2.1 90 18:41 21.12.2019
6086 Clouds 26 1012 74 10000 2.1 90 18:23 21.12.2019
6087 Clouds 26 1013 78 10000 2.6 110 17:56 21.12.2019
6088 Clouds 26 1013 78 10000 2.6 110 17:37 21.12.2019
6089 Clouds 26 1013 78 10000 2.6 110 17:19 21.12.2019
6090 Clouds 26 1012 74 10000 2.1 90 16:55 21.12.2019
6091 Clouds 26 1012 74 10000 2.1 90 16:36 21.12.2019
6092 Clouds 26 1012 74 10000 2.1 90 16:36 21.12.2019
6093 Clouds 27 1012 74 10000 2.1 90 16:18 21.12.2019
6094 Clouds 27 1012 78 10000 2.6 100 15:55 21.12.2019
6095 Clouds 27 1012 78 10000 2.6 100 15:36 21.12.2019
6096 Clouds 27 1012 78 10000 2.6 100 15:18 21.12.2019
6097 Clouds 27 1012 74 10000 2.6 110 14:41 21.12.2019
6098 Clouds 27 1012 74 10000 2.6 110 14:22 21.12.2019
6099 Clouds 27 1012 74 10000 3.1 110 13:58 21.12.2019
6100 Clouds 27 1012 74 10000 3.1 110 13:58 21.12.2019
6101 Clouds 27 1012 74 10000 3.1 110 13:39 21.12.2019
6102 Clouds 27 1012 74 10000 3.1 110 13:19 21.12.2019
6103 Clouds 28 1011 74 10000 4.1 110 12:56 21.12.2019
6104 Clouds 28 1011 74 10000 4.1 110 12:38 21.12.2019
6105 Clouds 28 1011 74 10000 4.1 110 12:19 21.12.2019
6106 Clouds 28 1010 74 10000 4.6 120 11:46 21.12.2019
6107 Clouds 28 1010 74 10000 4.6 120 11:27 21.12.2019
6108 Rain 28 1010 74 10000 5.7 110 10:58 21.12.2019
6109 Rain 28 1010 74 10000 5.7 110 10:39 21.12.2019
6110 Rain 28 1010 74 10000 5.7 110 10:21 21.12.2019
6111 Rain 28 1009 74 10000 5.7 120 09:57 21.12.2019
6112 Rain 29 1009 74 10000 5.7 120 09:39 21.12.2019
6113 Rain 29 1009 74 10000 5.7 120 09:39 21.12.2019
6114 Rain 29 1009 74 10000 5.7 120 09:19 21.12.2019
6115 Clouds 30 1009 59 10000 4.1 130 08:46 21.12.2019
6116 Clouds 31 1009 59 10000 4.1 130 08:26 21.12.2019
6117 Clouds 32 1010 59 10000 3.6 120 07:47 21.12.2019
6118 Clouds 32 1010 59 10000 3.6 120 07:23 21.12.2019
6119 Clouds 31 1011 70 10000 2.1 0 06:46 21.12.2019
6120 Clouds 31 1011 70 10000 2.1 0 06:28 21.12.2019
6121 Clouds 31 1012 66 10000 2.1 0 05:58 21.12.2019
6122 Clouds 30 1013 66 10000 1.5 0 04:59 21.12.2019
6123 Clouds 30 1013 66 10000 1.5 0 04:19 21.12.2019
6124 Clouds 30 1014 66 10000 2.6 90 03:56 21.12.2019
6125 Clouds 29 1014 70 10000 1 0 02:19 21.12.2019
6126 Clouds 28 1013 74 10000 0.5 0 01:41 21.12.2019
6127 Clouds 27 1013 74 10000 0.5 0 01:23 21.12.2019
6128 Clouds 26 1013 78 10000 1.5 300 00:39 21.12.2019
6129 Clouds 26 1013 78 10000 1.5 300 00:19 21.12.2019
6130 Clouds 25 1012 83 10000 1 0 23:38 20.12.2019
6131 Clouds 25 1012 83 10000 1 0 23:19 20.12.2019
6132 Clouds 25 1012 83 10000 2.98 75 22:57 20.12.2019
6133 Clouds 25 1012 83 10000 2.98 75 22:36 20.12.2019
6134 Clouds 25 1012 83 10000 2.98 75 22:18 20.12.2019
6135 Clouds 25 1011 83 10000 1.5 290 21:40 20.12.2019
6136 Clouds 25 1011 83 10000 1.5 290 21:20 20.12.2019
6137 Clouds 25 1011 88 10000 1 0 20:57 20.12.2019
6138 Clouds 25 1011 88 10000 1 0 20:38 20.12.2019
6139 Clouds 26 1011 88 10000 1 0 20:18 20.12.2019
6140 Clouds 26 1012 83 10000 1 0 19:42 20.12.2019
6141 Clouds 26 1012 83 10000 1 0 19:21 20.12.2019
6142 Clouds 26 1012 78 10000 2.1 130 18:58 20.12.2019
6143 Clouds 26 1012 78 10000 2.1 130 18:39 20.12.2019
6144 Clouds 26 1012 78 10000 2.1 130 18:21 20.12.2019
6145 Clouds 26 1012 78 10000 2.1 130 17:55 20.12.2019
6146 Clouds 26 1012 78 10000 2.1 130 17:37 20.12.2019
6147 Clouds 26 1012 78 10000 2.1 130 17:18 20.12.2019
6148 Clouds 26 1013 78 10000 1.5 110 16:41 20.12.2019
6149 Clouds 27 1013 78 10000 1.5 110 16:21 20.12.2019
6150 Clouds 27 1013 78 10000 2.6 110 15:57 20.12.2019
6151 Clouds 27 1013 78 10000 2.6 110 15:39 20.12.2019
6152 Clouds 27 1013 78 10000 2.6 110 15:20 20.12.2019
6153 Clouds 27 1013 74 10000 2.1 100 14:59 20.12.2019
6154 Clouds 27 1013 74 10000 2.1 100 14:59 20.12.2019
6155 Clouds 27 1013 74 10000 2.1 100 14:40 20.12.2019
6156 Clouds 27 1013 74 10000 2.1 100 14:22 20.12.2019
6157 Clouds 28 1013 66 0 2.6 90 13:56 20.12.2019
6158 Clouds 28 1013 66 0 2.6 90 13:56 20.12.2019
6159 Clouds 28 1013 66 0 2.6 90 13:36 20.12.2019
6160 Clouds 28 1013 66 0 2.6 90 13:18 20.12.2019
6161 Clouds 28 1012 66 10000 2.6 100 12:42 20.12.2019
6162 Clouds 29 1012 66 10000 2.6 100 12:20 20.12.2019
6163 Clouds 29 1011 66 10000 3.1 120 11:59 20.12.2019
6164 Clouds 29 1011 66 10000 3.1 120 11:40 20.12.2019
6165 Clouds 29 1011 66 10000 3.1 120 11:21 20.12.2019
6166 Clouds 30 1011 58 10000 4.6 100 10:59 20.12.2019
6167 Clouds 30 1011 58 10000 4.6 100 10:41 20.12.2019
6168 Clouds 30 1011 58 10000 4.6 100 10:22 20.12.2019
6169 Clouds 30 1010 62 10000 5.1 110 09:58 20.12.2019
6170 Clouds 30 1010 62 10000 5.1 110 09:40 20.12.2019
6171 Clouds 30 1010 62 10000 5.1 110 09:20 20.12.2019
6172 Clouds 32 1010 52 10000 3.1 130 08:44 20.12.2019
6173 Clouds 32 1010 52 10000 3.1 130 08:26 20.12.2019
6174 Clouds 31 1010 55 10000 4.1 120 07:59 20.12.2019
6175 Clouds 31 1010 55 10000 4.1 120 07:41 20.12.2019
6176 Clouds 31 1010 55 10000 4.1 120 07:20 20.12.2019
6177 Clouds 32 1011 55 10000 4.1 110 06:52 20.12.2019
6178 Clouds 32 1011 55 10000 4.1 110 06:33 20.12.2019
6179 Clouds 32 1012 55 10000 4.1 120 05:56 20.12.2019
6180 Clouds 32 1012 55 10000 4.1 120 05:37 20.12.2019
6181 Clouds 32 1012 55 10000 4.1 120 05:37 20.12.2019
6182 Clouds 31 1013 55 10000 4.6 100 04:33 20.12.2019
6183 Clouds 31 1013 62 10000 3.6 100 03:30 20.12.2019
6184 Clouds 29 1014 66 10000 2.6 70 02:44 20.12.2019
6185 Clouds 28 1013 74 10000 1.5 60 01:54 20.12.2019
6186 Clouds 28 1013 74 10000 1.5 60 01:33 20.12.2019
6187 Clouds 26 1012 83 10000 2.1 20 00:48 20.12.2019
6188 Clouds 26 1012 83 10000 2.1 20 00:29 20.12.2019
6189 Clouds 25 1011 88 10000 1.5 60 23:54 19.12.2019
6190 Clouds 24 1011 88 10000 1.5 60 23:36 19.12.2019
6191 Clouds 24 1011 88 10000 1.5 60 23:18 19.12.2019
6192 Clouds 24 1011 88 10000 1.5 10 22:37 19.12.2019
6193 Clouds 24 1011 88 10000 1.5 10 22:19 19.12.2019
6194 Clouds 24 1011 88 10000 1.5 0 21:56 19.12.2019
6195 Clouds 24 1011 88 10000 1.5 0 21:37 19.12.2019
6196 Clouds 24 1011 88 10000 1.5 0 21:18 19.12.2019
6197 Clouds 25 1011 88 10000 1.5 280 20:56 19.12.2019
6198 Clouds 25 1011 88 10000 1.5 280 20:36 19.12.2019
6199 Clouds 25 1011 88 10000 1.5 280 20:18 19.12.2019
6200 Clouds 25 1012 83 10000 1 120 19:56 19.12.2019
6201 Clouds 25 1012 83 10000 1 120 19:37 19.12.2019
6202 Clouds 25 1012 83 10000 1 120 19:19 19.12.2019
6203 Clouds 26 1012 83 10000 3.54 81 18:41 19.12.2019
6204 Clouds 26 1012 83 10000 3.54 81 18:22 19.12.2019
6205 Clouds 26 1013 78 10000 1 0 17:58 19.12.2019
6206 Clouds 26 1013 78 10000 1 0 17:39 19.12.2019
6207 Clouds 26 1013 78 10000 1 0 17:19 19.12.2019
6208 Clouds 26 1013 78 10000 5.04 87 16:58 19.12.2019
6209 Clouds 26 1013 78 10000 5.04 87 16:40 19.12.2019
6210 Clouds 26 1013 78 10000 5.04 87 16:22 19.12.2019
6211 Clouds 26 1014 78 10000 0.5 0 15:59 19.12.2019
6212 Clouds 26 1014 78 10000 0.5 0 15:59 19.12.2019
6213 Clouds 27 1014 78 10000 0.5 0 15:39 19.12.2019
6214 Clouds 27 1014 78 10000 0.5 0 15:20 19.12.2019
6215 Clouds 27 1014 78 10000 0.5 0 15:20 19.12.2019
6216 Clouds 27 1013 74 10000 1.5 120 14:59 19.12.2019
6217 Clouds 27 1013 74 10000 1.5 120 14:41 19.12.2019
6218 Clouds 27 1013 74 10000 1.5 120 14:19 19.12.2019
6219 Clouds 27 1013 74 10000 1.5 110 13:57 19.12.2019
6220 Clouds 27 1013 74 10000 1.5 110 13:37 19.12.2019
6221 Clouds 27 1013 74 10000 1.5 110 13:18 19.12.2019
6222 Clouds 27 1012 74 10000 2.1 110 12:55 19.12.2019
6223 Clouds 28 1012 74 10000 2.1 110 12:36 19.12.2019
6224 Clouds 28 1012 74 10000 2.1 110 12:18 19.12.2019
6225 Clouds 28 1012 74 10000 2.1 110 12:18 19.12.2019
6226 Clouds 28 1012 74 10000 2.1 110 12:18 19.12.2019
6227 Clouds 28 1011 70 10000 3.1 120 11:56 19.12.2019
6228 Clouds 28 1011 70 10000 3.1 120 11:38 19.12.2019
6229 Clouds 29 1011 70 10000 3.1 120 11:18 19.12.2019
6230 Clouds 29 1011 66 10000 2.6 0 10:39 19.12.2019
6231 Clouds 30 1011 66 10000 2.6 0 10:20 19.12.2019
6232 Clouds 30 1011 62 10000 3.6 140 09:59 19.12.2019
6233 Clouds 30 1011 62 10000 3.6 140 09:38 19.12.2019
6234 Clouds 31 1011 62 10000 3.6 140 09:20 19.12.2019
6235 Clouds 30 1010 70 10000 2.6 0 08:56 19.12.2019
6236 Clouds 31 1010 70 10000 2.6 0 08:37 19.12.2019
6237 Clouds 30 1010 70 10000 2.6 0 08:18 19.12.2019
6238 Clouds 31 1011 66 10000 3.1 310 07:55 19.12.2019
6239 Clouds 31 1011 66 10000 3.1 310 07:55 19.12.2019
6240 Clouds 31 1011 66 10000 3.1 310 07:37 19.12.2019
6241 Clouds 31 1011 66 10000 3.1 310 07:19 19.12.2019
6242 Clouds 32 1011 59 10000 4.1 120 06:45 19.12.2019
6243 Clouds 31 1011 59 10000 4.1 120 06:26 19.12.2019
6244 Clouds 31 1012 59 10000 4.1 130 05:49 19.12.2019
6245 Clouds 31 1012 59 10000 4.1 130 05:28 19.12.2019
6246 Clouds 31 1013 62 10000 2.6 0 04:41 19.12.2019
6247 Clouds 30 1014 62 10000 1.5 0 02:30 19.12.2019
6248 Clouds 28 1013 74 10000 1 0 01:43 19.12.2019
6249 Clouds 27 1013 74 10000 1 0 01:21 19.12.2019
6250 Clouds 26 1013 78 10000 1 0 00:39 19.12.2019
6251 Clouds 25 1013 78 10000 1 0 00:19 19.12.2019
6252 Clouds 25 1013 88 10000 2 43 23:45 18.12.2019
6253 Clouds 25 1013 88 10000 2.17 76 23:19 18.12.2019
6254 Clouds 25 1013 88 10000 2.17 76 23:19 18.12.2019
6255 Clouds 25 1012 88 10000 1 0 22:58 18.12.2019
6256 Clouds 25 1012 88 10000 1 0 22:40 18.12.2019
6257 Clouds 25 1012 88 10000 1 0 22:22 18.12.2019
6258 Clouds 25 1012 83 10000 1 0 21:59 18.12.2019
6259 Clouds 25 1012 83 10000 1 0 21:41 18.12.2019
6260 Clouds 25 1012 83 10000 1 0 21:21 18.12.2019
6261 Clouds 25 1012 83 10000 2.6 100 20:57 18.12.2019
6262 Clouds 25 1012 83 10000 2.6 100 20:57 18.12.2019
6263 Clouds 25 1012 83 10000 2.6 100 20:39 18.12.2019
6264 Clouds 26 1012 83 10000 2.6 100 20:20 18.12.2019
6265 Clouds 26 1012 83 10000 2.6 100 20:20 18.12.2019
6266 Clouds 25 1012 83 10000 2.6 60 19:57 18.12.2019
6267 Clouds 25 1012 83 10000 2.6 60 19:39 18.12.2019
6268 Clouds 25 1012 83 10000 2.6 60 19:19 18.12.2019
6269 Clouds 26 1013 78 10000 1.5 50 18:56 18.12.2019
6270 Clouds 26 1013 78 10000 1.5 50 18:37 18.12.2019
6271 Clouds 26 1013 78 10000 1.5 50 18:18 18.12.2019
6272 Clouds 26 1013 74 10000 2.6 100 17:55 18.12.2019
6273 Clouds 26 1013 74 10000 2.6 100 17:37 18.12.2019
6274 Clouds 26 1013 74 10000 2.6 100 17:37 18.12.2019
6275 Clouds 26 1013 74 10000 2.6 100 17:18 18.12.2019
6276 Clouds 26 1014 78 10000 1.5 110 16:42 18.12.2019
6277 Clouds 26 1014 78 10000 1.5 110 16:24 18.12.2019
6278 Clouds 27 1014 69 10000 2.6 110 15:57 18.12.2019
6279 Clouds 27 1014 69 10000 2.6 110 15:39 18.12.2019
6280 Clouds 27 1014 69 10000 2.6 110 15:21 18.12.2019
6281 Clouds 27 1013 65 10000 2.1 90 14:56 18.12.2019
6282 Clouds 27 1013 65 10000 2.1 90 14:56 18.12.2019
6283 Clouds 27 1013 65 10000 2.1 90 14:38 18.12.2019
6284 Clouds 27 1013 65 10000 2.1 90 14:19 18.12.2019
6285 Clouds 27 1013 65 10000 2.1 80 13:55 18.12.2019
6286 Clouds 27 1013 65 10000 2.1 80 13:36 18.12.2019
6287 Clouds 28 1013 65 10000 2.1 80 13:18 18.12.2019
6288 Clouds 28 1013 62 10000 2.1 110 12:40 18.12.2019
6289 Clouds 28 1013 62 10000 2.1 110 12:21 18.12.2019
6290 Clouds 28 1012 58 10000 3.1 100 11:57 18.12.2019
6291 Clouds 28 1012 58 10000 3.1 100 11:39 18.12.2019
6292 Clouds 28 1012 58 10000 3.1 100 11:20 18.12.2019
6293 Clouds 29 1011 51 10000 5.1 80 10:58 18.12.2019
6294 Clouds 29 1011 51 10000 5.1 80 10:58 18.12.2019
6295 Clouds 29 1011 51 10000 5.1 80 10:39 18.12.2019
6296 Clouds 29 1011 51 10000 5.1 80 10:21 18.12.2019
6297 Clouds 30 1011 46 10000 5.1 90 09:59 18.12.2019
6298 Clouds 30 1011 46 10000 5.1 90 09:59 18.12.2019
6299 Clouds 30 1011 46 10000 5.1 90 09:20 18.12.2019
6300 Clouds 31 1010 43 10000 5.7 100 08:55 18.12.2019
6301 Clouds 32 1010 43 10000 5.7 100 08:37 18.12.2019
6302 Clouds 32 1010 43 10000 5.7 100 08:19 18.12.2019
6303 Clouds 33 1011 49 10000 6.7 170 07:42 18.12.2019
6304 Clouds 32 1011 49 10000 6.7 170 07:21 18.12.2019
6305 Clouds 33 1011 46 10000 3.6 130 06:52 18.12.2019
6306 Clouds 32 1011 46 10000 3.6 130 06:26 18.12.2019
6307 Clouds 33 1013 43 10000 3.1 120 05:37 18.12.2019
6308 Clouds 32 1014 55 10000 3.1 100 04:33 18.12.2019
6309 Clouds 30 1014 58 10000 1.5 0 02:48 18.12.2019
6310 Clouds 30 1014 58 10000 1.5 0 02:29 18.12.2019
6311 Clouds 28 1014 65 10000 0.5 0 01:46 18.12.2019
6312 Clouds 28 1014 65 10000 0.5 0 01:27 18.12.2019
6313 Clouds 26 1014 78 10000 2.93 46 00:55 18.12.2019
6314 Clouds 25 1014 78 10000 2.93 46 00:37 18.12.2019
6315 Clouds 25 1014 78 10000 2.93 46 00:19 18.12.2019
6316 Clouds 24 1013 83 10000 0.5 0 23:43 17.12.2019
6317 Clouds 24 1013 83 10000 0.5 0 23:24 17.12.2019
6318 Clouds 24 1012 83 9000 2.74 53 22:57 17.12.2019
6319 Clouds 24 1012 83 9000 2.74 53 22:39 17.12.2019
6320 Clouds 24 1012 83 9000 2.74 53 22:20 17.12.2019
6321 Clouds 24 1012 83 10000 2.74 53 21:57 17.12.2019
6322 Clouds 24 1012 83 10000 2.74 53 21:39 17.12.2019
6323 Clouds 25 1012 83 10000 2.74 53 21:20 17.12.2019
6324 Clouds 25 1012 83 10000 2.74 53 21:20 17.12.2019
6325 Clouds 25 1012 78 10000 1 0 20:59 17.12.2019
6326 Clouds 25 1012 78 10000 1 0 20:40 17.12.2019
6327 Clouds 25 1012 78 10000 1 0 20:19 17.12.2019
6328 Clouds 26 1013 78 10000 1 0 19:57 17.12.2019
6329 Clouds 26 1013 78 10000 1 0 19:39 17.12.2019
6330 Clouds 26 1013 78 10000 1 0 19:19 17.12.2019
6331 Clouds 26 1013 78 10000 1.5 90 18:57 17.12.2019
6332 Clouds 26 1013 78 10000 1.5 90 18:57 17.12.2019
6333 Clouds 26 1013 78 10000 1.5 90 18:57 17.12.2019
6334 Clouds 26 1013 78 10000 1.5 90 18:38 17.12.2019
6335 Clouds 26 1013 78 10000 1.5 90 18:20 17.12.2019
6336 Clouds 26 1014 74 10000 2.1 100 17:55 17.12.2019
6337 Clouds 26 1014 74 10000 2.1 100 17:36 17.12.2019
6338 Clouds 26 1014 74 10000 2.1 100 17:18 17.12.2019
6339 Clouds 26 1014 74 10000 3.65 66 16:54 17.12.2019
6340 Clouds 27 1014 74 10000 3.65 66 16:36 17.12.2019
6341 Clouds 27 1014 74 10000 3.65 66 16:18 17.12.2019
6342 Clouds 27 1014 69 10000 2.1 80 15:38 17.12.2019
6343 Clouds 27 1014 69 10000 2.1 80 15:19 17.12.2019
6344 Clouds 27 1014 74 10000 2.1 120 14:56 17.12.2019
6345 Clouds 27 1014 74 10000 2.1 120 14:38 17.12.2019
6346 Clouds 27 1014 74 10000 2.1 120 14:19 17.12.2019
6347 Clouds 27 1014 74 10000 1 0 13:56 17.12.2019
6348 Clouds 27 1014 74 10000 1 0 13:38 17.12.2019
6349 Clouds 27 1014 74 10000 1 0 13:19 17.12.2019
6350 Clouds 27 1014 74 10000 1 0 13:19 17.12.2019
6351 Clouds 27 1013 74 10000 2.6 100 12:56 17.12.2019
6352 Clouds 28 1013 74 10000 2.6 100 12:37 17.12.2019
6353 Clouds 28 1013 74 10000 2.6 100 12:18 17.12.2019
6354 Clouds 28 1012 66 10000 3.1 100 11:56 17.12.2019
6355 Clouds 29 1012 66 10000 3.1 100 11:36 17.12.2019
6356 Clouds 29 1012 66 10000 3.1 100 11:18 17.12.2019
6357 Clouds 29 1011 62 10000 4.1 110 10:55 17.12.2019
6358 Clouds 29 1011 62 10000 4.1 110 10:37 17.12.2019
6359 Clouds 29 1011 62 10000 4.1 110 10:18 17.12.2019
6360 Clouds 31 1011 52 10000 4.1 80 09:42 17.12.2019
6361 Clouds 31 1011 52 10000 4.1 80 09:21 17.12.2019
6362 Clouds 31 1011 55 10000 4.1 100 08:58 17.12.2019
6363 Clouds 31 1011 55 10000 4.1 100 08:39 17.12.2019
6364 Clouds 32 1011 55 10000 4.1 100 08:21 17.12.2019
6365 Clouds 32 1010 55 10000 5.7 110 07:57 17.12.2019
6366 Clouds 32 1010 55 10000 5.7 110 07:39 17.12.2019
6367 Clouds 32 1010 55 10000 5.7 110 07:19 17.12.2019
6368 Clouds 32 1011 52 10000 5.7 110 06:36 17.12.2019
6369 Clouds 31 1011 52 10000 5.7 110 06:18 17.12.2019
6370 Clouds 31 1013 66 10000 4.6 110 05:38 17.12.2019
6371 Clouds 32 1014 52 10000 4.1 90 04:46 17.12.2019
6372 Clouds 31 1015 58 10000 1 0 02:47 17.12.2019
6373 Clouds 29 1014 65 10000 1.5 0 01:56 17.12.2019
6374 Clouds 28 1014 65 10000 1.5 0 01:20 17.12.2019
6375 Clouds 26 1013 69 10000 2.1 340 00:38 17.12.2019
6376 Clouds 25 1013 69 10000 2.1 340 00:20 17.12.2019
6377 Clouds 25 1013 88 10000 1.5 50 23:42 16.12.2019
6378 Clouds 25 1013 88 10000 1.5 50 23:19 16.12.2019
6379 Clouds 25 1013 78 10000 1 0 22:58 16.12.2019
6380 Clouds 25 1013 78 10000 1 0 22:38 16.12.2019
6381 Clouds 25 1013 78 10000 1 0 22:20 16.12.2019
6382 Clouds 25 1012 83 10000 1 0 21:56 16.12.2019
6383 Clouds 25 1012 83 10000 1 0 21:38 16.12.2019
6384 Clouds 26 1012 83 10000 1 0 21:20 16.12.2019
6385 Clouds 26 1012 74 10000 1.5 110 20:58 16.12.2019
6386 Clouds 26 1012 74 10000 1.5 110 20:38 16.12.2019
6387 Clouds 26 1012 74 10000 1.5 110 20:19 16.12.2019
6388 Clouds 26 1013 74 10000 1 0 19:56 16.12.2019
6389 Clouds 26 1013 74 10000 1 0 19:37 16.12.2019
6390 Clouds 26 1013 74 10000 1 0 19:19 16.12.2019
6391 Clouds 26 1013 74 10000 1.5 90 18:56 16.12.2019
6392 Clouds 26 1013 74 10000 1.5 90 18:38 16.12.2019
6393 Clouds 27 1013 74 10000 1.5 90 18:20 16.12.2019
6394 Clouds 27 1013 74 10000 2.1 90 17:57 16.12.2019
6395 Clouds 27 1013 74 10000 2.1 90 17:57 16.12.2019
6396 Clouds 27 1013 74 10000 2.1 90 17:38 16.12.2019
6397 Clouds 27 1013 74 10000 2.1 90 17:20 16.12.2019
6398 Clouds 27 1013 74 10000 2.1 90 17:20 16.12.2019
6399 Clouds 27 1013 74 10000 2.1 70 16:57 16.12.2019
6400 Clouds 27 1013 74 10000 2.1 70 16:38 16.12.2019
6401 Clouds 27 1013 74 10000 2.1 70 16:19 16.12.2019
6402 Clouds 27 1013 74 10000 2.6 90 15:57 16.12.2019
6403 Clouds 28 1013 74 10000 2.6 90 15:38 16.12.2019
6404 Clouds 28 1013 74 10000 2.6 90 15:20 16.12.2019
6405 Clouds 28 1013 70 10000 3.1 100 14:55 16.12.2019
6406 Clouds 28 1013 70 10000 3.1 100 14:37 16.12.2019
6407 Clouds 28 1013 70 10000 3.1 100 14:18 16.12.2019
6408 Clouds 28 1013 70 10000 3.1 100 14:18 16.12.2019
6409 Clouds 28 1013 70 10000 3.1 80 13:56 16.12.2019
6410 Clouds 28 1013 70 10000 3.1 80 13:37 16.12.2019
6411 Clouds 28 1013 70 10000 3.1 80 13:19 16.12.2019
6412 Clouds 28 1012 70 10000 3.6 100 12:56 16.12.2019
6413 Clouds 28 1012 70 10000 3.6 100 12:38 16.12.2019
6414 Clouds 28 1012 70 10000 3.6 100 12:18 16.12.2019
6415 Clouds 29 1011 66 10000 3.1 100 11:57 16.12.2019
6416 Clouds 29 1011 66 10000 3.1 100 11:38 16.12.2019
6417 Clouds 29 1011 66 10000 3.1 100 11:19 16.12.2019
6418 Clouds 30 1010 62 10000 4.6 110 10:54 16.12.2019
6419 Clouds 30 1010 62 10000 4.6 110 10:36 16.12.2019
6420 Clouds 30 1010 62 10000 4.6 110 10:18 16.12.2019
6421 Clouds 31 1010 55 10000 5.1 100 09:43 16.12.2019
6422 Clouds 31 1010 55 10000 5.1 100 09:24 16.12.2019
6423 Clouds 32 1010 55 10000 6.2 110 08:40 16.12.2019
6424 Clouds 32 1010 55 10000 6.2 110 08:20 16.12.2019
6425 Clouds 32 1010 55 10000 6.7 110 07:53 16.12.2019
6426 Clouds 32 1010 55 10000 6.7 110 07:31 16.12.2019
6427 Clouds 32 1010 59 10000 6.2 110 06:58 16.12.2019
6428 Clouds 32 1010 59 10000 6.2 110 06:40 16.12.2019
6429 Clouds 32 1010 59 10000 6.2 110 06:20 16.12.2019
6430 Clouds 32 1011 55 10000 5.7 110 05:41 16.12.2019
6431 Clouds 32 1011 55 10000 5.7 110 05:22 16.12.2019
6432 Clouds 31 1013 62 10000 3.6 90 03:28 16.12.2019
6433 Clouds 28 1013 74 10000 4.1 70 01:51 16.12.2019
6434 Clouds 28 1013 74 10000 4.1 70 01:33 16.12.2019
6435 Clouds 27 1013 78 10000 1.5 90 00:39 16.12.2019
6436 Clouds 26 1013 78 10000 1.5 90 00:19 16.12.2019
6437 Clouds 26 1012 78 10000 2.6 80 23:44 15.12.2019
6438 Clouds 26 1012 78 10000 2.6 80 23:25 15.12.2019
6439 Clouds 26 1012 74 10000 2.1 140 22:57 15.12.2019
6440 Clouds 26 1012 74 10000 2.1 140 22:39 15.12.2019
6441 Clouds 27 1012 74 10000 2.1 140 22:19 15.12.2019
6442 Clouds 26 1012 78 10000 3.76 78 21:58 15.12.2019
6443 Clouds 26 1012 78 10000 3.76 78 21:39 15.12.2019
6444 Clouds 26 1012 78 10000 3.76 78 21:20 15.12.2019
6445 Clouds 26 1012 83 10000 2.1 250 20:58 15.12.2019
6446 Clouds 26 1012 83 10000 2.1 250 20:58 15.12.2019
6447 Clouds 26 1012 83 10000 2.1 250 20:40 15.12.2019
6448 Clouds 26 1012 83 10000 2.1 250 20:21 15.12.2019
6449 Clouds 27 1012 74 10000 3.71 68 19:58 15.12.2019
6450 Clouds 27 1012 74 10000 3.71 68 19:40 15.12.2019
6451 Clouds 27 1012 74 10000 3.71 68 19:20 15.12.2019
6452 Clouds 27 1012 74 10000 4.22 68 19:20 15.12.2019
6453 Clouds 27 1013 69 10000 1 0 18:58 15.12.2019
6454 Clouds 27 1013 69 10000 1 0 18:39 15.12.2019
6455 Clouds 27 1013 69 10000 1 0 18:19 15.12.2019
6456 Clouds 27 1013 74 10000 1.5 90 17:57 15.12.2019
6457 Clouds 27 1013 74 10000 1.5 90 17:38 15.12.2019
6458 Clouds 27 1013 74 10000 1.5 90 17:38 15.12.2019
6459 Clouds 27 1013 74 10000 1.5 90 17:19 15.12.2019
6460 Clouds 27 1014 74 10000 2.6 70 16:58 15.12.2019
6461 Clouds 27 1014 74 10000 2.6 70 16:39 15.12.2019
6462 Clouds 27 1014 74 10000 2.6 70 16:21 15.12.2019
6463 Clouds 27 1014 74 10000 2.6 80 15:56 15.12.2019
6464 Clouds 27 1014 74 10000 2.6 80 15:38 15.12.2019
6465 Clouds 27 1014 74 10000 2.6 80 15:18 15.12.2019
6466 Clouds 27 1014 74 10000 1.5 90 14:55 15.12.2019
6467 Clouds 28 1014 74 10000 1.5 90 14:37 15.12.2019
6468 Clouds 28 1014 74 10000 1.5 90 14:37 15.12.2019
6469 Clouds 27 1014 74 10000 1.5 90 14:18 15.12.2019
6470 Clouds 27 1013 78 10000 2.1 70 13:58 15.12.2019
6471 Clouds 27 1013 78 10000 2.1 70 13:37 15.12.2019
6472 Clouds 27 1013 78 10000 2.1 70 13:19 15.12.2019
6473 Rain 27 1013 78 10000 4.1 110 12:56 15.12.2019
6474 Rain 28 1013 78 10000 4.1 110 12:38 15.12.2019
6475 Rain 27 1013 78 10000 4.1 110 12:20 15.12.2019
6476 Clouds 28 1012 70 10000 3.1 100 11:39 15.12.2019
6477 Clouds 29 1012 70 10000 3.1 100 11:20 15.12.2019
6478 Clouds 29 1011 66 0 3.1 110 10:59 15.12.2019
6479 Clouds 29 1011 66 0 3.1 110 10:41 15.12.2019
6480 Clouds 29 1011 66 0 3.1 110 10:20 15.12.2019
6481 Rain 30 1011 55 10000 5.1 80 09:59 15.12.2019
6482 Rain 30 1011 55 10000 5.1 80 09:39 15.12.2019
6483 Rain 31 1011 55 10000 5.1 80 09:20 15.12.2019
6484 Clouds 32 1011 55 10000 4.6 90 08:56 15.12.2019
6485 Clouds 32 1011 55 10000 4.6 90 08:38 15.12.2019
6486 Clouds 32 1011 55 10000 4.6 90 08:20 15.12.2019
6487 Clouds 32 1011 55 10000 4.6 90 07:55 15.12.2019
6488 Clouds 33 1011 55 10000 4.6 90 07:33 15.12.2019
6489 Clouds 32 1012 55 10000 6.2 90 06:31 15.12.2019
6490 Clouds 32 1013 52 10000 5.7 80 05:51 15.12.2019
6491 Clouds 32 1013 52 10000 5.7 80 05:25 15.12.2019
6492 Clouds 32 1014 55 10000 6.2 90 04:24 15.12.2019
6493 Clouds 31 1014 66 10000 3.1 100 03:22 15.12.2019
6494 Clouds 30 1014 66 10000 1 0 02:32 15.12.2019
6495 Clouds 29 1014 70 10000 1 0 01:43 15.12.2019
6496 Clouds 28 1014 70 10000 1 0 01:20 15.12.2019
6497 Clouds 27 1013 88 10000 1 0 00:53 15.12.2019
6498 Clouds 26 1013 88 10000 1 0 00:34 15.12.2019
6499 Clouds 25 1013 94 10000 2.1 70 23:56 14.12.2019
6500 Clouds 25 1013 94 10000 2.1 70 23:38 14.12.2019
6501 Clouds 25 1013 94 10000 2.1 70 23:18 14.12.2019
6502 Clouds 25 1013 83 10000 1 0 22:56 14.12.2019
6503 Clouds 25 1013 83 10000 1 0 22:37 14.12.2019
6504 Clouds 25 1013 83 10000 1 0 22:18 14.12.2019
6505 Clouds 25 1012 83 10000 0.5 0 21:55 14.12.2019
6506 Clouds 25 1012 83 10000 0.5 0 21:37 14.12.2019
6507 Clouds 25 1012 83 10000 0.5 0 21:18 14.12.2019
6508 Clouds 25 1013 83 10000 0.5 0 20:42 14.12.2019
6509 Clouds 26 1013 83 10000 0.5 0 20:20 14.12.2019
6510 Clouds 26 1013 88 10000 1 0 19:59 14.12.2019
6511 Clouds 26 1013 88 10000 1 0 19:39 14.12.2019
6512 Clouds 26 1013 88 10000 1 0 19:21 14.12.2019
6513 Clouds 26 1013 83 10000 1 0 18:57 14.12.2019
6514 Clouds 26 1013 83 10000 1 0 18:38 14.12.2019
6515 Clouds 26 1013 83 10000 1 0 18:20 14.12.2019
6516 Rain 26 1014 83 10000 1.5 140 17:54 14.12.2019
6517 Rain 26 1014 83 10000 1.5 140 17:36 14.12.2019
6518 Rain 26 1014 83 10000 1.5 140 17:18 14.12.2019
6519 Clouds 27 1014 78 10000 2.1 60 16:40 14.12.2019
6520 Clouds 27 1014 78 10000 2.1 60 16:19 14.12.2019
6521 Clouds 27 1014 74 10000 3.1 110 15:54 14.12.2019
6522 Clouds 27 1014 74 10000 3.1 110 15:36 14.12.2019
6523 Clouds 27 1014 74 10000 3.1 110 15:36 14.12.2019
6524 Clouds 27 1014 74 10000 3.1 110 15:36 14.12.2019
6525 Clouds 27 1014 74 10000 3.1 110 15:18 14.12.2019
6526 Clouds 27 1014 74 10000 2.1 110 14:40 14.12.2019
6527 Clouds 28 1014 74 10000 2.1 110 14:21 14.12.2019
6528 Clouds 28 1014 74 10000 1.5 90 13:59 14.12.2019
6529 Clouds 28 1014 74 10000 1.5 90 13:41 14.12.2019
6530 Clouds 28 1014 74 10000 1.5 90 13:19 14.12.2019
6531 Clouds 28 1013 78 10000 2.6 120 12:56 14.12.2019
6532 Clouds 28 1013 78 10000 2.6 120 12:37 14.12.2019
6533 Clouds 28 1013 78 10000 2.6 120 12:19 14.12.2019
6534 Clouds 28 1012 74 10000 2.1 110 11:56 14.12.2019
6535 Clouds 29 1012 74 10000 2.1 110 11:37 14.12.2019
6536 Clouds 29 1012 74 10000 2.1 110 11:18 14.12.2019
6537 Clouds 29 1012 62 10000 2.6 80 10:56 14.12.2019
6538 Clouds 30 1012 62 10000 2.6 80 10:38 14.12.2019
6539 Clouds 30 1012 62 10000 2.6 80 10:19 14.12.2019
6540 Clouds 30 1012 62 10000 3.1 90 09:42 14.12.2019
6541 Clouds 30 1012 62 10000 3.1 90 09:21 14.12.2019
6542 Clouds 30 1012 59 10000 3.6 100 08:56 14.12.2019
6543 Clouds 30 1012 59 10000 3.6 100 08:56 14.12.2019
6544 Clouds 30 1012 59 10000 3.6 100 08:37 14.12.2019
6545 Clouds 31 1012 59 10000 3.6 100 08:18 14.12.2019
6546 Clouds 31 1012 59 10000 2.6 0 07:40 14.12.2019
6547 Clouds 32 1012 59 10000 2.6 0 07:19 14.12.2019
6548 Clouds 30 1013 74 10000 1.5 260 06:42 14.12.2019
6549 Clouds 30 1013 74 10000 1.5 260 06:22 14.12.2019
6550 Clouds 31 1014 59 10000 2.1 0 05:25 14.12.2019
6551 Clouds 29 1015 70 10000 1.5 30 02:51 14.12.2019
6552 Clouds 29 1015 70 10000 1.5 30 02:23 14.12.2019
6553 Clouds 28 1015 74 10000 2.1 50 01:44 14.12.2019
6554 Clouds 26 1015 88 9000 1.5 80 00:58 14.12.2019
6555 Clouds 25 1015 88 9000 1.5 80 00:40 14.12.2019
6556 Clouds 25 1015 88 9000 1.5 80 00:19 14.12.2019
6557 Clouds 24 1014 88 10000 1 0 23:41 13.12.2019
6558 Clouds 24 1014 88 10000 1 0 23:19 13.12.2019
6559 Clouds 25 1014 83 10000 1 0 22:56 13.12.2019
6560 Clouds 25 1014 83 10000 1 0 22:37 13.12.2019
6561 Clouds 25 1014 83 10000 1 0 22:18 13.12.2019
6562 Clouds 25 1014 83 10000 1.5 330 21:42 13.12.2019
6563 Clouds 25 1014 83 10000 1.5 330 21:21 13.12.2019
6564 Clouds 25 1014 88 10000 0.5 0 20:58 13.12.2019
6565 Clouds 25 1014 88 10000 0.5 0 20:39 13.12.2019
6566 Clouds 25 1014 88 10000 1 0 20:19 13.12.2019
6567 Clouds 25 1014 88 10000 1 0 19:56 13.12.2019
6568 Clouds 25 1014 88 10000 1 0 19:38 13.12.2019
6569 Clouds 25 1014 88 10000 1 0 19:18 13.12.2019
6570 Clouds 25 1015 83 10000 2.1 100 18:42 13.12.2019
6571 Clouds 25 1015 83 10000 2.1 100 18:42 13.12.2019
6572 Clouds 26 1015 83 10000 2.1 100 18:20 13.12.2019
6573 Clouds 25 1015 94 10000 2.6 100 17:59 13.12.2019
6574 Clouds 25 1015 94 10000 2.6 100 17:39 13.12.2019
6575 Clouds 25 1015 94 10000 2.6 100 17:18 13.12.2019
6576 Clouds 25 1015 94 10000 2.6 100 17:18 13.12.2019
6577 Rain 25 1015 94 8000 2.6 110 16:56 13.12.2019
6578 Rain 25 1015 94 8000 2.6 110 16:38 13.12.2019
6579 Rain 25 1015 94 8000 2.6 110 16:19 13.12.2019
6580 Rain 26 1015 74 10000 2.6 100 15:42 13.12.2019
6581 Rain 27 1015 74 10000 2.6 100 15:21 13.12.2019
6582 Rain 27 1015 69 10000 1.5 110 14:57 13.12.2019
6583 Clouds 27 1015 69 10000 1.5 110 14:37 13.12.2019
6584 Clouds 27 1015 69 10000 1.5 110 14:19 13.12.2019
6585 Clouds 27 1015 69 10000 2.6 110 13:43 13.12.2019
6586 Clouds 27 1015 69 10000 2.6 110 13:24 13.12.2019
6587 Clouds 28 1014 74 10000 2.6 110 12:55 13.12.2019
6588 Clouds 28 1014 74 10000 2.6 110 12:37 13.12.2019
6589 Clouds 28 1014 74 10000 2.6 110 12:18 13.12.2019
6590 Clouds 29 1013 58 10000 2.6 100 11:43 13.12.2019
6591 Clouds 29 1013 58 10000 2.6 100 11:24 13.12.2019
6592 Clouds 30 1013 55 10000 3.6 90 10:56 13.12.2019
6593 Clouds 30 1013 55 10000 3.6 90 10:38 13.12.2019
6594 Clouds 30 1013 55 10000 3.6 90 10:19 13.12.2019
6595 Clouds 31 1012 49 10000 4.6 80 09:42 13.12.2019
6596 Clouds 31 1012 49 10000 4.6 80 09:21 13.12.2019
6597 Clouds 31 1012 52 10000 5.1 80 08:45 13.12.2019
6598 Clouds 31 1012 52 10000 5.1 80 08:26 13.12.2019
6599 Clouds 32 1012 59 10000 3.6 110 07:48 13.12.2019
6600 Clouds 32 1012 59 10000 3.6 110 07:25 13.12.2019
6601 Clouds 31 1013 62 10000 2.6 270 06:57 13.12.2019
6602 Clouds 31 1013 62 10000 2.6 270 06:31 13.12.2019
6603 Clouds 31 1014 66 10000 1.5 0 05:51 13.12.2019
6604 Clouds 31 1014 66 10000 1.5 0 05:31 13.12.2019
6605 Clouds 31 1014 66 10000 2.6 0 04:53 13.12.2019
6606 Clouds 31 1015 62 10000 2.6 90 03:50 13.12.2019
6607 Clouds 30 1015 70 10000 1 0 02:35 13.12.2019
6608 Clouds 28 1015 69 10000 1 0 01:50 13.12.2019
6609 Clouds 28 1015 69 10000 1 0 01:21 13.12.2019
6610 Clouds 26 1014 88 10000 1 0 00:46 13.12.2019
6611 Clouds 25 1014 88 10000 1 0 00:24 13.12.2019
6612 Clouds 25 1013 83 10000 1.5 120 23:41 12.12.2019
6613 Clouds 25 1013 83 10000 1.5 120 23:22 12.12.2019
6614 Clouds 25 1013 83 10000 1.5 0 22:56 12.12.2019
6615 Clouds 25 1013 83 10000 1.5 0 22:38 12.12.2019
6616 Clouds 25 1013 83 10000 1.5 0 22:19 12.12.2019
6617 Clouds 25 1013 83 10000 1.5 0 22:19 12.12.2019
6618 Clouds 25 1013 88 10000 0.5 0 21:55 12.12.2019
6619 Clouds 25 1013 88 10000 0.5 0 21:37 12.12.2019
6620 Clouds 25 1013 88 10000 0.5 0 21:19 12.12.2019
6621 Clouds 25 1013 88 10000 4.51 78 20:57 12.12.2019
6622 Clouds 25 1013 88 10000 4.51 78 20:38 12.12.2019
6623 Clouds 25 1013 88 10000 3.68 82 20:20 12.12.2019
6624 Clouds 25 1013 88 10000 2.1 70 19:55 12.12.2019
6625 Clouds 25 1013 88 10000 2.1 70 19:37 12.12.2019
6626 Clouds 25 1013 88 10000 2.1 70 19:18 12.12.2019
6627 Clouds 26 1014 83 10000 0.5 0 18:55 12.12.2019
6628 Clouds 26 1014 83 10000 0.5 0 18:36 12.12.2019
6629 Clouds 26 1014 83 10000 0.5 0 18:18 12.12.2019
6630 Clouds 26 1014 83 10000 1 0 17:41 12.12.2019
6631 Clouds 26 1014 83 10000 1 0 17:21 12.12.2019
6632 Clouds 26 1014 83 10000 1 0 16:59 12.12.2019
6633 Clouds 26 1014 83 10000 1 0 16:41 12.12.2019
6634 Clouds 26 1014 83 10000 1 0 16:21 12.12.2019
6635 Clouds 26 1014 78 10000 1.5 150 15:58 12.12.2019
6636 Clouds 26 1014 78 10000 1.5 150 15:40 12.12.2019
6637 Clouds 26 1014 78 10000 1.5 150 15:19 12.12.2019
6638 Clouds 26 1014 78 10000 1.5 130 14:56 12.12.2019
6639 Clouds 27 1014 78 10000 1.5 130 14:36 12.12.2019
6640 Clouds 27 1014 78 10000 1.5 130 14:18 12.12.2019
6641 Clouds 27 1014 78 10000 1.5 110 13:54 12.12.2019
6642 Clouds 27 1014 78 10000 1.5 110 13:36 12.12.2019
6643 Clouds 27 1014 78 10000 1.5 110 13:18 12.12.2019
6644 Clouds 27 1013 74 10000 3.1 110 12:41 12.12.2019
6645 Clouds 27 1013 74 10000 3.1 110 12:41 12.12.2019
6646 Clouds 27 1013 74 10000 3.1 110 12:22 12.12.2019
6647 Clouds 27 1012 70 10000 3.6 110 11:59 12.12.2019
6648 Clouds 27 1012 70 10000 3.6 110 11:39 12.12.2019
6649 Clouds 27 1012 70 10000 3.6 110 11:39 12.12.2019
6650 Clouds 27 1012 64 10000 3.6 110 11:21 12.12.2019
6651 Clouds 28 1011 66 10000 3.6 100 10:58 12.12.2019
6652 Clouds 28 1011 66 10000 3.6 100 10:40 12.12.2019
6653 Clouds 29 1011 66 10000 3.6 100 10:21 12.12.2019
6654 Clouds 29 1011 66 10000 3.6 100 10:21 12.12.2019
6655 Clouds 30 1011 55 10000 5.7 60 09:56 12.12.2019
6656 Clouds 30 1011 55 10000 5.7 60 09:38 12.12.2019
6657 Clouds 30 1011 55 10000 5.7 60 09:19 12.12.2019
6658 Clouds 30 1011 55 10000 5.7 60 09:19 12.12.2019
6659 Clouds 31 1011 52 10000 4.6 100 08:46 12.12.2019
6660 Clouds 31 1011 52 10000 4.6 100 08:28 12.12.2019
6661 Clouds 31 1011 58 10000 6.2 70 07:50 12.12.2019
6662 Clouds 30 1011 58 10000 6.2 70 07:28 12.12.2019
6663 Clouds 29 1012 70 10000 4.1 110 06:57 12.12.2019
6664 Clouds 29 1012 70 10000 4.1 110 06:36 12.12.2019
6665 Clouds 30 1012 58 10000 2.6 0 05:49 12.12.2019
6666 Clouds 30 1012 58 10000 2.6 0 05:25 12.12.2019
6667 Clouds 28 1013 74 10000 2.1 270 04:28 12.12.2019
6668 Clouds 28 1013 74 10000 1.5 300 02:41 12.12.2019
6669 Clouds 28 1013 74 10000 1.5 300 02:22 12.12.2019
6670 Clouds 28 1013 69 10000 1 0 01:54 12.12.2019
6671 Clouds 27 1013 69 10000 1 0 01:35 12.12.2019
6672 Clouds 27 1012 74 10000 1 0 00:48 12.12.2019
6673 Clouds 26 1012 74 10000 1 0 00:21 12.12.2019
6674 Clouds 26 1011 78 10000 2.1 30 23:54 11.12.2019
6675 Clouds 25 1011 78 10000 2.1 30 23:36 11.12.2019
6676 Clouds 25 1011 78 10000 2.1 30 23:18 11.12.2019
6677 Clouds 25 1011 83 10000 1.5 300 22:55 11.12.2019
6678 Clouds 25